<?xml version="1.0" encoding="UTF-8" standalone="no" ?>
<gpx xmlns="http://www.topografix.com/GPX/1/1" xmlns:xsi="http://www.w3.org/2001/XMLSchema-instance" xsi:schemaLocation="http://www.topografix.com/GPX/1/1 http://www.topografix.com/GPX/1/1/gpx.xsd" version="1.1" creator="VisuGPX - https://www.visugpx.com">
  <metadata>
    <name>MB. Sortie du 03/11/2019</name>
    <desc><![CDATA[Sortie VTT du dimanche 03 novembre 2019]]></desc>
  </metadata>
  <trk>
    <name><![CDATA[Pornichet Cyclisme]]></name>
    <trkseg>
      <trkpt lat="47.26399" lon="-2.31632">
        <ele>197.39999389648</ele>
        <time>2019-11-03T07:58:20.000Z</time>
      </trkpt>
      <trkpt lat="47.26387" lon="-2.31641">
        <ele>197.39999389648</ele>
        <time>2019-11-03T07:58:23.000Z</time>
      </trkpt>
      <trkpt lat="47.26381" lon="-2.31644">
        <ele>197.60000610352</ele>
        <time>2019-11-03T07:58:24.000Z</time>
      </trkpt>
      <trkpt lat="47.26371" lon="-2.31651">
        <ele>197.60000610352</ele>
        <time>2019-11-03T07:58:26.000Z</time>
      </trkpt>
      <trkpt lat="47.2635" lon="-2.31665">
        <ele>197.60000610352</ele>
        <time>2019-11-03T07:58:30.000Z</time>
      </trkpt>
      <trkpt lat="47.26338" lon="-2.31672">
        <ele>197.60000610352</ele>
        <time>2019-11-03T07:58:32.000Z</time>
      </trkpt>
      <trkpt lat="47.26332" lon="-2.31674">
        <ele>197.60000610352</ele>
        <time>2019-11-03T07:58:33.000Z</time>
      </trkpt>
      <trkpt lat="47.26318" lon="-2.31682">
        <ele>197.60000610352</ele>
        <time>2019-11-03T07:58:36.000Z</time>
      </trkpt>
      <trkpt lat="47.26315" lon="-2.31685">
        <ele>197</ele>
        <time>2019-11-03T07:58:37.000Z</time>
      </trkpt>
      <trkpt lat="47.26312" lon="-2.31689">
        <ele>196.19999694824</ele>
        <time>2019-11-03T07:58:38.000Z</time>
      </trkpt>
      <trkpt lat="47.26311" lon="-2.31694">
        <ele>195.60000610352</ele>
        <time>2019-11-03T07:58:39.000Z</time>
      </trkpt>
      <trkpt lat="47.26311" lon="-2.317">
        <ele>195.19999694824</ele>
        <time>2019-11-03T07:58:40.000Z</time>
      </trkpt>
      <trkpt lat="47.26311" lon="-2.31712">
        <ele>195.19999694824</ele>
        <time>2019-11-03T07:58:42.000Z</time>
      </trkpt>
      <trkpt lat="47.26311" lon="-2.31719">
        <ele>195.19999694824</ele>
        <time>2019-11-03T07:58:43.000Z</time>
      </trkpt>
      <trkpt lat="47.26314" lon="-2.31758">
        <ele>195.19999694824</ele>
        <time>2019-11-03T07:58:49.000Z</time>
      </trkpt>
      <trkpt lat="47.26314" lon="-2.31789">
        <ele>195.19999694824</ele>
        <time>2019-11-03T07:58:54.000Z</time>
      </trkpt>
      <trkpt lat="47.26313" lon="-2.31803">
        <ele>195.19999694824</ele>
        <time>2019-11-03T07:58:56.000Z</time>
      </trkpt>
      <trkpt lat="47.26312" lon="-2.31817">
        <ele>195.19999694824</ele>
        <time>2019-11-03T07:58:58.000Z</time>
      </trkpt>
      <trkpt lat="47.26312" lon="-2.31836">
        <ele>195.19999694824</ele>
        <time>2019-11-03T07:59:02.000Z</time>
      </trkpt>
      <trkpt lat="47.26311" lon="-2.31839">
        <ele>195.19999694824</ele>
        <time>2019-11-03T07:59:03.000Z</time>
      </trkpt>
      <trkpt lat="47.26305" lon="-2.31848">
        <ele>195.19999694824</ele>
        <time>2019-11-03T07:59:06.000Z</time>
      </trkpt>
      <trkpt lat="47.2629" lon="-2.31865">
        <ele>195.19999694824</ele>
        <time>2019-11-03T07:59:11.000Z</time>
      </trkpt>
      <trkpt lat="47.26282" lon="-2.31878">
        <ele>195.19999694824</ele>
        <time>2019-11-03T07:59:14.000Z</time>
      </trkpt>
      <trkpt lat="47.26276" lon="-2.31887">
        <ele>195.19999694824</ele>
        <time>2019-11-03T07:59:16.000Z</time>
      </trkpt>
      <trkpt lat="47.2627" lon="-2.31898">
        <ele>195.19999694824</ele>
        <time>2019-11-03T07:59:18.000Z</time>
      </trkpt>
      <trkpt lat="47.26266" lon="-2.31908">
        <ele>195.19999694824</ele>
        <time>2019-11-03T07:59:20.000Z</time>
      </trkpt>
      <trkpt lat="47.2626" lon="-2.31922">
        <ele>194.80000305176</ele>
        <time>2019-11-03T07:59:23.000Z</time>
      </trkpt>
      <trkpt lat="47.26258" lon="-2.31924">
        <ele>194.39999389648</ele>
        <time>2019-11-03T07:59:24.000Z</time>
      </trkpt>
      <trkpt lat="47.26255" lon="-2.31926">
        <ele>194</ele>
        <time>2019-11-03T07:59:25.000Z</time>
      </trkpt>
      <trkpt lat="47.26253" lon="-2.31926">
        <ele>193.60000610352</ele>
        <time>2019-11-03T07:59:26.000Z</time>
      </trkpt>
      <trkpt lat="47.26251" lon="-2.31927">
        <ele>193.19999694824</ele>
        <time>2019-11-03T07:59:27.000Z</time>
      </trkpt>
      <trkpt lat="47.26249" lon="-2.31928">
        <ele>193.19999694824</ele>
        <time>2019-11-03T07:59:28.000Z</time>
      </trkpt>
      <trkpt lat="47.26241" lon="-2.31936">
        <ele>193.19999694824</ele>
        <time>2019-11-03T07:59:33.000Z</time>
      </trkpt>
      <trkpt lat="47.26232" lon="-2.31942">
        <ele>193.19999694824</ele>
        <time>2019-11-03T07:59:37.000Z</time>
      </trkpt>
      <trkpt lat="47.26226" lon="-2.31946">
        <ele>193.19999694824</ele>
        <time>2019-11-03T07:59:40.000Z</time>
      </trkpt>
      <trkpt lat="47.26226" lon="-2.31949">
        <ele>193.19999694824</ele>
        <time>2019-11-03T07:59:41.000Z</time>
      </trkpt>
      <trkpt lat="47.26225" lon="-2.31956">
        <ele>193.19999694824</ele>
        <time>2019-11-03T07:59:44.000Z</time>
      </trkpt>
      <trkpt lat="47.26223" lon="-2.31958">
        <ele>193.19999694824</ele>
        <time>2019-11-03T07:59:46.000Z</time>
      </trkpt>
      <trkpt lat="47.26214" lon="-2.31961">
        <ele>193.19999694824</ele>
        <time>2019-11-03T07:59:51.000Z</time>
      </trkpt>
      <trkpt lat="47.26203" lon="-2.31965">
        <ele>193.19999694824</ele>
        <time>2019-11-03T07:59:54.000Z</time>
      </trkpt>
      <trkpt lat="47.26199" lon="-2.31966">
        <ele>193.19999694824</ele>
        <time>2019-11-03T07:59:56.000Z</time>
      </trkpt>
      <trkpt lat="47.2619" lon="-2.31969">
        <ele>193.19999694824</ele>
        <time>2019-11-03T07:59:58.000Z</time>
      </trkpt>
      <trkpt lat="47.26182" lon="-2.31978">
        <ele>193.19999694824</ele>
        <time>2019-11-03T08:00:00.000Z</time>
      </trkpt>
      <trkpt lat="47.26177" lon="-2.31991">
        <ele>193.19999694824</ele>
        <time>2019-11-03T08:00:02.000Z</time>
      </trkpt>
      <trkpt lat="47.26175" lon="-2.31997">
        <ele>193.19999694824</ele>
        <time>2019-11-03T08:00:03.000Z</time>
      </trkpt>
      <trkpt lat="47.26174" lon="-2.32004">
        <ele>193.19999694824</ele>
        <time>2019-11-03T08:00:04.000Z</time>
      </trkpt>
      <trkpt lat="47.26166" lon="-2.32032">
        <ele>193.19999694824</ele>
        <time>2019-11-03T08:00:08.000Z</time>
      </trkpt>
      <trkpt lat="47.26165" lon="-2.32039">
        <ele>193.19999694824</ele>
        <time>2019-11-03T08:00:09.000Z</time>
      </trkpt>
      <trkpt lat="47.26163" lon="-2.32045">
        <ele>193.19999694824</ele>
        <time>2019-11-03T08:00:10.000Z</time>
      </trkpt>
      <trkpt lat="47.26152" lon="-2.32082">
        <ele>193.19999694824</ele>
        <time>2019-11-03T08:00:15.000Z</time>
      </trkpt>
      <trkpt lat="47.2615" lon="-2.32089">
        <ele>193.19999694824</ele>
        <time>2019-11-03T08:00:16.000Z</time>
      </trkpt>
      <trkpt lat="47.26142" lon="-2.32111">
        <ele>193.19999694824</ele>
        <time>2019-11-03T08:00:19.000Z</time>
      </trkpt>
      <trkpt lat="47.26132" lon="-2.32132">
        <ele>193.19999694824</ele>
        <time>2019-11-03T08:00:22.000Z</time>
      </trkpt>
      <trkpt lat="47.26112" lon="-2.32168">
        <ele>193.19999694824</ele>
        <time>2019-11-03T08:00:28.000Z</time>
      </trkpt>
      <trkpt lat="47.26084" lon="-2.32205">
        <ele>193.19999694824</ele>
        <time>2019-11-03T08:00:35.000Z</time>
      </trkpt>
      <trkpt lat="47.26066" lon="-2.32223">
        <ele>193.19999694824</ele>
        <time>2019-11-03T08:00:39.000Z</time>
      </trkpt>
      <trkpt lat="47.26057" lon="-2.32233">
        <ele>193.19999694824</ele>
        <time>2019-11-03T08:00:41.000Z</time>
      </trkpt>
      <trkpt lat="47.26023" lon="-2.32274">
        <ele>193.19999694824</ele>
        <time>2019-11-03T08:00:49.000Z</time>
      </trkpt>
      <trkpt lat="47.25998" lon="-2.32307">
        <ele>193.19999694824</ele>
        <time>2019-11-03T08:00:55.000Z</time>
      </trkpt>
      <trkpt lat="47.25966" lon="-2.32347">
        <ele>193.19999694824</ele>
        <time>2019-11-03T08:01:01.000Z</time>
      </trkpt>
      <trkpt lat="47.25936" lon="-2.32388">
        <ele>192.39999389648</ele>
        <time>2019-11-03T08:01:07.000Z</time>
      </trkpt>
      <trkpt lat="47.25931" lon="-2.32394">
        <ele>192</ele>
        <time>2019-11-03T08:01:08.000Z</time>
      </trkpt>
      <trkpt lat="47.25927" lon="-2.324">
        <ele>191.39999389648</ele>
        <time>2019-11-03T08:01:09.000Z</time>
      </trkpt>
      <trkpt lat="47.25922" lon="-2.32405">
        <ele>191</ele>
        <time>2019-11-03T08:01:10.000Z</time>
      </trkpt>
      <trkpt lat="47.25918" lon="-2.3241">
        <ele>191</ele>
        <time>2019-11-03T08:01:11.000Z</time>
      </trkpt>
      <trkpt lat="47.25902" lon="-2.3243">
        <ele>191</ele>
        <time>2019-11-03T08:01:15.000Z</time>
      </trkpt>
      <trkpt lat="47.25893" lon="-2.32436">
        <ele>191</ele>
        <time>2019-11-03T08:01:17.000Z</time>
      </trkpt>
      <trkpt lat="47.25861" lon="-2.32448">
        <ele>191</ele>
        <time>2019-11-03T08:01:23.000Z</time>
      </trkpt>
      <trkpt lat="47.25855" lon="-2.32448">
        <ele>191</ele>
        <time>2019-11-03T08:01:24.000Z</time>
      </trkpt>
      <trkpt lat="47.25838" lon="-2.32443">
        <ele>191</ele>
        <time>2019-11-03T08:01:27.000Z</time>
      </trkpt>
      <trkpt lat="47.25833" lon="-2.3244">
        <ele>191</ele>
        <time>2019-11-03T08:01:28.000Z</time>
      </trkpt>
      <trkpt lat="47.25803" lon="-2.3243">
        <ele>191</ele>
        <time>2019-11-03T08:01:34.000Z</time>
      </trkpt>
      <trkpt lat="47.25791" lon="-2.3243">
        <ele>191.60000610352</ele>
        <time>2019-11-03T08:01:37.000Z</time>
      </trkpt>
      <trkpt lat="47.25787" lon="-2.32428">
        <ele>192</ele>
        <time>2019-11-03T08:01:38.000Z</time>
      </trkpt>
      <trkpt lat="47.25784" lon="-2.32425">
        <ele>192.39999389648</ele>
        <time>2019-11-03T08:01:39.000Z</time>
      </trkpt>
      <trkpt lat="47.25781" lon="-2.32421">
        <ele>192.80000305176</ele>
        <time>2019-11-03T08:01:40.000Z</time>
      </trkpt>
      <trkpt lat="47.25778" lon="-2.32416">
        <ele>193.19999694824</ele>
        <time>2019-11-03T08:01:41.000Z</time>
      </trkpt>
      <trkpt lat="47.25771" lon="-2.32406">
        <ele>193.19999694824</ele>
        <time>2019-11-03T08:01:43.000Z</time>
      </trkpt>
      <trkpt lat="47.25757" lon="-2.32401">
        <ele>193.19999694824</ele>
        <time>2019-11-03T08:01:46.000Z</time>
      </trkpt>
      <trkpt lat="47.25746" lon="-2.324">
        <ele>193.19999694824</ele>
        <time>2019-11-03T08:01:48.000Z</time>
      </trkpt>
      <trkpt lat="47.25728" lon="-2.32398">
        <ele>193.19999694824</ele>
        <time>2019-11-03T08:01:51.000Z</time>
      </trkpt>
      <trkpt lat="47.25692" lon="-2.32393">
        <ele>193.19999694824</ele>
        <time>2019-11-03T08:01:57.000Z</time>
      </trkpt>
      <trkpt lat="47.25681" lon="-2.32391">
        <ele>193.19999694824</ele>
        <time>2019-11-03T08:01:59.000Z</time>
      </trkpt>
      <trkpt lat="47.25671" lon="-2.32396">
        <ele>193.19999694824</ele>
        <time>2019-11-03T08:02:01.000Z</time>
      </trkpt>
      <trkpt lat="47.25668" lon="-2.32416">
        <ele>193.19999694824</ele>
        <time>2019-11-03T08:02:04.000Z</time>
      </trkpt>
      <trkpt lat="47.25672" lon="-2.3243">
        <ele>193.19999694824</ele>
        <time>2019-11-03T08:02:06.000Z</time>
      </trkpt>
      <trkpt lat="47.25674" lon="-2.32436">
        <ele>193.80000305176</ele>
        <time>2019-11-03T08:02:07.000Z</time>
      </trkpt>
      <trkpt lat="47.25675" lon="-2.32442">
        <ele>194.19999694824</ele>
        <time>2019-11-03T08:02:08.000Z</time>
      </trkpt>
      <trkpt lat="47.25677" lon="-2.32448">
        <ele>194.80000305176</ele>
        <time>2019-11-03T08:02:09.000Z</time>
      </trkpt>
      <trkpt lat="47.25679" lon="-2.32453">
        <ele>195.39999389648</ele>
        <time>2019-11-03T08:02:10.000Z</time>
      </trkpt>
      <trkpt lat="47.25681" lon="-2.32458">
        <ele>196</ele>
        <time>2019-11-03T08:02:11.000Z</time>
      </trkpt>
      <trkpt lat="47.2569" lon="-2.32487">
        <ele>196</ele>
        <time>2019-11-03T08:02:16.000Z</time>
      </trkpt>
      <trkpt lat="47.25702" lon="-2.32526">
        <ele>196</ele>
        <time>2019-11-03T08:02:23.000Z</time>
      </trkpt>
      <trkpt lat="47.25706" lon="-2.32537">
        <ele>196.39999389648</ele>
        <time>2019-11-03T08:02:25.000Z</time>
      </trkpt>
      <trkpt lat="47.25707" lon="-2.32543">
        <ele>196.80000305176</ele>
        <time>2019-11-03T08:02:26.000Z</time>
      </trkpt>
      <trkpt lat="47.2571" lon="-2.3255">
        <ele>197.19999694824</ele>
        <time>2019-11-03T08:02:27.000Z</time>
      </trkpt>
      <trkpt lat="47.25712" lon="-2.32556">
        <ele>197.60000610352</ele>
        <time>2019-11-03T08:02:28.000Z</time>
      </trkpt>
      <trkpt lat="47.25714" lon="-2.32563">
        <ele>198.19999694824</ele>
        <time>2019-11-03T08:02:29.000Z</time>
      </trkpt>
      <trkpt lat="47.25717" lon="-2.32575">
        <ele>198.19999694824</ele>
        <time>2019-11-03T08:02:31.000Z</time>
      </trkpt>
      <trkpt lat="47.25718" lon="-2.32582">
        <ele>198.19999694824</ele>
        <time>2019-11-03T08:02:32.000Z</time>
      </trkpt>
      <trkpt lat="47.25712" lon="-2.32596">
        <ele>198.19999694824</ele>
        <time>2019-11-03T08:02:35.000Z</time>
      </trkpt>
      <trkpt lat="47.25701" lon="-2.32604">
        <ele>198.19999694824</ele>
        <time>2019-11-03T08:02:38.000Z</time>
      </trkpt>
      <trkpt lat="47.25697" lon="-2.32606">
        <ele>198.19999694824</ele>
        <time>2019-11-03T08:02:39.000Z</time>
      </trkpt>
      <trkpt lat="47.25693" lon="-2.32609">
        <ele>198.60000610352</ele>
        <time>2019-11-03T08:02:40.000Z</time>
      </trkpt>
      <trkpt lat="47.2569" lon="-2.32612">
        <ele>199</ele>
        <time>2019-11-03T08:02:41.000Z</time>
      </trkpt>
      <trkpt lat="47.25686" lon="-2.32615">
        <ele>199.39999389648</ele>
        <time>2019-11-03T08:02:42.000Z</time>
      </trkpt>
      <trkpt lat="47.25682" lon="-2.32618">
        <ele>199.80000305176</ele>
        <time>2019-11-03T08:02:43.000Z</time>
      </trkpt>
      <trkpt lat="47.25678" lon="-2.3262">
        <ele>200.19999694824</ele>
        <time>2019-11-03T08:02:44.000Z</time>
      </trkpt>
      <trkpt lat="47.2567" lon="-2.32624">
        <ele>200.19999694824</ele>
        <time>2019-11-03T08:02:46.000Z</time>
      </trkpt>
      <trkpt lat="47.25645" lon="-2.32637">
        <ele>200.19999694824</ele>
        <time>2019-11-03T08:02:52.000Z</time>
      </trkpt>
      <trkpt lat="47.25637" lon="-2.32641">
        <ele>200.19999694824</ele>
        <time>2019-11-03T08:02:54.000Z</time>
      </trkpt>
      <trkpt lat="47.2562" lon="-2.3265">
        <ele>200.19999694824</ele>
        <time>2019-11-03T08:02:58.000Z</time>
      </trkpt>
      <trkpt lat="47.25606" lon="-2.32655">
        <ele>200.19999694824</ele>
        <time>2019-11-03T08:03:01.000Z</time>
      </trkpt>
      <trkpt lat="47.25577" lon="-2.32669">
        <ele>200.19999694824</ele>
        <time>2019-11-03T08:03:07.000Z</time>
      </trkpt>
      <trkpt lat="47.25567" lon="-2.32673">
        <ele>200.19999694824</ele>
        <time>2019-11-03T08:03:09.000Z</time>
      </trkpt>
      <trkpt lat="47.25536" lon="-2.32685">
        <ele>200.19999694824</ele>
        <time>2019-11-03T08:03:15.000Z</time>
      </trkpt>
      <trkpt lat="47.25531" lon="-2.32687">
        <ele>200.19999694824</ele>
        <time>2019-11-03T08:03:16.000Z</time>
      </trkpt>
      <trkpt lat="47.25509" lon="-2.32689">
        <ele>200.19999694824</ele>
        <time>2019-11-03T08:03:20.000Z</time>
      </trkpt>
      <trkpt lat="47.25498" lon="-2.32693">
        <ele>200.19999694824</ele>
        <time>2019-11-03T08:03:22.000Z</time>
      </trkpt>
      <trkpt lat="47.25484" lon="-2.32705">
        <ele>200.19999694824</ele>
        <time>2019-11-03T08:03:25.000Z</time>
      </trkpt>
      <trkpt lat="47.2548" lon="-2.3271">
        <ele>200.19999694824</ele>
        <time>2019-11-03T08:03:26.000Z</time>
      </trkpt>
      <trkpt lat="47.25455" lon="-2.32744">
        <ele>200.19999694824</ele>
        <time>2019-11-03T08:03:32.000Z</time>
      </trkpt>
      <trkpt lat="47.25449" lon="-2.32757">
        <ele>200.19999694824</ele>
        <time>2019-11-03T08:03:34.000Z</time>
      </trkpt>
      <trkpt lat="47.2544" lon="-2.32776">
        <ele>200.19999694824</ele>
        <time>2019-11-03T08:03:37.000Z</time>
      </trkpt>
      <trkpt lat="47.25436" lon="-2.32782">
        <ele>200.19999694824</ele>
        <time>2019-11-03T08:03:38.000Z</time>
      </trkpt>
      <trkpt lat="47.2541" lon="-2.32819">
        <ele>200.19999694824</ele>
        <time>2019-11-03T08:03:44.000Z</time>
      </trkpt>
      <trkpt lat="47.25396" lon="-2.32837">
        <ele>199.80000305176</ele>
        <time>2019-11-03T08:03:47.000Z</time>
      </trkpt>
      <trkpt lat="47.25391" lon="-2.32842">
        <ele>199.39999389648</ele>
        <time>2019-11-03T08:03:48.000Z</time>
      </trkpt>
      <trkpt lat="47.25386" lon="-2.32847">
        <ele>199</ele>
        <time>2019-11-03T08:03:49.000Z</time>
      </trkpt>
      <trkpt lat="47.25381" lon="-2.32852">
        <ele>198.60000610352</ele>
        <time>2019-11-03T08:03:50.000Z</time>
      </trkpt>
      <trkpt lat="47.25376" lon="-2.32857">
        <ele>198.19999694824</ele>
        <time>2019-11-03T08:03:51.000Z</time>
      </trkpt>
      <trkpt lat="47.25342" lon="-2.3289">
        <ele>198.19999694824</ele>
        <time>2019-11-03T08:03:58.000Z</time>
      </trkpt>
      <trkpt lat="47.25328" lon="-2.32904">
        <ele>198.19999694824</ele>
        <time>2019-11-03T08:04:01.000Z</time>
      </trkpt>
      <trkpt lat="47.25317" lon="-2.32926">
        <ele>198.19999694824</ele>
        <time>2019-11-03T08:04:04.000Z</time>
      </trkpt>
      <trkpt lat="47.2532" lon="-2.3295">
        <ele>198.19999694824</ele>
        <time>2019-11-03T08:04:07.000Z</time>
      </trkpt>
      <trkpt lat="47.25321" lon="-2.32958">
        <ele>198.19999694824</ele>
        <time>2019-11-03T08:04:08.000Z</time>
      </trkpt>
      <trkpt lat="47.25334" lon="-2.33">
        <ele>198.19999694824</ele>
        <time>2019-11-03T08:04:14.000Z</time>
      </trkpt>
      <trkpt lat="47.25351" lon="-2.33048">
        <ele>198.19999694824</ele>
        <time>2019-11-03T08:04:21.000Z</time>
      </trkpt>
      <trkpt lat="47.25362" lon="-2.33081">
        <ele>198.19999694824</ele>
        <time>2019-11-03T08:04:26.000Z</time>
      </trkpt>
      <trkpt lat="47.25377" lon="-2.33119">
        <ele>198.19999694824</ele>
        <time>2019-11-03T08:04:33.000Z</time>
      </trkpt>
      <trkpt lat="47.25379" lon="-2.33124">
        <ele>198.19999694824</ele>
        <time>2019-11-03T08:04:37.000Z</time>
      </trkpt>
      <trkpt lat="47.25379" lon="-2.33123">
        <ele>196</ele>
        <time>2019-11-03T08:07:18.000Z</time>
      </trkpt>
      <trkpt lat="47.25381" lon="-2.33128">
        <ele>196</ele>
        <time>2019-11-03T08:07:20.000Z</time>
      </trkpt>
      <trkpt lat="47.25389" lon="-2.33138">
        <ele>196</ele>
        <time>2019-11-03T08:07:24.000Z</time>
      </trkpt>
      <trkpt lat="47.25402" lon="-2.33132">
        <ele>196</ele>
        <time>2019-11-03T08:07:28.000Z</time>
      </trkpt>
      <trkpt lat="47.25422" lon="-2.33123">
        <ele>196</ele>
        <time>2019-11-03T08:07:33.000Z</time>
      </trkpt>
      <trkpt lat="47.25427" lon="-2.33121">
        <ele>196</ele>
        <time>2019-11-03T08:07:34.000Z</time>
      </trkpt>
      <trkpt lat="47.25457" lon="-2.33108">
        <ele>196</ele>
        <time>2019-11-03T08:07:41.000Z</time>
      </trkpt>
      <trkpt lat="47.25476" lon="-2.33098">
        <ele>196</ele>
        <time>2019-11-03T08:07:46.000Z</time>
      </trkpt>
      <trkpt lat="47.2548" lon="-2.33096">
        <ele>196</ele>
        <time>2019-11-03T08:07:47.000Z</time>
      </trkpt>
      <trkpt lat="47.25494" lon="-2.33084">
        <ele>196</ele>
        <time>2019-11-03T08:07:52.000Z</time>
      </trkpt>
      <trkpt lat="47.25497" lon="-2.33094">
        <ele>196.39999389648</ele>
        <time>2019-11-03T08:07:55.000Z</time>
      </trkpt>
      <trkpt lat="47.25497" lon="-2.33099">
        <ele>197</ele>
        <time>2019-11-03T08:07:56.000Z</time>
      </trkpt>
      <trkpt lat="47.25498" lon="-2.33104">
        <ele>197.39999389648</ele>
        <time>2019-11-03T08:07:57.000Z</time>
      </trkpt>
      <trkpt lat="47.25499" lon="-2.3311">
        <ele>197.80000305176</ele>
        <time>2019-11-03T08:07:58.000Z</time>
      </trkpt>
      <trkpt lat="47.255" lon="-2.33116">
        <ele>198.19999694824</ele>
        <time>2019-11-03T08:07:59.000Z</time>
      </trkpt>
      <trkpt lat="47.25501" lon="-2.33127">
        <ele>198.19999694824</ele>
        <time>2019-11-03T08:08:01.000Z</time>
      </trkpt>
      <trkpt lat="47.25504" lon="-2.33149">
        <ele>198.19999694824</ele>
        <time>2019-11-03T08:08:06.000Z</time>
      </trkpt>
      <trkpt lat="47.25506" lon="-2.33162">
        <ele>198.19999694824</ele>
        <time>2019-11-03T08:08:13.000Z</time>
      </trkpt>
      <trkpt lat="47.25507" lon="-2.33168">
        <ele>198.19999694824</ele>
        <time>2019-11-03T08:08:17.000Z</time>
      </trkpt>
      <trkpt lat="47.25507" lon="-2.33175">
        <ele>198.19999694824</ele>
        <time>2019-11-03T08:09:34.000Z</time>
      </trkpt>
      <trkpt lat="47.2551" lon="-2.33201">
        <ele>198.19999694824</ele>
        <time>2019-11-03T08:09:40.000Z</time>
      </trkpt>
      <trkpt lat="47.25512" lon="-2.33212">
        <ele>198.60000610352</ele>
        <time>2019-11-03T08:09:42.000Z</time>
      </trkpt>
      <trkpt lat="47.25513" lon="-2.33217">
        <ele>199</ele>
        <time>2019-11-03T08:09:43.000Z</time>
      </trkpt>
      <trkpt lat="47.25514" lon="-2.33223">
        <ele>200</ele>
        <time>2019-11-03T08:09:44.000Z</time>
      </trkpt>
      <trkpt lat="47.25514" lon="-2.33229">
        <ele>200.39999389648</ele>
        <time>2019-11-03T08:09:45.000Z</time>
      </trkpt>
      <trkpt lat="47.25517" lon="-2.33247">
        <ele>200.39999389648</ele>
        <time>2019-11-03T08:09:48.000Z</time>
      </trkpt>
      <trkpt lat="47.25522" lon="-2.3329">
        <ele>200.39999389648</ele>
        <time>2019-11-03T08:09:55.000Z</time>
      </trkpt>
      <trkpt lat="47.25528" lon="-2.33326">
        <ele>200.39999389648</ele>
        <time>2019-11-03T08:10:02.000Z</time>
      </trkpt>
      <trkpt lat="47.25531" lon="-2.33348">
        <ele>200.39999389648</ele>
        <time>2019-11-03T08:10:08.000Z</time>
      </trkpt>
      <trkpt lat="47.25535" lon="-2.33377">
        <ele>200.39999389648</ele>
        <time>2019-11-03T08:10:13.000Z</time>
      </trkpt>
      <trkpt lat="47.25536" lon="-2.33384">
        <ele>200.39999389648</ele>
        <time>2019-11-03T08:10:14.000Z</time>
      </trkpt>
      <trkpt lat="47.25544" lon="-2.3342">
        <ele>200.39999389648</ele>
        <time>2019-11-03T08:10:19.000Z</time>
      </trkpt>
      <trkpt lat="47.25552" lon="-2.33442">
        <ele>200.39999389648</ele>
        <time>2019-11-03T08:10:22.000Z</time>
      </trkpt>
      <trkpt lat="47.2556" lon="-2.33463">
        <ele>200.39999389648</ele>
        <time>2019-11-03T08:10:25.000Z</time>
      </trkpt>
      <trkpt lat="47.25563" lon="-2.3347">
        <ele>200.39999389648</ele>
        <time>2019-11-03T08:10:26.000Z</time>
      </trkpt>
      <trkpt lat="47.25573" lon="-2.3349">
        <ele>200.39999389648</ele>
        <time>2019-11-03T08:10:29.000Z</time>
      </trkpt>
      <trkpt lat="47.25576" lon="-2.33496">
        <ele>200.39999389648</ele>
        <time>2019-11-03T08:10:30.000Z</time>
      </trkpt>
      <trkpt lat="47.25599" lon="-2.33525">
        <ele>200.39999389648</ele>
        <time>2019-11-03T08:10:36.000Z</time>
      </trkpt>
      <trkpt lat="47.25631" lon="-2.33555">
        <ele>200.39999389648</ele>
        <time>2019-11-03T08:10:44.000Z</time>
      </trkpt>
      <trkpt lat="47.25653" lon="-2.33567">
        <ele>200.39999389648</ele>
        <time>2019-11-03T08:10:49.000Z</time>
      </trkpt>
      <trkpt lat="47.25658" lon="-2.33569">
        <ele>200.39999389648</ele>
        <time>2019-11-03T08:10:50.000Z</time>
      </trkpt>
      <trkpt lat="47.25695" lon="-2.33579">
        <ele>200.39999389648</ele>
        <time>2019-11-03T08:10:58.000Z</time>
      </trkpt>
      <trkpt lat="47.25733" lon="-2.33578">
        <ele>200.39999389648</ele>
        <time>2019-11-03T08:11:06.000Z</time>
      </trkpt>
      <trkpt lat="47.25747" lon="-2.33575">
        <ele>200.39999389648</ele>
        <time>2019-11-03T08:11:09.000Z</time>
      </trkpt>
      <trkpt lat="47.25761" lon="-2.33575">
        <ele>200.39999389648</ele>
        <time>2019-11-03T08:11:12.000Z</time>
      </trkpt>
      <trkpt lat="47.25766" lon="-2.33575">
        <ele>200.39999389648</ele>
        <time>2019-11-03T08:11:13.000Z</time>
      </trkpt>
      <trkpt lat="47.25802" lon="-2.33573">
        <ele>200.39999389648</ele>
        <time>2019-11-03T08:11:21.000Z</time>
      </trkpt>
      <trkpt lat="47.25832" lon="-2.33572">
        <ele>200.39999389648</ele>
        <time>2019-11-03T08:11:28.000Z</time>
      </trkpt>
      <trkpt lat="47.25863" lon="-2.33571">
        <ele>200.39999389648</ele>
        <time>2019-11-03T08:11:35.000Z</time>
      </trkpt>
      <trkpt lat="47.25867" lon="-2.33569">
        <ele>200.39999389648</ele>
        <time>2019-11-03T08:11:36.000Z</time>
      </trkpt>
      <trkpt lat="47.2588" lon="-2.33562">
        <ele>200.39999389648</ele>
        <time>2019-11-03T08:11:39.000Z</time>
      </trkpt>
      <trkpt lat="47.25885" lon="-2.3356">
        <ele>200.39999389648</ele>
        <time>2019-11-03T08:11:40.000Z</time>
      </trkpt>
      <trkpt lat="47.25894" lon="-2.33555">
        <ele>200.39999389648</ele>
        <time>2019-11-03T08:11:42.000Z</time>
      </trkpt>
      <trkpt lat="47.25899" lon="-2.33551">
        <ele>200</ele>
        <time>2019-11-03T08:11:43.000Z</time>
      </trkpt>
      <trkpt lat="47.25903" lon="-2.33547">
        <ele>199.60000610352</ele>
        <time>2019-11-03T08:11:44.000Z</time>
      </trkpt>
      <trkpt lat="47.25907" lon="-2.33543">
        <ele>199.19999694824</ele>
        <time>2019-11-03T08:11:45.000Z</time>
      </trkpt>
      <trkpt lat="47.25911" lon="-2.3354">
        <ele>198.80000305176</ele>
        <time>2019-11-03T08:11:46.000Z</time>
      </trkpt>
      <trkpt lat="47.25916" lon="-2.33536">
        <ele>198.39999389648</ele>
        <time>2019-11-03T08:11:47.000Z</time>
      </trkpt>
      <trkpt lat="47.25929" lon="-2.33525">
        <ele>198.39999389648</ele>
        <time>2019-11-03T08:11:50.000Z</time>
      </trkpt>
      <trkpt lat="47.25943" lon="-2.33514">
        <ele>198.39999389648</ele>
        <time>2019-11-03T08:11:54.000Z</time>
      </trkpt>
      <trkpt lat="47.2596" lon="-2.33499">
        <ele>198.39999389648</ele>
        <time>2019-11-03T08:11:59.000Z</time>
      </trkpt>
      <trkpt lat="47.25964" lon="-2.33496">
        <ele>198.39999389648</ele>
        <time>2019-11-03T08:12:00.000Z</time>
      </trkpt>
      <trkpt lat="47.25968" lon="-2.33494">
        <ele>198.39999389648</ele>
        <time>2019-11-03T08:12:01.000Z</time>
      </trkpt>
      <trkpt lat="47.25982" lon="-2.33492">
        <ele>198.39999389648</ele>
        <time>2019-11-03T08:12:04.000Z</time>
      </trkpt>
      <trkpt lat="47.25996" lon="-2.3349">
        <ele>198</ele>
        <time>2019-11-03T08:12:07.000Z</time>
      </trkpt>
      <trkpt lat="47.26001" lon="-2.33489">
        <ele>197.60000610352</ele>
        <time>2019-11-03T08:12:08.000Z</time>
      </trkpt>
      <trkpt lat="47.26006" lon="-2.33488">
        <ele>197.19999694824</ele>
        <time>2019-11-03T08:12:09.000Z</time>
      </trkpt>
      <trkpt lat="47.26012" lon="-2.33487">
        <ele>196.60000610352</ele>
        <time>2019-11-03T08:12:10.000Z</time>
      </trkpt>
      <trkpt lat="47.26016" lon="-2.33486">
        <ele>196.19999694824</ele>
        <time>2019-11-03T08:12:11.000Z</time>
      </trkpt>
      <trkpt lat="47.26026" lon="-2.33483">
        <ele>196.19999694824</ele>
        <time>2019-11-03T08:12:13.000Z</time>
      </trkpt>
      <trkpt lat="47.26035" lon="-2.33473">
        <ele>196.19999694824</ele>
        <time>2019-11-03T08:12:15.000Z</time>
      </trkpt>
      <trkpt lat="47.26041" lon="-2.3346">
        <ele>196.19999694824</ele>
        <time>2019-11-03T08:12:17.000Z</time>
      </trkpt>
      <trkpt lat="47.26044" lon="-2.33454">
        <ele>196.19999694824</ele>
        <time>2019-11-03T08:12:18.000Z</time>
      </trkpt>
      <trkpt lat="47.26047" lon="-2.33449">
        <ele>196.19999694824</ele>
        <time>2019-11-03T08:12:19.000Z</time>
      </trkpt>
      <trkpt lat="47.26059" lon="-2.33435">
        <ele>196.19999694824</ele>
        <time>2019-11-03T08:12:22.000Z</time>
      </trkpt>
      <trkpt lat="47.26066" lon="-2.33423">
        <ele>196.19999694824</ele>
        <time>2019-11-03T08:12:24.000Z</time>
      </trkpt>
      <trkpt lat="47.26069" lon="-2.33416">
        <ele>196.19999694824</ele>
        <time>2019-11-03T08:12:25.000Z</time>
      </trkpt>
      <trkpt lat="47.26079" lon="-2.334">
        <ele>196.19999694824</ele>
        <time>2019-11-03T08:12:28.000Z</time>
      </trkpt>
      <trkpt lat="47.26092" lon="-2.33396">
        <ele>196.19999694824</ele>
        <time>2019-11-03T08:12:31.000Z</time>
      </trkpt>
      <trkpt lat="47.26097" lon="-2.33397">
        <ele>196.80000305176</ele>
        <time>2019-11-03T08:12:32.000Z</time>
      </trkpt>
      <trkpt lat="47.26101" lon="-2.334">
        <ele>197.19999694824</ele>
        <time>2019-11-03T08:12:33.000Z</time>
      </trkpt>
      <trkpt lat="47.26105" lon="-2.33404">
        <ele>197.60000610352</ele>
        <time>2019-11-03T08:12:34.000Z</time>
      </trkpt>
      <trkpt lat="47.26109" lon="-2.33408">
        <ele>198.19999694824</ele>
        <time>2019-11-03T08:12:35.000Z</time>
      </trkpt>
      <trkpt lat="47.26113" lon="-2.33414">
        <ele>198.60000610352</ele>
        <time>2019-11-03T08:12:36.000Z</time>
      </trkpt>
      <trkpt lat="47.26116" lon="-2.3342">
        <ele>198.60000610352</ele>
        <time>2019-11-03T08:12:37.000Z</time>
      </trkpt>
      <trkpt lat="47.2612" lon="-2.33426">
        <ele>198.60000610352</ele>
        <time>2019-11-03T08:12:38.000Z</time>
      </trkpt>
      <trkpt lat="47.2613" lon="-2.33433">
        <ele>198.60000610352</ele>
        <time>2019-11-03T08:12:40.000Z</time>
      </trkpt>
      <trkpt lat="47.26146" lon="-2.33438">
        <ele>198.60000610352</ele>
        <time>2019-11-03T08:12:43.000Z</time>
      </trkpt>
      <trkpt lat="47.26152" lon="-2.33439">
        <ele>198.60000610352</ele>
        <time>2019-11-03T08:12:44.000Z</time>
      </trkpt>
      <trkpt lat="47.26186" lon="-2.33444">
        <ele>199</ele>
        <time>2019-11-03T08:12:50.000Z</time>
      </trkpt>
      <trkpt lat="47.26191" lon="-2.33443">
        <ele>199.39999389648</ele>
        <time>2019-11-03T08:12:51.000Z</time>
      </trkpt>
      <trkpt lat="47.26197" lon="-2.33443">
        <ele>200</ele>
        <time>2019-11-03T08:12:52.000Z</time>
      </trkpt>
      <trkpt lat="47.26202" lon="-2.33442">
        <ele>199.60000610352</ele>
        <time>2019-11-03T08:12:53.000Z</time>
      </trkpt>
      <trkpt lat="47.26207" lon="-2.33441">
        <ele>199.19999694824</ele>
        <time>2019-11-03T08:12:54.000Z</time>
      </trkpt>
      <trkpt lat="47.26213" lon="-2.3344">
        <ele>198.80000305176</ele>
        <time>2019-11-03T08:12:55.000Z</time>
      </trkpt>
      <trkpt lat="47.26219" lon="-2.33439">
        <ele>198.19999694824</ele>
        <time>2019-11-03T08:12:56.000Z</time>
      </trkpt>
      <trkpt lat="47.26224" lon="-2.33437">
        <ele>197.80000305176</ele>
        <time>2019-11-03T08:12:57.000Z</time>
      </trkpt>
      <trkpt lat="47.26235" lon="-2.33435">
        <ele>197.80000305176</ele>
        <time>2019-11-03T08:12:59.000Z</time>
      </trkpt>
      <trkpt lat="47.26271" lon="-2.33428">
        <ele>197.80000305176</ele>
        <time>2019-11-03T08:13:06.000Z</time>
      </trkpt>
      <trkpt lat="47.26302" lon="-2.33421">
        <ele>197.80000305176</ele>
        <time>2019-11-03T08:13:12.000Z</time>
      </trkpt>
      <trkpt lat="47.26339" lon="-2.33413">
        <ele>197.80000305176</ele>
        <time>2019-11-03T08:13:19.000Z</time>
      </trkpt>
      <trkpt lat="47.26376" lon="-2.33401">
        <ele>197.80000305176</ele>
        <time>2019-11-03T08:13:26.000Z</time>
      </trkpt>
      <trkpt lat="47.26417" lon="-2.33382">
        <ele>197.80000305176</ele>
        <time>2019-11-03T08:13:34.000Z</time>
      </trkpt>
      <trkpt lat="47.26447" lon="-2.33364">
        <ele>197.80000305176</ele>
        <time>2019-11-03T08:13:40.000Z</time>
      </trkpt>
      <trkpt lat="47.26484" lon="-2.33333">
        <ele>197.80000305176</ele>
        <time>2019-11-03T08:13:48.000Z</time>
      </trkpt>
      <trkpt lat="47.26494" lon="-2.33307">
        <ele>197.80000305176</ele>
        <time>2019-11-03T08:13:52.000Z</time>
      </trkpt>
      <trkpt lat="47.26511" lon="-2.33293">
        <ele>197.80000305176</ele>
        <time>2019-11-03T08:13:56.000Z</time>
      </trkpt>
      <trkpt lat="47.26521" lon="-2.33299">
        <ele>197.80000305176</ele>
        <time>2019-11-03T08:13:59.000Z</time>
      </trkpt>
      <trkpt lat="47.26526" lon="-2.33305">
        <ele>197.80000305176</ele>
        <time>2019-11-03T08:14:01.000Z</time>
      </trkpt>
      <trkpt lat="47.2653" lon="-2.33308">
        <ele>197.80000305176</ele>
        <time>2019-11-03T08:14:03.000Z</time>
      </trkpt>
      <trkpt lat="47.26532" lon="-2.33306">
        <ele>197.80000305176</ele>
        <time>2019-11-03T08:14:04.000Z</time>
      </trkpt>
      <trkpt lat="47.26539" lon="-2.33297">
        <ele>197.80000305176</ele>
        <time>2019-11-03T08:14:08.000Z</time>
      </trkpt>
      <trkpt lat="47.26556" lon="-2.33282">
        <ele>197.80000305176</ele>
        <time>2019-11-03T08:14:13.000Z</time>
      </trkpt>
      <trkpt lat="47.26581" lon="-2.33257">
        <ele>197.80000305176</ele>
        <time>2019-11-03T08:14:19.000Z</time>
      </trkpt>
      <trkpt lat="47.26615" lon="-2.33224">
        <ele>197.80000305176</ele>
        <time>2019-11-03T08:14:27.000Z</time>
      </trkpt>
      <trkpt lat="47.26619" lon="-2.33219">
        <ele>197.80000305176</ele>
        <time>2019-11-03T08:14:28.000Z</time>
      </trkpt>
      <trkpt lat="47.26627" lon="-2.3321">
        <ele>197.80000305176</ele>
        <time>2019-11-03T08:14:30.000Z</time>
      </trkpt>
      <trkpt lat="47.26636" lon="-2.33201">
        <ele>197.80000305176</ele>
        <time>2019-11-03T08:14:32.000Z</time>
      </trkpt>
      <trkpt lat="47.26665" lon="-2.33171">
        <ele>197.80000305176</ele>
        <time>2019-11-03T08:14:39.000Z</time>
      </trkpt>
      <trkpt lat="47.26674" lon="-2.33163">
        <ele>197.80000305176</ele>
        <time>2019-11-03T08:14:42.000Z</time>
      </trkpt>
      <trkpt lat="47.26676" lon="-2.33163">
        <ele>197.80000305176</ele>
        <time>2019-11-03T08:14:43.000Z</time>
      </trkpt>
      <trkpt lat="47.26685" lon="-2.33171">
        <ele>197.80000305176</ele>
        <time>2019-11-03T08:14:47.000Z</time>
      </trkpt>
      <trkpt lat="47.26687" lon="-2.33173">
        <ele>197.80000305176</ele>
        <time>2019-11-03T08:14:48.000Z</time>
      </trkpt>
      <trkpt lat="47.2669" lon="-2.3318">
        <ele>197.80000305176</ele>
        <time>2019-11-03T08:14:50.000Z</time>
      </trkpt>
      <trkpt lat="47.26692" lon="-2.3319">
        <ele>197.80000305176</ele>
        <time>2019-11-03T08:14:52.000Z</time>
      </trkpt>
      <trkpt lat="47.26695" lon="-2.33214">
        <ele>197.80000305176</ele>
        <time>2019-11-03T08:14:56.000Z</time>
      </trkpt>
      <trkpt lat="47.267" lon="-2.33235">
        <ele>197.80000305176</ele>
        <time>2019-11-03T08:15:00.000Z</time>
      </trkpt>
      <trkpt lat="47.26705" lon="-2.33252">
        <ele>197.80000305176</ele>
        <time>2019-11-03T08:15:03.000Z</time>
      </trkpt>
      <trkpt lat="47.26706" lon="-2.33259">
        <ele>197.80000305176</ele>
        <time>2019-11-03T08:15:04.000Z</time>
      </trkpt>
      <trkpt lat="47.26707" lon="-2.33266">
        <ele>197.80000305176</ele>
        <time>2019-11-03T08:15:05.000Z</time>
      </trkpt>
      <trkpt lat="47.26711" lon="-2.33295">
        <ele>197.80000305176</ele>
        <time>2019-11-03T08:15:09.000Z</time>
      </trkpt>
      <trkpt lat="47.26721" lon="-2.3332">
        <ele>197.80000305176</ele>
        <time>2019-11-03T08:15:13.000Z</time>
      </trkpt>
      <trkpt lat="47.26734" lon="-2.33327">
        <ele>197.80000305176</ele>
        <time>2019-11-03T08:15:16.000Z</time>
      </trkpt>
      <trkpt lat="47.26738" lon="-2.33329">
        <ele>197.80000305176</ele>
        <time>2019-11-03T08:15:17.000Z</time>
      </trkpt>
      <trkpt lat="47.26747" lon="-2.33339">
        <ele>197.80000305176</ele>
        <time>2019-11-03T08:15:20.000Z</time>
      </trkpt>
      <trkpt lat="47.26748" lon="-2.33357">
        <ele>197.80000305176</ele>
        <time>2019-11-03T08:15:23.000Z</time>
      </trkpt>
      <trkpt lat="47.2675" lon="-2.33371">
        <ele>197.80000305176</ele>
        <time>2019-11-03T08:15:25.000Z</time>
      </trkpt>
      <trkpt lat="47.26751" lon="-2.33389">
        <ele>197.80000305176</ele>
        <time>2019-11-03T08:15:27.000Z</time>
      </trkpt>
      <trkpt lat="47.26753" lon="-2.33407">
        <ele>197.80000305176</ele>
        <time>2019-11-03T08:15:29.000Z</time>
      </trkpt>
      <trkpt lat="47.26756" lon="-2.33433">
        <ele>197.80000305176</ele>
        <time>2019-11-03T08:15:32.000Z</time>
      </trkpt>
      <trkpt lat="47.26766" lon="-2.335">
        <ele>197.80000305176</ele>
        <time>2019-11-03T08:15:40.000Z</time>
      </trkpt>
      <trkpt lat="47.2677" lon="-2.33524">
        <ele>198.19999694824</ele>
        <time>2019-11-03T08:15:43.000Z</time>
      </trkpt>
      <trkpt lat="47.26772" lon="-2.33532">
        <ele>198.60000610352</ele>
        <time>2019-11-03T08:15:44.000Z</time>
      </trkpt>
      <trkpt lat="47.26773" lon="-2.3354">
        <ele>199</ele>
        <time>2019-11-03T08:15:45.000Z</time>
      </trkpt>
      <trkpt lat="47.26774" lon="-2.33547">
        <ele>199.39999389648</ele>
        <time>2019-11-03T08:15:46.000Z</time>
      </trkpt>
      <trkpt lat="47.26775" lon="-2.33555">
        <ele>199.80000305176</ele>
        <time>2019-11-03T08:15:47.000Z</time>
      </trkpt>
      <trkpt lat="47.26778" lon="-2.33561">
        <ele>199.80000305176</ele>
        <time>2019-11-03T08:15:48.000Z</time>
      </trkpt>
      <trkpt lat="47.26786" lon="-2.33565">
        <ele>199.80000305176</ele>
        <time>2019-11-03T08:15:50.000Z</time>
      </trkpt>
      <trkpt lat="47.26799" lon="-2.3356">
        <ele>199.80000305176</ele>
        <time>2019-11-03T08:15:53.000Z</time>
      </trkpt>
      <trkpt lat="47.26804" lon="-2.33557">
        <ele>199.80000305176</ele>
        <time>2019-11-03T08:15:54.000Z</time>
      </trkpt>
      <trkpt lat="47.26814" lon="-2.33553">
        <ele>199.80000305176</ele>
        <time>2019-11-03T08:15:56.000Z</time>
      </trkpt>
      <trkpt lat="47.26825" lon="-2.33549">
        <ele>199.80000305176</ele>
        <time>2019-11-03T08:15:58.000Z</time>
      </trkpt>
      <trkpt lat="47.26858" lon="-2.33537">
        <ele>199.80000305176</ele>
        <time>2019-11-03T08:16:04.000Z</time>
      </trkpt>
      <trkpt lat="47.26875" lon="-2.33534">
        <ele>199.80000305176</ele>
        <time>2019-11-03T08:16:07.000Z</time>
      </trkpt>
      <trkpt lat="47.26885" lon="-2.33539">
        <ele>200.19999694824</ele>
        <time>2019-11-03T08:16:09.000Z</time>
      </trkpt>
      <trkpt lat="47.26889" lon="-2.33544">
        <ele>200.80000305176</ele>
        <time>2019-11-03T08:16:10.000Z</time>
      </trkpt>
      <trkpt lat="47.26893" lon="-2.33549">
        <ele>201.19999694824</ele>
        <time>2019-11-03T08:16:11.000Z</time>
      </trkpt>
      <trkpt lat="47.26896" lon="-2.33555">
        <ele>201.60000610352</ele>
        <time>2019-11-03T08:16:12.000Z</time>
      </trkpt>
      <trkpt lat="47.26899" lon="-2.33562">
        <ele>202</ele>
        <time>2019-11-03T08:16:13.000Z</time>
      </trkpt>
      <trkpt lat="47.26908" lon="-2.33582">
        <ele>202.39999389648</ele>
        <time>2019-11-03T08:16:16.000Z</time>
      </trkpt>
      <trkpt lat="47.26911" lon="-2.33588">
        <ele>202.80000305176</ele>
        <time>2019-11-03T08:16:17.000Z</time>
      </trkpt>
      <trkpt lat="47.26913" lon="-2.33595">
        <ele>203.19999694824</ele>
        <time>2019-11-03T08:16:18.000Z</time>
      </trkpt>
      <trkpt lat="47.26915" lon="-2.33602">
        <ele>204</ele>
        <time>2019-11-03T08:16:19.000Z</time>
      </trkpt>
      <trkpt lat="47.26925" lon="-2.33636">
        <ele>204</ele>
        <time>2019-11-03T08:16:24.000Z</time>
      </trkpt>
      <trkpt lat="47.26935" lon="-2.33687">
        <ele>204.39999389648</ele>
        <time>2019-11-03T08:16:31.000Z</time>
      </trkpt>
      <trkpt lat="47.26936" lon="-2.33695">
        <ele>204.80000305176</ele>
        <time>2019-11-03T08:16:32.000Z</time>
      </trkpt>
      <trkpt lat="47.26937" lon="-2.33702">
        <ele>205.39999389648</ele>
        <time>2019-11-03T08:16:33.000Z</time>
      </trkpt>
      <trkpt lat="47.26937" lon="-2.33709">
        <ele>205.80000305176</ele>
        <time>2019-11-03T08:16:34.000Z</time>
      </trkpt>
      <trkpt lat="47.26938" lon="-2.33717">
        <ele>206.19999694824</ele>
        <time>2019-11-03T08:16:35.000Z</time>
      </trkpt>
      <trkpt lat="47.26938" lon="-2.33724">
        <ele>206.19999694824</ele>
        <time>2019-11-03T08:16:36.000Z</time>
      </trkpt>
      <trkpt lat="47.26937" lon="-2.33731">
        <ele>206.19999694824</ele>
        <time>2019-11-03T08:16:37.000Z</time>
      </trkpt>
      <trkpt lat="47.26936" lon="-2.33738">
        <ele>206.60000610352</ele>
        <time>2019-11-03T08:16:38.000Z</time>
      </trkpt>
      <trkpt lat="47.26935" lon="-2.33745">
        <ele>207</ele>
        <time>2019-11-03T08:16:39.000Z</time>
      </trkpt>
      <trkpt lat="47.26934" lon="-2.33752">
        <ele>207.39999389648</ele>
        <time>2019-11-03T08:16:40.000Z</time>
      </trkpt>
      <trkpt lat="47.26932" lon="-2.33759">
        <ele>207.80000305176</ele>
        <time>2019-11-03T08:16:41.000Z</time>
      </trkpt>
      <trkpt lat="47.26931" lon="-2.33767">
        <ele>208.19999694824</ele>
        <time>2019-11-03T08:16:42.000Z</time>
      </trkpt>
      <trkpt lat="47.2693" lon="-2.33774">
        <ele>207.80000305176</ele>
        <time>2019-11-03T08:16:43.000Z</time>
      </trkpt>
      <trkpt lat="47.2693" lon="-2.33781">
        <ele>207</ele>
        <time>2019-11-03T08:16:44.000Z</time>
      </trkpt>
      <trkpt lat="47.26931" lon="-2.33789">
        <ele>206.60000610352</ele>
        <time>2019-11-03T08:16:45.000Z</time>
      </trkpt>
      <trkpt lat="47.26932" lon="-2.33797">
        <ele>206.19999694824</ele>
        <time>2019-11-03T08:16:46.000Z</time>
      </trkpt>
      <trkpt lat="47.26938" lon="-2.33808">
        <ele>206.19999694824</ele>
        <time>2019-11-03T08:16:48.000Z</time>
      </trkpt>
      <trkpt lat="47.26951" lon="-2.33811">
        <ele>206.19999694824</ele>
        <time>2019-11-03T08:16:51.000Z</time>
      </trkpt>
      <trkpt lat="47.26956" lon="-2.33811">
        <ele>206.19999694824</ele>
        <time>2019-11-03T08:16:52.000Z</time>
      </trkpt>
      <trkpt lat="47.26983" lon="-2.33811">
        <ele>206.19999694824</ele>
        <time>2019-11-03T08:16:58.000Z</time>
      </trkpt>
      <trkpt lat="47.26987" lon="-2.33811">
        <ele>206.60000610352</ele>
        <time>2019-11-03T08:16:59.000Z</time>
      </trkpt>
      <trkpt lat="47.26991" lon="-2.33812">
        <ele>207</ele>
        <time>2019-11-03T08:17:00.000Z</time>
      </trkpt>
      <trkpt lat="47.26994" lon="-2.33812">
        <ele>207.60000610352</ele>
        <time>2019-11-03T08:17:01.000Z</time>
      </trkpt>
      <trkpt lat="47.26998" lon="-2.33812">
        <ele>208</ele>
        <time>2019-11-03T08:17:02.000Z</time>
      </trkpt>
      <trkpt lat="47.27002" lon="-2.33813">
        <ele>208.60000610352</ele>
        <time>2019-11-03T08:17:03.000Z</time>
      </trkpt>
      <trkpt lat="47.27006" lon="-2.33813">
        <ele>208.60000610352</ele>
        <time>2019-11-03T08:17:04.000Z</time>
      </trkpt>
      <trkpt lat="47.27009" lon="-2.33813">
        <ele>209</ele>
        <time>2019-11-03T08:17:05.000Z</time>
      </trkpt>
      <trkpt lat="47.27013" lon="-2.33814">
        <ele>209.39999389648</ele>
        <time>2019-11-03T08:17:06.000Z</time>
      </trkpt>
      <trkpt lat="47.27016" lon="-2.33815">
        <ele>209.80000305176</ele>
        <time>2019-11-03T08:17:07.000Z</time>
      </trkpt>
      <trkpt lat="47.27018" lon="-2.33816">
        <ele>211</ele>
        <time>2019-11-03T08:17:08.000Z</time>
      </trkpt>
      <trkpt lat="47.27022" lon="-2.33815">
        <ele>211.80000305176</ele>
        <time>2019-11-03T08:17:09.000Z</time>
      </trkpt>
      <trkpt lat="47.27025" lon="-2.33815">
        <ele>212.39999389648</ele>
        <time>2019-11-03T08:17:10.000Z</time>
      </trkpt>
      <trkpt lat="47.27029" lon="-2.33815">
        <ele>213</ele>
        <time>2019-11-03T08:17:11.000Z</time>
      </trkpt>
      <trkpt lat="47.27045" lon="-2.33816">
        <ele>213</ele>
        <time>2019-11-03T08:17:16.000Z</time>
      </trkpt>
      <trkpt lat="47.27055" lon="-2.33816">
        <ele>213.39999389648</ele>
        <time>2019-11-03T08:17:19.000Z</time>
      </trkpt>
      <trkpt lat="47.27058" lon="-2.33816">
        <ele>213.80000305176</ele>
        <time>2019-11-03T08:17:20.000Z</time>
      </trkpt>
      <trkpt lat="47.27062" lon="-2.33817">
        <ele>214.19999694824</ele>
        <time>2019-11-03T08:17:21.000Z</time>
      </trkpt>
      <trkpt lat="47.27065" lon="-2.33819">
        <ele>214.80000305176</ele>
        <time>2019-11-03T08:17:22.000Z</time>
      </trkpt>
      <trkpt lat="47.27068" lon="-2.33821">
        <ele>215.19999694824</ele>
        <time>2019-11-03T08:17:23.000Z</time>
      </trkpt>
      <trkpt lat="47.27082" lon="-2.3383">
        <ele>215.60000610352</ele>
        <time>2019-11-03T08:17:27.000Z</time>
      </trkpt>
      <trkpt lat="47.27085" lon="-2.33833">
        <ele>216</ele>
        <time>2019-11-03T08:17:28.000Z</time>
      </trkpt>
      <trkpt lat="47.27089" lon="-2.33835">
        <ele>216.39999389648</ele>
        <time>2019-11-03T08:17:29.000Z</time>
      </trkpt>
      <trkpt lat="47.27093" lon="-2.33838">
        <ele>216.80000305176</ele>
        <time>2019-11-03T08:17:30.000Z</time>
      </trkpt>
      <trkpt lat="47.27096" lon="-2.3384">
        <ele>217.19999694824</ele>
        <time>2019-11-03T08:17:31.000Z</time>
      </trkpt>
      <trkpt lat="47.27103" lon="-2.33846">
        <ele>217.60000610352</ele>
        <time>2019-11-03T08:17:33.000Z</time>
      </trkpt>
      <trkpt lat="47.27106" lon="-2.33848">
        <ele>218</ele>
        <time>2019-11-03T08:17:34.000Z</time>
      </trkpt>
      <trkpt lat="47.27109" lon="-2.3385">
        <ele>218.60000610352</ele>
        <time>2019-11-03T08:17:35.000Z</time>
      </trkpt>
      <trkpt lat="47.27113" lon="-2.33851">
        <ele>219</ele>
        <time>2019-11-03T08:17:36.000Z</time>
      </trkpt>
      <trkpt lat="47.27116" lon="-2.33852">
        <ele>219.39999389648</ele>
        <time>2019-11-03T08:17:37.000Z</time>
      </trkpt>
      <trkpt lat="47.27131" lon="-2.33853">
        <ele>219.39999389648</ele>
        <time>2019-11-03T08:17:41.000Z</time>
      </trkpt>
      <trkpt lat="47.27157" lon="-2.33849">
        <ele>219.39999389648</ele>
        <time>2019-11-03T08:17:47.000Z</time>
      </trkpt>
      <trkpt lat="47.27161" lon="-2.33848">
        <ele>219.80000305176</ele>
        <time>2019-11-03T08:17:48.000Z</time>
      </trkpt>
      <trkpt lat="47.27165" lon="-2.33847">
        <ele>220.19999694824</ele>
        <time>2019-11-03T08:17:49.000Z</time>
      </trkpt>
      <trkpt lat="47.2717" lon="-2.33846">
        <ele>220.60000610352</ele>
        <time>2019-11-03T08:17:50.000Z</time>
      </trkpt>
      <trkpt lat="47.27174" lon="-2.33845">
        <ele>221</ele>
        <time>2019-11-03T08:17:51.000Z</time>
      </trkpt>
      <trkpt lat="47.27178" lon="-2.33844">
        <ele>221.39999389648</ele>
        <time>2019-11-03T08:17:52.000Z</time>
      </trkpt>
      <trkpt lat="47.27186" lon="-2.33844">
        <ele>221.39999389648</ele>
        <time>2019-11-03T08:17:54.000Z</time>
      </trkpt>
      <trkpt lat="47.27208" lon="-2.33847">
        <ele>221.80000305176</ele>
        <time>2019-11-03T08:18:00.000Z</time>
      </trkpt>
      <trkpt lat="47.27211" lon="-2.33848">
        <ele>222.39999389648</ele>
        <time>2019-11-03T08:18:01.000Z</time>
      </trkpt>
      <trkpt lat="47.27215" lon="-2.33849">
        <ele>222.80000305176</ele>
        <time>2019-11-03T08:18:02.000Z</time>
      </trkpt>
      <trkpt lat="47.27218" lon="-2.33851">
        <ele>223.19999694824</ele>
        <time>2019-11-03T08:18:03.000Z</time>
      </trkpt>
      <trkpt lat="47.27222" lon="-2.33853">
        <ele>223.60000610352</ele>
        <time>2019-11-03T08:18:04.000Z</time>
      </trkpt>
      <trkpt lat="47.27233" lon="-2.33856">
        <ele>224</ele>
        <time>2019-11-03T08:18:07.000Z</time>
      </trkpt>
      <trkpt lat="47.27237" lon="-2.33858">
        <ele>224.60000610352</ele>
        <time>2019-11-03T08:18:08.000Z</time>
      </trkpt>
      <trkpt lat="47.2724" lon="-2.3386">
        <ele>225</ele>
        <time>2019-11-03T08:18:09.000Z</time>
      </trkpt>
      <trkpt lat="47.27244" lon="-2.33861">
        <ele>225.39999389648</ele>
        <time>2019-11-03T08:18:10.000Z</time>
      </trkpt>
      <trkpt lat="47.27248" lon="-2.33863">
        <ele>225.80000305176</ele>
        <time>2019-11-03T08:18:11.000Z</time>
      </trkpt>
      <trkpt lat="47.27255" lon="-2.33868">
        <ele>225.80000305176</ele>
        <time>2019-11-03T08:18:13.000Z</time>
      </trkpt>
      <trkpt lat="47.27261" lon="-2.33875">
        <ele>225.80000305176</ele>
        <time>2019-11-03T08:18:15.000Z</time>
      </trkpt>
      <trkpt lat="47.27271" lon="-2.33887">
        <ele>225.80000305176</ele>
        <time>2019-11-03T08:18:18.000Z</time>
      </trkpt>
      <trkpt lat="47.2729" lon="-2.33908">
        <ele>225.80000305176</ele>
        <time>2019-11-03T08:18:24.000Z</time>
      </trkpt>
      <trkpt lat="47.27307" lon="-2.33927">
        <ele>225.80000305176</ele>
        <time>2019-11-03T08:18:30.000Z</time>
      </trkpt>
      <trkpt lat="47.27327" lon="-2.3395">
        <ele>225.80000305176</ele>
        <time>2019-11-03T08:18:36.000Z</time>
      </trkpt>
      <trkpt lat="47.27331" lon="-2.33953">
        <ele>225.80000305176</ele>
        <time>2019-11-03T08:18:37.000Z</time>
      </trkpt>
      <trkpt lat="47.27343" lon="-2.33959">
        <ele>225.80000305176</ele>
        <time>2019-11-03T08:18:40.000Z</time>
      </trkpt>
      <trkpt lat="47.27348" lon="-2.33961">
        <ele>225.80000305176</ele>
        <time>2019-11-03T08:18:41.000Z</time>
      </trkpt>
      <trkpt lat="47.27365" lon="-2.33963">
        <ele>225.80000305176</ele>
        <time>2019-11-03T08:18:45.000Z</time>
      </trkpt>
      <trkpt lat="47.27373" lon="-2.33962">
        <ele>225.80000305176</ele>
        <time>2019-11-03T08:18:47.000Z</time>
      </trkpt>
      <trkpt lat="47.27389" lon="-2.3397">
        <ele>225.80000305176</ele>
        <time>2019-11-03T08:18:52.000Z</time>
      </trkpt>
      <trkpt lat="47.27393" lon="-2.33982">
        <ele>225.80000305176</ele>
        <time>2019-11-03T08:18:54.000Z</time>
      </trkpt>
      <trkpt lat="47.27394" lon="-2.33996">
        <ele>225.80000305176</ele>
        <time>2019-11-03T08:18:56.000Z</time>
      </trkpt>
      <trkpt lat="47.27395" lon="-2.34003">
        <ele>225.80000305176</ele>
        <time>2019-11-03T08:18:57.000Z</time>
      </trkpt>
      <trkpt lat="47.27396" lon="-2.34037">
        <ele>225.80000305176</ele>
        <time>2019-11-03T08:19:01.000Z</time>
      </trkpt>
      <trkpt lat="47.27399" lon="-2.34106">
        <ele>225.39999389648</ele>
        <time>2019-11-03T08:19:09.000Z</time>
      </trkpt>
      <trkpt lat="47.27399" lon="-2.34115">
        <ele>225</ele>
        <time>2019-11-03T08:19:10.000Z</time>
      </trkpt>
      <trkpt lat="47.27399" lon="-2.34124">
        <ele>224.60000610352</ele>
        <time>2019-11-03T08:19:11.000Z</time>
      </trkpt>
      <trkpt lat="47.27399" lon="-2.34134">
        <ele>224</ele>
        <time>2019-11-03T08:19:12.000Z</time>
      </trkpt>
      <trkpt lat="47.274" lon="-2.34143">
        <ele>223.60000610352</ele>
        <time>2019-11-03T08:19:13.000Z</time>
      </trkpt>
      <trkpt lat="47.274" lon="-2.34171">
        <ele>223.60000610352</ele>
        <time>2019-11-03T08:19:16.000Z</time>
      </trkpt>
      <trkpt lat="47.274" lon="-2.34208">
        <ele>223.19999694824</ele>
        <time>2019-11-03T08:19:20.000Z</time>
      </trkpt>
      <trkpt lat="47.274" lon="-2.34215">
        <ele>222.80000305176</ele>
        <time>2019-11-03T08:19:21.000Z</time>
      </trkpt>
      <trkpt lat="47.274" lon="-2.34222">
        <ele>222.39999389648</ele>
        <time>2019-11-03T08:19:22.000Z</time>
      </trkpt>
      <trkpt lat="47.274" lon="-2.34227">
        <ele>221.80000305176</ele>
        <time>2019-11-03T08:19:23.000Z</time>
      </trkpt>
      <trkpt lat="47.27401" lon="-2.34232">
        <ele>221.39999389648</ele>
        <time>2019-11-03T08:19:24.000Z</time>
      </trkpt>
      <trkpt lat="47.27404" lon="-2.34238">
        <ele>221.39999389648</ele>
        <time>2019-11-03T08:19:26.000Z</time>
      </trkpt>
      <trkpt lat="47.27406" lon="-2.34239">
        <ele>221.39999389648</ele>
        <time>2019-11-03T08:19:27.000Z</time>
      </trkpt>
      <trkpt lat="47.27412" lon="-2.34247">
        <ele>221.39999389648</ele>
        <time>2019-11-03T08:19:30.000Z</time>
      </trkpt>
      <trkpt lat="47.27415" lon="-2.34274">
        <ele>221.39999389648</ele>
        <time>2019-11-03T08:19:34.000Z</time>
      </trkpt>
      <trkpt lat="47.27417" lon="-2.34297">
        <ele>221.39999389648</ele>
        <time>2019-11-03T08:19:37.000Z</time>
      </trkpt>
      <trkpt lat="47.27419" lon="-2.34312">
        <ele>221.39999389648</ele>
        <time>2019-11-03T08:19:39.000Z</time>
      </trkpt>
      <trkpt lat="47.27419" lon="-2.34327">
        <ele>221.39999389648</ele>
        <time>2019-11-03T08:19:41.000Z</time>
      </trkpt>
      <trkpt lat="47.27419" lon="-2.34349">
        <ele>221.39999389648</ele>
        <time>2019-11-03T08:19:44.000Z</time>
      </trkpt>
      <trkpt lat="47.27423" lon="-2.34389">
        <ele>221.39999389648</ele>
        <time>2019-11-03T08:19:50.000Z</time>
      </trkpt>
      <trkpt lat="47.27423" lon="-2.3441">
        <ele>222</ele>
        <time>2019-11-03T08:19:53.000Z</time>
      </trkpt>
      <trkpt lat="47.27424" lon="-2.34417">
        <ele>222.39999389648</ele>
        <time>2019-11-03T08:19:54.000Z</time>
      </trkpt>
      <trkpt lat="47.27424" lon="-2.34424">
        <ele>222.80000305176</ele>
        <time>2019-11-03T08:19:55.000Z</time>
      </trkpt>
      <trkpt lat="47.27424" lon="-2.34431">
        <ele>223.19999694824</ele>
        <time>2019-11-03T08:19:56.000Z</time>
      </trkpt>
      <trkpt lat="47.27424" lon="-2.34438">
        <ele>223.80000305176</ele>
        <time>2019-11-03T08:19:57.000Z</time>
      </trkpt>
      <trkpt lat="47.27425" lon="-2.34479">
        <ele>223.80000305176</ele>
        <time>2019-11-03T08:20:03.000Z</time>
      </trkpt>
      <trkpt lat="47.27433" lon="-2.34518">
        <ele>223.80000305176</ele>
        <time>2019-11-03T08:20:09.000Z</time>
      </trkpt>
      <trkpt lat="47.27442" lon="-2.34554">
        <ele>223.80000305176</ele>
        <time>2019-11-03T08:20:15.000Z</time>
      </trkpt>
      <trkpt lat="47.27445" lon="-2.34567">
        <ele>224.19999694824</ele>
        <time>2019-11-03T08:20:17.000Z</time>
      </trkpt>
      <trkpt lat="47.27446" lon="-2.34575">
        <ele>224.60000610352</ele>
        <time>2019-11-03T08:20:18.000Z</time>
      </trkpt>
      <trkpt lat="47.27448" lon="-2.34582">
        <ele>225</ele>
        <time>2019-11-03T08:20:19.000Z</time>
      </trkpt>
      <trkpt lat="47.27449" lon="-2.34589">
        <ele>225.39999389648</ele>
        <time>2019-11-03T08:20:20.000Z</time>
      </trkpt>
      <trkpt lat="47.2745" lon="-2.34596">
        <ele>225.80000305176</ele>
        <time>2019-11-03T08:20:21.000Z</time>
      </trkpt>
      <trkpt lat="47.27455" lon="-2.34648">
        <ele>225.80000305176</ele>
        <time>2019-11-03T08:20:28.000Z</time>
      </trkpt>
      <trkpt lat="47.27457" lon="-2.34672">
        <ele>225.80000305176</ele>
        <time>2019-11-03T08:20:32.000Z</time>
      </trkpt>
      <trkpt lat="47.27457" lon="-2.34684">
        <ele>225.80000305176</ele>
        <time>2019-11-03T08:20:34.000Z</time>
      </trkpt>
      <trkpt lat="47.27457" lon="-2.34726">
        <ele>225.80000305176</ele>
        <time>2019-11-03T08:20:40.000Z</time>
      </trkpt>
      <trkpt lat="47.27458" lon="-2.34793">
        <ele>225.39999389648</ele>
        <time>2019-11-03T08:20:48.000Z</time>
      </trkpt>
      <trkpt lat="47.27459" lon="-2.34802">
        <ele>225</ele>
        <time>2019-11-03T08:20:49.000Z</time>
      </trkpt>
      <trkpt lat="47.2746" lon="-2.34811">
        <ele>224.60000610352</ele>
        <time>2019-11-03T08:20:50.000Z</time>
      </trkpt>
      <trkpt lat="47.2746" lon="-2.34819">
        <ele>224</ele>
        <time>2019-11-03T08:20:51.000Z</time>
      </trkpt>
      <trkpt lat="47.27461" lon="-2.34827">
        <ele>223.60000610352</ele>
        <time>2019-11-03T08:20:52.000Z</time>
      </trkpt>
      <trkpt lat="47.27461" lon="-2.34835">
        <ele>223.19999694824</ele>
        <time>2019-11-03T08:20:53.000Z</time>
      </trkpt>
      <trkpt lat="47.27461" lon="-2.34843">
        <ele>222.80000305176</ele>
        <time>2019-11-03T08:20:54.000Z</time>
      </trkpt>
      <trkpt lat="47.27461" lon="-2.34851">
        <ele>222.39999389648</ele>
        <time>2019-11-03T08:20:55.000Z</time>
      </trkpt>
      <trkpt lat="47.27461" lon="-2.3486">
        <ele>222</ele>
        <time>2019-11-03T08:20:56.000Z</time>
      </trkpt>
      <trkpt lat="47.27461" lon="-2.34868">
        <ele>221.60000610352</ele>
        <time>2019-11-03T08:20:57.000Z</time>
      </trkpt>
      <trkpt lat="47.27464" lon="-2.3491">
        <ele>221.60000610352</ele>
        <time>2019-11-03T08:21:02.000Z</time>
      </trkpt>
      <trkpt lat="47.27466" lon="-2.34918">
        <ele>221.60000610352</ele>
        <time>2019-11-03T08:21:03.000Z</time>
      </trkpt>
      <trkpt lat="47.27481" lon="-2.34972">
        <ele>221.60000610352</ele>
        <time>2019-11-03T08:21:10.000Z</time>
      </trkpt>
      <trkpt lat="47.27494" lon="-2.35012">
        <ele>221.60000610352</ele>
        <time>2019-11-03T08:21:16.000Z</time>
      </trkpt>
      <trkpt lat="47.27503" lon="-2.35049">
        <ele>221.60000610352</ele>
        <time>2019-11-03T08:21:21.000Z</time>
      </trkpt>
      <trkpt lat="47.27504" lon="-2.35064">
        <ele>221.60000610352</ele>
        <time>2019-11-03T08:21:23.000Z</time>
      </trkpt>
      <trkpt lat="47.27503" lon="-2.35094">
        <ele>221.60000610352</ele>
        <time>2019-11-03T08:21:27.000Z</time>
      </trkpt>
      <trkpt lat="47.27503" lon="-2.35102">
        <ele>221.60000610352</ele>
        <time>2019-11-03T08:21:28.000Z</time>
      </trkpt>
      <trkpt lat="47.27502" lon="-2.35116">
        <ele>221.60000610352</ele>
        <time>2019-11-03T08:21:30.000Z</time>
      </trkpt>
      <trkpt lat="47.27506" lon="-2.35127">
        <ele>221.60000610352</ele>
        <time>2019-11-03T08:21:32.000Z</time>
      </trkpt>
      <trkpt lat="47.27519" lon="-2.35135">
        <ele>221.60000610352</ele>
        <time>2019-11-03T08:21:35.000Z</time>
      </trkpt>
      <trkpt lat="47.27533" lon="-2.3514">
        <ele>221.60000610352</ele>
        <time>2019-11-03T08:21:38.000Z</time>
      </trkpt>
      <trkpt lat="47.27538" lon="-2.3514">
        <ele>222</ele>
        <time>2019-11-03T08:21:39.000Z</time>
      </trkpt>
      <trkpt lat="47.27543" lon="-2.3514">
        <ele>222.39999389648</ele>
        <time>2019-11-03T08:21:40.000Z</time>
      </trkpt>
      <trkpt lat="47.27548" lon="-2.35139">
        <ele>222.80000305176</ele>
        <time>2019-11-03T08:21:41.000Z</time>
      </trkpt>
      <trkpt lat="47.27553" lon="-2.35139">
        <ele>223.60000610352</ele>
        <time>2019-11-03T08:21:42.000Z</time>
      </trkpt>
      <trkpt lat="47.27563" lon="-2.35137">
        <ele>223.60000610352</ele>
        <time>2019-11-03T08:21:44.000Z</time>
      </trkpt>
      <trkpt lat="47.27573" lon="-2.35136">
        <ele>223.60000610352</ele>
        <time>2019-11-03T08:21:46.000Z</time>
      </trkpt>
      <trkpt lat="47.27587" lon="-2.35134">
        <ele>223.60000610352</ele>
        <time>2019-11-03T08:21:49.000Z</time>
      </trkpt>
      <trkpt lat="47.27601" lon="-2.35132">
        <ele>223.60000610352</ele>
        <time>2019-11-03T08:21:52.000Z</time>
      </trkpt>
      <trkpt lat="47.27606" lon="-2.35141">
        <ele>223.60000610352</ele>
        <time>2019-11-03T08:21:54.000Z</time>
      </trkpt>
      <trkpt lat="47.27615" lon="-2.35144">
        <ele>223.60000610352</ele>
        <time>2019-11-03T08:21:57.000Z</time>
      </trkpt>
      <trkpt lat="47.27629" lon="-2.35147">
        <ele>223.60000610352</ele>
        <time>2019-11-03T08:22:01.000Z</time>
      </trkpt>
      <trkpt lat="47.27639" lon="-2.35142">
        <ele>223.60000610352</ele>
        <time>2019-11-03T08:22:04.000Z</time>
      </trkpt>
      <trkpt lat="47.27643" lon="-2.35139">
        <ele>223.19999694824</ele>
        <time>2019-11-03T08:22:05.000Z</time>
      </trkpt>
      <trkpt lat="47.27647" lon="-2.3514">
        <ele>222.19999694824</ele>
        <time>2019-11-03T08:22:06.000Z</time>
      </trkpt>
      <trkpt lat="47.27651" lon="-2.35142">
        <ele>221.80000305176</ele>
        <time>2019-11-03T08:22:07.000Z</time>
      </trkpt>
      <trkpt lat="47.27655" lon="-2.35144">
        <ele>221.39999389648</ele>
        <time>2019-11-03T08:22:08.000Z</time>
      </trkpt>
      <trkpt lat="47.27663" lon="-2.35146">
        <ele>221.39999389648</ele>
        <time>2019-11-03T08:22:10.000Z</time>
      </trkpt>
      <trkpt lat="47.27667" lon="-2.35149">
        <ele>221.39999389648</ele>
        <time>2019-11-03T08:22:11.000Z</time>
      </trkpt>
      <trkpt lat="47.27671" lon="-2.35167">
        <ele>221.39999389648</ele>
        <time>2019-11-03T08:22:14.000Z</time>
      </trkpt>
      <trkpt lat="47.27671" lon="-2.35175">
        <ele>221.39999389648</ele>
        <time>2019-11-03T08:22:15.000Z</time>
      </trkpt>
      <trkpt lat="47.27673" lon="-2.35205">
        <ele>221.39999389648</ele>
        <time>2019-11-03T08:22:19.000Z</time>
      </trkpt>
      <trkpt lat="47.27673" lon="-2.35211">
        <ele>220.80000305176</ele>
        <time>2019-11-03T08:22:20.000Z</time>
      </trkpt>
      <trkpt lat="47.27673" lon="-2.35215">
        <ele>220.19999694824</ele>
        <time>2019-11-03T08:22:21.000Z</time>
      </trkpt>
      <trkpt lat="47.27675" lon="-2.35219">
        <ele>219.80000305176</ele>
        <time>2019-11-03T08:22:22.000Z</time>
      </trkpt>
      <trkpt lat="47.27678" lon="-2.35221">
        <ele>219.19999694824</ele>
        <time>2019-11-03T08:22:23.000Z</time>
      </trkpt>
      <trkpt lat="47.27682" lon="-2.35221">
        <ele>218.80000305176</ele>
        <time>2019-11-03T08:22:24.000Z</time>
      </trkpt>
      <trkpt lat="47.2769" lon="-2.35219">
        <ele>218.80000305176</ele>
        <time>2019-11-03T08:22:26.000Z</time>
      </trkpt>
      <trkpt lat="47.27715" lon="-2.3521">
        <ele>218.80000305176</ele>
        <time>2019-11-03T08:22:31.000Z</time>
      </trkpt>
      <trkpt lat="47.2772" lon="-2.35209">
        <ele>218</ele>
        <time>2019-11-03T08:22:32.000Z</time>
      </trkpt>
      <trkpt lat="47.27726" lon="-2.35207">
        <ele>217.39999389648</ele>
        <time>2019-11-03T08:22:33.000Z</time>
      </trkpt>
      <trkpt lat="47.27731" lon="-2.35206">
        <ele>217</ele>
        <time>2019-11-03T08:22:34.000Z</time>
      </trkpt>
      <trkpt lat="47.27736" lon="-2.35205">
        <ele>216.60000610352</ele>
        <time>2019-11-03T08:22:35.000Z</time>
      </trkpt>
      <trkpt lat="47.27757" lon="-2.352">
        <ele>216.60000610352</ele>
        <time>2019-11-03T08:22:39.000Z</time>
      </trkpt>
      <trkpt lat="47.27768" lon="-2.35198">
        <ele>216.19999694824</ele>
        <time>2019-11-03T08:22:43.000Z</time>
      </trkpt>
      <trkpt lat="47.27771" lon="-2.35198">
        <ele>215.80000305176</ele>
        <time>2019-11-03T08:22:44.000Z</time>
      </trkpt>
      <trkpt lat="47.27771" lon="-2.352">
        <ele>215.39999389648</ele>
        <time>2019-11-03T08:22:45.000Z</time>
      </trkpt>
      <trkpt lat="47.27772" lon="-2.35204">
        <ele>214.80000305176</ele>
        <time>2019-11-03T08:22:46.000Z</time>
      </trkpt>
      <trkpt lat="47.27773" lon="-2.3521">
        <ele>214.39999389648</ele>
        <time>2019-11-03T08:22:47.000Z</time>
      </trkpt>
      <trkpt lat="47.27778" lon="-2.35244">
        <ele>214.39999389648</ele>
        <time>2019-11-03T08:22:52.000Z</time>
      </trkpt>
      <trkpt lat="47.27779" lon="-2.35252">
        <ele>214.39999389648</ele>
        <time>2019-11-03T08:22:53.000Z</time>
      </trkpt>
      <trkpt lat="47.27783" lon="-2.35275">
        <ele>215.39999389648</ele>
        <time>2019-11-03T08:22:56.000Z</time>
      </trkpt>
      <trkpt lat="47.27785" lon="-2.35282">
        <ele>215.80000305176</ele>
        <time>2019-11-03T08:22:57.000Z</time>
      </trkpt>
      <trkpt lat="47.27787" lon="-2.35289">
        <ele>216.19999694824</ele>
        <time>2019-11-03T08:22:58.000Z</time>
      </trkpt>
      <trkpt lat="47.27788" lon="-2.35296">
        <ele>216.60000610352</ele>
        <time>2019-11-03T08:22:59.000Z</time>
      </trkpt>
      <trkpt lat="47.27798" lon="-2.35335">
        <ele>216.60000610352</ele>
        <time>2019-11-03T08:23:05.000Z</time>
      </trkpt>
      <trkpt lat="47.278" lon="-2.35343">
        <ele>216.60000610352</ele>
        <time>2019-11-03T08:23:06.000Z</time>
      </trkpt>
      <trkpt lat="47.27802" lon="-2.3535">
        <ele>216.60000610352</ele>
        <time>2019-11-03T08:23:07.000Z</time>
      </trkpt>
      <trkpt lat="47.27814" lon="-2.35363">
        <ele>216.60000610352</ele>
        <time>2019-11-03T08:23:10.000Z</time>
      </trkpt>
      <trkpt lat="47.27829" lon="-2.35363">
        <ele>216.60000610352</ele>
        <time>2019-11-03T08:23:13.000Z</time>
      </trkpt>
      <trkpt lat="47.27872" lon="-2.35363">
        <ele>216.60000610352</ele>
        <time>2019-11-03T08:23:22.000Z</time>
      </trkpt>
      <trkpt lat="47.27886" lon="-2.35378">
        <ele>216.60000610352</ele>
        <time>2019-11-03T08:23:26.000Z</time>
      </trkpt>
      <trkpt lat="47.27893" lon="-2.35389">
        <ele>216.60000610352</ele>
        <time>2019-11-03T08:23:28.000Z</time>
      </trkpt>
      <trkpt lat="47.27908" lon="-2.35409">
        <ele>216.60000610352</ele>
        <time>2019-11-03T08:23:32.000Z</time>
      </trkpt>
      <trkpt lat="47.27942" lon="-2.35451">
        <ele>216.60000610352</ele>
        <time>2019-11-03T08:23:40.000Z</time>
      </trkpt>
      <trkpt lat="47.27966" lon="-2.3547">
        <ele>216.60000610352</ele>
        <time>2019-11-03T08:23:45.000Z</time>
      </trkpt>
      <trkpt lat="47.2797" lon="-2.35475">
        <ele>216.60000610352</ele>
        <time>2019-11-03T08:23:46.000Z</time>
      </trkpt>
      <trkpt lat="47.27985" lon="-2.355">
        <ele>216.60000610352</ele>
        <time>2019-11-03T08:23:50.000Z</time>
      </trkpt>
      <trkpt lat="47.27988" lon="-2.35507">
        <ele>216.60000610352</ele>
        <time>2019-11-03T08:23:51.000Z</time>
      </trkpt>
      <trkpt lat="47.27998" lon="-2.35531">
        <ele>216.60000610352</ele>
        <time>2019-11-03T08:23:55.000Z</time>
      </trkpt>
      <trkpt lat="47.28" lon="-2.35536">
        <ele>216.60000610352</ele>
        <time>2019-11-03T08:23:56.000Z</time>
      </trkpt>
      <trkpt lat="47.28003" lon="-2.35546">
        <ele>217</ele>
        <time>2019-11-03T08:23:58.000Z</time>
      </trkpt>
      <trkpt lat="47.28004" lon="-2.3555">
        <ele>217.39999389648</ele>
        <time>2019-11-03T08:23:59.000Z</time>
      </trkpt>
      <trkpt lat="47.28006" lon="-2.35552">
        <ele>217.80000305176</ele>
        <time>2019-11-03T08:24:00.000Z</time>
      </trkpt>
      <trkpt lat="47.28008" lon="-2.35553">
        <ele>218.19999694824</ele>
        <time>2019-11-03T08:24:01.000Z</time>
      </trkpt>
      <trkpt lat="47.28012" lon="-2.35553">
        <ele>218.60000610352</ele>
        <time>2019-11-03T08:24:02.000Z</time>
      </trkpt>
      <trkpt lat="47.28022" lon="-2.35553">
        <ele>218.60000610352</ele>
        <time>2019-11-03T08:24:05.000Z</time>
      </trkpt>
      <trkpt lat="47.28025" lon="-2.35557">
        <ele>218.60000610352</ele>
        <time>2019-11-03T08:24:06.000Z</time>
      </trkpt>
      <trkpt lat="47.28031" lon="-2.35565">
        <ele>218.60000610352</ele>
        <time>2019-11-03T08:24:08.000Z</time>
      </trkpt>
      <trkpt lat="47.28037" lon="-2.35572">
        <ele>219</ele>
        <time>2019-11-03T08:24:10.000Z</time>
      </trkpt>
      <trkpt lat="47.2804" lon="-2.35574">
        <ele>220</ele>
        <time>2019-11-03T08:24:11.000Z</time>
      </trkpt>
      <trkpt lat="47.28044" lon="-2.35575">
        <ele>220.39999389648</ele>
        <time>2019-11-03T08:24:12.000Z</time>
      </trkpt>
      <trkpt lat="47.28048" lon="-2.35576">
        <ele>220.80000305176</ele>
        <time>2019-11-03T08:24:13.000Z</time>
      </trkpt>
      <trkpt lat="47.28067" lon="-2.35586">
        <ele>220.80000305176</ele>
        <time>2019-11-03T08:24:19.000Z</time>
      </trkpt>
      <trkpt lat="47.28075" lon="-2.35604">
        <ele>220.80000305176</ele>
        <time>2019-11-03T08:24:22.000Z</time>
      </trkpt>
      <trkpt lat="47.28076" lon="-2.3561">
        <ele>220.80000305176</ele>
        <time>2019-11-03T08:24:23.000Z</time>
      </trkpt>
      <trkpt lat="47.28076" lon="-2.35624">
        <ele>221.19999694824</ele>
        <time>2019-11-03T08:24:25.000Z</time>
      </trkpt>
      <trkpt lat="47.28077" lon="-2.3563">
        <ele>221.60000610352</ele>
        <time>2019-11-03T08:24:26.000Z</time>
      </trkpt>
      <trkpt lat="47.28078" lon="-2.35635">
        <ele>222</ele>
        <time>2019-11-03T08:24:27.000Z</time>
      </trkpt>
      <trkpt lat="47.28078" lon="-2.3564">
        <ele>222.39999389648</ele>
        <time>2019-11-03T08:24:28.000Z</time>
      </trkpt>
      <trkpt lat="47.28078" lon="-2.35644">
        <ele>222.80000305176</ele>
        <time>2019-11-03T08:24:29.000Z</time>
      </trkpt>
      <trkpt lat="47.28078" lon="-2.35647">
        <ele>223.39999389648</ele>
        <time>2019-11-03T08:24:30.000Z</time>
      </trkpt>
      <trkpt lat="47.28079" lon="-2.3565">
        <ele>223.80000305176</ele>
        <time>2019-11-03T08:24:31.000Z</time>
      </trkpt>
      <trkpt lat="47.28081" lon="-2.35652">
        <ele>224.19999694824</ele>
        <time>2019-11-03T08:24:32.000Z</time>
      </trkpt>
      <trkpt lat="47.28082" lon="-2.35655">
        <ele>224.60000610352</ele>
        <time>2019-11-03T08:24:33.000Z</time>
      </trkpt>
      <trkpt lat="47.28083" lon="-2.35657">
        <ele>225.19999694824</ele>
        <time>2019-11-03T08:24:34.000Z</time>
      </trkpt>
      <trkpt lat="47.28084" lon="-2.35662">
        <ele>225.60000610352</ele>
        <time>2019-11-03T08:24:36.000Z</time>
      </trkpt>
      <trkpt lat="47.28085" lon="-2.35665">
        <ele>226</ele>
        <time>2019-11-03T08:24:37.000Z</time>
      </trkpt>
      <trkpt lat="47.28087" lon="-2.35668">
        <ele>226.39999389648</ele>
        <time>2019-11-03T08:24:38.000Z</time>
      </trkpt>
      <trkpt lat="47.28088" lon="-2.35672">
        <ele>226.80000305176</ele>
        <time>2019-11-03T08:24:39.000Z</time>
      </trkpt>
      <trkpt lat="47.28088" lon="-2.35674">
        <ele>227.19999694824</ele>
        <time>2019-11-03T08:24:40.000Z</time>
      </trkpt>
      <trkpt lat="47.2809" lon="-2.35677">
        <ele>227.19999694824</ele>
        <time>2019-11-03T08:24:42.000Z</time>
      </trkpt>
      <trkpt lat="47.2809" lon="-2.35685">
        <ele>227.19999694824</ele>
        <time>2019-11-03T08:24:47.000Z</time>
      </trkpt>
      <trkpt lat="47.28101" lon="-2.35692">
        <ele>229.39999389648</ele>
        <time>2019-11-03T08:25:17.000Z</time>
      </trkpt>
      <trkpt lat="47.28103" lon="-2.35689">
        <ele>229.39999389648</ele>
        <time>2019-11-03T08:25:19.000Z</time>
      </trkpt>
      <trkpt lat="47.28106" lon="-2.35686">
        <ele>229.80000305176</ele>
        <time>2019-11-03T08:25:21.000Z</time>
      </trkpt>
      <trkpt lat="47.28108" lon="-2.35685">
        <ele>230.19999694824</ele>
        <time>2019-11-03T08:25:22.000Z</time>
      </trkpt>
      <trkpt lat="47.2811" lon="-2.35685">
        <ele>230.60000610352</ele>
        <time>2019-11-03T08:25:23.000Z</time>
      </trkpt>
      <trkpt lat="47.28112" lon="-2.35684">
        <ele>231.39999389648</ele>
        <time>2019-11-03T08:25:24.000Z</time>
      </trkpt>
      <trkpt lat="47.28115" lon="-2.35683">
        <ele>231.80000305176</ele>
        <time>2019-11-03T08:25:26.000Z</time>
      </trkpt>
      <trkpt lat="47.28116" lon="-2.35682">
        <ele>232.19999694824</ele>
        <time>2019-11-03T08:25:27.000Z</time>
      </trkpt>
      <trkpt lat="47.28117" lon="-2.35681">
        <ele>232.60000610352</ele>
        <time>2019-11-03T08:25:28.000Z</time>
      </trkpt>
      <trkpt lat="47.28118" lon="-2.35681">
        <ele>233.19999694824</ele>
        <time>2019-11-03T08:25:29.000Z</time>
      </trkpt>
      <trkpt lat="47.2812" lon="-2.3568">
        <ele>233.60000610352</ele>
        <time>2019-11-03T08:25:30.000Z</time>
      </trkpt>
      <trkpt lat="47.28121" lon="-2.35679">
        <ele>233.60000610352</ele>
        <time>2019-11-03T08:25:32.000Z</time>
      </trkpt>
      <trkpt lat="47.28124" lon="-2.35676">
        <ele>234</ele>
        <time>2019-11-03T08:25:34.000Z</time>
      </trkpt>
      <trkpt lat="47.28125" lon="-2.35675">
        <ele>234.39999389648</ele>
        <time>2019-11-03T08:25:35.000Z</time>
      </trkpt>
      <trkpt lat="47.28127" lon="-2.35675">
        <ele>234.80000305176</ele>
        <time>2019-11-03T08:25:36.000Z</time>
      </trkpt>
      <trkpt lat="47.28129" lon="-2.35674">
        <ele>235.19999694824</ele>
        <time>2019-11-03T08:25:37.000Z</time>
      </trkpt>
      <trkpt lat="47.28129" lon="-2.35672">
        <ele>235.60000610352</ele>
        <time>2019-11-03T08:25:38.000Z</time>
      </trkpt>
      <trkpt lat="47.28135" lon="-2.35669">
        <ele>235.60000610352</ele>
        <time>2019-11-03T08:25:42.000Z</time>
      </trkpt>
      <trkpt lat="47.28139" lon="-2.35668">
        <ele>235.60000610352</ele>
        <time>2019-11-03T08:25:44.000Z</time>
      </trkpt>
      <trkpt lat="47.28147" lon="-2.35673">
        <ele>235.60000610352</ele>
        <time>2019-11-03T08:25:50.000Z</time>
      </trkpt>
      <trkpt lat="47.28151" lon="-2.35676">
        <ele>235.60000610352</ele>
        <time>2019-11-03T08:25:52.000Z</time>
      </trkpt>
      <trkpt lat="47.28159" lon="-2.35678">
        <ele>235.60000610352</ele>
        <time>2019-11-03T08:25:56.000Z</time>
      </trkpt>
      <trkpt lat="47.28164" lon="-2.3568">
        <ele>235.19999694824</ele>
        <time>2019-11-03T08:26:00.000Z</time>
      </trkpt>
      <trkpt lat="47.28165" lon="-2.35683">
        <ele>234.60000610352</ele>
        <time>2019-11-03T08:26:01.000Z</time>
      </trkpt>
      <trkpt lat="47.28166" lon="-2.35683">
        <ele>234.19999694824</ele>
        <time>2019-11-03T08:26:02.000Z</time>
      </trkpt>
      <trkpt lat="47.28168" lon="-2.35686">
        <ele>233.60000610352</ele>
        <time>2019-11-03T08:26:03.000Z</time>
      </trkpt>
      <trkpt lat="47.2817" lon="-2.35687">
        <ele>233</ele>
        <time>2019-11-03T08:26:04.000Z</time>
      </trkpt>
      <trkpt lat="47.28171" lon="-2.3569">
        <ele>232.39999389648</ele>
        <time>2019-11-03T08:26:05.000Z</time>
      </trkpt>
      <trkpt lat="47.28172" lon="-2.35693">
        <ele>231.80000305176</ele>
        <time>2019-11-03T08:26:06.000Z</time>
      </trkpt>
      <trkpt lat="47.28174" lon="-2.35696">
        <ele>231.39999389648</ele>
        <time>2019-11-03T08:26:07.000Z</time>
      </trkpt>
      <trkpt lat="47.28178" lon="-2.35702">
        <ele>230.80000305176</ele>
        <time>2019-11-03T08:26:10.000Z</time>
      </trkpt>
      <trkpt lat="47.28181" lon="-2.35703">
        <ele>230.39999389648</ele>
        <time>2019-11-03T08:26:11.000Z</time>
      </trkpt>
      <trkpt lat="47.28183" lon="-2.35703">
        <ele>230</ele>
        <time>2019-11-03T08:26:12.000Z</time>
      </trkpt>
      <trkpt lat="47.28185" lon="-2.35703">
        <ele>229.39999389648</ele>
        <time>2019-11-03T08:26:13.000Z</time>
      </trkpt>
      <trkpt lat="47.28188" lon="-2.35706">
        <ele>228.60000610352</ele>
        <time>2019-11-03T08:26:14.000Z</time>
      </trkpt>
      <trkpt lat="47.28189" lon="-2.35707">
        <ele>228.19999694824</ele>
        <time>2019-11-03T08:26:15.000Z</time>
      </trkpt>
      <trkpt lat="47.28191" lon="-2.35709">
        <ele>227.80000305176</ele>
        <time>2019-11-03T08:26:16.000Z</time>
      </trkpt>
      <trkpt lat="47.28192" lon="-2.35711">
        <ele>227.19999694824</ele>
        <time>2019-11-03T08:26:17.000Z</time>
      </trkpt>
      <trkpt lat="47.28195" lon="-2.35714">
        <ele>226.80000305176</ele>
        <time>2019-11-03T08:26:18.000Z</time>
      </trkpt>
      <trkpt lat="47.28203" lon="-2.35717">
        <ele>226.80000305176</ele>
        <time>2019-11-03T08:26:21.000Z</time>
      </trkpt>
      <trkpt lat="47.2821" lon="-2.35718">
        <ele>226.80000305176</ele>
        <time>2019-11-03T08:26:26.000Z</time>
      </trkpt>
      <trkpt lat="47.2822" lon="-2.35721">
        <ele>226.80000305176</ele>
        <time>2019-11-03T08:26:32.000Z</time>
      </trkpt>
      <trkpt lat="47.28225" lon="-2.35722">
        <ele>226.80000305176</ele>
        <time>2019-11-03T08:26:35.000Z</time>
      </trkpt>
      <trkpt lat="47.28229" lon="-2.35722">
        <ele>226.80000305176</ele>
        <time>2019-11-03T08:26:38.000Z</time>
      </trkpt>
      <trkpt lat="47.28231" lon="-2.35722">
        <ele>226.80000305176</ele>
        <time>2019-11-03T08:26:40.000Z</time>
      </trkpt>
      <trkpt lat="47.28233" lon="-2.3572">
        <ele>226.80000305176</ele>
        <time>2019-11-03T08:27:13.000Z</time>
      </trkpt>
      <trkpt lat="47.28237" lon="-2.35718">
        <ele>226.80000305176</ele>
        <time>2019-11-03T08:27:15.000Z</time>
      </trkpt>
      <trkpt lat="47.28246" lon="-2.35709">
        <ele>226.80000305176</ele>
        <time>2019-11-03T08:27:20.000Z</time>
      </trkpt>
      <trkpt lat="47.28248" lon="-2.35708">
        <ele>226.80000305176</ele>
        <time>2019-11-03T08:27:21.000Z</time>
      </trkpt>
      <trkpt lat="47.2825" lon="-2.35708">
        <ele>227.19999694824</ele>
        <time>2019-11-03T08:27:22.000Z</time>
      </trkpt>
      <trkpt lat="47.28251" lon="-2.35709">
        <ele>227.60000610352</ele>
        <time>2019-11-03T08:27:23.000Z</time>
      </trkpt>
      <trkpt lat="47.28254" lon="-2.35709">
        <ele>228.19999694824</ele>
        <time>2019-11-03T08:27:24.000Z</time>
      </trkpt>
      <trkpt lat="47.28256" lon="-2.3571">
        <ele>228.60000610352</ele>
        <time>2019-11-03T08:27:25.000Z</time>
      </trkpt>
      <trkpt lat="47.28259" lon="-2.35712">
        <ele>229</ele>
        <time>2019-11-03T08:27:26.000Z</time>
      </trkpt>
      <trkpt lat="47.28266" lon="-2.35728">
        <ele>229</ele>
        <time>2019-11-03T08:27:32.000Z</time>
      </trkpt>
      <trkpt lat="47.2826" lon="-2.35737">
        <ele>229</ele>
        <time>2019-11-03T08:27:36.000Z</time>
      </trkpt>
      <trkpt lat="47.28258" lon="-2.35739">
        <ele>229</ele>
        <time>2019-11-03T08:27:37.000Z</time>
      </trkpt>
      <trkpt lat="47.28253" lon="-2.35746">
        <ele>229</ele>
        <time>2019-11-03T08:27:40.000Z</time>
      </trkpt>
      <trkpt lat="47.28252" lon="-2.35749">
        <ele>229</ele>
        <time>2019-11-03T08:27:41.000Z</time>
      </trkpt>
      <trkpt lat="47.28242" lon="-2.35766">
        <ele>229</ele>
        <time>2019-11-03T08:27:47.000Z</time>
      </trkpt>
      <trkpt lat="47.28232" lon="-2.35764">
        <ele>229</ele>
        <time>2019-11-03T08:27:53.000Z</time>
      </trkpt>
      <trkpt lat="47.28227" lon="-2.35762">
        <ele>229</ele>
        <time>2019-11-03T08:27:59.000Z</time>
      </trkpt>
      <trkpt lat="47.28211" lon="-2.35752">
        <ele>229</ele>
        <time>2019-11-03T08:28:17.000Z</time>
      </trkpt>
      <trkpt lat="47.28208" lon="-2.35757">
        <ele>229.39999389648</ele>
        <time>2019-11-03T08:28:19.000Z</time>
      </trkpt>
      <trkpt lat="47.28208" lon="-2.3576">
        <ele>229.80000305176</ele>
        <time>2019-11-03T08:28:20.000Z</time>
      </trkpt>
      <trkpt lat="47.28207" lon="-2.35762">
        <ele>230.19999694824</ele>
        <time>2019-11-03T08:28:21.000Z</time>
      </trkpt>
      <trkpt lat="47.28207" lon="-2.35765">
        <ele>230.60000610352</ele>
        <time>2019-11-03T08:28:22.000Z</time>
      </trkpt>
      <trkpt lat="47.28207" lon="-2.35768">
        <ele>231</ele>
        <time>2019-11-03T08:28:23.000Z</time>
      </trkpt>
      <trkpt lat="47.28208" lon="-2.3577">
        <ele>231.60000610352</ele>
        <time>2019-11-03T08:28:24.000Z</time>
      </trkpt>
      <trkpt lat="47.28208" lon="-2.35772">
        <ele>232</ele>
        <time>2019-11-03T08:28:25.000Z</time>
      </trkpt>
      <trkpt lat="47.28208" lon="-2.35774">
        <ele>232.60000610352</ele>
        <time>2019-11-03T08:28:26.000Z</time>
      </trkpt>
      <trkpt lat="47.28208" lon="-2.35777">
        <ele>233</ele>
        <time>2019-11-03T08:28:27.000Z</time>
      </trkpt>
      <trkpt lat="47.28212" lon="-2.35787">
        <ele>233</ele>
        <time>2019-11-03T08:28:33.000Z</time>
      </trkpt>
      <trkpt lat="47.28213" lon="-2.35788">
        <ele>233</ele>
        <time>2019-11-03T08:28:34.000Z</time>
      </trkpt>
      <trkpt lat="47.28217" lon="-2.35787">
        <ele>233</ele>
        <time>2019-11-03T08:28:40.000Z</time>
      </trkpt>
      <trkpt lat="47.28219" lon="-2.35784">
        <ele>233</ele>
        <time>2019-11-03T08:28:42.000Z</time>
      </trkpt>
      <trkpt lat="47.28223" lon="-2.35782">
        <ele>233</ele>
        <time>2019-11-03T08:28:44.000Z</time>
      </trkpt>
      <trkpt lat="47.28232" lon="-2.35777">
        <ele>233</ele>
        <time>2019-11-03T08:28:48.000Z</time>
      </trkpt>
      <trkpt lat="47.28233" lon="-2.35777">
        <ele>233</ele>
        <time>2019-11-03T08:28:49.000Z</time>
      </trkpt>
      <trkpt lat="47.28235" lon="-2.3578">
        <ele>233</ele>
        <time>2019-11-03T08:28:51.000Z</time>
      </trkpt>
      <trkpt lat="47.28236" lon="-2.3578">
        <ele>233</ele>
        <time>2019-11-03T08:28:52.000Z</time>
      </trkpt>
      <trkpt lat="47.28249" lon="-2.35791">
        <ele>233</ele>
        <time>2019-11-03T08:28:58.000Z</time>
      </trkpt>
      <trkpt lat="47.28257" lon="-2.35812">
        <ele>233</ele>
        <time>2019-11-03T08:29:03.000Z</time>
      </trkpt>
      <trkpt lat="47.2826" lon="-2.3583">
        <ele>233</ele>
        <time>2019-11-03T08:29:08.000Z</time>
      </trkpt>
      <trkpt lat="47.28267" lon="-2.35854">
        <ele>233</ele>
        <time>2019-11-03T08:29:14.000Z</time>
      </trkpt>
      <trkpt lat="47.2827" lon="-2.35856">
        <ele>233</ele>
        <time>2019-11-03T08:29:15.000Z</time>
      </trkpt>
      <trkpt lat="47.28274" lon="-2.35859">
        <ele>232.60000610352</ele>
        <time>2019-11-03T08:29:17.000Z</time>
      </trkpt>
      <trkpt lat="47.28274" lon="-2.35862">
        <ele>232.19999694824</ele>
        <time>2019-11-03T08:29:18.000Z</time>
      </trkpt>
      <trkpt lat="47.28273" lon="-2.35864">
        <ele>231.80000305176</ele>
        <time>2019-11-03T08:29:19.000Z</time>
      </trkpt>
      <trkpt lat="47.28271" lon="-2.35867">
        <ele>231.19999694824</ele>
        <time>2019-11-03T08:29:20.000Z</time>
      </trkpt>
      <trkpt lat="47.28271" lon="-2.35868">
        <ele>230.80000305176</ele>
        <time>2019-11-03T08:29:21.000Z</time>
      </trkpt>
      <trkpt lat="47.28265" lon="-2.35877">
        <ele>230.80000305176</ele>
        <time>2019-11-03T08:29:25.000Z</time>
      </trkpt>
      <trkpt lat="47.28262" lon="-2.35884">
        <ele>230.80000305176</ele>
        <time>2019-11-03T08:29:27.000Z</time>
      </trkpt>
      <trkpt lat="47.28252" lon="-2.35892">
        <ele>230.80000305176</ele>
        <time>2019-11-03T08:29:32.000Z</time>
      </trkpt>
      <trkpt lat="47.28252" lon="-2.35895">
        <ele>230.80000305176</ele>
        <time>2019-11-03T08:29:33.000Z</time>
      </trkpt>
      <trkpt lat="47.28253" lon="-2.35901">
        <ele>230.80000305176</ele>
        <time>2019-11-03T08:29:36.000Z</time>
      </trkpt>
      <trkpt lat="47.28253" lon="-2.35904">
        <ele>230.80000305176</ele>
        <time>2019-11-03T08:29:37.000Z</time>
      </trkpt>
      <trkpt lat="47.28261" lon="-2.35918">
        <ele>230.80000305176</ele>
        <time>2019-11-03T08:29:41.000Z</time>
      </trkpt>
      <trkpt lat="47.28271" lon="-2.35938">
        <ele>230.80000305176</ele>
        <time>2019-11-03T08:29:46.000Z</time>
      </trkpt>
      <trkpt lat="47.28274" lon="-2.35959">
        <ele>230.80000305176</ele>
        <time>2019-11-03T08:29:49.000Z</time>
      </trkpt>
      <trkpt lat="47.28273" lon="-2.35971">
        <ele>230.39999389648</ele>
        <time>2019-11-03T08:29:51.000Z</time>
      </trkpt>
      <trkpt lat="47.28273" lon="-2.35976">
        <ele>230</ele>
        <time>2019-11-03T08:29:52.000Z</time>
      </trkpt>
      <trkpt lat="47.28272" lon="-2.35985">
        <ele>229.60000610352</ele>
        <time>2019-11-03T08:29:53.000Z</time>
      </trkpt>
      <trkpt lat="47.2827" lon="-2.3599">
        <ele>229.19999694824</ele>
        <time>2019-11-03T08:29:54.000Z</time>
      </trkpt>
      <trkpt lat="47.2827" lon="-2.35995">
        <ele>228.80000305176</ele>
        <time>2019-11-03T08:29:55.000Z</time>
      </trkpt>
      <trkpt lat="47.2827" lon="-2.36">
        <ele>228.80000305176</ele>
        <time>2019-11-03T08:29:56.000Z</time>
      </trkpt>
      <trkpt lat="47.28272" lon="-2.36005">
        <ele>228.80000305176</ele>
        <time>2019-11-03T08:29:57.000Z</time>
      </trkpt>
      <trkpt lat="47.28273" lon="-2.36012">
        <ele>229.19999694824</ele>
        <time>2019-11-03T08:29:59.000Z</time>
      </trkpt>
      <trkpt lat="47.28275" lon="-2.36015">
        <ele>229.80000305176</ele>
        <time>2019-11-03T08:30:00.000Z</time>
      </trkpt>
      <trkpt lat="47.28276" lon="-2.36018">
        <ele>230.19999694824</ele>
        <time>2019-11-03T08:30:01.000Z</time>
      </trkpt>
      <trkpt lat="47.28277" lon="-2.3602">
        <ele>230.80000305176</ele>
        <time>2019-11-03T08:30:02.000Z</time>
      </trkpt>
      <trkpt lat="47.28278" lon="-2.36022">
        <ele>231.19999694824</ele>
        <time>2019-11-03T08:30:03.000Z</time>
      </trkpt>
      <trkpt lat="47.28281" lon="-2.36027">
        <ele>231.60000610352</ele>
        <time>2019-11-03T08:30:05.000Z</time>
      </trkpt>
      <trkpt lat="47.28282" lon="-2.36028">
        <ele>232.19999694824</ele>
        <time>2019-11-03T08:30:06.000Z</time>
      </trkpt>
      <trkpt lat="47.28284" lon="-2.3603">
        <ele>232.60000610352</ele>
        <time>2019-11-03T08:30:07.000Z</time>
      </trkpt>
      <trkpt lat="47.28285" lon="-2.36032">
        <ele>233</ele>
        <time>2019-11-03T08:30:08.000Z</time>
      </trkpt>
      <trkpt lat="47.28286" lon="-2.36034">
        <ele>233.60000610352</ele>
        <time>2019-11-03T08:30:09.000Z</time>
      </trkpt>
      <trkpt lat="47.28288" lon="-2.36035">
        <ele>234.19999694824</ele>
        <time>2019-11-03T08:30:10.000Z</time>
      </trkpt>
      <trkpt lat="47.28289" lon="-2.36035">
        <ele>234.80000305176</ele>
        <time>2019-11-03T08:30:11.000Z</time>
      </trkpt>
      <trkpt lat="47.2829" lon="-2.36036">
        <ele>235.39999389648</ele>
        <time>2019-11-03T08:30:12.000Z</time>
      </trkpt>
      <trkpt lat="47.28291" lon="-2.36036">
        <ele>236</ele>
        <time>2019-11-03T08:30:13.000Z</time>
      </trkpt>
      <trkpt lat="47.28304" lon="-2.36045">
        <ele>236</ele>
        <time>2019-11-03T08:30:17.000Z</time>
      </trkpt>
      <trkpt lat="47.28306" lon="-2.36047">
        <ele>236</ele>
        <time>2019-11-03T08:30:18.000Z</time>
      </trkpt>
      <trkpt lat="47.28317" lon="-2.36048">
        <ele>236</ele>
        <time>2019-11-03T08:30:22.000Z</time>
      </trkpt>
      <trkpt lat="47.2833" lon="-2.36037">
        <ele>236</ele>
        <time>2019-11-03T08:30:27.000Z</time>
      </trkpt>
      <trkpt lat="47.28332" lon="-2.36037">
        <ele>236.39999389648</ele>
        <time>2019-11-03T08:30:28.000Z</time>
      </trkpt>
      <trkpt lat="47.28335" lon="-2.36034">
        <ele>236.80000305176</ele>
        <time>2019-11-03T08:30:29.000Z</time>
      </trkpt>
      <trkpt lat="47.28338" lon="-2.36033">
        <ele>237.19999694824</ele>
        <time>2019-11-03T08:30:30.000Z</time>
      </trkpt>
      <trkpt lat="47.28341" lon="-2.3603">
        <ele>237.60000610352</ele>
        <time>2019-11-03T08:30:31.000Z</time>
      </trkpt>
      <trkpt lat="47.28342" lon="-2.36028">
        <ele>238</ele>
        <time>2019-11-03T08:30:32.000Z</time>
      </trkpt>
      <trkpt lat="47.2835" lon="-2.36021">
        <ele>238</ele>
        <time>2019-11-03T08:30:36.000Z</time>
      </trkpt>
      <trkpt lat="47.28354" lon="-2.3602">
        <ele>238.39999389648</ele>
        <time>2019-11-03T08:30:38.000Z</time>
      </trkpt>
      <trkpt lat="47.28356" lon="-2.36019">
        <ele>238.80000305176</ele>
        <time>2019-11-03T08:30:39.000Z</time>
      </trkpt>
      <trkpt lat="47.28358" lon="-2.36019">
        <ele>239.39999389648</ele>
        <time>2019-11-03T08:30:40.000Z</time>
      </trkpt>
      <trkpt lat="47.28361" lon="-2.36019">
        <ele>239.80000305176</ele>
        <time>2019-11-03T08:30:41.000Z</time>
      </trkpt>
      <trkpt lat="47.28364" lon="-2.36019">
        <ele>240.19999694824</ele>
        <time>2019-11-03T08:30:42.000Z</time>
      </trkpt>
      <trkpt lat="47.28369" lon="-2.36018">
        <ele>240.60000610352</ele>
        <time>2019-11-03T08:30:45.000Z</time>
      </trkpt>
      <trkpt lat="47.28371" lon="-2.36017">
        <ele>241</ele>
        <time>2019-11-03T08:30:46.000Z</time>
      </trkpt>
      <trkpt lat="47.28373" lon="-2.36017">
        <ele>241.39999389648</ele>
        <time>2019-11-03T08:30:47.000Z</time>
      </trkpt>
      <trkpt lat="47.28375" lon="-2.36016">
        <ele>242</ele>
        <time>2019-11-03T08:30:48.000Z</time>
      </trkpt>
      <trkpt lat="47.28376" lon="-2.36016">
        <ele>242.39999389648</ele>
        <time>2019-11-03T08:30:49.000Z</time>
      </trkpt>
      <trkpt lat="47.28379" lon="-2.36016">
        <ele>242.80000305176</ele>
        <time>2019-11-03T08:30:51.000Z</time>
      </trkpt>
      <trkpt lat="47.2838" lon="-2.36016">
        <ele>243.19999694824</ele>
        <time>2019-11-03T08:30:52.000Z</time>
      </trkpt>
      <trkpt lat="47.28382" lon="-2.36015">
        <ele>243.60000610352</ele>
        <time>2019-11-03T08:30:53.000Z</time>
      </trkpt>
      <trkpt lat="47.28384" lon="-2.36015">
        <ele>244</ele>
        <time>2019-11-03T08:30:54.000Z</time>
      </trkpt>
      <trkpt lat="47.28386" lon="-2.36014">
        <ele>244.39999389648</ele>
        <time>2019-11-03T08:30:55.000Z</time>
      </trkpt>
      <trkpt lat="47.28394" lon="-2.36014">
        <ele>244.39999389648</ele>
        <time>2019-11-03T08:30:59.000Z</time>
      </trkpt>
      <trkpt lat="47.28396" lon="-2.36014">
        <ele>244.80000305176</ele>
        <time>2019-11-03T08:31:00.000Z</time>
      </trkpt>
      <trkpt lat="47.28398" lon="-2.36013">
        <ele>245.19999694824</ele>
        <time>2019-11-03T08:31:01.000Z</time>
      </trkpt>
      <trkpt lat="47.284" lon="-2.36012">
        <ele>245.60000610352</ele>
        <time>2019-11-03T08:31:02.000Z</time>
      </trkpt>
      <trkpt lat="47.28403" lon="-2.36009">
        <ele>246</ele>
        <time>2019-11-03T08:31:03.000Z</time>
      </trkpt>
      <trkpt lat="47.28406" lon="-2.36006">
        <ele>246.39999389648</ele>
        <time>2019-11-03T08:31:04.000Z</time>
      </trkpt>
      <trkpt lat="47.28417" lon="-2.35993">
        <ele>246.39999389648</ele>
        <time>2019-11-03T08:31:09.000Z</time>
      </trkpt>
      <trkpt lat="47.2843" lon="-2.35987">
        <ele>246.39999389648</ele>
        <time>2019-11-03T08:31:14.000Z</time>
      </trkpt>
      <trkpt lat="47.28443" lon="-2.35988">
        <ele>246.39999389648</ele>
        <time>2019-11-03T08:31:19.000Z</time>
      </trkpt>
      <trkpt lat="47.28446" lon="-2.35992">
        <ele>246.39999389648</ele>
        <time>2019-11-03T08:31:21.000Z</time>
      </trkpt>
      <trkpt lat="47.28448" lon="-2.35996">
        <ele>246.39999389648</ele>
        <time>2019-11-03T08:31:24.000Z</time>
      </trkpt>
      <trkpt lat="47.28449" lon="-2.35997">
        <ele>246.39999389648</ele>
        <time>2019-11-03T08:31:26.000Z</time>
      </trkpt>
      <trkpt lat="47.28455" lon="-2.36006">
        <ele>246.39999389648</ele>
        <time>2019-11-03T08:31:36.000Z</time>
      </trkpt>
      <trkpt lat="47.28456" lon="-2.36009">
        <ele>246.39999389648</ele>
        <time>2019-11-03T08:31:37.000Z</time>
      </trkpt>
      <trkpt lat="47.28464" lon="-2.36019">
        <ele>246.39999389648</ele>
        <time>2019-11-03T08:31:41.000Z</time>
      </trkpt>
      <trkpt lat="47.28467" lon="-2.36021">
        <ele>246.39999389648</ele>
        <time>2019-11-03T08:31:43.000Z</time>
      </trkpt>
      <trkpt lat="47.28483" lon="-2.36029">
        <ele>246.39999389648</ele>
        <time>2019-11-03T08:31:51.000Z</time>
      </trkpt>
      <trkpt lat="47.28485" lon="-2.3603">
        <ele>246.80000305176</ele>
        <time>2019-11-03T08:31:52.000Z</time>
      </trkpt>
      <trkpt lat="47.28487" lon="-2.36031">
        <ele>247.19999694824</ele>
        <time>2019-11-03T08:31:53.000Z</time>
      </trkpt>
      <trkpt lat="47.28489" lon="-2.36033">
        <ele>247.80000305176</ele>
        <time>2019-11-03T08:31:54.000Z</time>
      </trkpt>
      <trkpt lat="47.28492" lon="-2.36036">
        <ele>248.19999694824</ele>
        <time>2019-11-03T08:31:55.000Z</time>
      </trkpt>
      <trkpt lat="47.28494" lon="-2.36038">
        <ele>248.60000610352</ele>
        <time>2019-11-03T08:31:56.000Z</time>
      </trkpt>
      <trkpt lat="47.28495" lon="-2.36039">
        <ele>248.60000610352</ele>
        <time>2019-11-03T08:31:57.000Z</time>
      </trkpt>
      <trkpt lat="47.2851" lon="-2.36059">
        <ele>248.60000610352</ele>
        <time>2019-11-03T08:32:02.000Z</time>
      </trkpt>
      <trkpt lat="47.2852" lon="-2.3608">
        <ele>248.60000610352</ele>
        <time>2019-11-03T08:32:07.000Z</time>
      </trkpt>
      <trkpt lat="47.28524" lon="-2.36105">
        <ele>248.60000610352</ele>
        <time>2019-11-03T08:32:11.000Z</time>
      </trkpt>
      <trkpt lat="47.28525" lon="-2.36112">
        <ele>248.60000610352</ele>
        <time>2019-11-03T08:32:12.000Z</time>
      </trkpt>
      <trkpt lat="47.28534" lon="-2.36136">
        <ele>248.60000610352</ele>
        <time>2019-11-03T08:32:16.000Z</time>
      </trkpt>
      <trkpt lat="47.28542" lon="-2.36148">
        <ele>248.60000610352</ele>
        <time>2019-11-03T08:32:19.000Z</time>
      </trkpt>
      <trkpt lat="47.28546" lon="-2.36149">
        <ele>248.60000610352</ele>
        <time>2019-11-03T08:32:22.000Z</time>
      </trkpt>
      <trkpt lat="47.2855" lon="-2.36147">
        <ele>248.60000610352</ele>
        <time>2019-11-03T08:32:24.000Z</time>
      </trkpt>
      <trkpt lat="47.28558" lon="-2.36144">
        <ele>249</ele>
        <time>2019-11-03T08:32:27.000Z</time>
      </trkpt>
      <trkpt lat="47.2856" lon="-2.36143">
        <ele>249.39999389648</ele>
        <time>2019-11-03T08:32:28.000Z</time>
      </trkpt>
      <trkpt lat="47.28561" lon="-2.36143">
        <ele>249.80000305176</ele>
        <time>2019-11-03T08:32:29.000Z</time>
      </trkpt>
      <trkpt lat="47.28564" lon="-2.36143">
        <ele>250.19999694824</ele>
        <time>2019-11-03T08:32:30.000Z</time>
      </trkpt>
      <trkpt lat="47.28566" lon="-2.36144">
        <ele>250.60000610352</ele>
        <time>2019-11-03T08:32:31.000Z</time>
      </trkpt>
      <trkpt lat="47.28569" lon="-2.36144">
        <ele>251.19999694824</ele>
        <time>2019-11-03T08:32:32.000Z</time>
      </trkpt>
      <trkpt lat="47.28571" lon="-2.36145">
        <ele>251.60000610352</ele>
        <time>2019-11-03T08:32:33.000Z</time>
      </trkpt>
      <trkpt lat="47.28574" lon="-2.36147">
        <ele>252</ele>
        <time>2019-11-03T08:32:34.000Z</time>
      </trkpt>
      <trkpt lat="47.28577" lon="-2.36148">
        <ele>252.39999389648</ele>
        <time>2019-11-03T08:32:35.000Z</time>
      </trkpt>
      <trkpt lat="47.28579" lon="-2.36149">
        <ele>252.80000305176</ele>
        <time>2019-11-03T08:32:36.000Z</time>
      </trkpt>
      <trkpt lat="47.28597" lon="-2.3615">
        <ele>252.80000305176</ele>
        <time>2019-11-03T08:32:41.000Z</time>
      </trkpt>
      <trkpt lat="47.28611" lon="-2.36141">
        <ele>252.80000305176</ele>
        <time>2019-11-03T08:32:46.000Z</time>
      </trkpt>
      <trkpt lat="47.28625" lon="-2.36141">
        <ele>252.80000305176</ele>
        <time>2019-11-03T08:32:50.000Z</time>
      </trkpt>
      <trkpt lat="47.28634" lon="-2.36158">
        <ele>252.80000305176</ele>
        <time>2019-11-03T08:32:54.000Z</time>
      </trkpt>
      <trkpt lat="47.28643" lon="-2.36167">
        <ele>252.80000305176</ele>
        <time>2019-11-03T08:32:56.000Z</time>
      </trkpt>
      <trkpt lat="47.28646" lon="-2.36171">
        <ele>252.80000305176</ele>
        <time>2019-11-03T08:32:57.000Z</time>
      </trkpt>
      <trkpt lat="47.28652" lon="-2.36182">
        <ele>252.39999389648</ele>
        <time>2019-11-03T08:32:59.000Z</time>
      </trkpt>
      <trkpt lat="47.28654" lon="-2.36188">
        <ele>252</ele>
        <time>2019-11-03T08:33:00.000Z</time>
      </trkpt>
      <trkpt lat="47.28655" lon="-2.36195">
        <ele>251.60000610352</ele>
        <time>2019-11-03T08:33:01.000Z</time>
      </trkpt>
      <trkpt lat="47.28656" lon="-2.36201">
        <ele>251.19999694824</ele>
        <time>2019-11-03T08:33:02.000Z</time>
      </trkpt>
      <trkpt lat="47.28659" lon="-2.36207">
        <ele>250.80000305176</ele>
        <time>2019-11-03T08:33:03.000Z</time>
      </trkpt>
      <trkpt lat="47.28661" lon="-2.36224">
        <ele>250.80000305176</ele>
        <time>2019-11-03T08:33:06.000Z</time>
      </trkpt>
      <trkpt lat="47.28659" lon="-2.36238">
        <ele>250.80000305176</ele>
        <time>2019-11-03T08:33:08.000Z</time>
      </trkpt>
      <trkpt lat="47.28659" lon="-2.36258">
        <ele>250.80000305176</ele>
        <time>2019-11-03T08:33:11.000Z</time>
      </trkpt>
      <trkpt lat="47.28662" lon="-2.36268">
        <ele>250.19999694824</ele>
        <time>2019-11-03T08:33:13.000Z</time>
      </trkpt>
      <trkpt lat="47.28665" lon="-2.36273">
        <ele>249.80000305176</ele>
        <time>2019-11-03T08:33:14.000Z</time>
      </trkpt>
      <trkpt lat="47.28668" lon="-2.36276">
        <ele>249.39999389648</ele>
        <time>2019-11-03T08:33:15.000Z</time>
      </trkpt>
      <trkpt lat="47.28671" lon="-2.36278">
        <ele>249</ele>
        <time>2019-11-03T08:33:16.000Z</time>
      </trkpt>
      <trkpt lat="47.28674" lon="-2.3628">
        <ele>248.60000610352</ele>
        <time>2019-11-03T08:33:17.000Z</time>
      </trkpt>
      <trkpt lat="47.28681" lon="-2.3628">
        <ele>248.60000610352</ele>
        <time>2019-11-03T08:33:19.000Z</time>
      </trkpt>
      <trkpt lat="47.28687" lon="-2.36279">
        <ele>248.60000610352</ele>
        <time>2019-11-03T08:33:21.000Z</time>
      </trkpt>
      <trkpt lat="47.28699" lon="-2.36281">
        <ele>248.60000610352</ele>
        <time>2019-11-03T08:33:25.000Z</time>
      </trkpt>
      <trkpt lat="47.28703" lon="-2.36296">
        <ele>248.60000610352</ele>
        <time>2019-11-03T08:33:29.000Z</time>
      </trkpt>
      <trkpt lat="47.28702" lon="-2.36316">
        <ele>248.60000610352</ele>
        <time>2019-11-03T08:33:34.000Z</time>
      </trkpt>
      <trkpt lat="47.28702" lon="-2.36336">
        <ele>248.60000610352</ele>
        <time>2019-11-03T08:33:39.000Z</time>
      </trkpt>
      <trkpt lat="47.28702" lon="-2.36339">
        <ele>249</ele>
        <time>2019-11-03T08:33:40.000Z</time>
      </trkpt>
      <trkpt lat="47.28702" lon="-2.36343">
        <ele>249.39999389648</ele>
        <time>2019-11-03T08:33:41.000Z</time>
      </trkpt>
      <trkpt lat="47.28701" lon="-2.36347">
        <ele>249.80000305176</ele>
        <time>2019-11-03T08:33:42.000Z</time>
      </trkpt>
      <trkpt lat="47.287" lon="-2.36351">
        <ele>250.19999694824</ele>
        <time>2019-11-03T08:33:43.000Z</time>
      </trkpt>
      <trkpt lat="47.287" lon="-2.36355">
        <ele>250.60000610352</ele>
        <time>2019-11-03T08:33:44.000Z</time>
      </trkpt>
      <trkpt lat="47.28695" lon="-2.36381">
        <ele>251</ele>
        <time>2019-11-03T08:33:50.000Z</time>
      </trkpt>
      <trkpt lat="47.28694" lon="-2.36385">
        <ele>251.39999389648</ele>
        <time>2019-11-03T08:33:51.000Z</time>
      </trkpt>
      <trkpt lat="47.28693" lon="-2.36389">
        <ele>251.80000305176</ele>
        <time>2019-11-03T08:33:52.000Z</time>
      </trkpt>
      <trkpt lat="47.28692" lon="-2.36393">
        <ele>252.19999694824</ele>
        <time>2019-11-03T08:33:53.000Z</time>
      </trkpt>
      <trkpt lat="47.28691" lon="-2.36397">
        <ele>252.60000610352</ele>
        <time>2019-11-03T08:33:54.000Z</time>
      </trkpt>
      <trkpt lat="47.28691" lon="-2.36422">
        <ele>252.60000610352</ele>
        <time>2019-11-03T08:33:59.000Z</time>
      </trkpt>
      <trkpt lat="47.28688" lon="-2.3645">
        <ele>253</ele>
        <time>2019-11-03T08:34:05.000Z</time>
      </trkpt>
      <trkpt lat="47.28688" lon="-2.36456">
        <ele>253.39999389648</ele>
        <time>2019-11-03T08:34:06.000Z</time>
      </trkpt>
      <trkpt lat="47.28687" lon="-2.36462">
        <ele>253.80000305176</ele>
        <time>2019-11-03T08:34:07.000Z</time>
      </trkpt>
      <trkpt lat="47.28686" lon="-2.36467">
        <ele>254.19999694824</ele>
        <time>2019-11-03T08:34:08.000Z</time>
      </trkpt>
      <trkpt lat="47.28686" lon="-2.36473">
        <ele>254.80000305176</ele>
        <time>2019-11-03T08:34:09.000Z</time>
      </trkpt>
      <trkpt lat="47.28686" lon="-2.36479">
        <ele>254.80000305176</ele>
        <time>2019-11-03T08:34:10.000Z</time>
      </trkpt>
      <trkpt lat="47.28684" lon="-2.36513">
        <ele>254.80000305176</ele>
        <time>2019-11-03T08:34:16.000Z</time>
      </trkpt>
      <trkpt lat="47.28685" lon="-2.36527">
        <ele>254.19999694824</ele>
        <time>2019-11-03T08:34:18.000Z</time>
      </trkpt>
      <trkpt lat="47.28686" lon="-2.36534">
        <ele>253.80000305176</ele>
        <time>2019-11-03T08:34:19.000Z</time>
      </trkpt>
      <trkpt lat="47.28686" lon="-2.36541">
        <ele>253.39999389648</ele>
        <time>2019-11-03T08:34:20.000Z</time>
      </trkpt>
      <trkpt lat="47.28687" lon="-2.36547">
        <ele>252.60000610352</ele>
        <time>2019-11-03T08:34:21.000Z</time>
      </trkpt>
      <trkpt lat="47.28688" lon="-2.36554">
        <ele>252</ele>
        <time>2019-11-03T08:34:22.000Z</time>
      </trkpt>
      <trkpt lat="47.28689" lon="-2.36562">
        <ele>251.39999389648</ele>
        <time>2019-11-03T08:34:23.000Z</time>
      </trkpt>
      <trkpt lat="47.2869" lon="-2.3657">
        <ele>250.80000305176</ele>
        <time>2019-11-03T08:34:24.000Z</time>
      </trkpt>
      <trkpt lat="47.2869" lon="-2.36578">
        <ele>250.19999694824</ele>
        <time>2019-11-03T08:34:25.000Z</time>
      </trkpt>
      <trkpt lat="47.28689" lon="-2.36583">
        <ele>249.60000610352</ele>
        <time>2019-11-03T08:34:26.000Z</time>
      </trkpt>
      <trkpt lat="47.28687" lon="-2.36588">
        <ele>249</ele>
        <time>2019-11-03T08:34:27.000Z</time>
      </trkpt>
      <trkpt lat="47.28685" lon="-2.36593">
        <ele>248</ele>
        <time>2019-11-03T08:34:28.000Z</time>
      </trkpt>
      <trkpt lat="47.28682" lon="-2.36598">
        <ele>247.39999389648</ele>
        <time>2019-11-03T08:34:29.000Z</time>
      </trkpt>
      <trkpt lat="47.2868" lon="-2.36604">
        <ele>247</ele>
        <time>2019-11-03T08:34:30.000Z</time>
      </trkpt>
      <trkpt lat="47.28677" lon="-2.3661">
        <ele>246.39999389648</ele>
        <time>2019-11-03T08:34:31.000Z</time>
      </trkpt>
      <trkpt lat="47.28672" lon="-2.36611">
        <ele>245.80000305176</ele>
        <time>2019-11-03T08:34:32.000Z</time>
      </trkpt>
      <trkpt lat="47.28655" lon="-2.36616">
        <ele>245.80000305176</ele>
        <time>2019-11-03T08:34:35.000Z</time>
      </trkpt>
      <trkpt lat="47.28646" lon="-2.3662">
        <ele>245.80000305176</ele>
        <time>2019-11-03T08:34:37.000Z</time>
      </trkpt>
      <trkpt lat="47.28642" lon="-2.36622">
        <ele>245.39999389648</ele>
        <time>2019-11-03T08:34:38.000Z</time>
      </trkpt>
      <trkpt lat="47.28637" lon="-2.36625">
        <ele>245</ele>
        <time>2019-11-03T08:34:39.000Z</time>
      </trkpt>
      <trkpt lat="47.28633" lon="-2.36627">
        <ele>244.60000610352</ele>
        <time>2019-11-03T08:34:40.000Z</time>
      </trkpt>
      <trkpt lat="47.28629" lon="-2.36629">
        <ele>244.19999694824</ele>
        <time>2019-11-03T08:34:41.000Z</time>
      </trkpt>
      <trkpt lat="47.28625" lon="-2.3663">
        <ele>243.60000610352</ele>
        <time>2019-11-03T08:34:42.000Z</time>
      </trkpt>
      <trkpt lat="47.28618" lon="-2.3663">
        <ele>243.60000610352</ele>
        <time>2019-11-03T08:34:43.000Z</time>
      </trkpt>
      <trkpt lat="47.28614" lon="-2.36632">
        <ele>243.19999694824</ele>
        <time>2019-11-03T08:34:44.000Z</time>
      </trkpt>
      <trkpt lat="47.28611" lon="-2.36634">
        <ele>242.80000305176</ele>
        <time>2019-11-03T08:34:45.000Z</time>
      </trkpt>
      <trkpt lat="47.28608" lon="-2.36636">
        <ele>242.39999389648</ele>
        <time>2019-11-03T08:34:46.000Z</time>
      </trkpt>
      <trkpt lat="47.28606" lon="-2.36637">
        <ele>241.60000610352</ele>
        <time>2019-11-03T08:34:47.000Z</time>
      </trkpt>
      <trkpt lat="47.28604" lon="-2.36638">
        <ele>241</ele>
        <time>2019-11-03T08:34:48.000Z</time>
      </trkpt>
      <trkpt lat="47.28601" lon="-2.36638">
        <ele>240.39999389648</ele>
        <time>2019-11-03T08:34:49.000Z</time>
      </trkpt>
      <trkpt lat="47.28598" lon="-2.36638">
        <ele>239.80000305176</ele>
        <time>2019-11-03T08:34:50.000Z</time>
      </trkpt>
      <trkpt lat="47.28595" lon="-2.36641">
        <ele>239.19999694824</ele>
        <time>2019-11-03T08:34:51.000Z</time>
      </trkpt>
      <trkpt lat="47.28591" lon="-2.36645">
        <ele>238.60000610352</ele>
        <time>2019-11-03T08:34:52.000Z</time>
      </trkpt>
      <trkpt lat="47.28588" lon="-2.3665">
        <ele>237.60000610352</ele>
        <time>2019-11-03T08:34:53.000Z</time>
      </trkpt>
      <trkpt lat="47.28583" lon="-2.36656">
        <ele>237</ele>
        <time>2019-11-03T08:34:54.000Z</time>
      </trkpt>
      <trkpt lat="47.28574" lon="-2.36665">
        <ele>236.60000610352</ele>
        <time>2019-11-03T08:34:56.000Z</time>
      </trkpt>
      <trkpt lat="47.28569" lon="-2.36669">
        <ele>236.19999694824</ele>
        <time>2019-11-03T08:34:57.000Z</time>
      </trkpt>
      <trkpt lat="47.28563" lon="-2.36672">
        <ele>235.80000305176</ele>
        <time>2019-11-03T08:34:58.000Z</time>
      </trkpt>
      <trkpt lat="47.28558" lon="-2.36674">
        <ele>235.39999389648</ele>
        <time>2019-11-03T08:34:59.000Z</time>
      </trkpt>
      <trkpt lat="47.28552" lon="-2.36675">
        <ele>235</ele>
        <time>2019-11-03T08:35:00.000Z</time>
      </trkpt>
      <trkpt lat="47.28546" lon="-2.36674">
        <ele>235</ele>
        <time>2019-11-03T08:35:01.000Z</time>
      </trkpt>
      <trkpt lat="47.28534" lon="-2.36673">
        <ele>235</ele>
        <time>2019-11-03T08:35:04.000Z</time>
      </trkpt>
      <trkpt lat="47.2853" lon="-2.36674">
        <ele>235</ele>
        <time>2019-11-03T08:35:07.000Z</time>
      </trkpt>
      <trkpt lat="47.28529" lon="-2.36674">
        <ele>235</ele>
        <time>2019-11-03T08:35:16.000Z</time>
      </trkpt>
      <trkpt lat="47.28525" lon="-2.36677">
        <ele>235</ele>
        <time>2019-11-03T08:35:18.000Z</time>
      </trkpt>
      <trkpt lat="47.28525" lon="-2.36683">
        <ele>235</ele>
        <time>2019-11-03T08:35:20.000Z</time>
      </trkpt>
      <trkpt lat="47.28532" lon="-2.36701">
        <ele>235</ele>
        <time>2019-11-03T08:35:24.000Z</time>
      </trkpt>
      <trkpt lat="47.28535" lon="-2.36706">
        <ele>235</ele>
        <time>2019-11-03T08:35:25.000Z</time>
      </trkpt>
      <trkpt lat="47.28541" lon="-2.36719">
        <ele>234.60000610352</ele>
        <time>2019-11-03T08:35:27.000Z</time>
      </trkpt>
      <trkpt lat="47.28543" lon="-2.36727">
        <ele>234.19999694824</ele>
        <time>2019-11-03T08:35:28.000Z</time>
      </trkpt>
      <trkpt lat="47.28546" lon="-2.36735">
        <ele>233.60000610352</ele>
        <time>2019-11-03T08:35:29.000Z</time>
      </trkpt>
      <trkpt lat="47.28549" lon="-2.36742">
        <ele>233.19999694824</ele>
        <time>2019-11-03T08:35:30.000Z</time>
      </trkpt>
      <trkpt lat="47.28552" lon="-2.3675">
        <ele>232.80000305176</ele>
        <time>2019-11-03T08:35:31.000Z</time>
      </trkpt>
      <trkpt lat="47.28563" lon="-2.36771">
        <ele>232.39999389648</ele>
        <time>2019-11-03T08:35:34.000Z</time>
      </trkpt>
      <trkpt lat="47.28567" lon="-2.36779">
        <ele>231.80000305176</ele>
        <time>2019-11-03T08:35:35.000Z</time>
      </trkpt>
      <trkpt lat="47.28571" lon="-2.36787">
        <ele>231.39999389648</ele>
        <time>2019-11-03T08:35:36.000Z</time>
      </trkpt>
      <trkpt lat="47.28574" lon="-2.36794">
        <ele>231</ele>
        <time>2019-11-03T08:35:37.000Z</time>
      </trkpt>
      <trkpt lat="47.28578" lon="-2.36802">
        <ele>230.39999389648</ele>
        <time>2019-11-03T08:35:38.000Z</time>
      </trkpt>
      <trkpt lat="47.28589" lon="-2.36824">
        <ele>230.39999389648</ele>
        <time>2019-11-03T08:35:41.000Z</time>
      </trkpt>
      <trkpt lat="47.28596" lon="-2.36838">
        <ele>230.39999389648</ele>
        <time>2019-11-03T08:35:43.000Z</time>
      </trkpt>
      <trkpt lat="47.286" lon="-2.36842">
        <ele>230</ele>
        <time>2019-11-03T08:35:44.000Z</time>
      </trkpt>
      <trkpt lat="47.28605" lon="-2.36843">
        <ele>229.60000610352</ele>
        <time>2019-11-03T08:35:45.000Z</time>
      </trkpt>
      <trkpt lat="47.2861" lon="-2.36843">
        <ele>229.19999694824</ele>
        <time>2019-11-03T08:35:46.000Z</time>
      </trkpt>
      <trkpt lat="47.28615" lon="-2.3684">
        <ele>228.80000305176</ele>
        <time>2019-11-03T08:35:47.000Z</time>
      </trkpt>
      <trkpt lat="47.2862" lon="-2.36836">
        <ele>228.39999389648</ele>
        <time>2019-11-03T08:35:48.000Z</time>
      </trkpt>
      <trkpt lat="47.28627" lon="-2.36826">
        <ele>228.39999389648</ele>
        <time>2019-11-03T08:35:50.000Z</time>
      </trkpt>
      <trkpt lat="47.28642" lon="-2.36809">
        <ele>228.39999389648</ele>
        <time>2019-11-03T08:35:54.000Z</time>
      </trkpt>
      <trkpt lat="47.28652" lon="-2.36797">
        <ele>228.39999389648</ele>
        <time>2019-11-03T08:35:57.000Z</time>
      </trkpt>
      <trkpt lat="47.28655" lon="-2.36795">
        <ele>228.80000305176</ele>
        <time>2019-11-03T08:35:58.000Z</time>
      </trkpt>
      <trkpt lat="47.28659" lon="-2.36793">
        <ele>229.19999694824</ele>
        <time>2019-11-03T08:35:59.000Z</time>
      </trkpt>
      <trkpt lat="47.28662" lon="-2.36792">
        <ele>229.60000610352</ele>
        <time>2019-11-03T08:36:00.000Z</time>
      </trkpt>
      <trkpt lat="47.28664" lon="-2.36793">
        <ele>230</ele>
        <time>2019-11-03T08:36:01.000Z</time>
      </trkpt>
      <trkpt lat="47.28666" lon="-2.36794">
        <ele>230.39999389648</ele>
        <time>2019-11-03T08:36:02.000Z</time>
      </trkpt>
      <trkpt lat="47.28667" lon="-2.36796">
        <ele>230.39999389648</ele>
        <time>2019-11-03T08:36:03.000Z</time>
      </trkpt>
      <trkpt lat="47.28668" lon="-2.36801">
        <ele>230.39999389648</ele>
        <time>2019-11-03T08:36:05.000Z</time>
      </trkpt>
      <trkpt lat="47.2867" lon="-2.3681">
        <ele>230.39999389648</ele>
        <time>2019-11-03T08:36:07.000Z</time>
      </trkpt>
      <trkpt lat="47.28685" lon="-2.36842">
        <ele>230.39999389648</ele>
        <time>2019-11-03T08:36:12.000Z</time>
      </trkpt>
      <trkpt lat="47.28688" lon="-2.3685">
        <ele>230.39999389648</ele>
        <time>2019-11-03T08:36:13.000Z</time>
      </trkpt>
      <trkpt lat="47.28694" lon="-2.36865">
        <ele>230.39999389648</ele>
        <time>2019-11-03T08:36:15.000Z</time>
      </trkpt>
      <trkpt lat="47.28698" lon="-2.36871">
        <ele>230</ele>
        <time>2019-11-03T08:36:16.000Z</time>
      </trkpt>
      <trkpt lat="47.287" lon="-2.36878">
        <ele>229.60000610352</ele>
        <time>2019-11-03T08:36:17.000Z</time>
      </trkpt>
      <trkpt lat="47.28703" lon="-2.36885">
        <ele>229.19999694824</ele>
        <time>2019-11-03T08:36:18.000Z</time>
      </trkpt>
      <trkpt lat="47.28705" lon="-2.36891">
        <ele>228.80000305176</ele>
        <time>2019-11-03T08:36:19.000Z</time>
      </trkpt>
      <trkpt lat="47.28708" lon="-2.36896">
        <ele>228.39999389648</ele>
        <time>2019-11-03T08:36:20.000Z</time>
      </trkpt>
      <trkpt lat="47.28724" lon="-2.36908">
        <ele>228.39999389648</ele>
        <time>2019-11-03T08:36:23.000Z</time>
      </trkpt>
      <trkpt lat="47.28729" lon="-2.36913">
        <ele>228</ele>
        <time>2019-11-03T08:36:24.000Z</time>
      </trkpt>
      <trkpt lat="47.28733" lon="-2.36919">
        <ele>227.39999389648</ele>
        <time>2019-11-03T08:36:25.000Z</time>
      </trkpt>
      <trkpt lat="47.28736" lon="-2.36924">
        <ele>227</ele>
        <time>2019-11-03T08:36:26.000Z</time>
      </trkpt>
      <trkpt lat="47.28738" lon="-2.36927">
        <ele>226.60000610352</ele>
        <time>2019-11-03T08:36:27.000Z</time>
      </trkpt>
      <trkpt lat="47.2874" lon="-2.3693">
        <ele>226</ele>
        <time>2019-11-03T08:36:28.000Z</time>
      </trkpt>
      <trkpt lat="47.28746" lon="-2.36938">
        <ele>226</ele>
        <time>2019-11-03T08:36:31.000Z</time>
      </trkpt>
      <trkpt lat="47.28749" lon="-2.36945">
        <ele>226.60000610352</ele>
        <time>2019-11-03T08:36:35.000Z</time>
      </trkpt>
      <trkpt lat="47.28751" lon="-2.36962">
        <ele>229</ele>
        <time>2019-11-03T08:36:50.000Z</time>
      </trkpt>
      <trkpt lat="47.28753" lon="-2.36969">
        <ele>229.39999389648</ele>
        <time>2019-11-03T08:36:52.000Z</time>
      </trkpt>
      <trkpt lat="47.28755" lon="-2.36973">
        <ele>229.80000305176</ele>
        <time>2019-11-03T08:36:53.000Z</time>
      </trkpt>
      <trkpt lat="47.28757" lon="-2.36976">
        <ele>230.19999694824</ele>
        <time>2019-11-03T08:36:54.000Z</time>
      </trkpt>
      <trkpt lat="47.2876" lon="-2.36979">
        <ele>231</ele>
        <time>2019-11-03T08:36:55.000Z</time>
      </trkpt>
      <trkpt lat="47.28768" lon="-2.36991">
        <ele>231</ele>
        <time>2019-11-03T08:36:58.000Z</time>
      </trkpt>
      <trkpt lat="47.28776" lon="-2.37012">
        <ele>231</ele>
        <time>2019-11-03T08:37:03.000Z</time>
      </trkpt>
      <trkpt lat="47.28784" lon="-2.37037">
        <ele>231</ele>
        <time>2019-11-03T08:37:07.000Z</time>
      </trkpt>
      <trkpt lat="47.28784" lon="-2.37044">
        <ele>231</ele>
        <time>2019-11-03T08:37:08.000Z</time>
      </trkpt>
      <trkpt lat="47.28786" lon="-2.37058">
        <ele>230.60000610352</ele>
        <time>2019-11-03T08:37:10.000Z</time>
      </trkpt>
      <trkpt lat="47.28787" lon="-2.37065">
        <ele>230.19999694824</ele>
        <time>2019-11-03T08:37:11.000Z</time>
      </trkpt>
      <trkpt lat="47.28788" lon="-2.37074">
        <ele>229.80000305176</ele>
        <time>2019-11-03T08:37:12.000Z</time>
      </trkpt>
      <trkpt lat="47.28789" lon="-2.37082">
        <ele>229.39999389648</ele>
        <time>2019-11-03T08:37:13.000Z</time>
      </trkpt>
      <trkpt lat="47.2879" lon="-2.37088">
        <ele>228.80000305176</ele>
        <time>2019-11-03T08:37:14.000Z</time>
      </trkpt>
      <trkpt lat="47.28791" lon="-2.37094">
        <ele>228.39999389648</ele>
        <time>2019-11-03T08:37:15.000Z</time>
      </trkpt>
      <trkpt lat="47.28793" lon="-2.37099">
        <ele>227.80000305176</ele>
        <time>2019-11-03T08:37:16.000Z</time>
      </trkpt>
      <trkpt lat="47.28795" lon="-2.37102">
        <ele>227.39999389648</ele>
        <time>2019-11-03T08:37:17.000Z</time>
      </trkpt>
      <trkpt lat="47.28798" lon="-2.37104">
        <ele>226.80000305176</ele>
        <time>2019-11-03T08:37:18.000Z</time>
      </trkpt>
      <trkpt lat="47.28806" lon="-2.37105">
        <ele>226.39999389648</ele>
        <time>2019-11-03T08:37:20.000Z</time>
      </trkpt>
      <trkpt lat="47.28809" lon="-2.37105">
        <ele>226</ele>
        <time>2019-11-03T08:37:21.000Z</time>
      </trkpt>
      <trkpt lat="47.28812" lon="-2.37104">
        <ele>225.39999389648</ele>
        <time>2019-11-03T08:37:22.000Z</time>
      </trkpt>
      <trkpt lat="47.28814" lon="-2.37104">
        <ele>225</ele>
        <time>2019-11-03T08:37:23.000Z</time>
      </trkpt>
      <trkpt lat="47.28816" lon="-2.37102">
        <ele>224.39999389648</ele>
        <time>2019-11-03T08:37:24.000Z</time>
      </trkpt>
      <trkpt lat="47.28818" lon="-2.37101">
        <ele>223.80000305176</ele>
        <time>2019-11-03T08:37:25.000Z</time>
      </trkpt>
      <trkpt lat="47.28819" lon="-2.37101">
        <ele>223.19999694824</ele>
        <time>2019-11-03T08:37:26.000Z</time>
      </trkpt>
      <trkpt lat="47.2882" lon="-2.37101">
        <ele>222.60000610352</ele>
        <time>2019-11-03T08:37:27.000Z</time>
      </trkpt>
      <trkpt lat="47.28821" lon="-2.371">
        <ele>222</ele>
        <time>2019-11-03T08:37:28.000Z</time>
      </trkpt>
      <trkpt lat="47.28823" lon="-2.37103">
        <ele>221.39999389648</ele>
        <time>2019-11-03T08:37:29.000Z</time>
      </trkpt>
      <trkpt lat="47.28824" lon="-2.37106">
        <ele>221</ele>
        <time>2019-11-03T08:37:30.000Z</time>
      </trkpt>
      <trkpt lat="47.28825" lon="-2.37112">
        <ele>220.60000610352</ele>
        <time>2019-11-03T08:37:31.000Z</time>
      </trkpt>
      <trkpt lat="47.28824" lon="-2.37117">
        <ele>220.19999694824</ele>
        <time>2019-11-03T08:37:32.000Z</time>
      </trkpt>
      <trkpt lat="47.28823" lon="-2.37123">
        <ele>219.80000305176</ele>
        <time>2019-11-03T08:37:33.000Z</time>
      </trkpt>
      <trkpt lat="47.28823" lon="-2.37128">
        <ele>219.80000305176</ele>
        <time>2019-11-03T08:37:34.000Z</time>
      </trkpt>
      <trkpt lat="47.28826" lon="-2.37155">
        <ele>219.80000305176</ele>
        <time>2019-11-03T08:37:38.000Z</time>
      </trkpt>
      <trkpt lat="47.28831" lon="-2.37176">
        <ele>219.80000305176</ele>
        <time>2019-11-03T08:37:41.000Z</time>
      </trkpt>
      <trkpt lat="47.28834" lon="-2.37197">
        <ele>219.80000305176</ele>
        <time>2019-11-03T08:37:44.000Z</time>
      </trkpt>
      <trkpt lat="47.2884" lon="-2.37226">
        <ele>219.80000305176</ele>
        <time>2019-11-03T08:37:49.000Z</time>
      </trkpt>
      <trkpt lat="47.28843" lon="-2.37237">
        <ele>219.80000305176</ele>
        <time>2019-11-03T08:37:51.000Z</time>
      </trkpt>
      <trkpt lat="47.28848" lon="-2.37246">
        <ele>219.80000305176</ele>
        <time>2019-11-03T08:37:53.000Z</time>
      </trkpt>
      <trkpt lat="47.28854" lon="-2.37266">
        <ele>219.80000305176</ele>
        <time>2019-11-03T08:37:57.000Z</time>
      </trkpt>
      <trkpt lat="47.28857" lon="-2.37285">
        <ele>219.80000305176</ele>
        <time>2019-11-03T08:38:01.000Z</time>
      </trkpt>
      <trkpt lat="47.28861" lon="-2.3732">
        <ele>219.80000305176</ele>
        <time>2019-11-03T08:38:07.000Z</time>
      </trkpt>
      <trkpt lat="47.28862" lon="-2.37326">
        <ele>219.19999694824</ele>
        <time>2019-11-03T08:38:08.000Z</time>
      </trkpt>
      <trkpt lat="47.28862" lon="-2.37331">
        <ele>218.39999389648</ele>
        <time>2019-11-03T08:38:09.000Z</time>
      </trkpt>
      <trkpt lat="47.28863" lon="-2.37337">
        <ele>218</ele>
        <time>2019-11-03T08:38:10.000Z</time>
      </trkpt>
      <trkpt lat="47.28863" lon="-2.37342">
        <ele>217.60000610352</ele>
        <time>2019-11-03T08:38:11.000Z</time>
      </trkpt>
      <trkpt lat="47.28864" lon="-2.37354">
        <ele>217.60000610352</ele>
        <time>2019-11-03T08:38:13.000Z</time>
      </trkpt>
      <trkpt lat="47.28867" lon="-2.3739">
        <ele>217.60000610352</ele>
        <time>2019-11-03T08:38:19.000Z</time>
      </trkpt>
      <trkpt lat="47.28872" lon="-2.37426">
        <ele>217.60000610352</ele>
        <time>2019-11-03T08:38:26.000Z</time>
      </trkpt>
      <trkpt lat="47.28877" lon="-2.37464">
        <ele>217.60000610352</ele>
        <time>2019-11-03T08:38:33.000Z</time>
      </trkpt>
      <trkpt lat="47.28883" lon="-2.37513">
        <ele>217.60000610352</ele>
        <time>2019-11-03T08:38:42.000Z</time>
      </trkpt>
      <trkpt lat="47.28891" lon="-2.37539">
        <ele>217.60000610352</ele>
        <time>2019-11-03T08:38:48.000Z</time>
      </trkpt>
      <trkpt lat="47.28899" lon="-2.37563">
        <ele>217.60000610352</ele>
        <time>2019-11-03T08:38:52.000Z</time>
      </trkpt>
      <trkpt lat="47.289" lon="-2.37569">
        <ele>217.60000610352</ele>
        <time>2019-11-03T08:38:53.000Z</time>
      </trkpt>
      <trkpt lat="47.28903" lon="-2.37583">
        <ele>217.60000610352</ele>
        <time>2019-11-03T08:38:55.000Z</time>
      </trkpt>
      <trkpt lat="47.28906" lon="-2.37609">
        <ele>217.60000610352</ele>
        <time>2019-11-03T08:38:59.000Z</time>
      </trkpt>
      <trkpt lat="47.2891" lon="-2.37643">
        <ele>217.60000610352</ele>
        <time>2019-11-03T08:39:05.000Z</time>
      </trkpt>
      <trkpt lat="47.28912" lon="-2.37645">
        <ele>217.60000610352</ele>
        <time>2019-11-03T08:39:06.000Z</time>
      </trkpt>
      <trkpt lat="47.28923" lon="-2.37646">
        <ele>217.60000610352</ele>
        <time>2019-11-03T08:39:09.000Z</time>
      </trkpt>
      <trkpt lat="47.28926" lon="-2.37645">
        <ele>217.60000610352</ele>
        <time>2019-11-03T08:39:10.000Z</time>
      </trkpt>
      <trkpt lat="47.28935" lon="-2.3765">
        <ele>217.60000610352</ele>
        <time>2019-11-03T08:39:13.000Z</time>
      </trkpt>
      <trkpt lat="47.28937" lon="-2.37655">
        <ele>217.60000610352</ele>
        <time>2019-11-03T08:39:14.000Z</time>
      </trkpt>
      <trkpt lat="47.28937" lon="-2.37679">
        <ele>217.60000610352</ele>
        <time>2019-11-03T08:39:18.000Z</time>
      </trkpt>
      <trkpt lat="47.28937" lon="-2.37685">
        <ele>217.60000610352</ele>
        <time>2019-11-03T08:39:19.000Z</time>
      </trkpt>
      <trkpt lat="47.28934" lon="-2.37718">
        <ele>217.60000610352</ele>
        <time>2019-11-03T08:39:24.000Z</time>
      </trkpt>
      <trkpt lat="47.28931" lon="-2.37759">
        <ele>217.60000610352</ele>
        <time>2019-11-03T08:39:30.000Z</time>
      </trkpt>
      <trkpt lat="47.28931" lon="-2.37765">
        <ele>217.19999694824</ele>
        <time>2019-11-03T08:39:31.000Z</time>
      </trkpt>
      <trkpt lat="47.2893" lon="-2.37771">
        <ele>216.80000305176</ele>
        <time>2019-11-03T08:39:32.000Z</time>
      </trkpt>
      <trkpt lat="47.2893" lon="-2.37777">
        <ele>216.39999389648</ele>
        <time>2019-11-03T08:39:33.000Z</time>
      </trkpt>
      <trkpt lat="47.28929" lon="-2.37783">
        <ele>216</ele>
        <time>2019-11-03T08:39:34.000Z</time>
      </trkpt>
      <trkpt lat="47.28929" lon="-2.37788">
        <ele>215.60000610352</ele>
        <time>2019-11-03T08:39:35.000Z</time>
      </trkpt>
      <trkpt lat="47.28929" lon="-2.37793">
        <ele>215.60000610352</ele>
        <time>2019-11-03T08:39:36.000Z</time>
      </trkpt>
      <trkpt lat="47.28928" lon="-2.37802">
        <ele>215.60000610352</ele>
        <time>2019-11-03T08:39:38.000Z</time>
      </trkpt>
      <trkpt lat="47.28927" lon="-2.37811">
        <ele>215.60000610352</ele>
        <time>2019-11-03T08:39:40.000Z</time>
      </trkpt>
      <trkpt lat="47.28926" lon="-2.37838">
        <ele>215.60000610352</ele>
        <time>2019-11-03T08:39:45.000Z</time>
      </trkpt>
      <trkpt lat="47.28923" lon="-2.3787">
        <ele>215.60000610352</ele>
        <time>2019-11-03T08:39:50.000Z</time>
      </trkpt>
      <trkpt lat="47.28922" lon="-2.37877">
        <ele>215.60000610352</ele>
        <time>2019-11-03T08:39:51.000Z</time>
      </trkpt>
      <trkpt lat="47.28919" lon="-2.37932">
        <ele>215.60000610352</ele>
        <time>2019-11-03T08:39:58.000Z</time>
      </trkpt>
      <trkpt lat="47.28915" lon="-2.37992">
        <ele>215.60000610352</ele>
        <time>2019-11-03T08:40:05.000Z</time>
      </trkpt>
      <trkpt lat="47.28912" lon="-2.38042">
        <ele>215.60000610352</ele>
        <time>2019-11-03T08:40:12.000Z</time>
      </trkpt>
      <trkpt lat="47.2892" lon="-2.38073">
        <ele>215.60000610352</ele>
        <time>2019-11-03T08:40:16.000Z</time>
      </trkpt>
      <trkpt lat="47.28927" lon="-2.38097">
        <ele>215.60000610352</ele>
        <time>2019-11-03T08:40:19.000Z</time>
      </trkpt>
      <trkpt lat="47.2893" lon="-2.38113">
        <ele>215.60000610352</ele>
        <time>2019-11-03T08:40:21.000Z</time>
      </trkpt>
      <trkpt lat="47.28937" lon="-2.38165">
        <ele>215.60000610352</ele>
        <time>2019-11-03T08:40:28.000Z</time>
      </trkpt>
      <trkpt lat="47.28939" lon="-2.38187">
        <ele>215.60000610352</ele>
        <time>2019-11-03T08:40:31.000Z</time>
      </trkpt>
      <trkpt lat="47.2894" lon="-2.38219">
        <ele>215.60000610352</ele>
        <time>2019-11-03T08:40:35.000Z</time>
      </trkpt>
      <trkpt lat="47.2894" lon="-2.38274">
        <ele>215.60000610352</ele>
        <time>2019-11-03T08:40:42.000Z</time>
      </trkpt>
      <trkpt lat="47.28936" lon="-2.38317">
        <ele>215.60000610352</ele>
        <time>2019-11-03T08:40:49.000Z</time>
      </trkpt>
      <trkpt lat="47.28936" lon="-2.3833">
        <ele>215.60000610352</ele>
        <time>2019-11-03T08:40:51.000Z</time>
      </trkpt>
      <trkpt lat="47.28937" lon="-2.38346">
        <ele>215.60000610352</ele>
        <time>2019-11-03T08:40:54.000Z</time>
      </trkpt>
      <trkpt lat="47.2894" lon="-2.38375">
        <ele>215.60000610352</ele>
        <time>2019-11-03T08:40:59.000Z</time>
      </trkpt>
      <trkpt lat="47.28943" lon="-2.38422">
        <ele>215.60000610352</ele>
        <time>2019-11-03T08:41:06.000Z</time>
      </trkpt>
      <trkpt lat="47.28947" lon="-2.38474">
        <ele>215.60000610352</ele>
        <time>2019-11-03T08:41:13.000Z</time>
      </trkpt>
      <trkpt lat="47.28953" lon="-2.38536">
        <ele>215.60000610352</ele>
        <time>2019-11-03T08:41:21.000Z</time>
      </trkpt>
      <trkpt lat="47.28959" lon="-2.38601">
        <ele>215.60000610352</ele>
        <time>2019-11-03T08:41:29.000Z</time>
      </trkpt>
      <trkpt lat="47.28961" lon="-2.38649">
        <ele>215.60000610352</ele>
        <time>2019-11-03T08:41:35.000Z</time>
      </trkpt>
      <trkpt lat="47.28962" lon="-2.3873">
        <ele>215.60000610352</ele>
        <time>2019-11-03T08:41:45.000Z</time>
      </trkpt>
      <trkpt lat="47.28962" lon="-2.38738">
        <ele>215.60000610352</ele>
        <time>2019-11-03T08:41:46.000Z</time>
      </trkpt>
      <trkpt lat="47.28962" lon="-2.38787">
        <ele>215.60000610352</ele>
        <time>2019-11-03T08:41:52.000Z</time>
      </trkpt>
      <trkpt lat="47.28962" lon="-2.38841">
        <ele>215.60000610352</ele>
        <time>2019-11-03T08:41:58.000Z</time>
      </trkpt>
      <trkpt lat="47.28959" lon="-2.38913">
        <ele>215.60000610352</ele>
        <time>2019-11-03T08:42:06.000Z</time>
      </trkpt>
      <trkpt lat="47.28956" lon="-2.38976">
        <ele>215.60000610352</ele>
        <time>2019-11-03T08:42:13.000Z</time>
      </trkpt>
      <trkpt lat="47.28953" lon="-2.39039">
        <ele>215.60000610352</ele>
        <time>2019-11-03T08:42:20.000Z</time>
      </trkpt>
      <trkpt lat="47.2895" lon="-2.39065">
        <ele>216</ele>
        <time>2019-11-03T08:42:23.000Z</time>
      </trkpt>
      <trkpt lat="47.28949" lon="-2.39073">
        <ele>216.39999389648</ele>
        <time>2019-11-03T08:42:24.000Z</time>
      </trkpt>
      <trkpt lat="47.28948" lon="-2.39081">
        <ele>216.80000305176</ele>
        <time>2019-11-03T08:42:25.000Z</time>
      </trkpt>
      <trkpt lat="47.28947" lon="-2.39089">
        <ele>217.39999389648</ele>
        <time>2019-11-03T08:42:26.000Z</time>
      </trkpt>
      <trkpt lat="47.28946" lon="-2.39097">
        <ele>217.80000305176</ele>
        <time>2019-11-03T08:42:27.000Z</time>
      </trkpt>
      <trkpt lat="47.2894" lon="-2.39142">
        <ele>217.80000305176</ele>
        <time>2019-11-03T08:42:32.000Z</time>
      </trkpt>
      <trkpt lat="47.28937" lon="-2.39205">
        <ele>217.80000305176</ele>
        <time>2019-11-03T08:42:39.000Z</time>
      </trkpt>
      <trkpt lat="47.28938" lon="-2.39229">
        <ele>218.19999694824</ele>
        <time>2019-11-03T08:42:42.000Z</time>
      </trkpt>
      <trkpt lat="47.28938" lon="-2.39237">
        <ele>218.60000610352</ele>
        <time>2019-11-03T08:42:43.000Z</time>
      </trkpt>
      <trkpt lat="47.28938" lon="-2.39245">
        <ele>219</ele>
        <time>2019-11-03T08:42:44.000Z</time>
      </trkpt>
      <trkpt lat="47.28938" lon="-2.39254">
        <ele>218.60000610352</ele>
        <time>2019-11-03T08:42:45.000Z</time>
      </trkpt>
      <trkpt lat="47.28939" lon="-2.39263">
        <ele>218.39999389648</ele>
        <time>2019-11-03T08:42:46.000Z</time>
      </trkpt>
      <trkpt lat="47.28941" lon="-2.39272">
        <ele>218</ele>
        <time>2019-11-03T08:42:47.000Z</time>
      </trkpt>
      <trkpt lat="47.28942" lon="-2.3928">
        <ele>217.80000305176</ele>
        <time>2019-11-03T08:42:48.000Z</time>
      </trkpt>
      <trkpt lat="47.28945" lon="-2.39288">
        <ele>217.39999389648</ele>
        <time>2019-11-03T08:42:49.000Z</time>
      </trkpt>
      <trkpt lat="47.28951" lon="-2.39302">
        <ele>217</ele>
        <time>2019-11-03T08:42:51.000Z</time>
      </trkpt>
      <trkpt lat="47.28955" lon="-2.39307">
        <ele>216.60000610352</ele>
        <time>2019-11-03T08:42:52.000Z</time>
      </trkpt>
      <trkpt lat="47.28957" lon="-2.39313">
        <ele>216.19999694824</ele>
        <time>2019-11-03T08:42:53.000Z</time>
      </trkpt>
      <trkpt lat="47.28957" lon="-2.3932">
        <ele>215.80000305176</ele>
        <time>2019-11-03T08:42:54.000Z</time>
      </trkpt>
      <trkpt lat="47.28956" lon="-2.39326">
        <ele>215.39999389648</ele>
        <time>2019-11-03T08:42:55.000Z</time>
      </trkpt>
      <trkpt lat="47.2895" lon="-2.39337">
        <ele>215.39999389648</ele>
        <time>2019-11-03T08:42:57.000Z</time>
      </trkpt>
      <trkpt lat="47.28945" lon="-2.39349">
        <ele>215.39999389648</ele>
        <time>2019-11-03T08:42:59.000Z</time>
      </trkpt>
      <trkpt lat="47.28939" lon="-2.39388">
        <ele>215.39999389648</ele>
        <time>2019-11-03T08:43:04.000Z</time>
      </trkpt>
      <trkpt lat="47.28929" lon="-2.39444">
        <ele>215.39999389648</ele>
        <time>2019-11-03T08:43:11.000Z</time>
      </trkpt>
      <trkpt lat="47.28927" lon="-2.39452">
        <ele>215.39999389648</ele>
        <time>2019-11-03T08:43:12.000Z</time>
      </trkpt>
      <trkpt lat="47.28926" lon="-2.39459">
        <ele>215.39999389648</ele>
        <time>2019-11-03T08:43:13.000Z</time>
      </trkpt>
      <trkpt lat="47.28921" lon="-2.39496">
        <ele>215.39999389648</ele>
        <time>2019-11-03T08:43:18.000Z</time>
      </trkpt>
      <trkpt lat="47.28915" lon="-2.39526">
        <ele>215.39999389648</ele>
        <time>2019-11-03T08:43:22.000Z</time>
      </trkpt>
      <trkpt lat="47.28913" lon="-2.39541">
        <ele>215.39999389648</ele>
        <time>2019-11-03T08:43:24.000Z</time>
      </trkpt>
      <trkpt lat="47.28908" lon="-2.39576">
        <ele>215.39999389648</ele>
        <time>2019-11-03T08:43:29.000Z</time>
      </trkpt>
      <trkpt lat="47.28903" lon="-2.39617">
        <ele>215.39999389648</ele>
        <time>2019-11-03T08:43:34.000Z</time>
      </trkpt>
      <trkpt lat="47.289" lon="-2.39634">
        <ele>215.39999389648</ele>
        <time>2019-11-03T08:43:36.000Z</time>
      </trkpt>
      <trkpt lat="47.28894" lon="-2.39657">
        <ele>215.39999389648</ele>
        <time>2019-11-03T08:43:39.000Z</time>
      </trkpt>
      <trkpt lat="47.28877" lon="-2.39709">
        <ele>215.39999389648</ele>
        <time>2019-11-03T08:43:46.000Z</time>
      </trkpt>
      <trkpt lat="47.28874" lon="-2.39716">
        <ele>215.39999389648</ele>
        <time>2019-11-03T08:43:47.000Z</time>
      </trkpt>
      <trkpt lat="47.28868" lon="-2.39738">
        <ele>215.39999389648</ele>
        <time>2019-11-03T08:43:50.000Z</time>
      </trkpt>
      <trkpt lat="47.28863" lon="-2.39753">
        <ele>215.39999389648</ele>
        <time>2019-11-03T08:43:52.000Z</time>
      </trkpt>
      <trkpt lat="47.28842" lon="-2.39809">
        <ele>215.39999389648</ele>
        <time>2019-11-03T08:44:00.000Z</time>
      </trkpt>
      <trkpt lat="47.28838" lon="-2.39823">
        <ele>215.39999389648</ele>
        <time>2019-11-03T08:44:02.000Z</time>
      </trkpt>
      <trkpt lat="47.28832" lon="-2.39847">
        <ele>215.39999389648</ele>
        <time>2019-11-03T08:44:06.000Z</time>
      </trkpt>
      <trkpt lat="47.2883" lon="-2.39865">
        <ele>215.39999389648</ele>
        <time>2019-11-03T08:44:11.000Z</time>
      </trkpt>
      <trkpt lat="47.2883" lon="-2.39872">
        <ele>215</ele>
        <time>2019-11-03T08:44:14.000Z</time>
      </trkpt>
      <trkpt lat="47.2883" lon="-2.39874">
        <ele>214.60000610352</ele>
        <time>2019-11-03T08:44:15.000Z</time>
      </trkpt>
      <trkpt lat="47.28829" lon="-2.39876">
        <ele>214.19999694824</ele>
        <time>2019-11-03T08:44:16.000Z</time>
      </trkpt>
      <trkpt lat="47.28828" lon="-2.39877">
        <ele>213.80000305176</ele>
        <time>2019-11-03T08:44:17.000Z</time>
      </trkpt>
      <trkpt lat="47.28827" lon="-2.39878">
        <ele>213.39999389648</ele>
        <time>2019-11-03T08:44:18.000Z</time>
      </trkpt>
      <trkpt lat="47.28825" lon="-2.39878">
        <ele>213.39999389648</ele>
        <time>2019-11-03T08:44:20.000Z</time>
      </trkpt>
      <trkpt lat="47.28823" lon="-2.39875">
        <ele>213.39999389648</ele>
        <time>2019-11-03T08:44:23.000Z</time>
      </trkpt>
      <trkpt lat="47.28822" lon="-2.39867">
        <ele>213.39999389648</ele>
        <time>2019-11-03T08:44:28.000Z</time>
      </trkpt>
      <trkpt lat="47.28822" lon="-2.39864">
        <ele>213.39999389648</ele>
        <time>2019-11-03T08:44:30.000Z</time>
      </trkpt>
      <trkpt lat="47.28822" lon="-2.39861">
        <ele>213.39999389648</ele>
        <time>2019-11-03T08:44:34.000Z</time>
      </trkpt>
      <trkpt lat="47.28824" lon="-2.39856">
        <ele>213.39999389648</ele>
        <time>2019-11-03T08:44:40.000Z</time>
      </trkpt>
      <trkpt lat="47.28824" lon="-2.39849">
        <ele>213.39999389648</ele>
        <time>2019-11-03T08:44:44.000Z</time>
      </trkpt>
      <trkpt lat="47.28823" lon="-2.39849">
        <ele>213.80000305176</ele>
        <time>2019-11-03T08:44:46.000Z</time>
      </trkpt>
      <trkpt lat="47.28823" lon="-2.3985">
        <ele>214.19999694824</ele>
        <time>2019-11-03T08:44:47.000Z</time>
      </trkpt>
      <trkpt lat="47.28822" lon="-2.39851">
        <ele>214.60000610352</ele>
        <time>2019-11-03T08:44:48.000Z</time>
      </trkpt>
      <trkpt lat="47.28821" lon="-2.39853">
        <ele>215</ele>
        <time>2019-11-03T08:44:49.000Z</time>
      </trkpt>
      <trkpt lat="47.28821" lon="-2.39855">
        <ele>215.39999389648</ele>
        <time>2019-11-03T08:44:50.000Z</time>
      </trkpt>
      <trkpt lat="47.2882" lon="-2.39863">
        <ele>215.39999389648</ele>
        <time>2019-11-03T08:44:54.000Z</time>
      </trkpt>
      <trkpt lat="47.2882" lon="-2.39866">
        <ele>215.39999389648</ele>
        <time>2019-11-03T08:44:56.000Z</time>
      </trkpt>
      <trkpt lat="47.2882" lon="-2.39866">
        <ele>215.80000305176</ele>
        <time>2019-11-03T08:44:57.000Z</time>
      </trkpt>
      <trkpt lat="47.28821" lon="-2.39865">
        <ele>216.19999694824</ele>
        <time>2019-11-03T08:44:58.000Z</time>
      </trkpt>
      <trkpt lat="47.28822" lon="-2.39863">
        <ele>216.80000305176</ele>
        <time>2019-11-03T08:44:59.000Z</time>
      </trkpt>
      <trkpt lat="47.28822" lon="-2.39861">
        <ele>217.19999694824</ele>
        <time>2019-11-03T08:45:00.000Z</time>
      </trkpt>
      <trkpt lat="47.28822" lon="-2.39858">
        <ele>217.60000610352</ele>
        <time>2019-11-03T08:45:01.000Z</time>
      </trkpt>
      <trkpt lat="47.28823" lon="-2.39856">
        <ele>217.60000610352</ele>
        <time>2019-11-03T08:45:02.000Z</time>
      </trkpt>
      <trkpt lat="47.28823" lon="-2.39854">
        <ele>217.60000610352</ele>
        <time>2019-11-03T08:45:03.000Z</time>
      </trkpt>
      <trkpt lat="47.28824" lon="-2.39851">
        <ele>218</ele>
        <time>2019-11-03T08:45:04.000Z</time>
      </trkpt>
      <trkpt lat="47.28823" lon="-2.3985">
        <ele>218.39999389648</ele>
        <time>2019-11-03T08:45:05.000Z</time>
      </trkpt>
      <trkpt lat="47.28823" lon="-2.39849">
        <ele>218.80000305176</ele>
        <time>2019-11-03T08:45:06.000Z</time>
      </trkpt>
      <trkpt lat="47.28821" lon="-2.39849">
        <ele>219.19999694824</ele>
        <time>2019-11-03T08:45:07.000Z</time>
      </trkpt>
      <trkpt lat="47.28819" lon="-2.39848">
        <ele>219.60000610352</ele>
        <time>2019-11-03T08:45:08.000Z</time>
      </trkpt>
      <trkpt lat="47.28808" lon="-2.39843">
        <ele>219.60000610352</ele>
        <time>2019-11-03T08:45:14.000Z</time>
      </trkpt>
      <trkpt lat="47.28802" lon="-2.39842">
        <ele>219.19999694824</ele>
        <time>2019-11-03T08:45:18.000Z</time>
      </trkpt>
      <trkpt lat="47.28802" lon="-2.39842">
        <ele>218.60000610352</ele>
        <time>2019-11-03T08:45:19.000Z</time>
      </trkpt>
      <trkpt lat="47.28802" lon="-2.39843">
        <ele>218.19999694824</ele>
        <time>2019-11-03T08:45:20.000Z</time>
      </trkpt>
      <trkpt lat="47.28802" lon="-2.39844">
        <ele>217.80000305176</ele>
        <time>2019-11-03T08:45:21.000Z</time>
      </trkpt>
      <trkpt lat="47.28802" lon="-2.39844">
        <ele>217.19999694824</ele>
        <time>2019-11-03T08:45:22.000Z</time>
      </trkpt>
      <trkpt lat="47.28806" lon="-2.39846">
        <ele>217.19999694824</ele>
        <time>2019-11-03T08:45:25.000Z</time>
      </trkpt>
      <trkpt lat="47.28813" lon="-2.39848">
        <ele>217.19999694824</ele>
        <time>2019-11-03T08:45:28.000Z</time>
      </trkpt>
      <trkpt lat="47.28814" lon="-2.39847">
        <ele>217.19999694824</ele>
        <time>2019-11-03T08:45:30.000Z</time>
      </trkpt>
      <trkpt lat="47.28812" lon="-2.39845">
        <ele>217.19999694824</ele>
        <time>2019-11-03T08:45:32.000Z</time>
      </trkpt>
      <trkpt lat="47.2881" lon="-2.39845">
        <ele>217.19999694824</ele>
        <time>2019-11-03T08:45:33.000Z</time>
      </trkpt>
      <trkpt lat="47.28808" lon="-2.39845">
        <ele>216.80000305176</ele>
        <time>2019-11-03T08:45:34.000Z</time>
      </trkpt>
      <trkpt lat="47.28805" lon="-2.39844">
        <ele>216.39999389648</ele>
        <time>2019-11-03T08:45:35.000Z</time>
      </trkpt>
      <trkpt lat="47.28801" lon="-2.39844">
        <ele>216</ele>
        <time>2019-11-03T08:45:36.000Z</time>
      </trkpt>
      <trkpt lat="47.288" lon="-2.39845">
        <ele>215.60000610352</ele>
        <time>2019-11-03T08:45:37.000Z</time>
      </trkpt>
      <trkpt lat="47.28799" lon="-2.39847">
        <ele>215.19999694824</ele>
        <time>2019-11-03T08:45:38.000Z</time>
      </trkpt>
      <trkpt lat="47.28805" lon="-2.39852">
        <ele>215.19999694824</ele>
        <time>2019-11-03T08:45:42.000Z</time>
      </trkpt>
      <trkpt lat="47.28807" lon="-2.39854">
        <ele>215.19999694824</ele>
        <time>2019-11-03T08:45:43.000Z</time>
      </trkpt>
      <trkpt lat="47.28808" lon="-2.39864">
        <ele>215.19999694824</ele>
        <time>2019-11-03T08:45:46.000Z</time>
      </trkpt>
      <trkpt lat="47.28807" lon="-2.39869">
        <ele>215.19999694824</ele>
        <time>2019-11-03T08:45:47.000Z</time>
      </trkpt>
      <trkpt lat="47.28804" lon="-2.39896">
        <ele>215.19999694824</ele>
        <time>2019-11-03T08:45:52.000Z</time>
      </trkpt>
      <trkpt lat="47.28799" lon="-2.39908">
        <ele>215.19999694824</ele>
        <time>2019-11-03T08:45:56.000Z</time>
      </trkpt>
      <trkpt lat="47.28794" lon="-2.39905">
        <ele>215.19999694824</ele>
        <time>2019-11-03T08:45:59.000Z</time>
      </trkpt>
      <trkpt lat="47.28784" lon="-2.39897">
        <ele>215.19999694824</ele>
        <time>2019-11-03T08:46:03.000Z</time>
      </trkpt>
      <trkpt lat="47.28779" lon="-2.399">
        <ele>215.19999694824</ele>
        <time>2019-11-03T08:46:05.000Z</time>
      </trkpt>
      <trkpt lat="47.28775" lon="-2.39912">
        <ele>215.19999694824</ele>
        <time>2019-11-03T08:46:09.000Z</time>
      </trkpt>
      <trkpt lat="47.28772" lon="-2.39921">
        <ele>215.19999694824</ele>
        <time>2019-11-03T08:46:11.000Z</time>
      </trkpt>
      <trkpt lat="47.2877" lon="-2.39926">
        <ele>215.19999694824</ele>
        <time>2019-11-03T08:46:12.000Z</time>
      </trkpt>
      <trkpt lat="47.28768" lon="-2.39931">
        <ele>215.19999694824</ele>
        <time>2019-11-03T08:46:13.000Z</time>
      </trkpt>
      <trkpt lat="47.28757" lon="-2.39962">
        <ele>215.19999694824</ele>
        <time>2019-11-03T08:46:19.000Z</time>
      </trkpt>
      <trkpt lat="47.28754" lon="-2.39973">
        <ele>215.19999694824</ele>
        <time>2019-11-03T08:46:21.000Z</time>
      </trkpt>
      <trkpt lat="47.28747" lon="-2.3999">
        <ele>215.19999694824</ele>
        <time>2019-11-03T08:46:24.000Z</time>
      </trkpt>
      <trkpt lat="47.28745" lon="-2.39995">
        <ele>215.19999694824</ele>
        <time>2019-11-03T08:46:25.000Z</time>
      </trkpt>
      <trkpt lat="47.28744" lon="-2.40001">
        <ele>215.19999694824</ele>
        <time>2019-11-03T08:46:26.000Z</time>
      </trkpt>
      <trkpt lat="47.28739" lon="-2.40024">
        <ele>215.19999694824</ele>
        <time>2019-11-03T08:46:30.000Z</time>
      </trkpt>
      <trkpt lat="47.28733" lon="-2.40057">
        <ele>215.19999694824</ele>
        <time>2019-11-03T08:46:35.000Z</time>
      </trkpt>
      <trkpt lat="47.28732" lon="-2.40064">
        <ele>215.19999694824</ele>
        <time>2019-11-03T08:46:36.000Z</time>
      </trkpt>
      <trkpt lat="47.28727" lon="-2.40104">
        <ele>215.19999694824</ele>
        <time>2019-11-03T08:46:41.000Z</time>
      </trkpt>
      <trkpt lat="47.28719" lon="-2.40149">
        <ele>215.19999694824</ele>
        <time>2019-11-03T08:46:47.000Z</time>
      </trkpt>
      <trkpt lat="47.28707" lon="-2.40209">
        <ele>215.19999694824</ele>
        <time>2019-11-03T08:46:55.000Z</time>
      </trkpt>
      <trkpt lat="47.28702" lon="-2.40223">
        <ele>215.19999694824</ele>
        <time>2019-11-03T08:46:57.000Z</time>
      </trkpt>
      <trkpt lat="47.28692" lon="-2.40243">
        <ele>215.19999694824</ele>
        <time>2019-11-03T08:47:00.000Z</time>
      </trkpt>
      <trkpt lat="47.28689" lon="-2.40249">
        <ele>215.19999694824</ele>
        <time>2019-11-03T08:47:01.000Z</time>
      </trkpt>
      <trkpt lat="47.28674" lon="-2.40283">
        <ele>215.19999694824</ele>
        <time>2019-11-03T08:47:06.000Z</time>
      </trkpt>
      <trkpt lat="47.28662" lon="-2.40307">
        <ele>215.60000610352</ele>
        <time>2019-11-03T08:47:10.000Z</time>
      </trkpt>
      <trkpt lat="47.2866" lon="-2.40313">
        <ele>216.19999694824</ele>
        <time>2019-11-03T08:47:11.000Z</time>
      </trkpt>
      <trkpt lat="47.28657" lon="-2.40319">
        <ele>217</ele>
        <time>2019-11-03T08:47:12.000Z</time>
      </trkpt>
      <trkpt lat="47.28654" lon="-2.40325">
        <ele>217.39999389648</ele>
        <time>2019-11-03T08:47:13.000Z</time>
      </trkpt>
      <trkpt lat="47.28645" lon="-2.40342">
        <ele>217</ele>
        <time>2019-11-03T08:47:16.000Z</time>
      </trkpt>
      <trkpt lat="47.28643" lon="-2.40349">
        <ele>216.60000610352</ele>
        <time>2019-11-03T08:47:17.000Z</time>
      </trkpt>
      <trkpt lat="47.28639" lon="-2.40354">
        <ele>216.19999694824</ele>
        <time>2019-11-03T08:47:18.000Z</time>
      </trkpt>
      <trkpt lat="47.28636" lon="-2.4036">
        <ele>215.80000305176</ele>
        <time>2019-11-03T08:47:19.000Z</time>
      </trkpt>
      <trkpt lat="47.28633" lon="-2.40366">
        <ele>215.39999389648</ele>
        <time>2019-11-03T08:47:20.000Z</time>
      </trkpt>
      <trkpt lat="47.28615" lon="-2.40399">
        <ele>215.39999389648</ele>
        <time>2019-11-03T08:47:25.000Z</time>
      </trkpt>
      <trkpt lat="47.28595" lon="-2.40439">
        <ele>215.39999389648</ele>
        <time>2019-11-03T08:47:31.000Z</time>
      </trkpt>
      <trkpt lat="47.28574" lon="-2.40476">
        <ele>215.39999389648</ele>
        <time>2019-11-03T08:47:37.000Z</time>
      </trkpt>
      <trkpt lat="47.2855" lon="-2.40507">
        <ele>215.39999389648</ele>
        <time>2019-11-03T08:47:43.000Z</time>
      </trkpt>
      <trkpt lat="47.28519" lon="-2.40556">
        <ele>215.39999389648</ele>
        <time>2019-11-03T08:47:51.000Z</time>
      </trkpt>
      <trkpt lat="47.28488" lon="-2.406">
        <ele>215.39999389648</ele>
        <time>2019-11-03T08:47:59.000Z</time>
      </trkpt>
      <trkpt lat="47.28486" lon="-2.40618">
        <ele>215.39999389648</ele>
        <time>2019-11-03T08:48:02.000Z</time>
      </trkpt>
      <trkpt lat="47.28497" lon="-2.40628">
        <ele>215.39999389648</ele>
        <time>2019-11-03T08:48:05.000Z</time>
      </trkpt>
      <trkpt lat="47.28524" lon="-2.40638">
        <ele>215</ele>
        <time>2019-11-03T08:48:11.000Z</time>
      </trkpt>
      <trkpt lat="47.28529" lon="-2.4064">
        <ele>214.60000610352</ele>
        <time>2019-11-03T08:48:12.000Z</time>
      </trkpt>
      <trkpt lat="47.28534" lon="-2.40641">
        <ele>214</ele>
        <time>2019-11-03T08:48:13.000Z</time>
      </trkpt>
      <trkpt lat="47.28539" lon="-2.40644">
        <ele>213.60000610352</ele>
        <time>2019-11-03T08:48:14.000Z</time>
      </trkpt>
      <trkpt lat="47.28544" lon="-2.40645">
        <ele>213.19999694824</ele>
        <time>2019-11-03T08:48:15.000Z</time>
      </trkpt>
      <trkpt lat="47.28559" lon="-2.40651">
        <ele>213.19999694824</ele>
        <time>2019-11-03T08:48:18.000Z</time>
      </trkpt>
      <trkpt lat="47.28573" lon="-2.40657">
        <ele>213.19999694824</ele>
        <time>2019-11-03T08:48:21.000Z</time>
      </trkpt>
      <trkpt lat="47.2858" lon="-2.40665">
        <ele>213.60000610352</ele>
        <time>2019-11-03T08:48:23.000Z</time>
      </trkpt>
      <trkpt lat="47.28582" lon="-2.40671">
        <ele>214.19999694824</ele>
        <time>2019-11-03T08:48:24.000Z</time>
      </trkpt>
      <trkpt lat="47.28582" lon="-2.40678">
        <ele>214.60000610352</ele>
        <time>2019-11-03T08:48:25.000Z</time>
      </trkpt>
      <trkpt lat="47.2858" lon="-2.40684">
        <ele>215</ele>
        <time>2019-11-03T08:48:26.000Z</time>
      </trkpt>
      <trkpt lat="47.28578" lon="-2.4069">
        <ele>215.60000610352</ele>
        <time>2019-11-03T08:48:27.000Z</time>
      </trkpt>
      <trkpt lat="47.28571" lon="-2.40701">
        <ele>215.60000610352</ele>
        <time>2019-11-03T08:48:29.000Z</time>
      </trkpt>
      <trkpt lat="47.28568" lon="-2.40706">
        <ele>215.60000610352</ele>
        <time>2019-11-03T08:48:30.000Z</time>
      </trkpt>
      <trkpt lat="47.28543" lon="-2.40742">
        <ele>215.60000610352</ele>
        <time>2019-11-03T08:48:36.000Z</time>
      </trkpt>
      <trkpt lat="47.28514" lon="-2.40787">
        <ele>215.60000610352</ele>
        <time>2019-11-03T08:48:43.000Z</time>
      </trkpt>
      <trkpt lat="47.28484" lon="-2.4083">
        <ele>215.60000610352</ele>
        <time>2019-11-03T08:48:50.000Z</time>
      </trkpt>
      <trkpt lat="47.28457" lon="-2.40872">
        <ele>215.60000610352</ele>
        <time>2019-11-03T08:48:57.000Z</time>
      </trkpt>
      <trkpt lat="47.28433" lon="-2.40908">
        <ele>215.60000610352</ele>
        <time>2019-11-03T08:49:03.000Z</time>
      </trkpt>
      <trkpt lat="47.28427" lon="-2.40922">
        <ele>215.60000610352</ele>
        <time>2019-11-03T08:49:05.000Z</time>
      </trkpt>
      <trkpt lat="47.28422" lon="-2.40937">
        <ele>215.60000610352</ele>
        <time>2019-11-03T08:49:07.000Z</time>
      </trkpt>
      <trkpt lat="47.28416" lon="-2.40964">
        <ele>215.60000610352</ele>
        <time>2019-11-03T08:49:10.000Z</time>
      </trkpt>
      <trkpt lat="47.284" lon="-2.41033">
        <ele>215.60000610352</ele>
        <time>2019-11-03T08:49:18.000Z</time>
      </trkpt>
      <trkpt lat="47.28389" lon="-2.41084">
        <ele>215.60000610352</ele>
        <time>2019-11-03T08:49:24.000Z</time>
      </trkpt>
      <trkpt lat="47.28375" lon="-2.41141">
        <ele>215.60000610352</ele>
        <time>2019-11-03T08:49:31.000Z</time>
      </trkpt>
      <trkpt lat="47.2837" lon="-2.41164">
        <ele>215.60000610352</ele>
        <time>2019-11-03T08:49:34.000Z</time>
      </trkpt>
      <trkpt lat="47.28373" lon="-2.41174">
        <ele>215.19999694824</ele>
        <time>2019-11-03T08:49:36.000Z</time>
      </trkpt>
      <trkpt lat="47.28375" lon="-2.41178">
        <ele>214.80000305176</ele>
        <time>2019-11-03T08:49:37.000Z</time>
      </trkpt>
      <trkpt lat="47.28377" lon="-2.41182">
        <ele>214.39999389648</ele>
        <time>2019-11-03T08:49:38.000Z</time>
      </trkpt>
      <trkpt lat="47.2838" lon="-2.41187">
        <ele>214</ele>
        <time>2019-11-03T08:49:39.000Z</time>
      </trkpt>
      <trkpt lat="47.28382" lon="-2.41191">
        <ele>213.60000610352</ele>
        <time>2019-11-03T08:49:40.000Z</time>
      </trkpt>
      <trkpt lat="47.28397" lon="-2.41207">
        <ele>213.60000610352</ele>
        <time>2019-11-03T08:49:45.000Z</time>
      </trkpt>
      <trkpt lat="47.28403" lon="-2.41212">
        <ele>213.60000610352</ele>
        <time>2019-11-03T08:49:48.000Z</time>
      </trkpt>
      <trkpt lat="47.28403" lon="-2.41214">
        <ele>213.60000610352</ele>
        <time>2019-11-03T08:49:49.000Z</time>
      </trkpt>
      <trkpt lat="47.28405" lon="-2.41225">
        <ele>213.60000610352</ele>
        <time>2019-11-03T08:49:53.000Z</time>
      </trkpt>
      <trkpt lat="47.28407" lon="-2.41229">
        <ele>213.60000610352</ele>
        <time>2019-11-03T08:49:55.000Z</time>
      </trkpt>
      <trkpt lat="47.28415" lon="-2.41245">
        <ele>213.60000610352</ele>
        <time>2019-11-03T08:50:01.000Z</time>
      </trkpt>
      <trkpt lat="47.28419" lon="-2.41249">
        <ele>213.60000610352</ele>
        <time>2019-11-03T08:50:02.000Z</time>
      </trkpt>
      <trkpt lat="47.28428" lon="-2.41254">
        <ele>213.60000610352</ele>
        <time>2019-11-03T08:50:04.000Z</time>
      </trkpt>
      <trkpt lat="47.28437" lon="-2.41258">
        <ele>213.60000610352</ele>
        <time>2019-11-03T08:50:06.000Z</time>
      </trkpt>
      <trkpt lat="47.28445" lon="-2.41265">
        <ele>213.60000610352</ele>
        <time>2019-11-03T08:50:08.000Z</time>
      </trkpt>
      <trkpt lat="47.28452" lon="-2.41274">
        <ele>213.60000610352</ele>
        <time>2019-11-03T08:50:10.000Z</time>
      </trkpt>
      <trkpt lat="47.28456" lon="-2.41286">
        <ele>214</ele>
        <time>2019-11-03T08:50:12.000Z</time>
      </trkpt>
      <trkpt lat="47.28455" lon="-2.41293">
        <ele>214.39999389648</ele>
        <time>2019-11-03T08:50:13.000Z</time>
      </trkpt>
      <trkpt lat="47.28454" lon="-2.413">
        <ele>214.80000305176</ele>
        <time>2019-11-03T08:50:14.000Z</time>
      </trkpt>
      <trkpt lat="47.28453" lon="-2.41306">
        <ele>215.39999389648</ele>
        <time>2019-11-03T08:50:15.000Z</time>
      </trkpt>
      <trkpt lat="47.28452" lon="-2.41313">
        <ele>215.80000305176</ele>
        <time>2019-11-03T08:50:16.000Z</time>
      </trkpt>
      <trkpt lat="47.28449" lon="-2.41326">
        <ele>215.80000305176</ele>
        <time>2019-11-03T08:50:18.000Z</time>
      </trkpt>
      <trkpt lat="47.28448" lon="-2.41332">
        <ele>215.80000305176</ele>
        <time>2019-11-03T08:50:19.000Z</time>
      </trkpt>
      <trkpt lat="47.28445" lon="-2.41352">
        <ele>216.19999694824</ele>
        <time>2019-11-03T08:50:22.000Z</time>
      </trkpt>
      <trkpt lat="47.28443" lon="-2.41358">
        <ele>216.60000610352</ele>
        <time>2019-11-03T08:50:23.000Z</time>
      </trkpt>
      <trkpt lat="47.28442" lon="-2.41365">
        <ele>217.19999694824</ele>
        <time>2019-11-03T08:50:24.000Z</time>
      </trkpt>
      <trkpt lat="47.2844" lon="-2.41371">
        <ele>216.80000305176</ele>
        <time>2019-11-03T08:50:25.000Z</time>
      </trkpt>
      <trkpt lat="47.28438" lon="-2.41377">
        <ele>216.39999389648</ele>
        <time>2019-11-03T08:50:26.000Z</time>
      </trkpt>
      <trkpt lat="47.28436" lon="-2.41384">
        <ele>216</ele>
        <time>2019-11-03T08:50:27.000Z</time>
      </trkpt>
      <trkpt lat="47.28434" lon="-2.4139">
        <ele>215.60000610352</ele>
        <time>2019-11-03T08:50:28.000Z</time>
      </trkpt>
      <trkpt lat="47.28432" lon="-2.41397">
        <ele>215.19999694824</ele>
        <time>2019-11-03T08:50:29.000Z</time>
      </trkpt>
      <trkpt lat="47.28428" lon="-2.41411">
        <ele>215.19999694824</ele>
        <time>2019-11-03T08:50:31.000Z</time>
      </trkpt>
      <trkpt lat="47.28417" lon="-2.41474">
        <ele>215.19999694824</ele>
        <time>2019-11-03T08:50:39.000Z</time>
      </trkpt>
      <trkpt lat="47.28416" lon="-2.41499">
        <ele>215.19999694824</ele>
        <time>2019-11-03T08:50:42.000Z</time>
      </trkpt>
      <trkpt lat="47.28413" lon="-2.41522">
        <ele>215.19999694824</ele>
        <time>2019-11-03T08:50:45.000Z</time>
      </trkpt>
      <trkpt lat="47.28405" lon="-2.41583">
        <ele>215.60000610352</ele>
        <time>2019-11-03T08:50:53.000Z</time>
      </trkpt>
      <trkpt lat="47.28404" lon="-2.4159">
        <ele>216</ele>
        <time>2019-11-03T08:50:54.000Z</time>
      </trkpt>
      <trkpt lat="47.28404" lon="-2.41598">
        <ele>217</ele>
        <time>2019-11-03T08:50:55.000Z</time>
      </trkpt>
      <trkpt lat="47.28403" lon="-2.41606">
        <ele>217.39999389648</ele>
        <time>2019-11-03T08:50:56.000Z</time>
      </trkpt>
      <trkpt lat="47.28402" lon="-2.41614">
        <ele>218</ele>
        <time>2019-11-03T08:50:57.000Z</time>
      </trkpt>
      <trkpt lat="47.28402" lon="-2.41622">
        <ele>218.39999389648</ele>
        <time>2019-11-03T08:50:58.000Z</time>
      </trkpt>
      <trkpt lat="47.28402" lon="-2.4163">
        <ele>219</ele>
        <time>2019-11-03T08:50:59.000Z</time>
      </trkpt>
      <trkpt lat="47.28401" lon="-2.41639">
        <ele>219.39999389648</ele>
        <time>2019-11-03T08:51:00.000Z</time>
      </trkpt>
      <trkpt lat="47.28395" lon="-2.41685">
        <ele>219</ele>
        <time>2019-11-03T08:51:06.000Z</time>
      </trkpt>
      <trkpt lat="47.28393" lon="-2.41693">
        <ele>218.39999389648</ele>
        <time>2019-11-03T08:51:07.000Z</time>
      </trkpt>
      <trkpt lat="47.28391" lon="-2.417">
        <ele>217.80000305176</ele>
        <time>2019-11-03T08:51:08.000Z</time>
      </trkpt>
      <trkpt lat="47.28389" lon="-2.41708">
        <ele>217.39999389648</ele>
        <time>2019-11-03T08:51:09.000Z</time>
      </trkpt>
      <trkpt lat="47.28387" lon="-2.41716">
        <ele>216.80000305176</ele>
        <time>2019-11-03T08:51:10.000Z</time>
      </trkpt>
      <trkpt lat="47.28379" lon="-2.4175">
        <ele>216.80000305176</ele>
        <time>2019-11-03T08:51:14.000Z</time>
      </trkpt>
      <trkpt lat="47.28365" lon="-2.41807">
        <ele>216.80000305176</ele>
        <time>2019-11-03T08:51:21.000Z</time>
      </trkpt>
      <trkpt lat="47.28351" lon="-2.41864">
        <ele>216.80000305176</ele>
        <time>2019-11-03T08:51:28.000Z</time>
      </trkpt>
      <trkpt lat="47.28335" lon="-2.41928">
        <ele>216.80000305176</ele>
        <time>2019-11-03T08:51:36.000Z</time>
      </trkpt>
      <trkpt lat="47.28322" lon="-2.41982">
        <ele>216.80000305176</ele>
        <time>2019-11-03T08:51:43.000Z</time>
      </trkpt>
      <trkpt lat="47.28308" lon="-2.42043">
        <ele>216.80000305176</ele>
        <time>2019-11-03T08:51:51.000Z</time>
      </trkpt>
      <trkpt lat="47.283" lon="-2.42082">
        <ele>216.80000305176</ele>
        <time>2019-11-03T08:51:56.000Z</time>
      </trkpt>
      <trkpt lat="47.28299" lon="-2.42091">
        <ele>216.80000305176</ele>
        <time>2019-11-03T08:51:57.000Z</time>
      </trkpt>
      <trkpt lat="47.28289" lon="-2.42154">
        <ele>216.80000305176</ele>
        <time>2019-11-03T08:52:05.000Z</time>
      </trkpt>
      <trkpt lat="47.28281" lon="-2.4221">
        <ele>216.80000305176</ele>
        <time>2019-11-03T08:52:12.000Z</time>
      </trkpt>
      <trkpt lat="47.28277" lon="-2.42235">
        <ele>216.80000305176</ele>
        <time>2019-11-03T08:52:15.000Z</time>
      </trkpt>
      <trkpt lat="47.28274" lon="-2.42259">
        <ele>216.80000305176</ele>
        <time>2019-11-03T08:52:18.000Z</time>
      </trkpt>
      <trkpt lat="47.28265" lon="-2.42326">
        <ele>216.80000305176</ele>
        <time>2019-11-03T08:52:26.000Z</time>
      </trkpt>
      <trkpt lat="47.28253" lon="-2.4239">
        <ele>216.80000305176</ele>
        <time>2019-11-03T08:52:34.000Z</time>
      </trkpt>
      <trkpt lat="47.28242" lon="-2.42434">
        <ele>216.80000305176</ele>
        <time>2019-11-03T08:52:40.000Z</time>
      </trkpt>
      <trkpt lat="47.28224" lon="-2.42477">
        <ele>216.80000305176</ele>
        <time>2019-11-03T08:52:46.000Z</time>
      </trkpt>
      <trkpt lat="47.28201" lon="-2.42511">
        <ele>216.80000305176</ele>
        <time>2019-11-03T08:52:52.000Z</time>
      </trkpt>
      <trkpt lat="47.2817" lon="-2.42529">
        <ele>216.80000305176</ele>
        <time>2019-11-03T08:52:58.000Z</time>
      </trkpt>
      <trkpt lat="47.28135" lon="-2.42539">
        <ele>216.80000305176</ele>
        <time>2019-11-03T08:53:05.000Z</time>
      </trkpt>
      <trkpt lat="47.28113" lon="-2.42545">
        <ele>216.80000305176</ele>
        <time>2019-11-03T08:53:11.000Z</time>
      </trkpt>
      <trkpt lat="47.28103" lon="-2.42546">
        <ele>216.80000305176</ele>
        <time>2019-11-03T08:53:14.000Z</time>
      </trkpt>
      <trkpt lat="47.281" lon="-2.42551">
        <ele>216.80000305176</ele>
        <time>2019-11-03T08:53:16.000Z</time>
      </trkpt>
      <trkpt lat="47.28102" lon="-2.42563">
        <ele>216.80000305176</ele>
        <time>2019-11-03T08:53:20.000Z</time>
      </trkpt>
      <trkpt lat="47.28111" lon="-2.42578">
        <ele>216.80000305176</ele>
        <time>2019-11-03T08:53:23.000Z</time>
      </trkpt>
      <trkpt lat="47.28114" lon="-2.42583">
        <ele>216.80000305176</ele>
        <time>2019-11-03T08:53:24.000Z</time>
      </trkpt>
      <trkpt lat="47.28123" lon="-2.426">
        <ele>216.80000305176</ele>
        <time>2019-11-03T08:53:27.000Z</time>
      </trkpt>
      <trkpt lat="47.28136" lon="-2.42621">
        <ele>216.80000305176</ele>
        <time>2019-11-03T08:53:31.000Z</time>
      </trkpt>
      <trkpt lat="47.28146" lon="-2.42641">
        <ele>217.19999694824</ele>
        <time>2019-11-03T08:53:35.000Z</time>
      </trkpt>
      <trkpt lat="47.28149" lon="-2.42646">
        <ele>217.60000610352</ele>
        <time>2019-11-03T08:53:36.000Z</time>
      </trkpt>
      <trkpt lat="47.28152" lon="-2.42651">
        <ele>218</ele>
        <time>2019-11-03T08:53:37.000Z</time>
      </trkpt>
      <trkpt lat="47.28156" lon="-2.42656">
        <ele>218.60000610352</ele>
        <time>2019-11-03T08:53:38.000Z</time>
      </trkpt>
      <trkpt lat="47.28159" lon="-2.42661">
        <ele>219</ele>
        <time>2019-11-03T08:53:39.000Z</time>
      </trkpt>
      <trkpt lat="47.28163" lon="-2.42666">
        <ele>219</ele>
        <time>2019-11-03T08:53:40.000Z</time>
      </trkpt>
      <trkpt lat="47.28174" lon="-2.42684">
        <ele>219</ele>
        <time>2019-11-03T08:53:43.000Z</time>
      </trkpt>
      <trkpt lat="47.2819" lon="-2.42711">
        <ele>219</ele>
        <time>2019-11-03T08:53:48.000Z</time>
      </trkpt>
      <trkpt lat="47.28194" lon="-2.42717">
        <ele>219</ele>
        <time>2019-11-03T08:53:49.000Z</time>
      </trkpt>
      <trkpt lat="47.28196" lon="-2.42723">
        <ele>219</ele>
        <time>2019-11-03T08:53:50.000Z</time>
      </trkpt>
      <trkpt lat="47.28201" lon="-2.42736">
        <ele>219</ele>
        <time>2019-11-03T08:53:52.000Z</time>
      </trkpt>
      <trkpt lat="47.28204" lon="-2.42742">
        <ele>219</ele>
        <time>2019-11-03T08:53:53.000Z</time>
      </trkpt>
      <trkpt lat="47.28207" lon="-2.42748">
        <ele>219.39999389648</ele>
        <time>2019-11-03T08:53:54.000Z</time>
      </trkpt>
      <trkpt lat="47.2821" lon="-2.42754">
        <ele>219.80000305176</ele>
        <time>2019-11-03T08:53:55.000Z</time>
      </trkpt>
      <trkpt lat="47.28213" lon="-2.4276">
        <ele>220.39999389648</ele>
        <time>2019-11-03T08:53:56.000Z</time>
      </trkpt>
      <trkpt lat="47.28216" lon="-2.42766">
        <ele>220.80000305176</ele>
        <time>2019-11-03T08:53:57.000Z</time>
      </trkpt>
      <trkpt lat="47.28219" lon="-2.42773">
        <ele>221.19999694824</ele>
        <time>2019-11-03T08:53:58.000Z</time>
      </trkpt>
      <trkpt lat="47.28224" lon="-2.42786">
        <ele>221.19999694824</ele>
        <time>2019-11-03T08:54:00.000Z</time>
      </trkpt>
      <trkpt lat="47.28237" lon="-2.42817">
        <ele>221.19999694824</ele>
        <time>2019-11-03T08:54:05.000Z</time>
      </trkpt>
      <trkpt lat="47.28244" lon="-2.42843">
        <ele>221.19999694824</ele>
        <time>2019-11-03T08:54:09.000Z</time>
      </trkpt>
      <trkpt lat="47.28247" lon="-2.42849">
        <ele>221.19999694824</ele>
        <time>2019-11-03T08:54:10.000Z</time>
      </trkpt>
      <trkpt lat="47.28254" lon="-2.42862">
        <ele>220.39999389648</ele>
        <time>2019-11-03T08:54:12.000Z</time>
      </trkpt>
      <trkpt lat="47.28258" lon="-2.42867">
        <ele>220</ele>
        <time>2019-11-03T08:54:13.000Z</time>
      </trkpt>
      <trkpt lat="47.28261" lon="-2.42873">
        <ele>219.60000610352</ele>
        <time>2019-11-03T08:54:14.000Z</time>
      </trkpt>
      <trkpt lat="47.28263" lon="-2.42879">
        <ele>219.19999694824</ele>
        <time>2019-11-03T08:54:15.000Z</time>
      </trkpt>
      <trkpt lat="47.2826" lon="-2.42898">
        <ele>218.80000305176</ele>
        <time>2019-11-03T08:54:18.000Z</time>
      </trkpt>
      <trkpt lat="47.28258" lon="-2.42904">
        <ele>218.39999389648</ele>
        <time>2019-11-03T08:54:19.000Z</time>
      </trkpt>
      <trkpt lat="47.28258" lon="-2.42911">
        <ele>218</ele>
        <time>2019-11-03T08:54:20.000Z</time>
      </trkpt>
      <trkpt lat="47.28258" lon="-2.42919">
        <ele>217.39999389648</ele>
        <time>2019-11-03T08:54:21.000Z</time>
      </trkpt>
      <trkpt lat="47.28259" lon="-2.42926">
        <ele>217</ele>
        <time>2019-11-03T08:54:22.000Z</time>
      </trkpt>
      <trkpt lat="47.28261" lon="-2.42934">
        <ele>217</ele>
        <time>2019-11-03T08:54:23.000Z</time>
      </trkpt>
      <trkpt lat="47.28264" lon="-2.42959">
        <ele>217</ele>
        <time>2019-11-03T08:54:26.000Z</time>
      </trkpt>
      <trkpt lat="47.28263" lon="-2.42984">
        <ele>217.39999389648</ele>
        <time>2019-11-03T08:54:29.000Z</time>
      </trkpt>
      <trkpt lat="47.28263" lon="-2.42992">
        <ele>218</ele>
        <time>2019-11-03T08:54:30.000Z</time>
      </trkpt>
      <trkpt lat="47.28263" lon="-2.43001">
        <ele>218.39999389648</ele>
        <time>2019-11-03T08:54:31.000Z</time>
      </trkpt>
      <trkpt lat="47.28263" lon="-2.43009">
        <ele>218.19999694824</ele>
        <time>2019-11-03T08:54:32.000Z</time>
      </trkpt>
      <trkpt lat="47.28263" lon="-2.43018">
        <ele>217.80000305176</ele>
        <time>2019-11-03T08:54:33.000Z</time>
      </trkpt>
      <trkpt lat="47.28262" lon="-2.43027">
        <ele>217.60000610352</ele>
        <time>2019-11-03T08:54:34.000Z</time>
      </trkpt>
      <trkpt lat="47.28261" lon="-2.43035">
        <ele>217.39999389648</ele>
        <time>2019-11-03T08:54:35.000Z</time>
      </trkpt>
      <trkpt lat="47.2826" lon="-2.43043">
        <ele>217.19999694824</ele>
        <time>2019-11-03T08:54:36.000Z</time>
      </trkpt>
      <trkpt lat="47.28258" lon="-2.43058">
        <ele>217.19999694824</ele>
        <time>2019-11-03T08:54:38.000Z</time>
      </trkpt>
      <trkpt lat="47.28257" lon="-2.43098">
        <ele>217.19999694824</ele>
        <time>2019-11-03T08:54:43.000Z</time>
      </trkpt>
      <trkpt lat="47.28256" lon="-2.43112">
        <ele>217.19999694824</ele>
        <time>2019-11-03T08:54:45.000Z</time>
      </trkpt>
      <trkpt lat="47.28252" lon="-2.43133">
        <ele>217.19999694824</ele>
        <time>2019-11-03T08:54:48.000Z</time>
      </trkpt>
      <trkpt lat="47.2825" lon="-2.43141">
        <ele>216.80000305176</ele>
        <time>2019-11-03T08:54:49.000Z</time>
      </trkpt>
      <trkpt lat="47.28249" lon="-2.43148">
        <ele>216.39999389648</ele>
        <time>2019-11-03T08:54:50.000Z</time>
      </trkpt>
      <trkpt lat="47.28247" lon="-2.43156">
        <ele>215.80000305176</ele>
        <time>2019-11-03T08:54:51.000Z</time>
      </trkpt>
      <trkpt lat="47.28245" lon="-2.43163">
        <ele>215.39999389648</ele>
        <time>2019-11-03T08:54:52.000Z</time>
      </trkpt>
      <trkpt lat="47.28244" lon="-2.43171">
        <ele>215</ele>
        <time>2019-11-03T08:54:53.000Z</time>
      </trkpt>
      <trkpt lat="47.28241" lon="-2.43184">
        <ele>215.39999389648</ele>
        <time>2019-11-03T08:54:55.000Z</time>
      </trkpt>
      <trkpt lat="47.2824" lon="-2.43192">
        <ele>215.80000305176</ele>
        <time>2019-11-03T08:54:56.000Z</time>
      </trkpt>
      <trkpt lat="47.28238" lon="-2.43199">
        <ele>216.19999694824</ele>
        <time>2019-11-03T08:54:57.000Z</time>
      </trkpt>
      <trkpt lat="47.28236" lon="-2.43206">
        <ele>216.80000305176</ele>
        <time>2019-11-03T08:54:58.000Z</time>
      </trkpt>
      <trkpt lat="47.28235" lon="-2.43213">
        <ele>217.19999694824</ele>
        <time>2019-11-03T08:54:59.000Z</time>
      </trkpt>
      <trkpt lat="47.28233" lon="-2.4322">
        <ele>217.19999694824</ele>
        <time>2019-11-03T08:55:00.000Z</time>
      </trkpt>
      <trkpt lat="47.28231" lon="-2.43227">
        <ele>216.80000305176</ele>
        <time>2019-11-03T08:55:01.000Z</time>
      </trkpt>
      <trkpt lat="47.28229" lon="-2.43233">
        <ele>216.39999389648</ele>
        <time>2019-11-03T08:55:02.000Z</time>
      </trkpt>
      <trkpt lat="47.28228" lon="-2.4324">
        <ele>215.80000305176</ele>
        <time>2019-11-03T08:55:03.000Z</time>
      </trkpt>
      <trkpt lat="47.28226" lon="-2.43247">
        <ele>215.39999389648</ele>
        <time>2019-11-03T08:55:04.000Z</time>
      </trkpt>
      <trkpt lat="47.28225" lon="-2.43254">
        <ele>215</ele>
        <time>2019-11-03T08:55:05.000Z</time>
      </trkpt>
      <trkpt lat="47.28227" lon="-2.43267">
        <ele>215</ele>
        <time>2019-11-03T08:55:07.000Z</time>
      </trkpt>
      <trkpt lat="47.28227" lon="-2.43294">
        <ele>215</ele>
        <time>2019-11-03T08:55:11.000Z</time>
      </trkpt>
      <trkpt lat="47.28226" lon="-2.43301">
        <ele>215</ele>
        <time>2019-11-03T08:55:12.000Z</time>
      </trkpt>
      <trkpt lat="47.28223" lon="-2.43313">
        <ele>215</ele>
        <time>2019-11-03T08:55:14.000Z</time>
      </trkpt>
      <trkpt lat="47.28222" lon="-2.4333">
        <ele>215</ele>
        <time>2019-11-03T08:55:17.000Z</time>
      </trkpt>
      <trkpt lat="47.2822" lon="-2.43334">
        <ele>215</ele>
        <time>2019-11-03T08:55:18.000Z</time>
      </trkpt>
      <trkpt lat="47.28213" lon="-2.43338">
        <ele>215</ele>
        <time>2019-11-03T08:55:20.000Z</time>
      </trkpt>
      <trkpt lat="47.28201" lon="-2.43335">
        <ele>215</ele>
        <time>2019-11-03T08:55:23.000Z</time>
      </trkpt>
      <trkpt lat="47.28196" lon="-2.43336">
        <ele>215</ele>
        <time>2019-11-03T08:55:24.000Z</time>
      </trkpt>
      <trkpt lat="47.28187" lon="-2.4334">
        <ele>215</ele>
        <time>2019-11-03T08:55:26.000Z</time>
      </trkpt>
      <trkpt lat="47.28176" lon="-2.43333">
        <ele>215</ele>
        <time>2019-11-03T08:55:29.000Z</time>
      </trkpt>
      <trkpt lat="47.2817" lon="-2.4334">
        <ele>215</ele>
        <time>2019-11-03T08:55:31.000Z</time>
      </trkpt>
      <trkpt lat="47.28159" lon="-2.43357">
        <ele>215</ele>
        <time>2019-11-03T08:55:34.000Z</time>
      </trkpt>
      <trkpt lat="47.28155" lon="-2.43363">
        <ele>215</ele>
        <time>2019-11-03T08:55:35.000Z</time>
      </trkpt>
      <trkpt lat="47.28126" lon="-2.43407">
        <ele>215</ele>
        <time>2019-11-03T08:55:42.000Z</time>
      </trkpt>
      <trkpt lat="47.28091" lon="-2.43458">
        <ele>215</ele>
        <time>2019-11-03T08:55:50.000Z</time>
      </trkpt>
      <trkpt lat="47.28087" lon="-2.43465">
        <ele>215.39999389648</ele>
        <time>2019-11-03T08:55:51.000Z</time>
      </trkpt>
      <trkpt lat="47.28082" lon="-2.43472">
        <ele>215.80000305176</ele>
        <time>2019-11-03T08:55:52.000Z</time>
      </trkpt>
      <trkpt lat="47.28077" lon="-2.43479">
        <ele>216.19999694824</ele>
        <time>2019-11-03T08:55:53.000Z</time>
      </trkpt>
      <trkpt lat="47.28073" lon="-2.43485">
        <ele>216.60000610352</ele>
        <time>2019-11-03T08:55:54.000Z</time>
      </trkpt>
      <trkpt lat="47.28068" lon="-2.43492">
        <ele>217.19999694824</ele>
        <time>2019-11-03T08:55:55.000Z</time>
      </trkpt>
      <trkpt lat="47.28064" lon="-2.43499">
        <ele>217.19999694824</ele>
        <time>2019-11-03T08:55:56.000Z</time>
      </trkpt>
      <trkpt lat="47.28032" lon="-2.43546">
        <ele>217.19999694824</ele>
        <time>2019-11-03T08:56:03.000Z</time>
      </trkpt>
      <trkpt lat="47.27994" lon="-2.436">
        <ele>217.19999694824</ele>
        <time>2019-11-03T08:56:11.000Z</time>
      </trkpt>
      <trkpt lat="47.27967" lon="-2.43641">
        <ele>217.19999694824</ele>
        <time>2019-11-03T08:56:17.000Z</time>
      </trkpt>
      <trkpt lat="47.2793" lon="-2.43694">
        <ele>217.19999694824</ele>
        <time>2019-11-03T08:56:25.000Z</time>
      </trkpt>
      <trkpt lat="47.27901" lon="-2.43729">
        <ele>217.19999694824</ele>
        <time>2019-11-03T08:56:31.000Z</time>
      </trkpt>
      <trkpt lat="47.27897" lon="-2.43733">
        <ele>217.19999694824</ele>
        <time>2019-11-03T08:56:32.000Z</time>
      </trkpt>
      <trkpt lat="47.27868" lon="-2.43763">
        <ele>216.60000610352</ele>
        <time>2019-11-03T08:56:38.000Z</time>
      </trkpt>
      <trkpt lat="47.27863" lon="-2.43768">
        <ele>216.19999694824</ele>
        <time>2019-11-03T08:56:39.000Z</time>
      </trkpt>
      <trkpt lat="47.27858" lon="-2.43772">
        <ele>215.80000305176</ele>
        <time>2019-11-03T08:56:40.000Z</time>
      </trkpt>
      <trkpt lat="47.27853" lon="-2.43776">
        <ele>215</ele>
        <time>2019-11-03T08:56:41.000Z</time>
      </trkpt>
      <trkpt lat="47.2784" lon="-2.43787">
        <ele>215</ele>
        <time>2019-11-03T08:56:44.000Z</time>
      </trkpt>
      <trkpt lat="47.2783" lon="-2.43793">
        <ele>215</ele>
        <time>2019-11-03T08:56:46.000Z</time>
      </trkpt>
      <trkpt lat="47.27814" lon="-2.43799">
        <ele>215</ele>
        <time>2019-11-03T08:56:49.000Z</time>
      </trkpt>
      <trkpt lat="47.27799" lon="-2.43794">
        <ele>215</ele>
        <time>2019-11-03T08:56:52.000Z</time>
      </trkpt>
      <trkpt lat="47.27794" lon="-2.43793">
        <ele>215</ele>
        <time>2019-11-03T08:56:53.000Z</time>
      </trkpt>
      <trkpt lat="47.27779" lon="-2.43788">
        <ele>215</ele>
        <time>2019-11-03T08:56:56.000Z</time>
      </trkpt>
      <trkpt lat="47.27774" lon="-2.43789">
        <ele>215</ele>
        <time>2019-11-03T08:56:57.000Z</time>
      </trkpt>
      <trkpt lat="47.27761" lon="-2.43803">
        <ele>215</ele>
        <time>2019-11-03T08:57:00.000Z</time>
      </trkpt>
      <trkpt lat="47.27757" lon="-2.43808">
        <ele>215</ele>
        <time>2019-11-03T08:57:01.000Z</time>
      </trkpt>
      <trkpt lat="47.27748" lon="-2.43818">
        <ele>215</ele>
        <time>2019-11-03T08:57:03.000Z</time>
      </trkpt>
      <trkpt lat="47.27737" lon="-2.43822">
        <ele>215</ele>
        <time>2019-11-03T08:57:05.000Z</time>
      </trkpt>
      <trkpt lat="47.277" lon="-2.43829">
        <ele>215</ele>
        <time>2019-11-03T08:57:11.000Z</time>
      </trkpt>
      <trkpt lat="47.27657" lon="-2.43841">
        <ele>215</ele>
        <time>2019-11-03T08:57:17.000Z</time>
      </trkpt>
      <trkpt lat="47.2761" lon="-2.43862">
        <ele>215</ele>
        <time>2019-11-03T08:57:24.000Z</time>
      </trkpt>
      <trkpt lat="47.27573" lon="-2.43877">
        <ele>215</ele>
        <time>2019-11-03T08:57:30.000Z</time>
      </trkpt>
      <trkpt lat="47.27567" lon="-2.43879">
        <ele>215</ele>
        <time>2019-11-03T08:57:31.000Z</time>
      </trkpt>
      <trkpt lat="47.27549" lon="-2.43887">
        <ele>215</ele>
        <time>2019-11-03T08:57:34.000Z</time>
      </trkpt>
      <trkpt lat="47.27532" lon="-2.43896">
        <ele>215</ele>
        <time>2019-11-03T08:57:37.000Z</time>
      </trkpt>
      <trkpt lat="47.27517" lon="-2.43904">
        <ele>215</ele>
        <time>2019-11-03T08:57:40.000Z</time>
      </trkpt>
      <trkpt lat="47.2748" lon="-2.43918">
        <ele>215</ele>
        <time>2019-11-03T08:57:47.000Z</time>
      </trkpt>
      <trkpt lat="47.27439" lon="-2.43934">
        <ele>215</ele>
        <time>2019-11-03T08:57:54.000Z</time>
      </trkpt>
      <trkpt lat="47.2741" lon="-2.43946">
        <ele>215</ele>
        <time>2019-11-03T08:57:59.000Z</time>
      </trkpt>
      <trkpt lat="47.27378" lon="-2.43962">
        <ele>215.39999389648</ele>
        <time>2019-11-03T08:58:05.000Z</time>
      </trkpt>
      <trkpt lat="47.27373" lon="-2.43965">
        <ele>215.80000305176</ele>
        <time>2019-11-03T08:58:06.000Z</time>
      </trkpt>
      <trkpt lat="47.27368" lon="-2.43967">
        <ele>216.19999694824</ele>
        <time>2019-11-03T08:58:07.000Z</time>
      </trkpt>
      <trkpt lat="47.27362" lon="-2.4397">
        <ele>216.80000305176</ele>
        <time>2019-11-03T08:58:08.000Z</time>
      </trkpt>
      <trkpt lat="47.27357" lon="-2.43972">
        <ele>217.19999694824</ele>
        <time>2019-11-03T08:58:09.000Z</time>
      </trkpt>
      <trkpt lat="47.27337" lon="-2.43981">
        <ele>217.19999694824</ele>
        <time>2019-11-03T08:58:13.000Z</time>
      </trkpt>
      <trkpt lat="47.2732" lon="-2.4399">
        <ele>217.19999694824</ele>
        <time>2019-11-03T08:58:18.000Z</time>
      </trkpt>
      <trkpt lat="47.27317" lon="-2.44006">
        <ele>217.19999694824</ele>
        <time>2019-11-03T08:58:22.000Z</time>
      </trkpt>
      <trkpt lat="47.27308" lon="-2.44021">
        <ele>217.19999694824</ele>
        <time>2019-11-03T08:58:25.000Z</time>
      </trkpt>
      <trkpt lat="47.27307" lon="-2.44029">
        <ele>217.19999694824</ele>
        <time>2019-11-03T08:58:26.000Z</time>
      </trkpt>
      <trkpt lat="47.27309" lon="-2.44053">
        <ele>217.19999694824</ele>
        <time>2019-11-03T08:58:29.000Z</time>
      </trkpt>
      <trkpt lat="47.2731" lon="-2.4406">
        <ele>217.19999694824</ele>
        <time>2019-11-03T08:58:30.000Z</time>
      </trkpt>
      <trkpt lat="47.27315" lon="-2.44089">
        <ele>217.60000610352</ele>
        <time>2019-11-03T08:58:34.000Z</time>
      </trkpt>
      <trkpt lat="47.27315" lon="-2.44095">
        <ele>218</ele>
        <time>2019-11-03T08:58:35.000Z</time>
      </trkpt>
      <trkpt lat="47.27316" lon="-2.44101">
        <ele>218.39999389648</ele>
        <time>2019-11-03T08:58:36.000Z</time>
      </trkpt>
      <trkpt lat="47.27318" lon="-2.44108">
        <ele>218.80000305176</ele>
        <time>2019-11-03T08:58:37.000Z</time>
      </trkpt>
      <trkpt lat="47.27318" lon="-2.44115">
        <ele>219.19999694824</ele>
        <time>2019-11-03T08:58:38.000Z</time>
      </trkpt>
      <trkpt lat="47.27322" lon="-2.44137">
        <ele>219.19999694824</ele>
        <time>2019-11-03T08:58:41.000Z</time>
      </trkpt>
      <trkpt lat="47.27328" lon="-2.44177">
        <ele>219.19999694824</ele>
        <time>2019-11-03T08:58:47.000Z</time>
      </trkpt>
      <trkpt lat="47.27335" lon="-2.44186">
        <ele>219.19999694824</ele>
        <time>2019-11-03T08:58:50.000Z</time>
      </trkpt>
      <trkpt lat="47.27339" lon="-2.44186">
        <ele>219.19999694824</ele>
        <time>2019-11-03T08:58:51.000Z</time>
      </trkpt>
      <trkpt lat="47.27347" lon="-2.44185">
        <ele>219.19999694824</ele>
        <time>2019-11-03T08:58:53.000Z</time>
      </trkpt>
      <trkpt lat="47.27356" lon="-2.4418">
        <ele>219.19999694824</ele>
        <time>2019-11-03T08:58:55.000Z</time>
      </trkpt>
      <trkpt lat="47.27364" lon="-2.44175">
        <ele>219.19999694824</ele>
        <time>2019-11-03T08:58:57.000Z</time>
      </trkpt>
      <trkpt lat="47.27383" lon="-2.44162">
        <ele>219.19999694824</ele>
        <time>2019-11-03T08:59:02.000Z</time>
      </trkpt>
      <trkpt lat="47.27392" lon="-2.44157">
        <ele>219.80000305176</ele>
        <time>2019-11-03T08:59:04.000Z</time>
      </trkpt>
      <trkpt lat="47.27396" lon="-2.44154">
        <ele>220.19999694824</ele>
        <time>2019-11-03T08:59:05.000Z</time>
      </trkpt>
      <trkpt lat="47.274" lon="-2.44151">
        <ele>220.60000610352</ele>
        <time>2019-11-03T08:59:06.000Z</time>
      </trkpt>
      <trkpt lat="47.27404" lon="-2.44151">
        <ele>221</ele>
        <time>2019-11-03T08:59:07.000Z</time>
      </trkpt>
      <trkpt lat="47.27409" lon="-2.44153">
        <ele>221.60000610352</ele>
        <time>2019-11-03T08:59:08.000Z</time>
      </trkpt>
      <trkpt lat="47.27414" lon="-2.44173">
        <ele>221.60000610352</ele>
        <time>2019-11-03T08:59:11.000Z</time>
      </trkpt>
      <trkpt lat="47.27415" lon="-2.44181">
        <ele>221.60000610352</ele>
        <time>2019-11-03T08:59:12.000Z</time>
      </trkpt>
      <trkpt lat="47.27421" lon="-2.44231">
        <ele>221.60000610352</ele>
        <time>2019-11-03T08:59:18.000Z</time>
      </trkpt>
      <trkpt lat="47.27424" lon="-2.44256">
        <ele>221</ele>
        <time>2019-11-03T08:59:21.000Z</time>
      </trkpt>
      <trkpt lat="47.27425" lon="-2.44265">
        <ele>220.60000610352</ele>
        <time>2019-11-03T08:59:22.000Z</time>
      </trkpt>
      <trkpt lat="47.27426" lon="-2.44274">
        <ele>220.19999694824</ele>
        <time>2019-11-03T08:59:23.000Z</time>
      </trkpt>
      <trkpt lat="47.27427" lon="-2.44282">
        <ele>219.60000610352</ele>
        <time>2019-11-03T08:59:24.000Z</time>
      </trkpt>
      <trkpt lat="47.27428" lon="-2.44291">
        <ele>219.19999694824</ele>
        <time>2019-11-03T08:59:25.000Z</time>
      </trkpt>
      <trkpt lat="47.27429" lon="-2.44299">
        <ele>219.19999694824</ele>
        <time>2019-11-03T08:59:26.000Z</time>
      </trkpt>
      <trkpt lat="47.27434" lon="-2.44344">
        <ele>219.19999694824</ele>
        <time>2019-11-03T08:59:31.000Z</time>
      </trkpt>
      <trkpt lat="47.27435" lon="-2.44352">
        <ele>219.19999694824</ele>
        <time>2019-11-03T08:59:32.000Z</time>
      </trkpt>
      <trkpt lat="47.2744" lon="-2.44404">
        <ele>219.19999694824</ele>
        <time>2019-11-03T08:59:39.000Z</time>
      </trkpt>
      <trkpt lat="47.27436" lon="-2.4445">
        <ele>218.80000305176</ele>
        <time>2019-11-03T08:59:45.000Z</time>
      </trkpt>
      <trkpt lat="47.27437" lon="-2.44459">
        <ele>218.39999389648</ele>
        <time>2019-11-03T08:59:46.000Z</time>
      </trkpt>
      <trkpt lat="47.27437" lon="-2.44466">
        <ele>218</ele>
        <time>2019-11-03T08:59:47.000Z</time>
      </trkpt>
      <trkpt lat="47.27438" lon="-2.44474">
        <ele>217.39999389648</ele>
        <time>2019-11-03T08:59:48.000Z</time>
      </trkpt>
      <trkpt lat="47.27438" lon="-2.44481">
        <ele>217</ele>
        <time>2019-11-03T08:59:49.000Z</time>
      </trkpt>
      <trkpt lat="47.27439" lon="-2.44497">
        <ele>217</ele>
        <time>2019-11-03T08:59:51.000Z</time>
      </trkpt>
      <trkpt lat="47.2744" lon="-2.44504">
        <ele>217</ele>
        <time>2019-11-03T08:59:52.000Z</time>
      </trkpt>
      <trkpt lat="47.27447" lon="-2.44525">
        <ele>217</ele>
        <time>2019-11-03T08:59:55.000Z</time>
      </trkpt>
      <trkpt lat="47.27449" lon="-2.44532">
        <ele>217</ele>
        <time>2019-11-03T08:59:56.000Z</time>
      </trkpt>
      <trkpt lat="47.27451" lon="-2.44558">
        <ele>217</ele>
        <time>2019-11-03T08:59:59.000Z</time>
      </trkpt>
      <trkpt lat="47.27455" lon="-2.44603">
        <ele>217</ele>
        <time>2019-11-03T09:00:04.000Z</time>
      </trkpt>
      <trkpt lat="47.27458" lon="-2.44611">
        <ele>217</ele>
        <time>2019-11-03T09:00:05.000Z</time>
      </trkpt>
      <trkpt lat="47.2747" lon="-2.44632">
        <ele>217</ele>
        <time>2019-11-03T09:00:08.000Z</time>
      </trkpt>
      <trkpt lat="47.27474" lon="-2.44639">
        <ele>217</ele>
        <time>2019-11-03T09:00:09.000Z</time>
      </trkpt>
      <trkpt lat="47.27488" lon="-2.44668">
        <ele>217</ele>
        <time>2019-11-03T09:00:13.000Z</time>
      </trkpt>
      <trkpt lat="47.27496" lon="-2.44681">
        <ele>217</ele>
        <time>2019-11-03T09:00:15.000Z</time>
      </trkpt>
      <trkpt lat="47.27505" lon="-2.44693">
        <ele>217</ele>
        <time>2019-11-03T09:00:17.000Z</time>
      </trkpt>
      <trkpt lat="47.27515" lon="-2.44713">
        <ele>217</ele>
        <time>2019-11-03T09:00:20.000Z</time>
      </trkpt>
      <trkpt lat="47.27524" lon="-2.44752">
        <ele>217</ele>
        <time>2019-11-03T09:00:25.000Z</time>
      </trkpt>
      <trkpt lat="47.27534" lon="-2.44799">
        <ele>217</ele>
        <time>2019-11-03T09:00:32.000Z</time>
      </trkpt>
      <trkpt lat="47.27532" lon="-2.44826">
        <ele>217</ele>
        <time>2019-11-03T09:00:37.000Z</time>
      </trkpt>
      <trkpt lat="47.27519" lon="-2.44838">
        <ele>217</ele>
        <time>2019-11-03T09:00:41.000Z</time>
      </trkpt>
      <trkpt lat="47.27507" lon="-2.4485">
        <ele>217</ele>
        <time>2019-11-03T09:00:46.000Z</time>
      </trkpt>
      <trkpt lat="47.27505" lon="-2.44867">
        <ele>217</ele>
        <time>2019-11-03T09:00:51.000Z</time>
      </trkpt>
      <trkpt lat="47.27507" lon="-2.44888">
        <ele>217</ele>
        <time>2019-11-03T09:00:57.000Z</time>
      </trkpt>
      <trkpt lat="47.27512" lon="-2.44911">
        <ele>217</ele>
        <time>2019-11-03T09:01:04.000Z</time>
      </trkpt>
      <trkpt lat="47.2752" lon="-2.44946">
        <ele>217</ele>
        <time>2019-11-03T09:01:12.000Z</time>
      </trkpt>
      <trkpt lat="47.2753" lon="-2.44968">
        <ele>217</ele>
        <time>2019-11-03T09:01:17.000Z</time>
      </trkpt>
      <trkpt lat="47.27541" lon="-2.45004">
        <ele>217.39999389648</ele>
        <time>2019-11-03T09:01:23.000Z</time>
      </trkpt>
      <trkpt lat="47.27543" lon="-2.45009">
        <ele>218</ele>
        <time>2019-11-03T09:01:24.000Z</time>
      </trkpt>
      <trkpt lat="47.27545" lon="-2.45016">
        <ele>218.39999389648</ele>
        <time>2019-11-03T09:01:25.000Z</time>
      </trkpt>
      <trkpt lat="47.27548" lon="-2.45022">
        <ele>218.80000305176</ele>
        <time>2019-11-03T09:01:26.000Z</time>
      </trkpt>
      <trkpt lat="47.2755" lon="-2.45028">
        <ele>219.19999694824</ele>
        <time>2019-11-03T09:01:27.000Z</time>
      </trkpt>
      <trkpt lat="47.27559" lon="-2.45048">
        <ele>219.19999694824</ele>
        <time>2019-11-03T09:01:30.000Z</time>
      </trkpt>
      <trkpt lat="47.27573" lon="-2.45075">
        <ele>219.19999694824</ele>
        <time>2019-11-03T09:01:34.000Z</time>
      </trkpt>
      <trkpt lat="47.2758" lon="-2.45088">
        <ele>219.19999694824</ele>
        <time>2019-11-03T09:01:36.000Z</time>
      </trkpt>
      <trkpt lat="47.27583" lon="-2.45095">
        <ele>219.19999694824</ele>
        <time>2019-11-03T09:01:37.000Z</time>
      </trkpt>
      <trkpt lat="47.27592" lon="-2.45125">
        <ele>219.19999694824</ele>
        <time>2019-11-03T09:01:41.000Z</time>
      </trkpt>
      <trkpt lat="47.27595" lon="-2.4514">
        <ele>219.19999694824</ele>
        <time>2019-11-03T09:01:43.000Z</time>
      </trkpt>
      <trkpt lat="47.27598" lon="-2.4517">
        <ele>219.19999694824</ele>
        <time>2019-11-03T09:01:47.000Z</time>
      </trkpt>
      <trkpt lat="47.27602" lon="-2.45198">
        <ele>219.19999694824</ele>
        <time>2019-11-03T09:01:51.000Z</time>
      </trkpt>
      <trkpt lat="47.27605" lon="-2.45212">
        <ele>219.19999694824</ele>
        <time>2019-11-03T09:01:53.000Z</time>
      </trkpt>
      <trkpt lat="47.27609" lon="-2.45263">
        <ele>219.19999694824</ele>
        <time>2019-11-03T09:02:00.000Z</time>
      </trkpt>
      <trkpt lat="47.27613" lon="-2.45308">
        <ele>219.19999694824</ele>
        <time>2019-11-03T09:02:06.000Z</time>
      </trkpt>
      <trkpt lat="47.27618" lon="-2.45355">
        <ele>219.60000610352</ele>
        <time>2019-11-03T09:02:12.000Z</time>
      </trkpt>
      <trkpt lat="47.27618" lon="-2.45361">
        <ele>220</ele>
        <time>2019-11-03T09:02:13.000Z</time>
      </trkpt>
      <trkpt lat="47.27618" lon="-2.45367">
        <ele>220.39999389648</ele>
        <time>2019-11-03T09:02:14.000Z</time>
      </trkpt>
      <trkpt lat="47.27618" lon="-2.45373">
        <ele>220.80000305176</ele>
        <time>2019-11-03T09:02:15.000Z</time>
      </trkpt>
      <trkpt lat="47.27619" lon="-2.45378">
        <ele>221.19999694824</ele>
        <time>2019-11-03T09:02:16.000Z</time>
      </trkpt>
      <trkpt lat="47.27619" lon="-2.45381">
        <ele>221.19999694824</ele>
        <time>2019-11-03T09:02:17.000Z</time>
      </trkpt>
      <trkpt lat="47.2762" lon="-2.45397">
        <ele>221.19999694824</ele>
        <time>2019-11-03T09:02:22.000Z</time>
      </trkpt>
      <trkpt lat="47.27622" lon="-2.45415">
        <ele>221.19999694824</ele>
        <time>2019-11-03T09:02:27.000Z</time>
      </trkpt>
      <trkpt lat="47.27625" lon="-2.45444">
        <ele>221.19999694824</ele>
        <time>2019-11-03T09:02:34.000Z</time>
      </trkpt>
      <trkpt lat="47.27627" lon="-2.45463">
        <ele>221.19999694824</ele>
        <time>2019-11-03T09:02:40.000Z</time>
      </trkpt>
      <trkpt lat="47.2763" lon="-2.4548">
        <ele>221.19999694824</ele>
        <time>2019-11-03T09:02:46.000Z</time>
      </trkpt>
      <trkpt lat="47.27631" lon="-2.45483">
        <ele>221.19999694824</ele>
        <time>2019-11-03T09:02:47.000Z</time>
      </trkpt>
      <trkpt lat="47.27635" lon="-2.45495">
        <ele>221.19999694824</ele>
        <time>2019-11-03T09:02:52.000Z</time>
      </trkpt>
      <trkpt lat="47.27637" lon="-2.45501">
        <ele>221.80000305176</ele>
        <time>2019-11-03T09:02:54.000Z</time>
      </trkpt>
      <trkpt lat="47.27637" lon="-2.45503">
        <ele>222.19999694824</ele>
        <time>2019-11-03T09:02:55.000Z</time>
      </trkpt>
      <trkpt lat="47.27638" lon="-2.45506">
        <ele>222.60000610352</ele>
        <time>2019-11-03T09:02:56.000Z</time>
      </trkpt>
      <trkpt lat="47.27638" lon="-2.45508">
        <ele>223</ele>
        <time>2019-11-03T09:02:57.000Z</time>
      </trkpt>
      <trkpt lat="47.27638" lon="-2.4551">
        <ele>223.39999389648</ele>
        <time>2019-11-03T09:02:58.000Z</time>
      </trkpt>
      <trkpt lat="47.2764" lon="-2.45513">
        <ele>223.39999389648</ele>
        <time>2019-11-03T09:02:59.000Z</time>
      </trkpt>
      <trkpt lat="47.27645" lon="-2.4553">
        <ele>223.39999389648</ele>
        <time>2019-11-03T09:03:05.000Z</time>
      </trkpt>
      <trkpt lat="47.27649" lon="-2.45545">
        <ele>223.39999389648</ele>
        <time>2019-11-03T09:03:11.000Z</time>
      </trkpt>
      <trkpt lat="47.27652" lon="-2.45558">
        <ele>223.39999389648</ele>
        <time>2019-11-03T09:03:16.000Z</time>
      </trkpt>
      <trkpt lat="47.27652" lon="-2.45561">
        <ele>223.39999389648</ele>
        <time>2019-11-03T09:03:17.000Z</time>
      </trkpt>
      <trkpt lat="47.27654" lon="-2.45571">
        <ele>223.39999389648</ele>
        <time>2019-11-03T09:03:21.000Z</time>
      </trkpt>
      <trkpt lat="47.27656" lon="-2.45582">
        <ele>223.39999389648</ele>
        <time>2019-11-03T09:03:26.000Z</time>
      </trkpt>
      <trkpt lat="47.27662" lon="-2.45602">
        <ele>223.39999389648</ele>
        <time>2019-11-03T09:03:34.000Z</time>
      </trkpt>
      <trkpt lat="47.27665" lon="-2.45621">
        <ele>223.39999389648</ele>
        <time>2019-11-03T09:03:40.000Z</time>
      </trkpt>
      <trkpt lat="47.27672" lon="-2.45645">
        <ele>223.39999389648</ele>
        <time>2019-11-03T09:03:47.000Z</time>
      </trkpt>
      <trkpt lat="47.27674" lon="-2.45652">
        <ele>223.39999389648</ele>
        <time>2019-11-03T09:03:52.000Z</time>
      </trkpt>
      <trkpt lat="47.27676" lon="-2.45658">
        <ele>223.39999389648</ele>
        <time>2019-11-03T09:04:06.000Z</time>
      </trkpt>
      <trkpt lat="47.2768" lon="-2.45665">
        <ele>223.39999389648</ele>
        <time>2019-11-03T09:04:09.000Z</time>
      </trkpt>
      <trkpt lat="47.2768" lon="-2.45675">
        <ele>223.39999389648</ele>
        <time>2019-11-03T09:04:13.000Z</time>
      </trkpt>
      <trkpt lat="47.27678" lon="-2.45676">
        <ele>223.39999389648</ele>
        <time>2019-11-03T09:04:15.000Z</time>
      </trkpt>
      <trkpt lat="47.27679" lon="-2.45675">
        <ele>223.39999389648</ele>
        <time>2019-11-03T09:04:16.000Z</time>
      </trkpt>
      <trkpt lat="47.27673" lon="-2.45679">
        <ele>223.39999389648</ele>
        <time>2019-11-03T09:04:45.000Z</time>
      </trkpt>
      <trkpt lat="47.27667" lon="-2.45683">
        <ele>223.39999389648</ele>
        <time>2019-11-03T09:04:50.000Z</time>
      </trkpt>
      <trkpt lat="47.27666" lon="-2.45684">
        <ele>223.39999389648</ele>
        <time>2019-11-03T09:04:51.000Z</time>
      </trkpt>
      <trkpt lat="47.27656" lon="-2.4569">
        <ele>223.39999389648</ele>
        <time>2019-11-03T09:04:57.000Z</time>
      </trkpt>
      <trkpt lat="47.27644" lon="-2.45698">
        <ele>223.39999389648</ele>
        <time>2019-11-03T09:05:05.000Z</time>
      </trkpt>
      <trkpt lat="47.27641" lon="-2.457">
        <ele>223.39999389648</ele>
        <time>2019-11-03T09:05:07.000Z</time>
      </trkpt>
      <trkpt lat="47.27636" lon="-2.45703">
        <ele>223.39999389648</ele>
        <time>2019-11-03T09:05:10.000Z</time>
      </trkpt>
      <trkpt lat="47.27632" lon="-2.45712">
        <ele>223.39999389648</ele>
        <time>2019-11-03T09:05:15.000Z</time>
      </trkpt>
      <trkpt lat="47.27634" lon="-2.45722">
        <ele>223.39999389648</ele>
        <time>2019-11-03T09:05:23.000Z</time>
      </trkpt>
      <trkpt lat="47.27634" lon="-2.45724">
        <ele>223.39999389648</ele>
        <time>2019-11-03T09:05:26.000Z</time>
      </trkpt>
      <trkpt lat="47.27636" lon="-2.45728">
        <ele>223.39999389648</ele>
        <time>2019-11-03T09:05:46.000Z</time>
      </trkpt>
      <trkpt lat="47.27636" lon="-2.45731">
        <ele>223.39999389648</ele>
        <time>2019-11-03T09:05:47.000Z</time>
      </trkpt>
      <trkpt lat="47.27639" lon="-2.4575">
        <ele>223.39999389648</ele>
        <time>2019-11-03T09:05:50.000Z</time>
      </trkpt>
      <trkpt lat="47.2764" lon="-2.45757">
        <ele>223.39999389648</ele>
        <time>2019-11-03T09:05:51.000Z</time>
      </trkpt>
      <trkpt lat="47.2764" lon="-2.45766">
        <ele>223.39999389648</ele>
        <time>2019-11-03T09:05:52.000Z</time>
      </trkpt>
      <trkpt lat="47.27639" lon="-2.45784">
        <ele>223.39999389648</ele>
        <time>2019-11-03T09:05:54.000Z</time>
      </trkpt>
      <trkpt lat="47.2764" lon="-2.45791">
        <ele>223.39999389648</ele>
        <time>2019-11-03T09:05:55.000Z</time>
      </trkpt>
      <trkpt lat="47.27642" lon="-2.45814">
        <ele>223.39999389648</ele>
        <time>2019-11-03T09:05:58.000Z</time>
      </trkpt>
      <trkpt lat="47.27642" lon="-2.4583">
        <ele>223.39999389648</ele>
        <time>2019-11-03T09:06:00.000Z</time>
      </trkpt>
      <trkpt lat="47.27641" lon="-2.45861">
        <ele>223.39999389648</ele>
        <time>2019-11-03T09:06:04.000Z</time>
      </trkpt>
      <trkpt lat="47.27641" lon="-2.45882">
        <ele>223.39999389648</ele>
        <time>2019-11-03T09:06:07.000Z</time>
      </trkpt>
      <trkpt lat="47.27641" lon="-2.45896">
        <ele>223</ele>
        <time>2019-11-03T09:06:09.000Z</time>
      </trkpt>
      <trkpt lat="47.2764" lon="-2.45902">
        <ele>222.60000610352</ele>
        <time>2019-11-03T09:06:10.000Z</time>
      </trkpt>
      <trkpt lat="47.2764" lon="-2.45908">
        <ele>222.19999694824</ele>
        <time>2019-11-03T09:06:11.000Z</time>
      </trkpt>
      <trkpt lat="47.27639" lon="-2.45914">
        <ele>221.60000610352</ele>
        <time>2019-11-03T09:06:12.000Z</time>
      </trkpt>
      <trkpt lat="47.27639" lon="-2.45922">
        <ele>221.19999694824</ele>
        <time>2019-11-03T09:06:13.000Z</time>
      </trkpt>
      <trkpt lat="47.27639" lon="-2.4595">
        <ele>221.19999694824</ele>
        <time>2019-11-03T09:06:17.000Z</time>
      </trkpt>
      <trkpt lat="47.27639" lon="-2.45956">
        <ele>221.19999694824</ele>
        <time>2019-11-03T09:06:18.000Z</time>
      </trkpt>
      <trkpt lat="47.27639" lon="-2.4597">
        <ele>221.19999694824</ele>
        <time>2019-11-03T09:06:21.000Z</time>
      </trkpt>
      <trkpt lat="47.27642" lon="-2.4601">
        <ele>221.19999694824</ele>
        <time>2019-11-03T09:06:28.000Z</time>
      </trkpt>
      <trkpt lat="47.27649" lon="-2.46048">
        <ele>221.19999694824</ele>
        <time>2019-11-03T09:06:34.000Z</time>
      </trkpt>
      <trkpt lat="47.27651" lon="-2.46062">
        <ele>221.19999694824</ele>
        <time>2019-11-03T09:06:36.000Z</time>
      </trkpt>
      <trkpt lat="47.27653" lon="-2.46074">
        <ele>221.19999694824</ele>
        <time>2019-11-03T09:06:38.000Z</time>
      </trkpt>
      <trkpt lat="47.27655" lon="-2.46086">
        <ele>221.19999694824</ele>
        <time>2019-11-03T09:06:40.000Z</time>
      </trkpt>
      <trkpt lat="47.27662" lon="-2.46118">
        <ele>221.19999694824</ele>
        <time>2019-11-03T09:06:46.000Z</time>
      </trkpt>
      <trkpt lat="47.27667" lon="-2.46147">
        <ele>221.19999694824</ele>
        <time>2019-11-03T09:06:51.000Z</time>
      </trkpt>
      <trkpt lat="47.27668" lon="-2.46153">
        <ele>221.19999694824</ele>
        <time>2019-11-03T09:06:52.000Z</time>
      </trkpt>
      <trkpt lat="47.27668" lon="-2.46159">
        <ele>221.60000610352</ele>
        <time>2019-11-03T09:06:53.000Z</time>
      </trkpt>
      <trkpt lat="47.27668" lon="-2.46165">
        <ele>222</ele>
        <time>2019-11-03T09:06:54.000Z</time>
      </trkpt>
      <trkpt lat="47.27668" lon="-2.46171">
        <ele>222.39999389648</ele>
        <time>2019-11-03T09:06:55.000Z</time>
      </trkpt>
      <trkpt lat="47.27668" lon="-2.46178">
        <ele>222.80000305176</ele>
        <time>2019-11-03T09:06:56.000Z</time>
      </trkpt>
      <trkpt lat="47.27667" lon="-2.46185">
        <ele>223.19999694824</ele>
        <time>2019-11-03T09:06:57.000Z</time>
      </trkpt>
      <trkpt lat="47.27668" lon="-2.46201">
        <ele>223.19999694824</ele>
        <time>2019-11-03T09:06:59.000Z</time>
      </trkpt>
      <trkpt lat="47.2767" lon="-2.46221">
        <ele>223.19999694824</ele>
        <time>2019-11-03T09:07:02.000Z</time>
      </trkpt>
      <trkpt lat="47.27673" lon="-2.46256">
        <ele>223.19999694824</ele>
        <time>2019-11-03T09:07:07.000Z</time>
      </trkpt>
      <trkpt lat="47.2767" lon="-2.46268">
        <ele>223.19999694824</ele>
        <time>2019-11-03T09:07:09.000Z</time>
      </trkpt>
      <trkpt lat="47.27661" lon="-2.4628">
        <ele>223.19999694824</ele>
        <time>2019-11-03T09:07:12.000Z</time>
      </trkpt>
      <trkpt lat="47.27658" lon="-2.46285">
        <ele>223.19999694824</ele>
        <time>2019-11-03T09:07:13.000Z</time>
      </trkpt>
      <trkpt lat="47.27658" lon="-2.4629">
        <ele>223.19999694824</ele>
        <time>2019-11-03T09:07:14.000Z</time>
      </trkpt>
      <trkpt lat="47.27664" lon="-2.463">
        <ele>223.19999694824</ele>
        <time>2019-11-03T09:07:16.000Z</time>
      </trkpt>
      <trkpt lat="47.27675" lon="-2.46329">
        <ele>223.19999694824</ele>
        <time>2019-11-03T09:07:21.000Z</time>
      </trkpt>
      <trkpt lat="47.27676" lon="-2.46336">
        <ele>223.19999694824</ele>
        <time>2019-11-03T09:07:22.000Z</time>
      </trkpt>
      <trkpt lat="47.27681" lon="-2.46363">
        <ele>223.19999694824</ele>
        <time>2019-11-03T09:07:26.000Z</time>
      </trkpt>
      <trkpt lat="47.27684" lon="-2.46371">
        <ele>223.19999694824</ele>
        <time>2019-11-03T09:07:27.000Z</time>
      </trkpt>
      <trkpt lat="47.27695" lon="-2.464">
        <ele>223.19999694824</ele>
        <time>2019-11-03T09:07:31.000Z</time>
      </trkpt>
      <trkpt lat="47.27701" lon="-2.46415">
        <ele>223.19999694824</ele>
        <time>2019-11-03T09:07:33.000Z</time>
      </trkpt>
      <trkpt lat="47.27714" lon="-2.46444">
        <ele>223.19999694824</ele>
        <time>2019-11-03T09:07:37.000Z</time>
      </trkpt>
      <trkpt lat="47.27726" lon="-2.46474">
        <ele>223.19999694824</ele>
        <time>2019-11-03T09:07:41.000Z</time>
      </trkpt>
      <trkpt lat="47.27733" lon="-2.46498">
        <ele>223.19999694824</ele>
        <time>2019-11-03T09:07:44.000Z</time>
      </trkpt>
      <trkpt lat="47.27748" lon="-2.46562">
        <ele>223.19999694824</ele>
        <time>2019-11-03T09:07:52.000Z</time>
      </trkpt>
      <trkpt lat="47.27754" lon="-2.46581">
        <ele>223.19999694824</ele>
        <time>2019-11-03T09:07:55.000Z</time>
      </trkpt>
      <trkpt lat="47.2776" lon="-2.46589">
        <ele>223.19999694824</ele>
        <time>2019-11-03T09:07:57.000Z</time>
      </trkpt>
      <trkpt lat="47.27765" lon="-2.46609">
        <ele>223.19999694824</ele>
        <time>2019-11-03T09:08:01.000Z</time>
      </trkpt>
      <trkpt lat="47.27762" lon="-2.46619">
        <ele>223.19999694824</ele>
        <time>2019-11-03T09:08:04.000Z</time>
      </trkpt>
      <trkpt lat="47.2776" lon="-2.46627">
        <ele>223.19999694824</ele>
        <time>2019-11-03T09:08:06.000Z</time>
      </trkpt>
      <trkpt lat="47.27762" lon="-2.46636">
        <ele>223.19999694824</ele>
        <time>2019-11-03T09:08:08.000Z</time>
      </trkpt>
      <trkpt lat="47.27764" lon="-2.46646">
        <ele>223.19999694824</ele>
        <time>2019-11-03T09:08:10.000Z</time>
      </trkpt>
      <trkpt lat="47.27764" lon="-2.46656">
        <ele>223.19999694824</ele>
        <time>2019-11-03T09:08:12.000Z</time>
      </trkpt>
      <trkpt lat="47.27763" lon="-2.46668">
        <ele>223.19999694824</ele>
        <time>2019-11-03T09:08:14.000Z</time>
      </trkpt>
      <trkpt lat="47.27762" lon="-2.46699">
        <ele>223.19999694824</ele>
        <time>2019-11-03T09:08:19.000Z</time>
      </trkpt>
      <trkpt lat="47.27758" lon="-2.46719">
        <ele>223.19999694824</ele>
        <time>2019-11-03T09:08:23.000Z</time>
      </trkpt>
      <trkpt lat="47.27759" lon="-2.46724">
        <ele>222.80000305176</ele>
        <time>2019-11-03T09:08:24.000Z</time>
      </trkpt>
      <trkpt lat="47.2776" lon="-2.46729">
        <ele>222.39999389648</ele>
        <time>2019-11-03T09:08:25.000Z</time>
      </trkpt>
      <trkpt lat="47.27761" lon="-2.46733">
        <ele>222</ele>
        <time>2019-11-03T09:08:26.000Z</time>
      </trkpt>
      <trkpt lat="47.27762" lon="-2.46737">
        <ele>221.60000610352</ele>
        <time>2019-11-03T09:08:27.000Z</time>
      </trkpt>
      <trkpt lat="47.27763" lon="-2.46741">
        <ele>221.19999694824</ele>
        <time>2019-11-03T09:08:28.000Z</time>
      </trkpt>
      <trkpt lat="47.27772" lon="-2.46773">
        <ele>221.19999694824</ele>
        <time>2019-11-03T09:08:34.000Z</time>
      </trkpt>
      <trkpt lat="47.27773" lon="-2.46779">
        <ele>221.19999694824</ele>
        <time>2019-11-03T09:08:35.000Z</time>
      </trkpt>
      <trkpt lat="47.27778" lon="-2.46802">
        <ele>221.19999694824</ele>
        <time>2019-11-03T09:08:39.000Z</time>
      </trkpt>
      <trkpt lat="47.27785" lon="-2.46832">
        <ele>221.19999694824</ele>
        <time>2019-11-03T09:08:45.000Z</time>
      </trkpt>
      <trkpt lat="47.27785" lon="-2.4685">
        <ele>221.19999694824</ele>
        <time>2019-11-03T09:08:50.000Z</time>
      </trkpt>
      <trkpt lat="47.27784" lon="-2.46867">
        <ele>221.19999694824</ele>
        <time>2019-11-03T09:08:57.000Z</time>
      </trkpt>
      <trkpt lat="47.27783" lon="-2.46882">
        <ele>221.19999694824</ele>
        <time>2019-11-03T09:09:04.000Z</time>
      </trkpt>
      <trkpt lat="47.27778" lon="-2.46896">
        <ele>221.19999694824</ele>
        <time>2019-11-03T09:09:11.000Z</time>
      </trkpt>
      <trkpt lat="47.27772" lon="-2.46914">
        <ele>221.60000610352</ele>
        <time>2019-11-03T09:09:16.000Z</time>
      </trkpt>
      <trkpt lat="47.27772" lon="-2.46917">
        <ele>222</ele>
        <time>2019-11-03T09:09:17.000Z</time>
      </trkpt>
      <trkpt lat="47.27772" lon="-2.4692">
        <ele>222.39999389648</ele>
        <time>2019-11-03T09:09:18.000Z</time>
      </trkpt>
      <trkpt lat="47.27772" lon="-2.46922">
        <ele>222.80000305176</ele>
        <time>2019-11-03T09:09:19.000Z</time>
      </trkpt>
      <trkpt lat="47.27772" lon="-2.46923">
        <ele>223.19999694824</ele>
        <time>2019-11-03T09:09:20.000Z</time>
      </trkpt>
      <trkpt lat="47.27774" lon="-2.46928">
        <ele>223.19999694824</ele>
        <time>2019-11-03T09:09:31.000Z</time>
      </trkpt>
      <trkpt lat="47.27778" lon="-2.46928">
        <ele>223.19999694824</ele>
        <time>2019-11-03T09:09:34.000Z</time>
      </trkpt>
      <trkpt lat="47.2778" lon="-2.4692">
        <ele>223.19999694824</ele>
        <time>2019-11-03T09:09:36.000Z</time>
      </trkpt>
      <trkpt lat="47.27782" lon="-2.46911">
        <ele>223.19999694824</ele>
        <time>2019-11-03T09:09:38.000Z</time>
      </trkpt>
      <trkpt lat="47.27788" lon="-2.46904">
        <ele>223.19999694824</ele>
        <time>2019-11-03T09:09:40.000Z</time>
      </trkpt>
      <trkpt lat="47.27792" lon="-2.46903">
        <ele>223.19999694824</ele>
        <time>2019-11-03T09:09:41.000Z</time>
      </trkpt>
      <trkpt lat="47.27805" lon="-2.46912">
        <ele>223.19999694824</ele>
        <time>2019-11-03T09:09:44.000Z</time>
      </trkpt>
      <trkpt lat="47.27808" lon="-2.46917">
        <ele>223.19999694824</ele>
        <time>2019-11-03T09:09:45.000Z</time>
      </trkpt>
      <trkpt lat="47.2782" lon="-2.46935">
        <ele>223.19999694824</ele>
        <time>2019-11-03T09:09:48.000Z</time>
      </trkpt>
      <trkpt lat="47.27825" lon="-2.46939">
        <ele>223.19999694824</ele>
        <time>2019-11-03T09:09:49.000Z</time>
      </trkpt>
      <trkpt lat="47.27855" lon="-2.46961">
        <ele>223.19999694824</ele>
        <time>2019-11-03T09:09:54.000Z</time>
      </trkpt>
      <trkpt lat="47.2786" lon="-2.46966">
        <ele>223.19999694824</ele>
        <time>2019-11-03T09:09:55.000Z</time>
      </trkpt>
      <trkpt lat="47.27871" lon="-2.46976">
        <ele>223.19999694824</ele>
        <time>2019-11-03T09:09:57.000Z</time>
      </trkpt>
      <trkpt lat="47.27886" lon="-2.46991">
        <ele>223.19999694824</ele>
        <time>2019-11-03T09:10:00.000Z</time>
      </trkpt>
      <trkpt lat="47.27901" lon="-2.47006">
        <ele>223.19999694824</ele>
        <time>2019-11-03T09:10:03.000Z</time>
      </trkpt>
      <trkpt lat="47.2791" lon="-2.47016">
        <ele>223.19999694824</ele>
        <time>2019-11-03T09:10:05.000Z</time>
      </trkpt>
      <trkpt lat="47.27939" lon="-2.47054">
        <ele>223.19999694824</ele>
        <time>2019-11-03T09:10:12.000Z</time>
      </trkpt>
      <trkpt lat="47.27956" lon="-2.47093">
        <ele>223.19999694824</ele>
        <time>2019-11-03T09:10:18.000Z</time>
      </trkpt>
      <trkpt lat="47.27962" lon="-2.47113">
        <ele>223.19999694824</ele>
        <time>2019-11-03T09:10:21.000Z</time>
      </trkpt>
      <trkpt lat="47.27967" lon="-2.47134">
        <ele>223.19999694824</ele>
        <time>2019-11-03T09:10:24.000Z</time>
      </trkpt>
      <trkpt lat="47.27973" lon="-2.47171">
        <ele>222.80000305176</ele>
        <time>2019-11-03T09:10:29.000Z</time>
      </trkpt>
      <trkpt lat="47.27975" lon="-2.47178">
        <ele>222.39999389648</ele>
        <time>2019-11-03T09:10:30.000Z</time>
      </trkpt>
      <trkpt lat="47.27976" lon="-2.47185">
        <ele>221.80000305176</ele>
        <time>2019-11-03T09:10:31.000Z</time>
      </trkpt>
      <trkpt lat="47.27977" lon="-2.47193">
        <ele>221.39999389648</ele>
        <time>2019-11-03T09:10:32.000Z</time>
      </trkpt>
      <trkpt lat="47.27978" lon="-2.472">
        <ele>221</ele>
        <time>2019-11-03T09:10:33.000Z</time>
      </trkpt>
      <trkpt lat="47.27983" lon="-2.47228">
        <ele>221</ele>
        <time>2019-11-03T09:10:37.000Z</time>
      </trkpt>
      <trkpt lat="47.27987" lon="-2.47254">
        <ele>221</ele>
        <time>2019-11-03T09:10:41.000Z</time>
      </trkpt>
      <trkpt lat="47.27994" lon="-2.47291">
        <ele>221</ele>
        <time>2019-11-03T09:10:48.000Z</time>
      </trkpt>
      <trkpt lat="47.28004" lon="-2.47327">
        <ele>221.39999389648</ele>
        <time>2019-11-03T09:10:56.000Z</time>
      </trkpt>
      <trkpt lat="47.28006" lon="-2.47331">
        <ele>222</ele>
        <time>2019-11-03T09:10:57.000Z</time>
      </trkpt>
      <trkpt lat="47.28008" lon="-2.47334">
        <ele>222.39999389648</ele>
        <time>2019-11-03T09:10:58.000Z</time>
      </trkpt>
      <trkpt lat="47.28011" lon="-2.47337">
        <ele>222.80000305176</ele>
        <time>2019-11-03T09:10:59.000Z</time>
      </trkpt>
      <trkpt lat="47.28015" lon="-2.47337">
        <ele>223.19999694824</ele>
        <time>2019-11-03T09:11:00.000Z</time>
      </trkpt>
      <trkpt lat="47.28041" lon="-2.47328">
        <ele>223.19999694824</ele>
        <time>2019-11-03T09:11:06.000Z</time>
      </trkpt>
      <trkpt lat="47.28079" lon="-2.47317">
        <ele>223.19999694824</ele>
        <time>2019-11-03T09:11:14.000Z</time>
      </trkpt>
      <trkpt lat="47.28084" lon="-2.47316">
        <ele>223.19999694824</ele>
        <time>2019-11-03T09:11:15.000Z</time>
      </trkpt>
      <trkpt lat="47.28114" lon="-2.4731">
        <ele>223.19999694824</ele>
        <time>2019-11-03T09:11:22.000Z</time>
      </trkpt>
      <trkpt lat="47.28121" lon="-2.47315">
        <ele>223.19999694824</ele>
        <time>2019-11-03T09:11:24.000Z</time>
      </trkpt>
      <trkpt lat="47.28123" lon="-2.47319">
        <ele>222.80000305176</ele>
        <time>2019-11-03T09:11:25.000Z</time>
      </trkpt>
      <trkpt lat="47.28125" lon="-2.47325">
        <ele>222.19999694824</ele>
        <time>2019-11-03T09:11:26.000Z</time>
      </trkpt>
      <trkpt lat="47.28125" lon="-2.47332">
        <ele>221.80000305176</ele>
        <time>2019-11-03T09:11:27.000Z</time>
      </trkpt>
      <trkpt lat="47.28124" lon="-2.47339">
        <ele>220.80000305176</ele>
        <time>2019-11-03T09:11:28.000Z</time>
      </trkpt>
      <trkpt lat="47.28122" lon="-2.47353">
        <ele>220.80000305176</ele>
        <time>2019-11-03T09:11:30.000Z</time>
      </trkpt>
      <trkpt lat="47.28117" lon="-2.47388">
        <ele>220.80000305176</ele>
        <time>2019-11-03T09:11:35.000Z</time>
      </trkpt>
      <trkpt lat="47.28113" lon="-2.47408">
        <ele>220.39999389648</ele>
        <time>2019-11-03T09:11:38.000Z</time>
      </trkpt>
      <trkpt lat="47.28112" lon="-2.47415">
        <ele>220</ele>
        <time>2019-11-03T09:11:39.000Z</time>
      </trkpt>
      <trkpt lat="47.2811" lon="-2.47422">
        <ele>219.60000610352</ele>
        <time>2019-11-03T09:11:40.000Z</time>
      </trkpt>
      <trkpt lat="47.28109" lon="-2.47429">
        <ele>219.19999694824</ele>
        <time>2019-11-03T09:11:41.000Z</time>
      </trkpt>
      <trkpt lat="47.28107" lon="-2.47437">
        <ele>218.80000305176</ele>
        <time>2019-11-03T09:11:42.000Z</time>
      </trkpt>
      <trkpt lat="47.28105" lon="-2.47452">
        <ele>219.19999694824</ele>
        <time>2019-11-03T09:11:44.000Z</time>
      </trkpt>
      <trkpt lat="47.28103" lon="-2.4746">
        <ele>219.60000610352</ele>
        <time>2019-11-03T09:11:45.000Z</time>
      </trkpt>
      <trkpt lat="47.28102" lon="-2.47467">
        <ele>220</ele>
        <time>2019-11-03T09:11:46.000Z</time>
      </trkpt>
      <trkpt lat="47.281" lon="-2.47475">
        <ele>220.39999389648</ele>
        <time>2019-11-03T09:11:47.000Z</time>
      </trkpt>
      <trkpt lat="47.28099" lon="-2.47482">
        <ele>221</ele>
        <time>2019-11-03T09:11:48.000Z</time>
      </trkpt>
      <trkpt lat="47.28087" lon="-2.47542">
        <ele>221</ele>
        <time>2019-11-03T09:11:56.000Z</time>
      </trkpt>
      <trkpt lat="47.2808" lon="-2.47605">
        <ele>220.60000610352</ele>
        <time>2019-11-03T09:12:04.000Z</time>
      </trkpt>
      <trkpt lat="47.2808" lon="-2.47613">
        <ele>220.19999694824</ele>
        <time>2019-11-03T09:12:05.000Z</time>
      </trkpt>
      <trkpt lat="47.28079" lon="-2.4762">
        <ele>219.80000305176</ele>
        <time>2019-11-03T09:12:06.000Z</time>
      </trkpt>
      <trkpt lat="47.2808" lon="-2.47629">
        <ele>219.39999389648</ele>
        <time>2019-11-03T09:12:07.000Z</time>
      </trkpt>
      <trkpt lat="47.2808" lon="-2.47637">
        <ele>218.80000305176</ele>
        <time>2019-11-03T09:12:08.000Z</time>
      </trkpt>
      <trkpt lat="47.28081" lon="-2.47653">
        <ele>218.80000305176</ele>
        <time>2019-11-03T09:12:10.000Z</time>
      </trkpt>
      <trkpt lat="47.28083" lon="-2.47686">
        <ele>218.80000305176</ele>
        <time>2019-11-03T09:12:15.000Z</time>
      </trkpt>
      <trkpt lat="47.28091" lon="-2.4774">
        <ele>218.80000305176</ele>
        <time>2019-11-03T09:12:23.000Z</time>
      </trkpt>
      <trkpt lat="47.28092" lon="-2.47746">
        <ele>218.80000305176</ele>
        <time>2019-11-03T09:12:24.000Z</time>
      </trkpt>
      <trkpt lat="47.28099" lon="-2.47794">
        <ele>219.39999389648</ele>
        <time>2019-11-03T09:12:31.000Z</time>
      </trkpt>
      <trkpt lat="47.281" lon="-2.478">
        <ele>219.80000305176</ele>
        <time>2019-11-03T09:12:32.000Z</time>
      </trkpt>
      <trkpt lat="47.28101" lon="-2.47807">
        <ele>220.19999694824</ele>
        <time>2019-11-03T09:12:33.000Z</time>
      </trkpt>
      <trkpt lat="47.28102" lon="-2.47813">
        <ele>220.60000610352</ele>
        <time>2019-11-03T09:12:34.000Z</time>
      </trkpt>
      <trkpt lat="47.28102" lon="-2.4782">
        <ele>221</ele>
        <time>2019-11-03T09:12:35.000Z</time>
      </trkpt>
      <trkpt lat="47.28108" lon="-2.47858">
        <ele>221</ele>
        <time>2019-11-03T09:12:41.000Z</time>
      </trkpt>
      <trkpt lat="47.28113" lon="-2.47882">
        <ele>221</ele>
        <time>2019-11-03T09:12:45.000Z</time>
      </trkpt>
      <trkpt lat="47.28113" lon="-2.4789">
        <ele>221</ele>
        <time>2019-11-03T09:12:46.000Z</time>
      </trkpt>
      <trkpt lat="47.28113" lon="-2.47898">
        <ele>221</ele>
        <time>2019-11-03T09:12:47.000Z</time>
      </trkpt>
      <trkpt lat="47.28116" lon="-2.47913">
        <ele>221</ele>
        <time>2019-11-03T09:12:49.000Z</time>
      </trkpt>
      <trkpt lat="47.28129" lon="-2.47936">
        <ele>221</ele>
        <time>2019-11-03T09:12:53.000Z</time>
      </trkpt>
      <trkpt lat="47.28146" lon="-2.47948">
        <ele>221</ele>
        <time>2019-11-03T09:12:57.000Z</time>
      </trkpt>
      <trkpt lat="47.2815" lon="-2.47951">
        <ele>221</ele>
        <time>2019-11-03T09:12:58.000Z</time>
      </trkpt>
      <trkpt lat="47.28154" lon="-2.47955">
        <ele>221</ele>
        <time>2019-11-03T09:12:59.000Z</time>
      </trkpt>
      <trkpt lat="47.28156" lon="-2.47968">
        <ele>221</ele>
        <time>2019-11-03T09:13:01.000Z</time>
      </trkpt>
      <trkpt lat="47.28156" lon="-2.47996">
        <ele>221.39999389648</ele>
        <time>2019-11-03T09:13:05.000Z</time>
      </trkpt>
      <trkpt lat="47.28156" lon="-2.48002">
        <ele>222</ele>
        <time>2019-11-03T09:13:06.000Z</time>
      </trkpt>
      <trkpt lat="47.28157" lon="-2.48009">
        <ele>222.39999389648</ele>
        <time>2019-11-03T09:13:07.000Z</time>
      </trkpt>
      <trkpt lat="47.28158" lon="-2.48016">
        <ele>222.80000305176</ele>
        <time>2019-11-03T09:13:08.000Z</time>
      </trkpt>
      <trkpt lat="47.28159" lon="-2.48023">
        <ele>223.19999694824</ele>
        <time>2019-11-03T09:13:09.000Z</time>
      </trkpt>
      <trkpt lat="47.28164" lon="-2.48059">
        <ele>223.19999694824</ele>
        <time>2019-11-03T09:13:14.000Z</time>
      </trkpt>
      <trkpt lat="47.28171" lon="-2.48115">
        <ele>223.19999694824</ele>
        <time>2019-11-03T09:13:22.000Z</time>
      </trkpt>
      <trkpt lat="47.28176" lon="-2.48147">
        <ele>223.19999694824</ele>
        <time>2019-11-03T09:13:27.000Z</time>
      </trkpt>
      <trkpt lat="47.28177" lon="-2.4816">
        <ele>223.19999694824</ele>
        <time>2019-11-03T09:13:29.000Z</time>
      </trkpt>
      <trkpt lat="47.28182" lon="-2.48191">
        <ele>223.19999694824</ele>
        <time>2019-11-03T09:13:34.000Z</time>
      </trkpt>
      <trkpt lat="47.28184" lon="-2.48203">
        <ele>223.19999694824</ele>
        <time>2019-11-03T09:13:36.000Z</time>
      </trkpt>
      <trkpt lat="47.28191" lon="-2.48223">
        <ele>223.19999694824</ele>
        <time>2019-11-03T09:13:40.000Z</time>
      </trkpt>
      <trkpt lat="47.28197" lon="-2.48232">
        <ele>223.19999694824</ele>
        <time>2019-11-03T09:13:42.000Z</time>
      </trkpt>
      <trkpt lat="47.28202" lon="-2.48244">
        <ele>223.19999694824</ele>
        <time>2019-11-03T09:13:44.000Z</time>
      </trkpt>
      <trkpt lat="47.28202" lon="-2.48257">
        <ele>223.19999694824</ele>
        <time>2019-11-03T09:13:46.000Z</time>
      </trkpt>
      <trkpt lat="47.28195" lon="-2.48303">
        <ele>223.19999694824</ele>
        <time>2019-11-03T09:13:53.000Z</time>
      </trkpt>
      <trkpt lat="47.28194" lon="-2.48316">
        <ele>223.19999694824</ele>
        <time>2019-11-03T09:13:55.000Z</time>
      </trkpt>
      <trkpt lat="47.28195" lon="-2.4834">
        <ele>223.19999694824</ele>
        <time>2019-11-03T09:13:59.000Z</time>
      </trkpt>
      <trkpt lat="47.28196" lon="-2.48349">
        <ele>223.19999694824</ele>
        <time>2019-11-03T09:14:02.000Z</time>
      </trkpt>
      <trkpt lat="47.28195" lon="-2.48351">
        <ele>223.19999694824</ele>
        <time>2019-11-03T09:14:03.000Z</time>
      </trkpt>
      <trkpt lat="47.28185" lon="-2.48357">
        <ele>223.19999694824</ele>
        <time>2019-11-03T09:14:07.000Z</time>
      </trkpt>
      <trkpt lat="47.28175" lon="-2.4836">
        <ele>223.19999694824</ele>
        <time>2019-11-03T09:14:10.000Z</time>
      </trkpt>
      <trkpt lat="47.28168" lon="-2.48362">
        <ele>223.19999694824</ele>
        <time>2019-11-03T09:14:12.000Z</time>
      </trkpt>
      <trkpt lat="47.28149" lon="-2.48365">
        <ele>223.19999694824</ele>
        <time>2019-11-03T09:14:18.000Z</time>
      </trkpt>
      <trkpt lat="47.28144" lon="-2.48369">
        <ele>223.19999694824</ele>
        <time>2019-11-03T09:14:20.000Z</time>
      </trkpt>
      <trkpt lat="47.28143" lon="-2.48374">
        <ele>223.19999694824</ele>
        <time>2019-11-03T09:14:21.000Z</time>
      </trkpt>
      <trkpt lat="47.28143" lon="-2.48392">
        <ele>223.19999694824</ele>
        <time>2019-11-03T09:14:24.000Z</time>
      </trkpt>
      <trkpt lat="47.28145" lon="-2.48412">
        <ele>223.19999694824</ele>
        <time>2019-11-03T09:14:27.000Z</time>
      </trkpt>
      <trkpt lat="47.28148" lon="-2.48459">
        <ele>223.19999694824</ele>
        <time>2019-11-03T09:14:34.000Z</time>
      </trkpt>
      <trkpt lat="47.28151" lon="-2.48484">
        <ele>223.60000610352</ele>
        <time>2019-11-03T09:14:38.000Z</time>
      </trkpt>
      <trkpt lat="47.28152" lon="-2.4849">
        <ele>224</ele>
        <time>2019-11-03T09:14:39.000Z</time>
      </trkpt>
      <trkpt lat="47.28152" lon="-2.48496">
        <ele>224.60000610352</ele>
        <time>2019-11-03T09:14:40.000Z</time>
      </trkpt>
      <trkpt lat="47.28153" lon="-2.48502">
        <ele>225</ele>
        <time>2019-11-03T09:14:41.000Z</time>
      </trkpt>
      <trkpt lat="47.28154" lon="-2.48508">
        <ele>225.39999389648</ele>
        <time>2019-11-03T09:14:42.000Z</time>
      </trkpt>
      <trkpt lat="47.28157" lon="-2.48531">
        <ele>225.39999389648</ele>
        <time>2019-11-03T09:14:46.000Z</time>
      </trkpt>
      <trkpt lat="47.28159" lon="-2.48537">
        <ele>225.39999389648</ele>
        <time>2019-11-03T09:14:47.000Z</time>
      </trkpt>
      <trkpt lat="47.28165" lon="-2.48578">
        <ele>225.39999389648</ele>
        <time>2019-11-03T09:14:53.000Z</time>
      </trkpt>
      <trkpt lat="47.28166" lon="-2.48584">
        <ele>225.39999389648</ele>
        <time>2019-11-03T09:14:54.000Z</time>
      </trkpt>
      <trkpt lat="47.28168" lon="-2.48603">
        <ele>225.39999389648</ele>
        <time>2019-11-03T09:14:57.000Z</time>
      </trkpt>
      <trkpt lat="47.2817" lon="-2.48623">
        <ele>225.39999389648</ele>
        <time>2019-11-03T09:15:00.000Z</time>
      </trkpt>
      <trkpt lat="47.28177" lon="-2.4865">
        <ele>225.39999389648</ele>
        <time>2019-11-03T09:15:04.000Z</time>
      </trkpt>
      <trkpt lat="47.28181" lon="-2.48671">
        <ele>225.39999389648</ele>
        <time>2019-11-03T09:15:07.000Z</time>
      </trkpt>
      <trkpt lat="47.2819" lon="-2.48731">
        <ele>225.39999389648</ele>
        <time>2019-11-03T09:15:15.000Z</time>
      </trkpt>
      <trkpt lat="47.28196" lon="-2.48782">
        <ele>225.39999389648</ele>
        <time>2019-11-03T09:15:22.000Z</time>
      </trkpt>
      <trkpt lat="47.28203" lon="-2.48833">
        <ele>225.39999389648</ele>
        <time>2019-11-03T09:15:30.000Z</time>
      </trkpt>
      <trkpt lat="47.28207" lon="-2.48875">
        <ele>225.39999389648</ele>
        <time>2019-11-03T09:15:36.000Z</time>
      </trkpt>
      <trkpt lat="47.28208" lon="-2.48891">
        <ele>224.80000305176</ele>
        <time>2019-11-03T09:15:38.000Z</time>
      </trkpt>
      <trkpt lat="47.28209" lon="-2.48899">
        <ele>224.39999389648</ele>
        <time>2019-11-03T09:15:39.000Z</time>
      </trkpt>
      <trkpt lat="47.2821" lon="-2.48906">
        <ele>224</ele>
        <time>2019-11-03T09:15:40.000Z</time>
      </trkpt>
      <trkpt lat="47.28211" lon="-2.48913">
        <ele>223.60000610352</ele>
        <time>2019-11-03T09:15:41.000Z</time>
      </trkpt>
      <trkpt lat="47.28212" lon="-2.4892">
        <ele>223.19999694824</ele>
        <time>2019-11-03T09:15:42.000Z</time>
      </trkpt>
      <trkpt lat="47.28214" lon="-2.48944">
        <ele>223.19999694824</ele>
        <time>2019-11-03T09:15:46.000Z</time>
      </trkpt>
      <trkpt lat="47.28214" lon="-2.48951">
        <ele>223.19999694824</ele>
        <time>2019-11-03T09:15:47.000Z</time>
      </trkpt>
      <trkpt lat="47.2822" lon="-2.48994">
        <ele>223.19999694824</ele>
        <time>2019-11-03T09:15:53.000Z</time>
      </trkpt>
      <trkpt lat="47.28224" lon="-2.49033">
        <ele>223.19999694824</ele>
        <time>2019-11-03T09:15:59.000Z</time>
      </trkpt>
      <trkpt lat="47.28226" lon="-2.49047">
        <ele>223.19999694824</ele>
        <time>2019-11-03T09:16:03.000Z</time>
      </trkpt>
      <trkpt lat="47.28226" lon="-2.49051">
        <ele>223.19999694824</ele>
        <time>2019-11-03T09:16:05.000Z</time>
      </trkpt>
      <trkpt lat="47.28225" lon="-2.49061">
        <ele>223.19999694824</ele>
        <time>2019-11-03T09:16:09.000Z</time>
      </trkpt>
      <trkpt lat="47.28224" lon="-2.49064">
        <ele>223.19999694824</ele>
        <time>2019-11-03T09:16:10.000Z</time>
      </trkpt>
      <trkpt lat="47.28217" lon="-2.49072">
        <ele>223.19999694824</ele>
        <time>2019-11-03T09:16:14.000Z</time>
      </trkpt>
      <trkpt lat="47.28209" lon="-2.49077">
        <ele>223.19999694824</ele>
        <time>2019-11-03T09:16:18.000Z</time>
      </trkpt>
      <trkpt lat="47.28204" lon="-2.4908">
        <ele>223.19999694824</ele>
        <time>2019-11-03T09:16:20.000Z</time>
      </trkpt>
      <trkpt lat="47.28191" lon="-2.49083">
        <ele>223.19999694824</ele>
        <time>2019-11-03T09:16:26.000Z</time>
      </trkpt>
      <trkpt lat="47.28175" lon="-2.49089">
        <ele>223.19999694824</ele>
        <time>2019-11-03T09:16:33.000Z</time>
      </trkpt>
      <trkpt lat="47.2815" lon="-2.49096">
        <ele>223.19999694824</ele>
        <time>2019-11-03T09:16:42.000Z</time>
      </trkpt>
      <trkpt lat="47.28129" lon="-2.49101">
        <ele>223.19999694824</ele>
        <time>2019-11-03T09:16:49.000Z</time>
      </trkpt>
      <trkpt lat="47.28102" lon="-2.49108">
        <ele>223.19999694824</ele>
        <time>2019-11-03T09:16:57.000Z</time>
      </trkpt>
      <trkpt lat="47.28095" lon="-2.4911">
        <ele>223.60000610352</ele>
        <time>2019-11-03T09:16:59.000Z</time>
      </trkpt>
      <trkpt lat="47.28092" lon="-2.4911">
        <ele>224</ele>
        <time>2019-11-03T09:17:00.000Z</time>
      </trkpt>
      <trkpt lat="47.28088" lon="-2.49112">
        <ele>224.39999389648</ele>
        <time>2019-11-03T09:17:01.000Z</time>
      </trkpt>
      <trkpt lat="47.28084" lon="-2.49112">
        <ele>224.80000305176</ele>
        <time>2019-11-03T09:17:02.000Z</time>
      </trkpt>
      <trkpt lat="47.28081" lon="-2.49113">
        <ele>225.19999694824</ele>
        <time>2019-11-03T09:17:03.000Z</time>
      </trkpt>
      <trkpt lat="47.28077" lon="-2.49114">
        <ele>225.19999694824</ele>
        <time>2019-11-03T09:17:04.000Z</time>
      </trkpt>
      <trkpt lat="47.28059" lon="-2.49122">
        <ele>225.19999694824</ele>
        <time>2019-11-03T09:17:11.000Z</time>
      </trkpt>
      <trkpt lat="47.28057" lon="-2.49138">
        <ele>225.19999694824</ele>
        <time>2019-11-03T09:17:15.000Z</time>
      </trkpt>
      <trkpt lat="47.28062" lon="-2.49168">
        <ele>225.19999694824</ele>
        <time>2019-11-03T09:17:22.000Z</time>
      </trkpt>
      <trkpt lat="47.28068" lon="-2.49206">
        <ele>225.19999694824</ele>
        <time>2019-11-03T09:17:29.000Z</time>
      </trkpt>
      <trkpt lat="47.28076" lon="-2.49263">
        <ele>225.19999694824</ele>
        <time>2019-11-03T09:17:38.000Z</time>
      </trkpt>
      <trkpt lat="47.28081" lon="-2.49302">
        <ele>225.19999694824</ele>
        <time>2019-11-03T09:17:44.000Z</time>
      </trkpt>
      <trkpt lat="47.28082" lon="-2.49309">
        <ele>225.19999694824</ele>
        <time>2019-11-03T09:17:45.000Z</time>
      </trkpt>
      <trkpt lat="47.28085" lon="-2.49331">
        <ele>224.80000305176</ele>
        <time>2019-11-03T09:17:48.000Z</time>
      </trkpt>
      <trkpt lat="47.28086" lon="-2.49338">
        <ele>224.39999389648</ele>
        <time>2019-11-03T09:17:49.000Z</time>
      </trkpt>
      <trkpt lat="47.28087" lon="-2.49346">
        <ele>224</ele>
        <time>2019-11-03T09:17:50.000Z</time>
      </trkpt>
      <trkpt lat="47.28088" lon="-2.49354">
        <ele>223.60000610352</ele>
        <time>2019-11-03T09:17:51.000Z</time>
      </trkpt>
      <trkpt lat="47.2809" lon="-2.49361">
        <ele>223.19999694824</ele>
        <time>2019-11-03T09:17:52.000Z</time>
      </trkpt>
      <trkpt lat="47.28099" lon="-2.49425">
        <ele>223.19999694824</ele>
        <time>2019-11-03T09:18:00.000Z</time>
      </trkpt>
      <trkpt lat="47.28108" lon="-2.49487">
        <ele>223.19999694824</ele>
        <time>2019-11-03T09:18:08.000Z</time>
      </trkpt>
      <trkpt lat="47.28118" lon="-2.49548">
        <ele>223.60000610352</ele>
        <time>2019-11-03T09:18:16.000Z</time>
      </trkpt>
      <trkpt lat="47.28119" lon="-2.49556">
        <ele>224</ele>
        <time>2019-11-03T09:18:17.000Z</time>
      </trkpt>
      <trkpt lat="47.2812" lon="-2.49563">
        <ele>224.39999389648</ele>
        <time>2019-11-03T09:18:18.000Z</time>
      </trkpt>
      <trkpt lat="47.28121" lon="-2.49571">
        <ele>224.80000305176</ele>
        <time>2019-11-03T09:18:19.000Z</time>
      </trkpt>
      <trkpt lat="47.28121" lon="-2.49578">
        <ele>225.19999694824</ele>
        <time>2019-11-03T09:18:20.000Z</time>
      </trkpt>
      <trkpt lat="47.28122" lon="-2.49594">
        <ele>225.19999694824</ele>
        <time>2019-11-03T09:18:22.000Z</time>
      </trkpt>
      <trkpt lat="47.28127" lon="-2.49631">
        <ele>225.19999694824</ele>
        <time>2019-11-03T09:18:27.000Z</time>
      </trkpt>
      <trkpt lat="47.28132" lon="-2.49652">
        <ele>225.19999694824</ele>
        <time>2019-11-03T09:18:30.000Z</time>
      </trkpt>
      <trkpt lat="47.28134" lon="-2.49668">
        <ele>225.19999694824</ele>
        <time>2019-11-03T09:18:32.000Z</time>
      </trkpt>
      <trkpt lat="47.28135" lon="-2.49684">
        <ele>225.19999694824</ele>
        <time>2019-11-03T09:18:34.000Z</time>
      </trkpt>
      <trkpt lat="47.2814" lon="-2.49715">
        <ele>225.19999694824</ele>
        <time>2019-11-03T09:18:38.000Z</time>
      </trkpt>
      <trkpt lat="47.28144" lon="-2.49739">
        <ele>225.19999694824</ele>
        <time>2019-11-03T09:18:41.000Z</time>
      </trkpt>
      <trkpt lat="47.28142" lon="-2.49758">
        <ele>225.19999694824</ele>
        <time>2019-11-03T09:18:44.000Z</time>
      </trkpt>
      <trkpt lat="47.28142" lon="-2.49783">
        <ele>225.19999694824</ele>
        <time>2019-11-03T09:18:47.000Z</time>
      </trkpt>
      <trkpt lat="47.28143" lon="-2.49791">
        <ele>225.19999694824</ele>
        <time>2019-11-03T09:18:48.000Z</time>
      </trkpt>
      <trkpt lat="47.28149" lon="-2.49836">
        <ele>225.19999694824</ele>
        <time>2019-11-03T09:18:53.000Z</time>
      </trkpt>
      <trkpt lat="47.28154" lon="-2.49875">
        <ele>225.19999694824</ele>
        <time>2019-11-03T09:18:58.000Z</time>
      </trkpt>
      <trkpt lat="47.28156" lon="-2.49882">
        <ele>225.19999694824</ele>
        <time>2019-11-03T09:18:59.000Z</time>
      </trkpt>
      <trkpt lat="47.28157" lon="-2.49895">
        <ele>224.80000305176</ele>
        <time>2019-11-03T09:19:02.000Z</time>
      </trkpt>
      <trkpt lat="47.28158" lon="-2.49899">
        <ele>224.39999389648</ele>
        <time>2019-11-03T09:19:03.000Z</time>
      </trkpt>
      <trkpt lat="47.28158" lon="-2.49902">
        <ele>223.80000305176</ele>
        <time>2019-11-03T09:19:04.000Z</time>
      </trkpt>
      <trkpt lat="47.28159" lon="-2.49906">
        <ele>223.39999389648</ele>
        <time>2019-11-03T09:19:05.000Z</time>
      </trkpt>
      <trkpt lat="47.2816" lon="-2.49911">
        <ele>223</ele>
        <time>2019-11-03T09:19:06.000Z</time>
      </trkpt>
      <trkpt lat="47.28165" lon="-2.49946">
        <ele>223</ele>
        <time>2019-11-03T09:19:11.000Z</time>
      </trkpt>
      <trkpt lat="47.28173" lon="-2.49999">
        <ele>223</ele>
        <time>2019-11-03T09:19:18.000Z</time>
      </trkpt>
      <trkpt lat="47.28174" lon="-2.50007">
        <ele>223</ele>
        <time>2019-11-03T09:19:19.000Z</time>
      </trkpt>
      <trkpt lat="47.2818" lon="-2.50035">
        <ele>223</ele>
        <time>2019-11-03T09:19:23.000Z</time>
      </trkpt>
      <trkpt lat="47.28187" lon="-2.50071">
        <ele>223</ele>
        <time>2019-11-03T09:19:28.000Z</time>
      </trkpt>
      <trkpt lat="47.2819" lon="-2.50076">
        <ele>223</ele>
        <time>2019-11-03T09:19:29.000Z</time>
      </trkpt>
      <trkpt lat="47.28194" lon="-2.50094">
        <ele>223</ele>
        <time>2019-11-03T09:19:32.000Z</time>
      </trkpt>
      <trkpt lat="47.28195" lon="-2.501">
        <ele>223</ele>
        <time>2019-11-03T09:19:33.000Z</time>
      </trkpt>
      <trkpt lat="47.28199" lon="-2.50119">
        <ele>223</ele>
        <time>2019-11-03T09:19:38.000Z</time>
      </trkpt>
      <trkpt lat="47.28201" lon="-2.50131">
        <ele>223</ele>
        <time>2019-11-03T09:19:43.000Z</time>
      </trkpt>
      <trkpt lat="47.28203" lon="-2.50145">
        <ele>223</ele>
        <time>2019-11-03T09:19:47.000Z</time>
      </trkpt>
      <trkpt lat="47.28207" lon="-2.50176">
        <ele>223</ele>
        <time>2019-11-03T09:19:52.000Z</time>
      </trkpt>
      <trkpt lat="47.28218" lon="-2.50205">
        <ele>223</ele>
        <time>2019-11-03T09:19:56.000Z</time>
      </trkpt>
      <trkpt lat="47.28241" lon="-2.50247">
        <ele>223</ele>
        <time>2019-11-03T09:20:02.000Z</time>
      </trkpt>
      <trkpt lat="47.2825" lon="-2.50258">
        <ele>223</ele>
        <time>2019-11-03T09:20:04.000Z</time>
      </trkpt>
      <trkpt lat="47.28262" lon="-2.50274">
        <ele>223</ele>
        <time>2019-11-03T09:20:07.000Z</time>
      </trkpt>
      <trkpt lat="47.28272" lon="-2.50303">
        <ele>223</ele>
        <time>2019-11-03T09:20:11.000Z</time>
      </trkpt>
      <trkpt lat="47.28275" lon="-2.50308">
        <ele>223</ele>
        <time>2019-11-03T09:20:12.000Z</time>
      </trkpt>
      <trkpt lat="47.28284" lon="-2.50313">
        <ele>223</ele>
        <time>2019-11-03T09:20:15.000Z</time>
      </trkpt>
      <trkpt lat="47.28294" lon="-2.50302">
        <ele>223</ele>
        <time>2019-11-03T09:20:18.000Z</time>
      </trkpt>
      <trkpt lat="47.28302" lon="-2.50293">
        <ele>223</ele>
        <time>2019-11-03T09:20:20.000Z</time>
      </trkpt>
      <trkpt lat="47.28307" lon="-2.50292">
        <ele>223</ele>
        <time>2019-11-03T09:20:21.000Z</time>
      </trkpt>
      <trkpt lat="47.28324" lon="-2.503">
        <ele>223</ele>
        <time>2019-11-03T09:20:24.000Z</time>
      </trkpt>
      <trkpt lat="47.28336" lon="-2.50307">
        <ele>223</ele>
        <time>2019-11-03T09:20:26.000Z</time>
      </trkpt>
      <trkpt lat="47.28348" lon="-2.50308">
        <ele>223</ele>
        <time>2019-11-03T09:20:28.000Z</time>
      </trkpt>
      <trkpt lat="47.28363" lon="-2.50317">
        <ele>223</ele>
        <time>2019-11-03T09:20:31.000Z</time>
      </trkpt>
      <trkpt lat="47.28385" lon="-2.50332">
        <ele>223</ele>
        <time>2019-11-03T09:20:36.000Z</time>
      </trkpt>
      <trkpt lat="47.28389" lon="-2.50332">
        <ele>223</ele>
        <time>2019-11-03T09:20:37.000Z</time>
      </trkpt>
      <trkpt lat="47.28395" lon="-2.50323">
        <ele>223</ele>
        <time>2019-11-03T09:20:39.000Z</time>
      </trkpt>
      <trkpt lat="47.28396" lon="-2.50301">
        <ele>222.60000610352</ele>
        <time>2019-11-03T09:20:42.000Z</time>
      </trkpt>
      <trkpt lat="47.28396" lon="-2.50294">
        <ele>222.19999694824</ele>
        <time>2019-11-03T09:20:43.000Z</time>
      </trkpt>
      <trkpt lat="47.28397" lon="-2.50286">
        <ele>221.80000305176</ele>
        <time>2019-11-03T09:20:44.000Z</time>
      </trkpt>
      <trkpt lat="47.28398" lon="-2.5028">
        <ele>221.39999389648</ele>
        <time>2019-11-03T09:20:45.000Z</time>
      </trkpt>
      <trkpt lat="47.28399" lon="-2.50276">
        <ele>221</ele>
        <time>2019-11-03T09:20:46.000Z</time>
      </trkpt>
      <trkpt lat="47.28405" lon="-2.5027">
        <ele>221</ele>
        <time>2019-11-03T09:20:49.000Z</time>
      </trkpt>
      <trkpt lat="47.28407" lon="-2.50268">
        <ele>221</ele>
        <time>2019-11-03T09:20:50.000Z</time>
      </trkpt>
      <trkpt lat="47.28419" lon="-2.5026">
        <ele>221</ele>
        <time>2019-11-03T09:20:57.000Z</time>
      </trkpt>
      <trkpt lat="47.28428" lon="-2.50254">
        <ele>221</ele>
        <time>2019-11-03T09:21:03.000Z</time>
      </trkpt>
      <trkpt lat="47.28433" lon="-2.50254">
        <ele>221</ele>
        <time>2019-11-03T09:21:15.000Z</time>
      </trkpt>
      <trkpt lat="47.28435" lon="-2.50254">
        <ele>221</ele>
        <time>2019-11-03T09:21:17.000Z</time>
      </trkpt>
      <trkpt lat="47.28459" lon="-2.50244">
        <ele>221</ele>
        <time>2019-11-03T09:22:05.000Z</time>
      </trkpt>
      <trkpt lat="47.28461" lon="-2.50244">
        <ele>221</ele>
        <time>2019-11-03T09:22:06.000Z</time>
      </trkpt>
      <trkpt lat="47.28479" lon="-2.50244">
        <ele>221</ele>
        <time>2019-11-03T09:22:12.000Z</time>
      </trkpt>
      <trkpt lat="47.28484" lon="-2.50247">
        <ele>221</ele>
        <time>2019-11-03T09:22:15.000Z</time>
      </trkpt>
      <trkpt lat="47.28484" lon="-2.50249">
        <ele>221</ele>
        <time>2019-11-03T09:22:16.000Z</time>
      </trkpt>
      <trkpt lat="47.28487" lon="-2.50258">
        <ele>221</ele>
        <time>2019-11-03T09:22:20.000Z</time>
      </trkpt>
      <trkpt lat="47.28491" lon="-2.50266">
        <ele>221</ele>
        <time>2019-11-03T09:22:24.000Z</time>
      </trkpt>
      <trkpt lat="47.28492" lon="-2.50268">
        <ele>221</ele>
        <time>2019-11-03T09:22:25.000Z</time>
      </trkpt>
      <trkpt lat="47.28503" lon="-2.50276">
        <ele>221</ele>
        <time>2019-11-03T09:22:29.000Z</time>
      </trkpt>
      <trkpt lat="47.28518" lon="-2.50282">
        <ele>221</ele>
        <time>2019-11-03T09:22:33.000Z</time>
      </trkpt>
      <trkpt lat="47.28526" lon="-2.50287">
        <ele>221</ele>
        <time>2019-11-03T09:22:35.000Z</time>
      </trkpt>
      <trkpt lat="47.28534" lon="-2.50292">
        <ele>221.39999389648</ele>
        <time>2019-11-03T09:22:37.000Z</time>
      </trkpt>
      <trkpt lat="47.28537" lon="-2.50294">
        <ele>221.80000305176</ele>
        <time>2019-11-03T09:22:38.000Z</time>
      </trkpt>
      <trkpt lat="47.28541" lon="-2.50297">
        <ele>222.19999694824</ele>
        <time>2019-11-03T09:22:39.000Z</time>
      </trkpt>
      <trkpt lat="47.28544" lon="-2.50299">
        <ele>222.80000305176</ele>
        <time>2019-11-03T09:22:40.000Z</time>
      </trkpt>
      <trkpt lat="47.28548" lon="-2.50301">
        <ele>223.19999694824</ele>
        <time>2019-11-03T09:22:41.000Z</time>
      </trkpt>
      <trkpt lat="47.28564" lon="-2.50316">
        <ele>223.19999694824</ele>
        <time>2019-11-03T09:22:46.000Z</time>
      </trkpt>
      <trkpt lat="47.28574" lon="-2.50323">
        <ele>223.19999694824</ele>
        <time>2019-11-03T09:22:49.000Z</time>
      </trkpt>
      <trkpt lat="47.28581" lon="-2.50327">
        <ele>223.19999694824</ele>
        <time>2019-11-03T09:22:51.000Z</time>
      </trkpt>
      <trkpt lat="47.28593" lon="-2.50328">
        <ele>222.80000305176</ele>
        <time>2019-11-03T09:22:54.000Z</time>
      </trkpt>
      <trkpt lat="47.28597" lon="-2.50327">
        <ele>222.39999389648</ele>
        <time>2019-11-03T09:22:55.000Z</time>
      </trkpt>
      <trkpt lat="47.28601" lon="-2.50327">
        <ele>222</ele>
        <time>2019-11-03T09:22:56.000Z</time>
      </trkpt>
      <trkpt lat="47.28605" lon="-2.50328">
        <ele>221.19999694824</ele>
        <time>2019-11-03T09:22:57.000Z</time>
      </trkpt>
      <trkpt lat="47.28619" lon="-2.50333">
        <ele>221.80000305176</ele>
        <time>2019-11-03T09:23:01.000Z</time>
      </trkpt>
      <trkpt lat="47.28622" lon="-2.50333">
        <ele>222.19999694824</ele>
        <time>2019-11-03T09:23:02.000Z</time>
      </trkpt>
      <trkpt lat="47.28625" lon="-2.50334">
        <ele>222.80000305176</ele>
        <time>2019-11-03T09:23:03.000Z</time>
      </trkpt>
      <trkpt lat="47.28628" lon="-2.50336">
        <ele>223.39999389648</ele>
        <time>2019-11-03T09:23:04.000Z</time>
      </trkpt>
      <trkpt lat="47.28631" lon="-2.50338">
        <ele>223.80000305176</ele>
        <time>2019-11-03T09:23:05.000Z</time>
      </trkpt>
      <trkpt lat="47.28637" lon="-2.50343">
        <ele>223.80000305176</ele>
        <time>2019-11-03T09:23:07.000Z</time>
      </trkpt>
      <trkpt lat="47.28659" lon="-2.5036">
        <ele>223.80000305176</ele>
        <time>2019-11-03T09:23:13.000Z</time>
      </trkpt>
      <trkpt lat="47.28674" lon="-2.50373">
        <ele>223.80000305176</ele>
        <time>2019-11-03T09:23:17.000Z</time>
      </trkpt>
      <trkpt lat="47.28681" lon="-2.5038">
        <ele>223.80000305176</ele>
        <time>2019-11-03T09:23:19.000Z</time>
      </trkpt>
      <trkpt lat="47.28707" lon="-2.50405">
        <ele>224.19999694824</ele>
        <time>2019-11-03T09:23:27.000Z</time>
      </trkpt>
      <trkpt lat="47.2871" lon="-2.50407">
        <ele>224.60000610352</ele>
        <time>2019-11-03T09:23:28.000Z</time>
      </trkpt>
      <trkpt lat="47.28713" lon="-2.50409">
        <ele>225</ele>
        <time>2019-11-03T09:23:29.000Z</time>
      </trkpt>
      <trkpt lat="47.28716" lon="-2.50412">
        <ele>225.39999389648</ele>
        <time>2019-11-03T09:23:30.000Z</time>
      </trkpt>
      <trkpt lat="47.28719" lon="-2.50415">
        <ele>225.80000305176</ele>
        <time>2019-11-03T09:23:31.000Z</time>
      </trkpt>
      <trkpt lat="47.28722" lon="-2.50418">
        <ele>225.80000305176</ele>
        <time>2019-11-03T09:23:32.000Z</time>
      </trkpt>
      <trkpt lat="47.28728" lon="-2.50426">
        <ele>225.39999389648</ele>
        <time>2019-11-03T09:23:34.000Z</time>
      </trkpt>
      <trkpt lat="47.2873" lon="-2.5043">
        <ele>225</ele>
        <time>2019-11-03T09:23:35.000Z</time>
      </trkpt>
      <trkpt lat="47.28732" lon="-2.50435">
        <ele>224.60000610352</ele>
        <time>2019-11-03T09:23:36.000Z</time>
      </trkpt>
      <trkpt lat="47.28734" lon="-2.50438">
        <ele>224</ele>
        <time>2019-11-03T09:23:37.000Z</time>
      </trkpt>
      <trkpt lat="47.28736" lon="-2.50442">
        <ele>223.60000610352</ele>
        <time>2019-11-03T09:23:38.000Z</time>
      </trkpt>
      <trkpt lat="47.28745" lon="-2.50455">
        <ele>223.60000610352</ele>
        <time>2019-11-03T09:23:42.000Z</time>
      </trkpt>
      <trkpt lat="47.28758" lon="-2.50469">
        <ele>223.60000610352</ele>
        <time>2019-11-03T09:23:48.000Z</time>
      </trkpt>
      <trkpt lat="47.28774" lon="-2.50478">
        <ele>223.60000610352</ele>
        <time>2019-11-03T09:23:53.000Z</time>
      </trkpt>
      <trkpt lat="47.28792" lon="-2.50488">
        <ele>223.60000610352</ele>
        <time>2019-11-03T09:23:58.000Z</time>
      </trkpt>
      <trkpt lat="47.28819" lon="-2.50505">
        <ele>223.60000610352</ele>
        <time>2019-11-03T09:24:05.000Z</time>
      </trkpt>
      <trkpt lat="47.2885" lon="-2.50527">
        <ele>223.60000610352</ele>
        <time>2019-11-03T09:24:12.000Z</time>
      </trkpt>
      <trkpt lat="47.28859" lon="-2.50533">
        <ele>223.60000610352</ele>
        <time>2019-11-03T09:24:14.000Z</time>
      </trkpt>
      <trkpt lat="47.28876" lon="-2.50544">
        <ele>223.60000610352</ele>
        <time>2019-11-03T09:24:18.000Z</time>
      </trkpt>
      <trkpt lat="47.28904" lon="-2.50562">
        <ele>223.60000610352</ele>
        <time>2019-11-03T09:24:25.000Z</time>
      </trkpt>
      <trkpt lat="47.28931" lon="-2.50583">
        <ele>223.60000610352</ele>
        <time>2019-11-03T09:24:32.000Z</time>
      </trkpt>
      <trkpt lat="47.28958" lon="-2.50602">
        <ele>223.60000610352</ele>
        <time>2019-11-03T09:24:39.000Z</time>
      </trkpt>
      <trkpt lat="47.28993" lon="-2.50627">
        <ele>223.60000610352</ele>
        <time>2019-11-03T09:24:48.000Z</time>
      </trkpt>
      <trkpt lat="47.29026" lon="-2.50654">
        <ele>223.60000610352</ele>
        <time>2019-11-03T09:24:56.000Z</time>
      </trkpt>
      <trkpt lat="47.29038" lon="-2.50661">
        <ele>223.60000610352</ele>
        <time>2019-11-03T09:24:59.000Z</time>
      </trkpt>
      <trkpt lat="47.29046" lon="-2.50664">
        <ele>223.60000610352</ele>
        <time>2019-11-03T09:25:01.000Z</time>
      </trkpt>
      <trkpt lat="47.29054" lon="-2.50679">
        <ele>223.60000610352</ele>
        <time>2019-11-03T09:25:04.000Z</time>
      </trkpt>
      <trkpt lat="47.29067" lon="-2.50691">
        <ele>223.60000610352</ele>
        <time>2019-11-03T09:25:08.000Z</time>
      </trkpt>
      <trkpt lat="47.2907" lon="-2.50692">
        <ele>223.60000610352</ele>
        <time>2019-11-03T09:25:09.000Z</time>
      </trkpt>
      <trkpt lat="47.29085" lon="-2.50687">
        <ele>223.60000610352</ele>
        <time>2019-11-03T09:25:14.000Z</time>
      </trkpt>
      <trkpt lat="47.29099" lon="-2.50684">
        <ele>223.60000610352</ele>
        <time>2019-11-03T09:25:19.000Z</time>
      </trkpt>
      <trkpt lat="47.29096" lon="-2.5069">
        <ele>223.60000610352</ele>
        <time>2019-11-03T09:25:22.000Z</time>
      </trkpt>
      <trkpt lat="47.29091" lon="-2.50692">
        <ele>223.60000610352</ele>
        <time>2019-11-03T09:25:24.000Z</time>
      </trkpt>
      <trkpt lat="47.29088" lon="-2.50699">
        <ele>223.60000610352</ele>
        <time>2019-11-03T09:25:27.000Z</time>
      </trkpt>
      <trkpt lat="47.29089" lon="-2.50702">
        <ele>224</ele>
        <time>2019-11-03T09:25:29.000Z</time>
      </trkpt>
      <trkpt lat="47.2909" lon="-2.50703">
        <ele>224.39999389648</ele>
        <time>2019-11-03T09:25:30.000Z</time>
      </trkpt>
      <trkpt lat="47.29092" lon="-2.50704">
        <ele>225</ele>
        <time>2019-11-03T09:25:31.000Z</time>
      </trkpt>
      <trkpt lat="47.29094" lon="-2.50705">
        <ele>225.39999389648</ele>
        <time>2019-11-03T09:25:32.000Z</time>
      </trkpt>
      <trkpt lat="47.29096" lon="-2.50704">
        <ele>225.80000305176</ele>
        <time>2019-11-03T09:25:33.000Z</time>
      </trkpt>
      <trkpt lat="47.29104" lon="-2.50701">
        <ele>225.80000305176</ele>
        <time>2019-11-03T09:25:36.000Z</time>
      </trkpt>
      <trkpt lat="47.29122" lon="-2.50695">
        <ele>225.80000305176</ele>
        <time>2019-11-03T09:25:40.000Z</time>
      </trkpt>
      <trkpt lat="47.29147" lon="-2.50693">
        <ele>225.80000305176</ele>
        <time>2019-11-03T09:25:46.000Z</time>
      </trkpt>
      <trkpt lat="47.29165" lon="-2.5069">
        <ele>225.80000305176</ele>
        <time>2019-11-03T09:25:51.000Z</time>
      </trkpt>
      <trkpt lat="47.29169" lon="-2.50693">
        <ele>226.19999694824</ele>
        <time>2019-11-03T09:25:52.000Z</time>
      </trkpt>
      <trkpt lat="47.29172" lon="-2.50694">
        <ele>226.80000305176</ele>
        <time>2019-11-03T09:25:53.000Z</time>
      </trkpt>
      <trkpt lat="47.29176" lon="-2.50697">
        <ele>227.19999694824</ele>
        <time>2019-11-03T09:25:54.000Z</time>
      </trkpt>
      <trkpt lat="47.29178" lon="-2.507">
        <ele>227.60000610352</ele>
        <time>2019-11-03T09:25:55.000Z</time>
      </trkpt>
      <trkpt lat="47.2918" lon="-2.50703">
        <ele>228.19999694824</ele>
        <time>2019-11-03T09:25:56.000Z</time>
      </trkpt>
      <trkpt lat="47.29184" lon="-2.50717">
        <ele>228.19999694824</ele>
        <time>2019-11-03T09:26:00.000Z</time>
      </trkpt>
      <trkpt lat="47.29183" lon="-2.5072">
        <ele>228.19999694824</ele>
        <time>2019-11-03T09:26:01.000Z</time>
      </trkpt>
      <trkpt lat="47.29183" lon="-2.50721">
        <ele>227.80000305176</ele>
        <time>2019-11-03T09:26:02.000Z</time>
      </trkpt>
      <trkpt lat="47.29183" lon="-2.50723">
        <ele>227.19999694824</ele>
        <time>2019-11-03T09:26:03.000Z</time>
      </trkpt>
      <trkpt lat="47.29184" lon="-2.50724">
        <ele>226.80000305176</ele>
        <time>2019-11-03T09:26:04.000Z</time>
      </trkpt>
      <trkpt lat="47.29184" lon="-2.50728">
        <ele>226</ele>
        <time>2019-11-03T09:26:18.000Z</time>
      </trkpt>
      <trkpt lat="47.29185" lon="-2.50734">
        <ele>226</ele>
        <time>2019-11-03T09:26:21.000Z</time>
      </trkpt>
      <trkpt lat="47.29182" lon="-2.50748">
        <ele>226</ele>
        <time>2019-11-03T09:26:25.000Z</time>
      </trkpt>
      <trkpt lat="47.29181" lon="-2.50752">
        <ele>226</ele>
        <time>2019-11-03T09:26:26.000Z</time>
      </trkpt>
      <trkpt lat="47.29177" lon="-2.50759">
        <ele>226</ele>
        <time>2019-11-03T09:26:29.000Z</time>
      </trkpt>
      <trkpt lat="47.29173" lon="-2.5076">
        <ele>226</ele>
        <time>2019-11-03T09:26:31.000Z</time>
      </trkpt>
      <trkpt lat="47.29164" lon="-2.50751">
        <ele>226</ele>
        <time>2019-11-03T09:26:35.000Z</time>
      </trkpt>
      <trkpt lat="47.29152" lon="-2.50736">
        <ele>226.39999389648</ele>
        <time>2019-11-03T09:26:41.000Z</time>
      </trkpt>
      <trkpt lat="47.29149" lon="-2.50733">
        <ele>226.80000305176</ele>
        <time>2019-11-03T09:26:42.000Z</time>
      </trkpt>
      <trkpt lat="47.29147" lon="-2.50729">
        <ele>227.19999694824</ele>
        <time>2019-11-03T09:26:43.000Z</time>
      </trkpt>
      <trkpt lat="47.29144" lon="-2.50727">
        <ele>227.60000610352</ele>
        <time>2019-11-03T09:26:44.000Z</time>
      </trkpt>
      <trkpt lat="47.29142" lon="-2.50725">
        <ele>228</ele>
        <time>2019-11-03T09:26:45.000Z</time>
      </trkpt>
      <trkpt lat="47.29136" lon="-2.50722">
        <ele>228</ele>
        <time>2019-11-03T09:26:47.000Z</time>
      </trkpt>
      <trkpt lat="47.29119" lon="-2.50721">
        <ele>228.60000610352</ele>
        <time>2019-11-03T09:26:53.000Z</time>
      </trkpt>
      <trkpt lat="47.29117" lon="-2.50721">
        <ele>229</ele>
        <time>2019-11-03T09:26:54.000Z</time>
      </trkpt>
      <trkpt lat="47.29115" lon="-2.50723">
        <ele>229.39999389648</ele>
        <time>2019-11-03T09:26:55.000Z</time>
      </trkpt>
      <trkpt lat="47.29113" lon="-2.50726">
        <ele>229.80000305176</ele>
        <time>2019-11-03T09:26:56.000Z</time>
      </trkpt>
      <trkpt lat="47.29112" lon="-2.50728">
        <ele>230.39999389648</ele>
        <time>2019-11-03T09:26:57.000Z</time>
      </trkpt>
      <trkpt lat="47.29108" lon="-2.50738">
        <ele>230.39999389648</ele>
        <time>2019-11-03T09:27:02.000Z</time>
      </trkpt>
      <trkpt lat="47.29106" lon="-2.50739">
        <ele>230.39999389648</ele>
        <time>2019-11-03T09:27:03.000Z</time>
      </trkpt>
      <trkpt lat="47.29105" lon="-2.50738">
        <ele>231.19999694824</ele>
        <time>2019-11-03T09:27:04.000Z</time>
      </trkpt>
      <trkpt lat="47.29104" lon="-2.50736">
        <ele>232.19999694824</ele>
        <time>2019-11-03T09:27:05.000Z</time>
      </trkpt>
      <trkpt lat="47.29102" lon="-2.50734">
        <ele>233</ele>
        <time>2019-11-03T09:27:06.000Z</time>
      </trkpt>
      <trkpt lat="47.29101" lon="-2.50732">
        <ele>234</ele>
        <time>2019-11-03T09:27:07.000Z</time>
      </trkpt>
      <trkpt lat="47.29099" lon="-2.50731">
        <ele>235</ele>
        <time>2019-11-03T09:27:08.000Z</time>
      </trkpt>
      <trkpt lat="47.29096" lon="-2.50731">
        <ele>235.80000305176</ele>
        <time>2019-11-03T09:27:09.000Z</time>
      </trkpt>
      <trkpt lat="47.29094" lon="-2.50731">
        <ele>236.80000305176</ele>
        <time>2019-11-03T09:27:10.000Z</time>
      </trkpt>
      <trkpt lat="47.29091" lon="-2.50731">
        <ele>237.80000305176</ele>
        <time>2019-11-03T09:27:11.000Z</time>
      </trkpt>
      <trkpt lat="47.29082" lon="-2.50739">
        <ele>237.80000305176</ele>
        <time>2019-11-03T09:27:15.000Z</time>
      </trkpt>
      <trkpt lat="47.29078" lon="-2.50757">
        <ele>237.80000305176</ele>
        <time>2019-11-03T09:27:19.000Z</time>
      </trkpt>
      <trkpt lat="47.29087" lon="-2.5077">
        <ele>237.80000305176</ele>
        <time>2019-11-03T09:27:22.000Z</time>
      </trkpt>
      <trkpt lat="47.29095" lon="-2.5077">
        <ele>237.19999694824</ele>
        <time>2019-11-03T09:27:24.000Z</time>
      </trkpt>
      <trkpt lat="47.29099" lon="-2.50769">
        <ele>236.80000305176</ele>
        <time>2019-11-03T09:27:25.000Z</time>
      </trkpt>
      <trkpt lat="47.29103" lon="-2.50765">
        <ele>236</ele>
        <time>2019-11-03T09:27:26.000Z</time>
      </trkpt>
      <trkpt lat="47.29105" lon="-2.5076">
        <ele>235.19999694824</ele>
        <time>2019-11-03T09:27:27.000Z</time>
      </trkpt>
      <trkpt lat="47.29106" lon="-2.50755">
        <ele>234.39999389648</ele>
        <time>2019-11-03T09:27:28.000Z</time>
      </trkpt>
      <trkpt lat="47.29106" lon="-2.50751">
        <ele>233</ele>
        <time>2019-11-03T09:27:29.000Z</time>
      </trkpt>
      <trkpt lat="47.29107" lon="-2.50749">
        <ele>233</ele>
        <time>2019-11-03T09:27:30.000Z</time>
      </trkpt>
      <trkpt lat="47.29107" lon="-2.50743">
        <ele>233</ele>
        <time>2019-11-03T09:27:32.000Z</time>
      </trkpt>
      <trkpt lat="47.29113" lon="-2.50722">
        <ele>233</ele>
        <time>2019-11-03T09:27:38.000Z</time>
      </trkpt>
      <trkpt lat="47.2912" lon="-2.50718">
        <ele>233</ele>
        <time>2019-11-03T09:27:40.000Z</time>
      </trkpt>
      <trkpt lat="47.29125" lon="-2.50718">
        <ele>233</ele>
        <time>2019-11-03T09:27:41.000Z</time>
      </trkpt>
      <trkpt lat="47.29145" lon="-2.50727">
        <ele>233</ele>
        <time>2019-11-03T09:27:45.000Z</time>
      </trkpt>
      <trkpt lat="47.29156" lon="-2.50742">
        <ele>232.60000610352</ele>
        <time>2019-11-03T09:27:48.000Z</time>
      </trkpt>
      <trkpt lat="47.29159" lon="-2.50748">
        <ele>232.19999694824</ele>
        <time>2019-11-03T09:27:49.000Z</time>
      </trkpt>
      <trkpt lat="47.29163" lon="-2.50753">
        <ele>231.80000305176</ele>
        <time>2019-11-03T09:27:50.000Z</time>
      </trkpt>
      <trkpt lat="47.29166" lon="-2.50759">
        <ele>231.19999694824</ele>
        <time>2019-11-03T09:27:51.000Z</time>
      </trkpt>
      <trkpt lat="47.29169" lon="-2.50765">
        <ele>230.80000305176</ele>
        <time>2019-11-03T09:27:52.000Z</time>
      </trkpt>
      <trkpt lat="47.29172" lon="-2.50771">
        <ele>230.39999389648</ele>
        <time>2019-11-03T09:27:53.000Z</time>
      </trkpt>
      <trkpt lat="47.29175" lon="-2.50776">
        <ele>229.80000305176</ele>
        <time>2019-11-03T09:27:54.000Z</time>
      </trkpt>
      <trkpt lat="47.29176" lon="-2.50779">
        <ele>229.19999694824</ele>
        <time>2019-11-03T09:27:55.000Z</time>
      </trkpt>
      <trkpt lat="47.29178" lon="-2.50783">
        <ele>228.39999389648</ele>
        <time>2019-11-03T09:27:56.000Z</time>
      </trkpt>
      <trkpt lat="47.2918" lon="-2.50787">
        <ele>227.80000305176</ele>
        <time>2019-11-03T09:27:57.000Z</time>
      </trkpt>
      <trkpt lat="47.29182" lon="-2.50791">
        <ele>227</ele>
        <time>2019-11-03T09:27:58.000Z</time>
      </trkpt>
      <trkpt lat="47.29185" lon="-2.50794">
        <ele>226.39999389648</ele>
        <time>2019-11-03T09:27:59.000Z</time>
      </trkpt>
      <trkpt lat="47.29187" lon="-2.50797">
        <ele>225.60000610352</ele>
        <time>2019-11-03T09:28:00.000Z</time>
      </trkpt>
      <trkpt lat="47.29196" lon="-2.50806">
        <ele>225.60000610352</ele>
        <time>2019-11-03T09:28:03.000Z</time>
      </trkpt>
      <trkpt lat="47.292" lon="-2.50813">
        <ele>225.60000610352</ele>
        <time>2019-11-03T09:28:05.000Z</time>
      </trkpt>
      <trkpt lat="47.29201" lon="-2.50816">
        <ele>225.19999694824</ele>
        <time>2019-11-03T09:28:06.000Z</time>
      </trkpt>
      <trkpt lat="47.29203" lon="-2.5082">
        <ele>224.80000305176</ele>
        <time>2019-11-03T09:28:07.000Z</time>
      </trkpt>
      <trkpt lat="47.29205" lon="-2.50824">
        <ele>224.19999694824</ele>
        <time>2019-11-03T09:28:08.000Z</time>
      </trkpt>
      <trkpt lat="47.29207" lon="-2.50827">
        <ele>223.80000305176</ele>
        <time>2019-11-03T09:28:09.000Z</time>
      </trkpt>
      <trkpt lat="47.2921" lon="-2.50831">
        <ele>223.39999389648</ele>
        <time>2019-11-03T09:28:10.000Z</time>
      </trkpt>
      <trkpt lat="47.29216" lon="-2.50836">
        <ele>223.39999389648</ele>
        <time>2019-11-03T09:28:12.000Z</time>
      </trkpt>
      <trkpt lat="47.29228" lon="-2.50852">
        <ele>223.39999389648</ele>
        <time>2019-11-03T09:28:17.000Z</time>
      </trkpt>
      <trkpt lat="47.29251" lon="-2.50867">
        <ele>223.39999389648</ele>
        <time>2019-11-03T09:28:24.000Z</time>
      </trkpt>
      <trkpt lat="47.29264" lon="-2.5088">
        <ele>223.39999389648</ele>
        <time>2019-11-03T09:28:30.000Z</time>
      </trkpt>
      <trkpt lat="47.29272" lon="-2.50891">
        <ele>223.80000305176</ele>
        <time>2019-11-03T09:28:34.000Z</time>
      </trkpt>
      <trkpt lat="47.29274" lon="-2.50893">
        <ele>224.19999694824</ele>
        <time>2019-11-03T09:28:35.000Z</time>
      </trkpt>
      <trkpt lat="47.29276" lon="-2.50895">
        <ele>224.60000610352</ele>
        <time>2019-11-03T09:28:36.000Z</time>
      </trkpt>
      <trkpt lat="47.29279" lon="-2.50897">
        <ele>225</ele>
        <time>2019-11-03T09:28:37.000Z</time>
      </trkpt>
      <trkpt lat="47.29281" lon="-2.50899">
        <ele>225.39999389648</ele>
        <time>2019-11-03T09:28:38.000Z</time>
      </trkpt>
      <trkpt lat="47.29293" lon="-2.50905">
        <ele>224.19999694824</ele>
        <time>2019-11-03T09:28:42.000Z</time>
      </trkpt>
      <trkpt lat="47.29296" lon="-2.50906">
        <ele>223.80000305176</ele>
        <time>2019-11-03T09:28:43.000Z</time>
      </trkpt>
      <trkpt lat="47.29301" lon="-2.50906">
        <ele>223.19999694824</ele>
        <time>2019-11-03T09:28:44.000Z</time>
      </trkpt>
      <trkpt lat="47.29305" lon="-2.50907">
        <ele>222.60000610352</ele>
        <time>2019-11-03T09:28:45.000Z</time>
      </trkpt>
      <trkpt lat="47.29314" lon="-2.5091">
        <ele>222.60000610352</ele>
        <time>2019-11-03T09:28:47.000Z</time>
      </trkpt>
      <trkpt lat="47.29321" lon="-2.50915">
        <ele>222.60000610352</ele>
        <time>2019-11-03T09:28:49.000Z</time>
      </trkpt>
      <trkpt lat="47.29335" lon="-2.50924">
        <ele>222.60000610352</ele>
        <time>2019-11-03T09:28:53.000Z</time>
      </trkpt>
      <trkpt lat="47.29354" lon="-2.50936">
        <ele>222.60000610352</ele>
        <time>2019-11-03T09:28:59.000Z</time>
      </trkpt>
      <trkpt lat="47.29365" lon="-2.50939">
        <ele>222.60000610352</ele>
        <time>2019-11-03T09:29:02.000Z</time>
      </trkpt>
      <trkpt lat="47.29369" lon="-2.50942">
        <ele>222.60000610352</ele>
        <time>2019-11-03T09:29:03.000Z</time>
      </trkpt>
      <trkpt lat="47.29381" lon="-2.50959">
        <ele>222.60000610352</ele>
        <time>2019-11-03T09:29:07.000Z</time>
      </trkpt>
      <trkpt lat="47.29384" lon="-2.50964">
        <ele>222.60000610352</ele>
        <time>2019-11-03T09:29:08.000Z</time>
      </trkpt>
      <trkpt lat="47.29385" lon="-2.50969">
        <ele>222.60000610352</ele>
        <time>2019-11-03T09:29:09.000Z</time>
      </trkpt>
      <trkpt lat="47.29388" lon="-2.50983">
        <ele>222.60000610352</ele>
        <time>2019-11-03T09:29:11.000Z</time>
      </trkpt>
      <trkpt lat="47.29391" lon="-2.51009">
        <ele>222.60000610352</ele>
        <time>2019-11-03T09:29:15.000Z</time>
      </trkpt>
      <trkpt lat="47.29397" lon="-2.5102">
        <ele>222.60000610352</ele>
        <time>2019-11-03T09:29:17.000Z</time>
      </trkpt>
      <trkpt lat="47.29404" lon="-2.51029">
        <ele>222.60000610352</ele>
        <time>2019-11-03T09:29:19.000Z</time>
      </trkpt>
      <trkpt lat="47.29421" lon="-2.51051">
        <ele>222.60000610352</ele>
        <time>2019-11-03T09:29:24.000Z</time>
      </trkpt>
      <trkpt lat="47.29439" lon="-2.51075">
        <ele>222.60000610352</ele>
        <time>2019-11-03T09:29:30.000Z</time>
      </trkpt>
      <trkpt lat="47.29446" lon="-2.51083">
        <ele>222.60000610352</ele>
        <time>2019-11-03T09:29:32.000Z</time>
      </trkpt>
      <trkpt lat="47.29461" lon="-2.51105">
        <ele>222.60000610352</ele>
        <time>2019-11-03T09:29:37.000Z</time>
      </trkpt>
      <trkpt lat="47.29484" lon="-2.51136">
        <ele>222.60000610352</ele>
        <time>2019-11-03T09:29:44.000Z</time>
      </trkpt>
      <trkpt lat="47.29501" lon="-2.51166">
        <ele>222.60000610352</ele>
        <time>2019-11-03T09:29:51.000Z</time>
      </trkpt>
      <trkpt lat="47.29512" lon="-2.51196">
        <ele>222.60000610352</ele>
        <time>2019-11-03T09:29:57.000Z</time>
      </trkpt>
      <trkpt lat="47.29513" lon="-2.51202">
        <ele>222.60000610352</ele>
        <time>2019-11-03T09:29:58.000Z</time>
      </trkpt>
      <trkpt lat="47.29525" lon="-2.51238">
        <ele>223.19999694824</ele>
        <time>2019-11-03T09:30:05.000Z</time>
      </trkpt>
      <trkpt lat="47.29526" lon="-2.51243">
        <ele>223.60000610352</ele>
        <time>2019-11-03T09:30:06.000Z</time>
      </trkpt>
      <trkpt lat="47.29527" lon="-2.5125">
        <ele>224</ele>
        <time>2019-11-03T09:30:07.000Z</time>
      </trkpt>
      <trkpt lat="47.29528" lon="-2.51256">
        <ele>224.60000610352</ele>
        <time>2019-11-03T09:30:08.000Z</time>
      </trkpt>
      <trkpt lat="47.2953" lon="-2.51262">
        <ele>225</ele>
        <time>2019-11-03T09:30:09.000Z</time>
      </trkpt>
      <trkpt lat="47.29531" lon="-2.51268">
        <ele>224.39999389648</ele>
        <time>2019-11-03T09:30:10.000Z</time>
      </trkpt>
      <trkpt lat="47.29532" lon="-2.51275">
        <ele>224</ele>
        <time>2019-11-03T09:30:11.000Z</time>
      </trkpt>
      <trkpt lat="47.29534" lon="-2.51281">
        <ele>223.39999389648</ele>
        <time>2019-11-03T09:30:12.000Z</time>
      </trkpt>
      <trkpt lat="47.29535" lon="-2.51288">
        <ele>222.80000305176</ele>
        <time>2019-11-03T09:30:13.000Z</time>
      </trkpt>
      <trkpt lat="47.29537" lon="-2.51295">
        <ele>222.39999389648</ele>
        <time>2019-11-03T09:30:14.000Z</time>
      </trkpt>
      <trkpt lat="47.29541" lon="-2.51309">
        <ele>222.39999389648</ele>
        <time>2019-11-03T09:30:16.000Z</time>
      </trkpt>
      <trkpt lat="47.29556" lon="-2.51327">
        <ele>222.39999389648</ele>
        <time>2019-11-03T09:30:20.000Z</time>
      </trkpt>
      <trkpt lat="47.29577" lon="-2.51335">
        <ele>222.39999389648</ele>
        <time>2019-11-03T09:30:24.000Z</time>
      </trkpt>
      <trkpt lat="47.29581" lon="-2.51337">
        <ele>222.39999389648</ele>
        <time>2019-11-03T09:30:25.000Z</time>
      </trkpt>
      <trkpt lat="47.29609" lon="-2.51356">
        <ele>222.39999389648</ele>
        <time>2019-11-03T09:30:31.000Z</time>
      </trkpt>
      <trkpt lat="47.29634" lon="-2.51377">
        <ele>222.39999389648</ele>
        <time>2019-11-03T09:30:37.000Z</time>
      </trkpt>
      <trkpt lat="47.2967" lon="-2.51407">
        <ele>222.39999389648</ele>
        <time>2019-11-03T09:30:45.000Z</time>
      </trkpt>
      <trkpt lat="47.29716" lon="-2.51442">
        <ele>222.39999389648</ele>
        <time>2019-11-03T09:30:55.000Z</time>
      </trkpt>
      <trkpt lat="47.29749" lon="-2.51464">
        <ele>222.39999389648</ele>
        <time>2019-11-03T09:31:02.000Z</time>
      </trkpt>
      <trkpt lat="47.29779" lon="-2.51482">
        <ele>222.39999389648</ele>
        <time>2019-11-03T09:31:09.000Z</time>
      </trkpt>
      <trkpt lat="47.2979" lon="-2.51487">
        <ele>222.80000305176</ele>
        <time>2019-11-03T09:31:12.000Z</time>
      </trkpt>
      <trkpt lat="47.29793" lon="-2.51488">
        <ele>223.39999389648</ele>
        <time>2019-11-03T09:31:13.000Z</time>
      </trkpt>
      <trkpt lat="47.29797" lon="-2.51489">
        <ele>223.80000305176</ele>
        <time>2019-11-03T09:31:14.000Z</time>
      </trkpt>
      <trkpt lat="47.298" lon="-2.5149">
        <ele>224.39999389648</ele>
        <time>2019-11-03T09:31:15.000Z</time>
      </trkpt>
      <trkpt lat="47.29804" lon="-2.51491">
        <ele>225</ele>
        <time>2019-11-03T09:31:16.000Z</time>
      </trkpt>
      <trkpt lat="47.29809" lon="-2.51496">
        <ele>225</ele>
        <time>2019-11-03T09:31:19.000Z</time>
      </trkpt>
      <trkpt lat="47.29809" lon="-2.51499">
        <ele>225</ele>
        <time>2019-11-03T09:31:20.000Z</time>
      </trkpt>
      <trkpt lat="47.29808" lon="-2.51505">
        <ele>224.60000610352</ele>
        <time>2019-11-03T09:31:22.000Z</time>
      </trkpt>
      <trkpt lat="47.29808" lon="-2.5151">
        <ele>224.19999694824</ele>
        <time>2019-11-03T09:31:23.000Z</time>
      </trkpt>
      <trkpt lat="47.29808" lon="-2.51515">
        <ele>223.80000305176</ele>
        <time>2019-11-03T09:31:24.000Z</time>
      </trkpt>
      <trkpt lat="47.2981" lon="-2.51518">
        <ele>223.39999389648</ele>
        <time>2019-11-03T09:31:25.000Z</time>
      </trkpt>
      <trkpt lat="47.29812" lon="-2.51521">
        <ele>222.80000305176</ele>
        <time>2019-11-03T09:31:26.000Z</time>
      </trkpt>
      <trkpt lat="47.29819" lon="-2.51527">
        <ele>222.80000305176</ele>
        <time>2019-11-03T09:31:29.000Z</time>
      </trkpt>
      <trkpt lat="47.29822" lon="-2.5153">
        <ele>222.80000305176</ele>
        <time>2019-11-03T09:31:30.000Z</time>
      </trkpt>
      <trkpt lat="47.29837" lon="-2.51558">
        <ele>222.80000305176</ele>
        <time>2019-11-03T09:31:38.000Z</time>
      </trkpt>
      <trkpt lat="47.29847" lon="-2.51574">
        <ele>222.80000305176</ele>
        <time>2019-11-03T09:31:43.000Z</time>
      </trkpt>
      <trkpt lat="47.29856" lon="-2.51586">
        <ele>223.39999389648</ele>
        <time>2019-11-03T09:31:47.000Z</time>
      </trkpt>
      <trkpt lat="47.29858" lon="-2.51589">
        <ele>223.80000305176</ele>
        <time>2019-11-03T09:31:48.000Z</time>
      </trkpt>
      <trkpt lat="47.2986" lon="-2.51591">
        <ele>224.19999694824</ele>
        <time>2019-11-03T09:31:49.000Z</time>
      </trkpt>
      <trkpt lat="47.29862" lon="-2.51593">
        <ele>224.60000610352</ele>
        <time>2019-11-03T09:31:50.000Z</time>
      </trkpt>
      <trkpt lat="47.29865" lon="-2.51595">
        <ele>225</ele>
        <time>2019-11-03T09:31:51.000Z</time>
      </trkpt>
      <trkpt lat="47.29874" lon="-2.51605">
        <ele>225.39999389648</ele>
        <time>2019-11-03T09:31:55.000Z</time>
      </trkpt>
      <trkpt lat="47.29875" lon="-2.51608">
        <ele>226</ele>
        <time>2019-11-03T09:31:56.000Z</time>
      </trkpt>
      <trkpt lat="47.29877" lon="-2.51611">
        <ele>226.60000610352</ele>
        <time>2019-11-03T09:31:57.000Z</time>
      </trkpt>
      <trkpt lat="47.29879" lon="-2.51614">
        <ele>227</ele>
        <time>2019-11-03T09:31:58.000Z</time>
      </trkpt>
      <trkpt lat="47.29881" lon="-2.51618">
        <ele>227.60000610352</ele>
        <time>2019-11-03T09:31:59.000Z</time>
      </trkpt>
      <trkpt lat="47.29886" lon="-2.51628">
        <ele>227.60000610352</ele>
        <time>2019-11-03T09:32:02.000Z</time>
      </trkpt>
      <trkpt lat="47.29892" lon="-2.51651">
        <ele>227.60000610352</ele>
        <time>2019-11-03T09:32:08.000Z</time>
      </trkpt>
      <trkpt lat="47.29894" lon="-2.51659">
        <ele>228</ele>
        <time>2019-11-03T09:32:10.000Z</time>
      </trkpt>
      <trkpt lat="47.29895" lon="-2.51663">
        <ele>228.60000610352</ele>
        <time>2019-11-03T09:32:11.000Z</time>
      </trkpt>
      <trkpt lat="47.29896" lon="-2.51667">
        <ele>229</ele>
        <time>2019-11-03T09:32:12.000Z</time>
      </trkpt>
      <trkpt lat="47.29898" lon="-2.5167">
        <ele>229.39999389648</ele>
        <time>2019-11-03T09:32:13.000Z</time>
      </trkpt>
      <trkpt lat="47.29899" lon="-2.51674">
        <ele>229.80000305176</ele>
        <time>2019-11-03T09:32:14.000Z</time>
      </trkpt>
      <trkpt lat="47.29901" lon="-2.51678">
        <ele>230.39999389648</ele>
        <time>2019-11-03T09:32:15.000Z</time>
      </trkpt>
      <trkpt lat="47.29903" lon="-2.51683">
        <ele>230.19999694824</ele>
        <time>2019-11-03T09:32:16.000Z</time>
      </trkpt>
      <trkpt lat="47.29904" lon="-2.51687">
        <ele>229.80000305176</ele>
        <time>2019-11-03T09:32:17.000Z</time>
      </trkpt>
      <trkpt lat="47.29906" lon="-2.51692">
        <ele>229.60000610352</ele>
        <time>2019-11-03T09:32:18.000Z</time>
      </trkpt>
      <trkpt lat="47.29907" lon="-2.51696">
        <ele>229.39999389648</ele>
        <time>2019-11-03T09:32:19.000Z</time>
      </trkpt>
      <trkpt lat="47.29908" lon="-2.51701">
        <ele>229</ele>
        <time>2019-11-03T09:32:20.000Z</time>
      </trkpt>
      <trkpt lat="47.29909" lon="-2.51705">
        <ele>229</ele>
        <time>2019-11-03T09:32:21.000Z</time>
      </trkpt>
      <trkpt lat="47.2991" lon="-2.51713">
        <ele>229.60000610352</ele>
        <time>2019-11-03T09:32:23.000Z</time>
      </trkpt>
      <trkpt lat="47.29912" lon="-2.51716">
        <ele>230</ele>
        <time>2019-11-03T09:32:24.000Z</time>
      </trkpt>
      <trkpt lat="47.29913" lon="-2.5172">
        <ele>230.80000305176</ele>
        <time>2019-11-03T09:32:25.000Z</time>
      </trkpt>
      <trkpt lat="47.29914" lon="-2.51723">
        <ele>231.39999389648</ele>
        <time>2019-11-03T09:32:26.000Z</time>
      </trkpt>
      <trkpt lat="47.29921" lon="-2.51747">
        <ele>230.80000305176</ele>
        <time>2019-11-03T09:32:32.000Z</time>
      </trkpt>
      <trkpt lat="47.29922" lon="-2.5175">
        <ele>230.39999389648</ele>
        <time>2019-11-03T09:32:33.000Z</time>
      </trkpt>
      <trkpt lat="47.29923" lon="-2.51753">
        <ele>230</ele>
        <time>2019-11-03T09:32:34.000Z</time>
      </trkpt>
      <trkpt lat="47.29924" lon="-2.51756">
        <ele>229.60000610352</ele>
        <time>2019-11-03T09:32:35.000Z</time>
      </trkpt>
      <trkpt lat="47.29926" lon="-2.51759">
        <ele>229</ele>
        <time>2019-11-03T09:32:36.000Z</time>
      </trkpt>
      <trkpt lat="47.29931" lon="-2.5177">
        <ele>229</ele>
        <time>2019-11-03T09:32:40.000Z</time>
      </trkpt>
      <trkpt lat="47.29934" lon="-2.51778">
        <ele>229.60000610352</ele>
        <time>2019-11-03T09:32:43.000Z</time>
      </trkpt>
      <trkpt lat="47.29936" lon="-2.51781">
        <ele>230</ele>
        <time>2019-11-03T09:32:44.000Z</time>
      </trkpt>
      <trkpt lat="47.29937" lon="-2.51784">
        <ele>230.39999389648</ele>
        <time>2019-11-03T09:32:45.000Z</time>
      </trkpt>
      <trkpt lat="47.29938" lon="-2.51786">
        <ele>231</ele>
        <time>2019-11-03T09:32:46.000Z</time>
      </trkpt>
      <trkpt lat="47.29938" lon="-2.51788">
        <ele>231.39999389648</ele>
        <time>2019-11-03T09:32:47.000Z</time>
      </trkpt>
      <trkpt lat="47.29943" lon="-2.518">
        <ele>231.80000305176</ele>
        <time>2019-11-03T09:32:52.000Z</time>
      </trkpt>
      <trkpt lat="47.29943" lon="-2.518">
        <ele>232.19999694824</ele>
        <time>2019-11-03T09:32:53.000Z</time>
      </trkpt>
      <trkpt lat="47.29944" lon="-2.51801">
        <ele>232.80000305176</ele>
        <time>2019-11-03T09:32:54.000Z</time>
      </trkpt>
      <trkpt lat="47.29944" lon="-2.51801">
        <ele>233.19999694824</ele>
        <time>2019-11-03T09:32:55.000Z</time>
      </trkpt>
      <trkpt lat="47.29948" lon="-2.5182">
        <ele>229.60000610352</ele>
        <time>2019-11-03T09:34:06.000Z</time>
      </trkpt>
      <trkpt lat="47.29947" lon="-2.5182">
        <ele>230</ele>
        <time>2019-11-03T09:34:07.000Z</time>
      </trkpt>
      <trkpt lat="47.29944" lon="-2.51818">
        <ele>230.19999694824</ele>
        <time>2019-11-03T09:34:08.000Z</time>
      </trkpt>
      <trkpt lat="47.29942" lon="-2.51816">
        <ele>230.80000305176</ele>
        <time>2019-11-03T09:34:09.000Z</time>
      </trkpt>
      <trkpt lat="47.29941" lon="-2.51814">
        <ele>231.39999389648</ele>
        <time>2019-11-03T09:34:10.000Z</time>
      </trkpt>
      <trkpt lat="47.29941" lon="-2.5181">
        <ele>232</ele>
        <time>2019-11-03T09:34:11.000Z</time>
      </trkpt>
      <trkpt lat="47.29941" lon="-2.51807">
        <ele>231.60000610352</ele>
        <time>2019-11-03T09:34:12.000Z</time>
      </trkpt>
      <trkpt lat="47.29942" lon="-2.51804">
        <ele>231.19999694824</ele>
        <time>2019-11-03T09:34:13.000Z</time>
      </trkpt>
      <trkpt lat="47.29943" lon="-2.51802">
        <ele>231</ele>
        <time>2019-11-03T09:34:14.000Z</time>
      </trkpt>
      <trkpt lat="47.29944" lon="-2.51801">
        <ele>230.60000610352</ele>
        <time>2019-11-03T09:34:15.000Z</time>
      </trkpt>
      <trkpt lat="47.29945" lon="-2.518">
        <ele>230.19999694824</ele>
        <time>2019-11-03T09:34:16.000Z</time>
      </trkpt>
      <trkpt lat="47.29946" lon="-2.51799">
        <ele>230.19999694824</ele>
        <time>2019-11-03T09:34:17.000Z</time>
      </trkpt>
      <trkpt lat="47.29953" lon="-2.51801">
        <ele>229.80000305176</ele>
        <time>2019-11-03T09:34:20.000Z</time>
      </trkpt>
      <trkpt lat="47.29955" lon="-2.51802">
        <ele>229.39999389648</ele>
        <time>2019-11-03T09:34:21.000Z</time>
      </trkpt>
      <trkpt lat="47.29956" lon="-2.51804">
        <ele>229</ele>
        <time>2019-11-03T09:34:22.000Z</time>
      </trkpt>
      <trkpt lat="47.29958" lon="-2.51806">
        <ele>228.60000610352</ele>
        <time>2019-11-03T09:34:23.000Z</time>
      </trkpt>
      <trkpt lat="47.29959" lon="-2.51808">
        <ele>229</ele>
        <time>2019-11-03T09:34:24.000Z</time>
      </trkpt>
      <trkpt lat="47.2996" lon="-2.51812">
        <ele>229.39999389648</ele>
        <time>2019-11-03T09:34:25.000Z</time>
      </trkpt>
      <trkpt lat="47.29962" lon="-2.51817">
        <ele>229.80000305176</ele>
        <time>2019-11-03T09:34:26.000Z</time>
      </trkpt>
      <trkpt lat="47.29963" lon="-2.51824">
        <ele>230.19999694824</ele>
        <time>2019-11-03T09:34:27.000Z</time>
      </trkpt>
      <trkpt lat="47.29966" lon="-2.5183">
        <ele>229.39999389648</ele>
        <time>2019-11-03T09:34:28.000Z</time>
      </trkpt>
      <trkpt lat="47.29967" lon="-2.51838">
        <ele>228.80000305176</ele>
        <time>2019-11-03T09:34:29.000Z</time>
      </trkpt>
      <trkpt lat="47.29969" lon="-2.51842">
        <ele>228.39999389648</ele>
        <time>2019-11-03T09:34:30.000Z</time>
      </trkpt>
      <trkpt lat="47.2997" lon="-2.5185">
        <ele>228</ele>
        <time>2019-11-03T09:34:31.000Z</time>
      </trkpt>
      <trkpt lat="47.29973" lon="-2.51869">
        <ele>228</ele>
        <time>2019-11-03T09:34:34.000Z</time>
      </trkpt>
      <trkpt lat="47.29976" lon="-2.51894">
        <ele>228</ele>
        <time>2019-11-03T09:34:39.000Z</time>
      </trkpt>
      <trkpt lat="47.29984" lon="-2.51907">
        <ele>227.39999389648</ele>
        <time>2019-11-03T09:34:43.000Z</time>
      </trkpt>
      <trkpt lat="47.29986" lon="-2.51909">
        <ele>227</ele>
        <time>2019-11-03T09:34:44.000Z</time>
      </trkpt>
      <trkpt lat="47.29988" lon="-2.51913">
        <ele>226.39999389648</ele>
        <time>2019-11-03T09:34:45.000Z</time>
      </trkpt>
      <trkpt lat="47.2999" lon="-2.51916">
        <ele>226</ele>
        <time>2019-11-03T09:34:46.000Z</time>
      </trkpt>
      <trkpt lat="47.29992" lon="-2.51919">
        <ele>225.60000610352</ele>
        <time>2019-11-03T09:34:47.000Z</time>
      </trkpt>
      <trkpt lat="47.29997" lon="-2.51923">
        <ele>226</ele>
        <time>2019-11-03T09:34:49.000Z</time>
      </trkpt>
      <trkpt lat="47.29998" lon="-2.51926">
        <ele>226.39999389648</ele>
        <time>2019-11-03T09:34:50.000Z</time>
      </trkpt>
      <trkpt lat="47.29999" lon="-2.51928">
        <ele>226.80000305176</ele>
        <time>2019-11-03T09:34:51.000Z</time>
      </trkpt>
      <trkpt lat="47.30001" lon="-2.51933">
        <ele>227.19999694824</ele>
        <time>2019-11-03T09:34:52.000Z</time>
      </trkpt>
      <trkpt lat="47.30003" lon="-2.51937">
        <ele>226.39999389648</ele>
        <time>2019-11-03T09:34:53.000Z</time>
      </trkpt>
      <trkpt lat="47.30006" lon="-2.51941">
        <ele>226.19999694824</ele>
        <time>2019-11-03T09:34:54.000Z</time>
      </trkpt>
      <trkpt lat="47.30009" lon="-2.51945">
        <ele>225.80000305176</ele>
        <time>2019-11-03T09:34:55.000Z</time>
      </trkpt>
      <trkpt lat="47.30012" lon="-2.51949">
        <ele>225.39999389648</ele>
        <time>2019-11-03T09:34:56.000Z</time>
      </trkpt>
      <trkpt lat="47.30019" lon="-2.51958">
        <ele>225.39999389648</ele>
        <time>2019-11-03T09:34:59.000Z</time>
      </trkpt>
      <trkpt lat="47.30032" lon="-2.51978">
        <ele>225.39999389648</ele>
        <time>2019-11-03T09:35:05.000Z</time>
      </trkpt>
      <trkpt lat="47.30047" lon="-2.51999">
        <ele>225.39999389648</ele>
        <time>2019-11-03T09:35:11.000Z</time>
      </trkpt>
      <trkpt lat="47.30064" lon="-2.52024">
        <ele>225.39999389648</ele>
        <time>2019-11-03T09:35:17.000Z</time>
      </trkpt>
      <trkpt lat="47.30076" lon="-2.52049">
        <ele>225.39999389648</ele>
        <time>2019-11-03T09:35:23.000Z</time>
      </trkpt>
      <trkpt lat="47.30076" lon="-2.52065">
        <ele>225.39999389648</ele>
        <time>2019-11-03T09:35:26.000Z</time>
      </trkpt>
      <trkpt lat="47.30075" lon="-2.52071">
        <ele>225.39999389648</ele>
        <time>2019-11-03T09:35:27.000Z</time>
      </trkpt>
      <trkpt lat="47.30064" lon="-2.52077">
        <ele>225.39999389648</ele>
        <time>2019-11-03T09:35:30.000Z</time>
      </trkpt>
      <trkpt lat="47.30056" lon="-2.5208">
        <ele>225.39999389648</ele>
        <time>2019-11-03T09:35:32.000Z</time>
      </trkpt>
      <trkpt lat="47.30048" lon="-2.52082">
        <ele>225.80000305176</ele>
        <time>2019-11-03T09:35:34.000Z</time>
      </trkpt>
      <trkpt lat="47.30045" lon="-2.52082">
        <ele>226.19999694824</ele>
        <time>2019-11-03T09:35:35.000Z</time>
      </trkpt>
      <trkpt lat="47.30041" lon="-2.52084">
        <ele>226.60000610352</ele>
        <time>2019-11-03T09:35:36.000Z</time>
      </trkpt>
      <trkpt lat="47.30038" lon="-2.52086">
        <ele>227</ele>
        <time>2019-11-03T09:35:37.000Z</time>
      </trkpt>
      <trkpt lat="47.30036" lon="-2.52089">
        <ele>227.39999389648</ele>
        <time>2019-11-03T09:35:38.000Z</time>
      </trkpt>
      <trkpt lat="47.30034" lon="-2.52092">
        <ele>227.39999389648</ele>
        <time>2019-11-03T09:35:40.000Z</time>
      </trkpt>
      <trkpt lat="47.30034" lon="-2.52094">
        <ele>227</ele>
        <time>2019-11-03T09:35:41.000Z</time>
      </trkpt>
      <trkpt lat="47.30034" lon="-2.52096">
        <ele>226.19999694824</ele>
        <time>2019-11-03T09:35:42.000Z</time>
      </trkpt>
      <trkpt lat="47.30034" lon="-2.521">
        <ele>225.80000305176</ele>
        <time>2019-11-03T09:35:43.000Z</time>
      </trkpt>
      <trkpt lat="47.30035" lon="-2.52104">
        <ele>225.39999389648</ele>
        <time>2019-11-03T09:35:44.000Z</time>
      </trkpt>
      <trkpt lat="47.30036" lon="-2.52116">
        <ele>225.39999389648</ele>
        <time>2019-11-03T09:35:46.000Z</time>
      </trkpt>
      <trkpt lat="47.3004" lon="-2.52155">
        <ele>225.39999389648</ele>
        <time>2019-11-03T09:35:51.000Z</time>
      </trkpt>
      <trkpt lat="47.30044" lon="-2.52215">
        <ele>225.39999389648</ele>
        <time>2019-11-03T09:35:59.000Z</time>
      </trkpt>
      <trkpt lat="47.30046" lon="-2.52229">
        <ele>224.80000305176</ele>
        <time>2019-11-03T09:36:01.000Z</time>
      </trkpt>
      <trkpt lat="47.30046" lon="-2.52237">
        <ele>224.39999389648</ele>
        <time>2019-11-03T09:36:02.000Z</time>
      </trkpt>
      <trkpt lat="47.30046" lon="-2.52244">
        <ele>224</ele>
        <time>2019-11-03T09:36:03.000Z</time>
      </trkpt>
      <trkpt lat="47.30046" lon="-2.52251">
        <ele>223.39999389648</ele>
        <time>2019-11-03T09:36:04.000Z</time>
      </trkpt>
      <trkpt lat="47.30046" lon="-2.52259">
        <ele>223</ele>
        <time>2019-11-03T09:36:05.000Z</time>
      </trkpt>
      <trkpt lat="47.30047" lon="-2.52267">
        <ele>223</ele>
        <time>2019-11-03T09:36:06.000Z</time>
      </trkpt>
      <trkpt lat="47.3005" lon="-2.523">
        <ele>223</ele>
        <time>2019-11-03T09:36:10.000Z</time>
      </trkpt>
      <trkpt lat="47.30051" lon="-2.52319">
        <ele>223</ele>
        <time>2019-11-03T09:36:12.000Z</time>
      </trkpt>
      <trkpt lat="47.30053" lon="-2.52327">
        <ele>223</ele>
        <time>2019-11-03T09:36:13.000Z</time>
      </trkpt>
      <trkpt lat="47.30056" lon="-2.52345">
        <ele>223</ele>
        <time>2019-11-03T09:36:15.000Z</time>
      </trkpt>
      <trkpt lat="47.30063" lon="-2.52382">
        <ele>223</ele>
        <time>2019-11-03T09:36:19.000Z</time>
      </trkpt>
      <trkpt lat="47.30064" lon="-2.52392">
        <ele>223</ele>
        <time>2019-11-03T09:36:20.000Z</time>
      </trkpt>
      <trkpt lat="47.30069" lon="-2.52461">
        <ele>223</ele>
        <time>2019-11-03T09:36:27.000Z</time>
      </trkpt>
      <trkpt lat="47.30073" lon="-2.52488">
        <ele>223</ele>
        <time>2019-11-03T09:36:31.000Z</time>
      </trkpt>
      <trkpt lat="47.30083" lon="-2.5249">
        <ele>223</ele>
        <time>2019-11-03T09:36:34.000Z</time>
      </trkpt>
      <trkpt lat="47.30091" lon="-2.52487">
        <ele>223</ele>
        <time>2019-11-03T09:36:36.000Z</time>
      </trkpt>
      <trkpt lat="47.30106" lon="-2.52483">
        <ele>223</ele>
        <time>2019-11-03T09:36:40.000Z</time>
      </trkpt>
      <trkpt lat="47.30119" lon="-2.52477">
        <ele>223</ele>
        <time>2019-11-03T09:36:45.000Z</time>
      </trkpt>
      <trkpt lat="47.30139" lon="-2.52473">
        <ele>223</ele>
        <time>2019-11-03T09:36:51.000Z</time>
      </trkpt>
      <trkpt lat="47.30152" lon="-2.5247">
        <ele>223</ele>
        <time>2019-11-03T09:36:56.000Z</time>
      </trkpt>
      <trkpt lat="47.30166" lon="-2.52467">
        <ele>223</ele>
        <time>2019-11-03T09:37:02.000Z</time>
      </trkpt>
      <trkpt lat="47.30178" lon="-2.52468">
        <ele>223</ele>
        <time>2019-11-03T09:37:09.000Z</time>
      </trkpt>
      <trkpt lat="47.30182" lon="-2.52475">
        <ele>223</ele>
        <time>2019-11-03T09:37:15.000Z</time>
      </trkpt>
      <trkpt lat="47.30181" lon="-2.52475">
        <ele>223</ele>
        <time>2019-11-03T09:37:16.000Z</time>
      </trkpt>
      <trkpt lat="47.30181" lon="-2.52472">
        <ele>225.19999694824</ele>
        <time>2019-11-03T09:37:36.000Z</time>
      </trkpt>
      <trkpt lat="47.30178" lon="-2.5247">
        <ele>225.19999694824</ele>
        <time>2019-11-03T09:37:38.000Z</time>
      </trkpt>
      <trkpt lat="47.30173" lon="-2.5247">
        <ele>225.19999694824</ele>
        <time>2019-11-03T09:37:41.000Z</time>
      </trkpt>
      <trkpt lat="47.30168" lon="-2.52469">
        <ele>225.19999694824</ele>
        <time>2019-11-03T09:37:45.000Z</time>
      </trkpt>
      <trkpt lat="47.30164" lon="-2.52465">
        <ele>225.19999694824</ele>
        <time>2019-11-03T09:37:48.000Z</time>
      </trkpt>
      <trkpt lat="47.30164" lon="-2.52462">
        <ele>225.19999694824</ele>
        <time>2019-11-03T09:37:51.000Z</time>
      </trkpt>
      <trkpt lat="47.30169" lon="-2.52464">
        <ele>225.19999694824</ele>
        <time>2019-11-03T09:50:12.000Z</time>
      </trkpt>
      <trkpt lat="47.30165" lon="-2.52465">
        <ele>225.19999694824</ele>
        <time>2019-11-03T09:50:14.000Z</time>
      </trkpt>
      <trkpt lat="47.30153" lon="-2.52468">
        <ele>225.19999694824</ele>
        <time>2019-11-03T09:50:18.000Z</time>
      </trkpt>
      <trkpt lat="47.30138" lon="-2.52471">
        <ele>225.19999694824</ele>
        <time>2019-11-03T09:50:22.000Z</time>
      </trkpt>
      <trkpt lat="47.30135" lon="-2.52472">
        <ele>225.19999694824</ele>
        <time>2019-11-03T09:50:23.000Z</time>
      </trkpt>
      <trkpt lat="47.3012" lon="-2.52479">
        <ele>225.19999694824</ele>
        <time>2019-11-03T09:50:27.000Z</time>
      </trkpt>
      <trkpt lat="47.30118" lon="-2.52483">
        <ele>225.19999694824</ele>
        <time>2019-11-03T09:50:28.000Z</time>
      </trkpt>
      <trkpt lat="47.30118" lon="-2.52497">
        <ele>225.19999694824</ele>
        <time>2019-11-03T09:50:31.000Z</time>
      </trkpt>
      <trkpt lat="47.30118" lon="-2.52503">
        <ele>225.19999694824</ele>
        <time>2019-11-03T09:50:32.000Z</time>
      </trkpt>
      <trkpt lat="47.3012" lon="-2.52534">
        <ele>225.19999694824</ele>
        <time>2019-11-03T09:50:37.000Z</time>
      </trkpt>
      <trkpt lat="47.30115" lon="-2.52578">
        <ele>225.19999694824</ele>
        <time>2019-11-03T09:50:45.000Z</time>
      </trkpt>
      <trkpt lat="47.30112" lon="-2.52605">
        <ele>225.19999694824</ele>
        <time>2019-11-03T09:50:51.000Z</time>
      </trkpt>
      <trkpt lat="47.30107" lon="-2.52629">
        <ele>225.19999694824</ele>
        <time>2019-11-03T09:50:57.000Z</time>
      </trkpt>
      <trkpt lat="47.30104" lon="-2.5265">
        <ele>225.19999694824</ele>
        <time>2019-11-03T09:51:03.000Z</time>
      </trkpt>
      <trkpt lat="47.30097" lon="-2.52673">
        <ele>225.19999694824</ele>
        <time>2019-11-03T09:51:09.000Z</time>
      </trkpt>
      <trkpt lat="47.30097" lon="-2.52696">
        <ele>225.60000610352</ele>
        <time>2019-11-03T09:51:13.000Z</time>
      </trkpt>
      <trkpt lat="47.30097" lon="-2.52701">
        <ele>226</ele>
        <time>2019-11-03T09:51:14.000Z</time>
      </trkpt>
      <trkpt lat="47.30097" lon="-2.52707">
        <ele>226.39999389648</ele>
        <time>2019-11-03T09:51:15.000Z</time>
      </trkpt>
      <trkpt lat="47.30097" lon="-2.52713">
        <ele>227</ele>
        <time>2019-11-03T09:51:16.000Z</time>
      </trkpt>
      <trkpt lat="47.30097" lon="-2.52718">
        <ele>227.39999389648</ele>
        <time>2019-11-03T09:51:17.000Z</time>
      </trkpt>
      <trkpt lat="47.30096" lon="-2.5273">
        <ele>227.39999389648</ele>
        <time>2019-11-03T09:51:19.000Z</time>
      </trkpt>
      <trkpt lat="47.30096" lon="-2.52736">
        <ele>227.80000305176</ele>
        <time>2019-11-03T09:51:20.000Z</time>
      </trkpt>
      <trkpt lat="47.30095" lon="-2.52741">
        <ele>228.19999694824</ele>
        <time>2019-11-03T09:51:21.000Z</time>
      </trkpt>
      <trkpt lat="47.30095" lon="-2.52746">
        <ele>229</ele>
        <time>2019-11-03T09:51:22.000Z</time>
      </trkpt>
      <trkpt lat="47.30094" lon="-2.52751">
        <ele>229.39999389648</ele>
        <time>2019-11-03T09:51:23.000Z</time>
      </trkpt>
      <trkpt lat="47.30094" lon="-2.52755">
        <ele>230</ele>
        <time>2019-11-03T09:51:24.000Z</time>
      </trkpt>
      <trkpt lat="47.30093" lon="-2.5276">
        <ele>230.60000610352</ele>
        <time>2019-11-03T09:51:25.000Z</time>
      </trkpt>
      <trkpt lat="47.30093" lon="-2.52764">
        <ele>231.39999389648</ele>
        <time>2019-11-03T09:51:26.000Z</time>
      </trkpt>
      <trkpt lat="47.30092" lon="-2.52769">
        <ele>232</ele>
        <time>2019-11-03T09:51:27.000Z</time>
      </trkpt>
      <trkpt lat="47.30091" lon="-2.52774">
        <ele>231.19999694824</ele>
        <time>2019-11-03T09:51:28.000Z</time>
      </trkpt>
      <trkpt lat="47.3009" lon="-2.52779">
        <ele>230.39999389648</ele>
        <time>2019-11-03T09:51:29.000Z</time>
      </trkpt>
      <trkpt lat="47.30089" lon="-2.52785">
        <ele>229.39999389648</ele>
        <time>2019-11-03T09:51:30.000Z</time>
      </trkpt>
      <trkpt lat="47.30088" lon="-2.5279">
        <ele>228.19999694824</ele>
        <time>2019-11-03T09:51:31.000Z</time>
      </trkpt>
      <trkpt lat="47.30087" lon="-2.52796">
        <ele>227.19999694824</ele>
        <time>2019-11-03T09:51:32.000Z</time>
      </trkpt>
      <trkpt lat="47.30086" lon="-2.52801">
        <ele>226.19999694824</ele>
        <time>2019-11-03T09:51:33.000Z</time>
      </trkpt>
      <trkpt lat="47.30085" lon="-2.52807">
        <ele>225</ele>
        <time>2019-11-03T09:51:34.000Z</time>
      </trkpt>
      <trkpt lat="47.30084" lon="-2.52813">
        <ele>224</ele>
        <time>2019-11-03T09:51:35.000Z</time>
      </trkpt>
      <trkpt lat="47.30082" lon="-2.52829">
        <ele>224</ele>
        <time>2019-11-03T09:51:38.000Z</time>
      </trkpt>
      <trkpt lat="47.30075" lon="-2.52863">
        <ele>224</ele>
        <time>2019-11-03T09:51:44.000Z</time>
      </trkpt>
      <trkpt lat="47.30074" lon="-2.52869">
        <ele>224.39999389648</ele>
        <time>2019-11-03T09:51:45.000Z</time>
      </trkpt>
      <trkpt lat="47.30073" lon="-2.52875">
        <ele>225.19999694824</ele>
        <time>2019-11-03T09:51:46.000Z</time>
      </trkpt>
      <trkpt lat="47.30072" lon="-2.52882">
        <ele>225.60000610352</ele>
        <time>2019-11-03T09:51:47.000Z</time>
      </trkpt>
      <trkpt lat="47.30071" lon="-2.52888">
        <ele>226</ele>
        <time>2019-11-03T09:51:48.000Z</time>
      </trkpt>
      <trkpt lat="47.30069" lon="-2.52901">
        <ele>226</ele>
        <time>2019-11-03T09:51:50.000Z</time>
      </trkpt>
      <trkpt lat="47.30067" lon="-2.52907">
        <ele>226</ele>
        <time>2019-11-03T09:51:51.000Z</time>
      </trkpt>
      <trkpt lat="47.30059" lon="-2.52941">
        <ele>226</ele>
        <time>2019-11-03T09:51:57.000Z</time>
      </trkpt>
      <trkpt lat="47.30047" lon="-2.52991">
        <ele>226</ele>
        <time>2019-11-03T09:52:05.000Z</time>
      </trkpt>
      <trkpt lat="47.30043" lon="-2.53009">
        <ele>226</ele>
        <time>2019-11-03T09:52:08.000Z</time>
      </trkpt>
      <trkpt lat="47.3004" lon="-2.53029">
        <ele>226</ele>
        <time>2019-11-03T09:52:11.000Z</time>
      </trkpt>
      <trkpt lat="47.30038" lon="-2.53059">
        <ele>226</ele>
        <time>2019-11-03T09:52:16.000Z</time>
      </trkpt>
      <trkpt lat="47.30039" lon="-2.53098">
        <ele>226</ele>
        <time>2019-11-03T09:52:22.000Z</time>
      </trkpt>
      <trkpt lat="47.30043" lon="-2.53143">
        <ele>226</ele>
        <time>2019-11-03T09:52:29.000Z</time>
      </trkpt>
      <trkpt lat="47.30044" lon="-2.53195">
        <ele>226.60000610352</ele>
        <time>2019-11-03T09:52:36.000Z</time>
      </trkpt>
      <trkpt lat="47.30044" lon="-2.53202">
        <ele>227</ele>
        <time>2019-11-03T09:52:37.000Z</time>
      </trkpt>
      <trkpt lat="47.30045" lon="-2.5321">
        <ele>227.60000610352</ele>
        <time>2019-11-03T09:52:38.000Z</time>
      </trkpt>
      <trkpt lat="47.30045" lon="-2.53217">
        <ele>228.19999694824</ele>
        <time>2019-11-03T09:52:39.000Z</time>
      </trkpt>
      <trkpt lat="47.30045" lon="-2.53224">
        <ele>228.60000610352</ele>
        <time>2019-11-03T09:52:40.000Z</time>
      </trkpt>
      <trkpt lat="47.30047" lon="-2.53244">
        <ele>228.60000610352</ele>
        <time>2019-11-03T09:52:43.000Z</time>
      </trkpt>
      <trkpt lat="47.30048" lon="-2.53278">
        <ele>228.60000610352</ele>
        <time>2019-11-03T09:52:48.000Z</time>
      </trkpt>
      <trkpt lat="47.30048" lon="-2.53292">
        <ele>228.60000610352</ele>
        <time>2019-11-03T09:52:50.000Z</time>
      </trkpt>
      <trkpt lat="47.30046" lon="-2.53339">
        <ele>228.60000610352</ele>
        <time>2019-11-03T09:52:57.000Z</time>
      </trkpt>
      <trkpt lat="47.30044" lon="-2.53353">
        <ele>228.19999694824</ele>
        <time>2019-11-03T09:52:59.000Z</time>
      </trkpt>
      <trkpt lat="47.30043" lon="-2.53359">
        <ele>227.19999694824</ele>
        <time>2019-11-03T09:53:00.000Z</time>
      </trkpt>
      <trkpt lat="47.30042" lon="-2.53366">
        <ele>226.60000610352</ele>
        <time>2019-11-03T09:53:01.000Z</time>
      </trkpt>
      <trkpt lat="47.3004" lon="-2.53373">
        <ele>226.19999694824</ele>
        <time>2019-11-03T09:53:02.000Z</time>
      </trkpt>
      <trkpt lat="47.30036" lon="-2.53387">
        <ele>226.19999694824</ele>
        <time>2019-11-03T09:53:04.000Z</time>
      </trkpt>
      <trkpt lat="47.3003" lon="-2.53406">
        <ele>226.19999694824</ele>
        <time>2019-11-03T09:53:07.000Z</time>
      </trkpt>
      <trkpt lat="47.30024" lon="-2.53418">
        <ele>225.80000305176</ele>
        <time>2019-11-03T09:53:09.000Z</time>
      </trkpt>
      <trkpt lat="47.30021" lon="-2.53424">
        <ele>225.39999389648</ele>
        <time>2019-11-03T09:53:10.000Z</time>
      </trkpt>
      <trkpt lat="47.30018" lon="-2.5343">
        <ele>225</ele>
        <time>2019-11-03T09:53:11.000Z</time>
      </trkpt>
      <trkpt lat="47.30015" lon="-2.53436">
        <ele>224.60000610352</ele>
        <time>2019-11-03T09:53:12.000Z</time>
      </trkpt>
      <trkpt lat="47.30012" lon="-2.53442">
        <ele>224.19999694824</ele>
        <time>2019-11-03T09:53:13.000Z</time>
      </trkpt>
      <trkpt lat="47.29992" lon="-2.53478">
        <ele>224.19999694824</ele>
        <time>2019-11-03T09:53:19.000Z</time>
      </trkpt>
      <trkpt lat="47.29968" lon="-2.53521">
        <ele>224.19999694824</ele>
        <time>2019-11-03T09:53:26.000Z</time>
      </trkpt>
      <trkpt lat="47.29945" lon="-2.53558">
        <ele>224.19999694824</ele>
        <time>2019-11-03T09:53:33.000Z</time>
      </trkpt>
      <trkpt lat="47.29928" lon="-2.53592">
        <ele>224.19999694824</ele>
        <time>2019-11-03T09:53:39.000Z</time>
      </trkpt>
      <trkpt lat="47.29925" lon="-2.53598">
        <ele>224.19999694824</ele>
        <time>2019-11-03T09:53:40.000Z</time>
      </trkpt>
      <trkpt lat="47.29916" lon="-2.53624">
        <ele>224.19999694824</ele>
        <time>2019-11-03T09:53:44.000Z</time>
      </trkpt>
      <trkpt lat="47.29913" lon="-2.53637">
        <ele>224.19999694824</ele>
        <time>2019-11-03T09:53:46.000Z</time>
      </trkpt>
      <trkpt lat="47.2991" lon="-2.53657">
        <ele>224.19999694824</ele>
        <time>2019-11-03T09:53:49.000Z</time>
      </trkpt>
      <trkpt lat="47.29908" lon="-2.53704">
        <ele>224.19999694824</ele>
        <time>2019-11-03T09:53:56.000Z</time>
      </trkpt>
      <trkpt lat="47.29902" lon="-2.53723">
        <ele>224.19999694824</ele>
        <time>2019-11-03T09:54:00.000Z</time>
      </trkpt>
      <trkpt lat="47.29896" lon="-2.5373">
        <ele>224.19999694824</ele>
        <time>2019-11-03T09:54:02.000Z</time>
      </trkpt>
      <trkpt lat="47.29885" lon="-2.53741">
        <ele>224.19999694824</ele>
        <time>2019-11-03T09:54:05.000Z</time>
      </trkpt>
      <trkpt lat="47.29868" lon="-2.53767">
        <ele>224.19999694824</ele>
        <time>2019-11-03T09:54:10.000Z</time>
      </trkpt>
      <trkpt lat="47.29838" lon="-2.53801">
        <ele>224.19999694824</ele>
        <time>2019-11-03T09:54:17.000Z</time>
      </trkpt>
      <trkpt lat="47.29821" lon="-2.53835">
        <ele>224.19999694824</ele>
        <time>2019-11-03T09:54:22.000Z</time>
      </trkpt>
      <trkpt lat="47.29819" lon="-2.53843">
        <ele>224.19999694824</ele>
        <time>2019-11-03T09:54:23.000Z</time>
      </trkpt>
      <trkpt lat="47.29815" lon="-2.53867">
        <ele>224.19999694824</ele>
        <time>2019-11-03T09:54:26.000Z</time>
      </trkpt>
      <trkpt lat="47.29813" lon="-2.53883">
        <ele>224.19999694824</ele>
        <time>2019-11-03T09:54:28.000Z</time>
      </trkpt>
      <trkpt lat="47.29811" lon="-2.53891">
        <ele>224.19999694824</ele>
        <time>2019-11-03T09:54:29.000Z</time>
      </trkpt>
      <trkpt lat="47.29802" lon="-2.53912">
        <ele>224.19999694824</ele>
        <time>2019-11-03T09:54:32.000Z</time>
      </trkpt>
      <trkpt lat="47.29792" lon="-2.53929">
        <ele>224.19999694824</ele>
        <time>2019-11-03T09:54:35.000Z</time>
      </trkpt>
      <trkpt lat="47.29784" lon="-2.53937">
        <ele>224.19999694824</ele>
        <time>2019-11-03T09:54:37.000Z</time>
      </trkpt>
      <trkpt lat="47.29769" lon="-2.53944">
        <ele>224.19999694824</ele>
        <time>2019-11-03T09:54:40.000Z</time>
      </trkpt>
      <trkpt lat="47.2976" lon="-2.53944">
        <ele>224.19999694824</ele>
        <time>2019-11-03T09:54:42.000Z</time>
      </trkpt>
      <trkpt lat="47.29732" lon="-2.53945">
        <ele>224.19999694824</ele>
        <time>2019-11-03T09:54:48.000Z</time>
      </trkpt>
      <trkpt lat="47.29707" lon="-2.53945">
        <ele>224.19999694824</ele>
        <time>2019-11-03T09:54:54.000Z</time>
      </trkpt>
      <trkpt lat="47.29704" lon="-2.53942">
        <ele>224.19999694824</ele>
        <time>2019-11-03T09:54:55.000Z</time>
      </trkpt>
      <trkpt lat="47.29703" lon="-2.53933">
        <ele>224.19999694824</ele>
        <time>2019-11-03T09:54:57.000Z</time>
      </trkpt>
      <trkpt lat="47.29704" lon="-2.53907">
        <ele>224.19999694824</ele>
        <time>2019-11-03T09:55:02.000Z</time>
      </trkpt>
      <trkpt lat="47.29705" lon="-2.53901">
        <ele>224.19999694824</ele>
        <time>2019-11-03T09:55:03.000Z</time>
      </trkpt>
      <trkpt lat="47.29706" lon="-2.53877">
        <ele>224.60000610352</ele>
        <time>2019-11-03T09:55:07.000Z</time>
      </trkpt>
      <trkpt lat="47.29706" lon="-2.53871">
        <ele>225</ele>
        <time>2019-11-03T09:55:08.000Z</time>
      </trkpt>
      <trkpt lat="47.29706" lon="-2.53865">
        <ele>225.39999389648</ele>
        <time>2019-11-03T09:55:09.000Z</time>
      </trkpt>
      <trkpt lat="47.29706" lon="-2.53859">
        <ele>225.80000305176</ele>
        <time>2019-11-03T09:55:10.000Z</time>
      </trkpt>
      <trkpt lat="47.29706" lon="-2.53852">
        <ele>226.19999694824</ele>
        <time>2019-11-03T09:55:11.000Z</time>
      </trkpt>
      <trkpt lat="47.29707" lon="-2.53832">
        <ele>226.19999694824</ele>
        <time>2019-11-03T09:55:14.000Z</time>
      </trkpt>
      <trkpt lat="47.29703" lon="-2.53803">
        <ele>226.19999694824</ele>
        <time>2019-11-03T09:55:19.000Z</time>
      </trkpt>
      <trkpt lat="47.29689" lon="-2.53798">
        <ele>226.19999694824</ele>
        <time>2019-11-03T09:55:22.000Z</time>
      </trkpt>
      <trkpt lat="47.29667" lon="-2.53795">
        <ele>226.19999694824</ele>
        <time>2019-11-03T09:55:26.000Z</time>
      </trkpt>
      <trkpt lat="47.29656" lon="-2.53799">
        <ele>226.19999694824</ele>
        <time>2019-11-03T09:55:28.000Z</time>
      </trkpt>
      <trkpt lat="47.29646" lon="-2.53805">
        <ele>226.19999694824</ele>
        <time>2019-11-03T09:55:30.000Z</time>
      </trkpt>
      <trkpt lat="47.2963" lon="-2.53817">
        <ele>226.19999694824</ele>
        <time>2019-11-03T09:55:33.000Z</time>
      </trkpt>
      <trkpt lat="47.2962" lon="-2.53826">
        <ele>226.19999694824</ele>
        <time>2019-11-03T09:55:35.000Z</time>
      </trkpt>
      <trkpt lat="47.29605" lon="-2.53839">
        <ele>226.19999694824</ele>
        <time>2019-11-03T09:55:38.000Z</time>
      </trkpt>
      <trkpt lat="47.2958" lon="-2.53861">
        <ele>226.19999694824</ele>
        <time>2019-11-03T09:55:43.000Z</time>
      </trkpt>
      <trkpt lat="47.29571" lon="-2.53874">
        <ele>226.19999694824</ele>
        <time>2019-11-03T09:55:45.000Z</time>
      </trkpt>
      <trkpt lat="47.29565" lon="-2.53889">
        <ele>226.19999694824</ele>
        <time>2019-11-03T09:55:47.000Z</time>
      </trkpt>
      <trkpt lat="47.29559" lon="-2.53903">
        <ele>226.60000610352</ele>
        <time>2019-11-03T09:55:49.000Z</time>
      </trkpt>
      <trkpt lat="47.29556" lon="-2.5391">
        <ele>227</ele>
        <time>2019-11-03T09:55:50.000Z</time>
      </trkpt>
      <trkpt lat="47.29553" lon="-2.53916">
        <ele>227.39999389648</ele>
        <time>2019-11-03T09:55:51.000Z</time>
      </trkpt>
      <trkpt lat="47.29551" lon="-2.53923">
        <ele>228.19999694824</ele>
        <time>2019-11-03T09:55:52.000Z</time>
      </trkpt>
      <trkpt lat="47.29538" lon="-2.5395">
        <ele>228.19999694824</ele>
        <time>2019-11-03T09:55:56.000Z</time>
      </trkpt>
      <trkpt lat="47.29512" lon="-2.53991">
        <ele>228.19999694824</ele>
        <time>2019-11-03T09:56:02.000Z</time>
      </trkpt>
      <trkpt lat="47.29499" lon="-2.54009">
        <ele>227.80000305176</ele>
        <time>2019-11-03T09:56:05.000Z</time>
      </trkpt>
      <trkpt lat="47.29494" lon="-2.54015">
        <ele>227.39999389648</ele>
        <time>2019-11-03T09:56:06.000Z</time>
      </trkpt>
      <trkpt lat="47.2949" lon="-2.5402">
        <ele>227</ele>
        <time>2019-11-03T09:56:07.000Z</time>
      </trkpt>
      <trkpt lat="47.29486" lon="-2.54025">
        <ele>226.60000610352</ele>
        <time>2019-11-03T09:56:08.000Z</time>
      </trkpt>
      <trkpt lat="47.29481" lon="-2.54029">
        <ele>226.19999694824</ele>
        <time>2019-11-03T09:56:09.000Z</time>
      </trkpt>
      <trkpt lat="47.29462" lon="-2.54046">
        <ele>226.19999694824</ele>
        <time>2019-11-03T09:56:13.000Z</time>
      </trkpt>
      <trkpt lat="47.29435" lon="-2.54065">
        <ele>226.60000610352</ele>
        <time>2019-11-03T09:56:18.000Z</time>
      </trkpt>
      <trkpt lat="47.2943" lon="-2.54068">
        <ele>227.19999694824</ele>
        <time>2019-11-03T09:56:19.000Z</time>
      </trkpt>
      <trkpt lat="47.29426" lon="-2.54072">
        <ele>227.60000610352</ele>
        <time>2019-11-03T09:56:20.000Z</time>
      </trkpt>
      <trkpt lat="47.29421" lon="-2.54075">
        <ele>228.19999694824</ele>
        <time>2019-11-03T09:56:21.000Z</time>
      </trkpt>
      <trkpt lat="47.29417" lon="-2.54078">
        <ele>228.60000610352</ele>
        <time>2019-11-03T09:56:22.000Z</time>
      </trkpt>
      <trkpt lat="47.29414" lon="-2.54082">
        <ele>228.60000610352</ele>
        <time>2019-11-03T09:56:23.000Z</time>
      </trkpt>
      <trkpt lat="47.29412" lon="-2.54094">
        <ele>228.60000610352</ele>
        <time>2019-11-03T09:56:25.000Z</time>
      </trkpt>
      <trkpt lat="47.2942" lon="-2.54111">
        <ele>228.60000610352</ele>
        <time>2019-11-03T09:56:28.000Z</time>
      </trkpt>
      <trkpt lat="47.29423" lon="-2.54116">
        <ele>228.60000610352</ele>
        <time>2019-11-03T09:56:29.000Z</time>
      </trkpt>
      <trkpt lat="47.2943" lon="-2.54128">
        <ele>228.60000610352</ele>
        <time>2019-11-03T09:56:31.000Z</time>
      </trkpt>
      <trkpt lat="47.29437" lon="-2.54141">
        <ele>228.60000610352</ele>
        <time>2019-11-03T09:56:33.000Z</time>
      </trkpt>
      <trkpt lat="47.29461" lon="-2.5418">
        <ele>228.60000610352</ele>
        <time>2019-11-03T09:56:39.000Z</time>
      </trkpt>
      <trkpt lat="47.29487" lon="-2.54215">
        <ele>228.60000610352</ele>
        <time>2019-11-03T09:56:45.000Z</time>
      </trkpt>
      <trkpt lat="47.29512" lon="-2.54248">
        <ele>228.60000610352</ele>
        <time>2019-11-03T09:56:51.000Z</time>
      </trkpt>
      <trkpt lat="47.2954" lon="-2.54283">
        <ele>228.60000610352</ele>
        <time>2019-11-03T09:56:57.000Z</time>
      </trkpt>
      <trkpt lat="47.29563" lon="-2.54313">
        <ele>228.60000610352</ele>
        <time>2019-11-03T09:57:02.000Z</time>
      </trkpt>
      <trkpt lat="47.29589" lon="-2.54347">
        <ele>228.60000610352</ele>
        <time>2019-11-03T09:57:08.000Z</time>
      </trkpt>
      <trkpt lat="47.29597" lon="-2.54358">
        <ele>228.19999694824</ele>
        <time>2019-11-03T09:57:10.000Z</time>
      </trkpt>
      <trkpt lat="47.29602" lon="-2.54364">
        <ele>227.80000305176</ele>
        <time>2019-11-03T09:57:11.000Z</time>
      </trkpt>
      <trkpt lat="47.29606" lon="-2.5437">
        <ele>227.39999389648</ele>
        <time>2019-11-03T09:57:12.000Z</time>
      </trkpt>
      <trkpt lat="47.2961" lon="-2.54376">
        <ele>227</ele>
        <time>2019-11-03T09:57:13.000Z</time>
      </trkpt>
      <trkpt lat="47.29615" lon="-2.54381">
        <ele>226.60000610352</ele>
        <time>2019-11-03T09:57:14.000Z</time>
      </trkpt>
      <trkpt lat="47.29623" lon="-2.54392">
        <ele>226.60000610352</ele>
        <time>2019-11-03T09:57:16.000Z</time>
      </trkpt>
      <trkpt lat="47.29636" lon="-2.5441">
        <ele>226.60000610352</ele>
        <time>2019-11-03T09:57:19.000Z</time>
      </trkpt>
      <trkpt lat="47.29657" lon="-2.54438">
        <ele>226.60000610352</ele>
        <time>2019-11-03T09:57:24.000Z</time>
      </trkpt>
      <trkpt lat="47.29675" lon="-2.54461">
        <ele>226.60000610352</ele>
        <time>2019-11-03T09:57:29.000Z</time>
      </trkpt>
      <trkpt lat="47.29696" lon="-2.54489">
        <ele>226.60000610352</ele>
        <time>2019-11-03T09:57:36.000Z</time>
      </trkpt>
      <trkpt lat="47.29709" lon="-2.54508">
        <ele>226.60000610352</ele>
        <time>2019-11-03T09:57:42.000Z</time>
      </trkpt>
      <trkpt lat="47.29711" lon="-2.54515">
        <ele>226.60000610352</ele>
        <time>2019-11-03T09:57:44.000Z</time>
      </trkpt>
      <trkpt lat="47.2971" lon="-2.54523">
        <ele>226.60000610352</ele>
        <time>2019-11-03T09:57:46.000Z</time>
      </trkpt>
      <trkpt lat="47.29706" lon="-2.54535">
        <ele>226.60000610352</ele>
        <time>2019-11-03T09:57:49.000Z</time>
      </trkpt>
      <trkpt lat="47.29703" lon="-2.54538">
        <ele>226.19999694824</ele>
        <time>2019-11-03T09:57:50.000Z</time>
      </trkpt>
      <trkpt lat="47.297" lon="-2.54541">
        <ele>225.80000305176</ele>
        <time>2019-11-03T09:57:51.000Z</time>
      </trkpt>
      <trkpt lat="47.29697" lon="-2.54544">
        <ele>225.39999389648</ele>
        <time>2019-11-03T09:57:52.000Z</time>
      </trkpt>
      <trkpt lat="47.29693" lon="-2.54547">
        <ele>225</ele>
        <time>2019-11-03T09:57:53.000Z</time>
      </trkpt>
      <trkpt lat="47.2969" lon="-2.5455">
        <ele>224.60000610352</ele>
        <time>2019-11-03T09:57:54.000Z</time>
      </trkpt>
      <trkpt lat="47.29687" lon="-2.54553">
        <ele>224.60000610352</ele>
        <time>2019-11-03T09:57:55.000Z</time>
      </trkpt>
      <trkpt lat="47.29664" lon="-2.54574">
        <ele>224.60000610352</ele>
        <time>2019-11-03T09:58:01.000Z</time>
      </trkpt>
      <trkpt lat="47.29637" lon="-2.54591">
        <ele>224.60000610352</ele>
        <time>2019-11-03T09:58:07.000Z</time>
      </trkpt>
      <trkpt lat="47.29614" lon="-2.546">
        <ele>224.60000610352</ele>
        <time>2019-11-03T09:58:13.000Z</time>
      </trkpt>
      <trkpt lat="47.29596" lon="-2.54601">
        <ele>224.60000610352</ele>
        <time>2019-11-03T09:58:19.000Z</time>
      </trkpt>
      <trkpt lat="47.2958" lon="-2.54605">
        <ele>224.60000610352</ele>
        <time>2019-11-03T09:58:25.000Z</time>
      </trkpt>
      <trkpt lat="47.2957" lon="-2.54609">
        <ele>225</ele>
        <time>2019-11-03T09:58:29.000Z</time>
      </trkpt>
      <trkpt lat="47.29566" lon="-2.5461">
        <ele>225.60000610352</ele>
        <time>2019-11-03T09:58:30.000Z</time>
      </trkpt>
      <trkpt lat="47.29563" lon="-2.54611">
        <ele>226.19999694824</ele>
        <time>2019-11-03T09:58:31.000Z</time>
      </trkpt>
      <trkpt lat="47.2956" lon="-2.54612">
        <ele>227</ele>
        <time>2019-11-03T09:58:32.000Z</time>
      </trkpt>
      <trkpt lat="47.29557" lon="-2.54613">
        <ele>227.60000610352</ele>
        <time>2019-11-03T09:58:33.000Z</time>
      </trkpt>
      <trkpt lat="47.29554" lon="-2.54613">
        <ele>228.19999694824</ele>
        <time>2019-11-03T09:58:34.000Z</time>
      </trkpt>
      <trkpt lat="47.29551" lon="-2.54614">
        <ele>229</ele>
        <time>2019-11-03T09:58:35.000Z</time>
      </trkpt>
      <trkpt lat="47.29549" lon="-2.54613">
        <ele>229</ele>
        <time>2019-11-03T09:58:36.000Z</time>
      </trkpt>
      <trkpt lat="47.29546" lon="-2.54611">
        <ele>229</ele>
        <time>2019-11-03T09:58:37.000Z</time>
      </trkpt>
      <trkpt lat="47.29542" lon="-2.54606">
        <ele>228.60000610352</ele>
        <time>2019-11-03T09:58:39.000Z</time>
      </trkpt>
      <trkpt lat="47.2954" lon="-2.54605">
        <ele>228.19999694824</ele>
        <time>2019-11-03T09:58:40.000Z</time>
      </trkpt>
      <trkpt lat="47.29537" lon="-2.54605">
        <ele>227.80000305176</ele>
        <time>2019-11-03T09:58:41.000Z</time>
      </trkpt>
      <trkpt lat="47.29535" lon="-2.54604">
        <ele>227.19999694824</ele>
        <time>2019-11-03T09:58:42.000Z</time>
      </trkpt>
      <trkpt lat="47.29533" lon="-2.54604">
        <ele>226.80000305176</ele>
        <time>2019-11-03T09:58:43.000Z</time>
      </trkpt>
      <trkpt lat="47.29527" lon="-2.546">
        <ele>226.80000305176</ele>
        <time>2019-11-03T09:58:47.000Z</time>
      </trkpt>
      <trkpt lat="47.29527" lon="-2.54598">
        <ele>226.80000305176</ele>
        <time>2019-11-03T09:58:48.000Z</time>
      </trkpt>
      <trkpt lat="47.29524" lon="-2.5459">
        <ele>226.80000305176</ele>
        <time>2019-11-03T09:58:52.000Z</time>
      </trkpt>
      <trkpt lat="47.29521" lon="-2.54587">
        <ele>226.80000305176</ele>
        <time>2019-11-03T09:58:54.000Z</time>
      </trkpt>
      <trkpt lat="47.29507" lon="-2.54578">
        <ele>226.80000305176</ele>
        <time>2019-11-03T09:59:01.000Z</time>
      </trkpt>
      <trkpt lat="47.29498" lon="-2.54572">
        <ele>226.39999389648</ele>
        <time>2019-11-03T09:59:05.000Z</time>
      </trkpt>
      <trkpt lat="47.29496" lon="-2.54571">
        <ele>226</ele>
        <time>2019-11-03T09:59:06.000Z</time>
      </trkpt>
      <trkpt lat="47.29495" lon="-2.54569">
        <ele>225.60000610352</ele>
        <time>2019-11-03T09:59:07.000Z</time>
      </trkpt>
      <trkpt lat="47.29494" lon="-2.54566">
        <ele>225.19999694824</ele>
        <time>2019-11-03T09:59:08.000Z</time>
      </trkpt>
      <trkpt lat="47.29494" lon="-2.54564">
        <ele>224.80000305176</ele>
        <time>2019-11-03T09:59:09.000Z</time>
      </trkpt>
      <trkpt lat="47.29492" lon="-2.54552">
        <ele>224.80000305176</ele>
        <time>2019-11-03T09:59:14.000Z</time>
      </trkpt>
      <trkpt lat="47.29491" lon="-2.54536">
        <ele>224.80000305176</ele>
        <time>2019-11-03T09:59:20.000Z</time>
      </trkpt>
      <trkpt lat="47.29493" lon="-2.54526">
        <ele>224.80000305176</ele>
        <time>2019-11-03T09:59:24.000Z</time>
      </trkpt>
      <trkpt lat="47.29493" lon="-2.54524">
        <ele>224.80000305176</ele>
        <time>2019-11-03T09:59:25.000Z</time>
      </trkpt>
      <trkpt lat="47.29492" lon="-2.54516">
        <ele>225.19999694824</ele>
        <time>2019-11-03T09:59:27.000Z</time>
      </trkpt>
      <trkpt lat="47.29492" lon="-2.54512">
        <ele>225.60000610352</ele>
        <time>2019-11-03T09:59:28.000Z</time>
      </trkpt>
      <trkpt lat="47.29492" lon="-2.54508">
        <ele>226</ele>
        <time>2019-11-03T09:59:29.000Z</time>
      </trkpt>
      <trkpt lat="47.29492" lon="-2.54504">
        <ele>226.39999389648</ele>
        <time>2019-11-03T09:59:30.000Z</time>
      </trkpt>
      <trkpt lat="47.29492" lon="-2.54499">
        <ele>226.80000305176</ele>
        <time>2019-11-03T09:59:31.000Z</time>
      </trkpt>
      <trkpt lat="47.29492" lon="-2.54488">
        <ele>226.80000305176</ele>
        <time>2019-11-03T09:59:33.000Z</time>
      </trkpt>
      <trkpt lat="47.29491" lon="-2.54478">
        <ele>226.80000305176</ele>
        <time>2019-11-03T09:59:35.000Z</time>
      </trkpt>
      <trkpt lat="47.29488" lon="-2.54462">
        <ele>226.80000305176</ele>
        <time>2019-11-03T09:59:42.000Z</time>
      </trkpt>
      <trkpt lat="47.29484" lon="-2.5444">
        <ele>226.80000305176</ele>
        <time>2019-11-03T09:59:50.000Z</time>
      </trkpt>
      <trkpt lat="47.2948" lon="-2.54418">
        <ele>226.80000305176</ele>
        <time>2019-11-03T09:59:56.000Z</time>
      </trkpt>
      <trkpt lat="47.29475" lon="-2.54389">
        <ele>226.80000305176</ele>
        <time>2019-11-03T10:00:01.000Z</time>
      </trkpt>
      <trkpt lat="47.29467" lon="-2.5435">
        <ele>226.80000305176</ele>
        <time>2019-11-03T10:00:07.000Z</time>
      </trkpt>
      <trkpt lat="47.29464" lon="-2.54337">
        <ele>226.80000305176</ele>
        <time>2019-11-03T10:00:09.000Z</time>
      </trkpt>
      <trkpt lat="47.2946" lon="-2.54316">
        <ele>226.80000305176</ele>
        <time>2019-11-03T10:00:12.000Z</time>
      </trkpt>
      <trkpt lat="47.29457" lon="-2.54302">
        <ele>226.80000305176</ele>
        <time>2019-11-03T10:00:14.000Z</time>
      </trkpt>
      <trkpt lat="47.29453" lon="-2.54283">
        <ele>226.80000305176</ele>
        <time>2019-11-03T10:00:17.000Z</time>
      </trkpt>
      <trkpt lat="47.29448" lon="-2.54261">
        <ele>227.19999694824</ele>
        <time>2019-11-03T10:00:21.000Z</time>
      </trkpt>
      <trkpt lat="47.29447" lon="-2.54256">
        <ele>227.60000610352</ele>
        <time>2019-11-03T10:00:22.000Z</time>
      </trkpt>
      <trkpt lat="47.29448" lon="-2.54251">
        <ele>228</ele>
        <time>2019-11-03T10:00:23.000Z</time>
      </trkpt>
      <trkpt lat="47.29449" lon="-2.54246">
        <ele>228.39999389648</ele>
        <time>2019-11-03T10:00:24.000Z</time>
      </trkpt>
      <trkpt lat="47.29453" lon="-2.54242">
        <ele>228.80000305176</ele>
        <time>2019-11-03T10:00:25.000Z</time>
      </trkpt>
      <trkpt lat="47.29457" lon="-2.54239">
        <ele>228.80000305176</ele>
        <time>2019-11-03T10:00:26.000Z</time>
      </trkpt>
      <trkpt lat="47.29461" lon="-2.54236">
        <ele>228.80000305176</ele>
        <time>2019-11-03T10:00:27.000Z</time>
      </trkpt>
      <trkpt lat="47.29481" lon="-2.54221">
        <ele>228.80000305176</ele>
        <time>2019-11-03T10:00:33.000Z</time>
      </trkpt>
      <trkpt lat="47.29482" lon="-2.54218">
        <ele>228.80000305176</ele>
        <time>2019-11-03T10:00:34.000Z</time>
      </trkpt>
      <trkpt lat="47.29483" lon="-2.5421">
        <ele>228.80000305176</ele>
        <time>2019-11-03T10:00:36.000Z</time>
      </trkpt>
      <trkpt lat="47.29477" lon="-2.54204">
        <ele>228.80000305176</ele>
        <time>2019-11-03T10:00:38.000Z</time>
      </trkpt>
      <trkpt lat="47.29474" lon="-2.54199">
        <ele>228.80000305176</ele>
        <time>2019-11-03T10:00:39.000Z</time>
      </trkpt>
      <trkpt lat="47.29456" lon="-2.54173">
        <ele>228.80000305176</ele>
        <time>2019-11-03T10:00:44.000Z</time>
      </trkpt>
      <trkpt lat="47.29426" lon="-2.54125">
        <ele>228.80000305176</ele>
        <time>2019-11-03T10:00:52.000Z</time>
      </trkpt>
      <trkpt lat="47.29417" lon="-2.54109">
        <ele>228.80000305176</ele>
        <time>2019-11-03T10:00:55.000Z</time>
      </trkpt>
      <trkpt lat="47.29409" lon="-2.54108">
        <ele>228.80000305176</ele>
        <time>2019-11-03T10:00:57.000Z</time>
      </trkpt>
      <trkpt lat="47.29405" lon="-2.54109">
        <ele>228.39999389648</ele>
        <time>2019-11-03T10:00:58.000Z</time>
      </trkpt>
      <trkpt lat="47.29402" lon="-2.54112">
        <ele>228</ele>
        <time>2019-11-03T10:00:59.000Z</time>
      </trkpt>
      <trkpt lat="47.29401" lon="-2.54117">
        <ele>227.60000610352</ele>
        <time>2019-11-03T10:01:00.000Z</time>
      </trkpt>
      <trkpt lat="47.29402" lon="-2.54122">
        <ele>227.19999694824</ele>
        <time>2019-11-03T10:01:01.000Z</time>
      </trkpt>
      <trkpt lat="47.294" lon="-2.54126">
        <ele>226.80000305176</ele>
        <time>2019-11-03T10:01:02.000Z</time>
      </trkpt>
      <trkpt lat="47.29396" lon="-2.5413">
        <ele>226.80000305176</ele>
        <time>2019-11-03T10:01:03.000Z</time>
      </trkpt>
      <trkpt lat="47.29378" lon="-2.54146">
        <ele>226.80000305176</ele>
        <time>2019-11-03T10:01:07.000Z</time>
      </trkpt>
      <trkpt lat="47.29367" lon="-2.54154">
        <ele>227.19999694824</ele>
        <time>2019-11-03T10:01:09.000Z</time>
      </trkpt>
      <trkpt lat="47.29362" lon="-2.54158">
        <ele>227.60000610352</ele>
        <time>2019-11-03T10:01:10.000Z</time>
      </trkpt>
      <trkpt lat="47.29357" lon="-2.54162">
        <ele>228.19999694824</ele>
        <time>2019-11-03T10:01:11.000Z</time>
      </trkpt>
      <trkpt lat="47.29351" lon="-2.54166">
        <ele>228.60000610352</ele>
        <time>2019-11-03T10:01:12.000Z</time>
      </trkpt>
      <trkpt lat="47.29346" lon="-2.54171">
        <ele>229</ele>
        <time>2019-11-03T10:01:13.000Z</time>
      </trkpt>
      <trkpt lat="47.2934" lon="-2.54175">
        <ele>229</ele>
        <time>2019-11-03T10:01:14.000Z</time>
      </trkpt>
      <trkpt lat="47.2931" lon="-2.542">
        <ele>229</ele>
        <time>2019-11-03T10:01:20.000Z</time>
      </trkpt>
      <trkpt lat="47.29282" lon="-2.54222">
        <ele>229</ele>
        <time>2019-11-03T10:01:25.000Z</time>
      </trkpt>
      <trkpt lat="47.29255" lon="-2.54243">
        <ele>229</ele>
        <time>2019-11-03T10:01:30.000Z</time>
      </trkpt>
      <trkpt lat="47.2925" lon="-2.54246">
        <ele>229</ele>
        <time>2019-11-03T10:01:31.000Z</time>
      </trkpt>
      <trkpt lat="47.29234" lon="-2.54257">
        <ele>229</ele>
        <time>2019-11-03T10:01:34.000Z</time>
      </trkpt>
      <trkpt lat="47.29225" lon="-2.54266">
        <ele>229</ele>
        <time>2019-11-03T10:01:36.000Z</time>
      </trkpt>
      <trkpt lat="47.29208" lon="-2.5428">
        <ele>228.39999389648</ele>
        <time>2019-11-03T10:01:40.000Z</time>
      </trkpt>
      <trkpt lat="47.29203" lon="-2.54281">
        <ele>228</ele>
        <time>2019-11-03T10:01:41.000Z</time>
      </trkpt>
      <trkpt lat="47.29199" lon="-2.54284">
        <ele>227.60000610352</ele>
        <time>2019-11-03T10:01:42.000Z</time>
      </trkpt>
      <trkpt lat="47.29194" lon="-2.54287">
        <ele>227</ele>
        <time>2019-11-03T10:01:43.000Z</time>
      </trkpt>
      <trkpt lat="47.29188" lon="-2.54288">
        <ele>226.60000610352</ele>
        <time>2019-11-03T10:01:44.000Z</time>
      </trkpt>
      <trkpt lat="47.29182" lon="-2.54288">
        <ele>226.60000610352</ele>
        <time>2019-11-03T10:01:45.000Z</time>
      </trkpt>
      <trkpt lat="47.29156" lon="-2.54291">
        <ele>226.60000610352</ele>
        <time>2019-11-03T10:01:50.000Z</time>
      </trkpt>
      <trkpt lat="47.29151" lon="-2.54292">
        <ele>226.60000610352</ele>
        <time>2019-11-03T10:01:51.000Z</time>
      </trkpt>
      <trkpt lat="47.29131" lon="-2.54295">
        <ele>226.60000610352</ele>
        <time>2019-11-03T10:01:55.000Z</time>
      </trkpt>
      <trkpt lat="47.29127" lon="-2.54294">
        <ele>226.60000610352</ele>
        <time>2019-11-03T10:01:56.000Z</time>
      </trkpt>
      <trkpt lat="47.29101" lon="-2.54288">
        <ele>226.60000610352</ele>
        <time>2019-11-03T10:02:02.000Z</time>
      </trkpt>
      <trkpt lat="47.29081" lon="-2.54284">
        <ele>226.60000610352</ele>
        <time>2019-11-03T10:02:08.000Z</time>
      </trkpt>
      <trkpt lat="47.29064" lon="-2.54276">
        <ele>226.60000610352</ele>
        <time>2019-11-03T10:02:14.000Z</time>
      </trkpt>
      <trkpt lat="47.29053" lon="-2.54266">
        <ele>226.60000610352</ele>
        <time>2019-11-03T10:02:19.000Z</time>
      </trkpt>
      <trkpt lat="47.29048" lon="-2.54245">
        <ele>226.60000610352</ele>
        <time>2019-11-03T10:02:23.000Z</time>
      </trkpt>
      <trkpt lat="47.29048" lon="-2.54239">
        <ele>226.60000610352</ele>
        <time>2019-11-03T10:02:24.000Z</time>
      </trkpt>
      <trkpt lat="47.29051" lon="-2.54207">
        <ele>226.60000610352</ele>
        <time>2019-11-03T10:02:29.000Z</time>
      </trkpt>
      <trkpt lat="47.29053" lon="-2.542">
        <ele>226.60000610352</ele>
        <time>2019-11-03T10:02:30.000Z</time>
      </trkpt>
      <trkpt lat="47.29067" lon="-2.54162">
        <ele>226.60000610352</ele>
        <time>2019-11-03T10:02:36.000Z</time>
      </trkpt>
      <trkpt lat="47.29069" lon="-2.54148">
        <ele>226.60000610352</ele>
        <time>2019-11-03T10:02:38.000Z</time>
      </trkpt>
      <trkpt lat="47.29069" lon="-2.54127">
        <ele>226.60000610352</ele>
        <time>2019-11-03T10:02:41.000Z</time>
      </trkpt>
      <trkpt lat="47.29068" lon="-2.5412">
        <ele>226.60000610352</ele>
        <time>2019-11-03T10:02:42.000Z</time>
      </trkpt>
      <trkpt lat="47.29069" lon="-2.541">
        <ele>226.60000610352</ele>
        <time>2019-11-03T10:02:45.000Z</time>
      </trkpt>
      <trkpt lat="47.29072" lon="-2.54087">
        <ele>226.60000610352</ele>
        <time>2019-11-03T10:02:47.000Z</time>
      </trkpt>
      <trkpt lat="47.29082" lon="-2.54065">
        <ele>226.60000610352</ele>
        <time>2019-11-03T10:02:50.000Z</time>
      </trkpt>
      <trkpt lat="47.29084" lon="-2.54057">
        <ele>226.60000610352</ele>
        <time>2019-11-03T10:02:51.000Z</time>
      </trkpt>
      <trkpt lat="47.29101" lon="-2.54011">
        <ele>226.60000610352</ele>
        <time>2019-11-03T10:02:57.000Z</time>
      </trkpt>
      <trkpt lat="47.29116" lon="-2.53969">
        <ele>226.60000610352</ele>
        <time>2019-11-03T10:03:03.000Z</time>
      </trkpt>
      <trkpt lat="47.29117" lon="-2.53962">
        <ele>226.60000610352</ele>
        <time>2019-11-03T10:03:04.000Z</time>
      </trkpt>
      <trkpt lat="47.29118" lon="-2.5394">
        <ele>226.60000610352</ele>
        <time>2019-11-03T10:03:07.000Z</time>
      </trkpt>
      <trkpt lat="47.29116" lon="-2.53918">
        <ele>227</ele>
        <time>2019-11-03T10:03:10.000Z</time>
      </trkpt>
      <trkpt lat="47.29115" lon="-2.53911">
        <ele>227.39999389648</ele>
        <time>2019-11-03T10:03:11.000Z</time>
      </trkpt>
      <trkpt lat="47.29113" lon="-2.53903">
        <ele>228.39999389648</ele>
        <time>2019-11-03T10:03:12.000Z</time>
      </trkpt>
      <trkpt lat="47.29112" lon="-2.53896">
        <ele>228.80000305176</ele>
        <time>2019-11-03T10:03:13.000Z</time>
      </trkpt>
      <trkpt lat="47.29104" lon="-2.53862">
        <ele>228.80000305176</ele>
        <time>2019-11-03T10:03:18.000Z</time>
      </trkpt>
      <trkpt lat="47.291" lon="-2.53841">
        <ele>229.19999694824</ele>
        <time>2019-11-03T10:03:21.000Z</time>
      </trkpt>
      <trkpt lat="47.29101" lon="-2.53834">
        <ele>229.60000610352</ele>
        <time>2019-11-03T10:03:22.000Z</time>
      </trkpt>
      <trkpt lat="47.291" lon="-2.53827">
        <ele>230</ele>
        <time>2019-11-03T10:03:23.000Z</time>
      </trkpt>
      <trkpt lat="47.29099" lon="-2.5382">
        <ele>230.39999389648</ele>
        <time>2019-11-03T10:03:24.000Z</time>
      </trkpt>
      <trkpt lat="47.29097" lon="-2.53813">
        <ele>230.80000305176</ele>
        <time>2019-11-03T10:03:25.000Z</time>
      </trkpt>
      <trkpt lat="47.29096" lon="-2.53805">
        <ele>230.80000305176</ele>
        <time>2019-11-03T10:03:26.000Z</time>
      </trkpt>
      <trkpt lat="47.29094" lon="-2.53798">
        <ele>230.80000305176</ele>
        <time>2019-11-03T10:03:27.000Z</time>
      </trkpt>
      <trkpt lat="47.29091" lon="-2.53781">
        <ele>230.80000305176</ele>
        <time>2019-11-03T10:03:29.000Z</time>
      </trkpt>
      <trkpt lat="47.29092" lon="-2.53764">
        <ele>230.80000305176</ele>
        <time>2019-11-03T10:03:31.000Z</time>
      </trkpt>
      <trkpt lat="47.29093" lon="-2.53754">
        <ele>230.80000305176</ele>
        <time>2019-11-03T10:03:32.000Z</time>
      </trkpt>
      <trkpt lat="47.29096" lon="-2.5372">
        <ele>230.80000305176</ele>
        <time>2019-11-03T10:03:36.000Z</time>
      </trkpt>
      <trkpt lat="47.29098" lon="-2.53674">
        <ele>230.80000305176</ele>
        <time>2019-11-03T10:03:41.000Z</time>
      </trkpt>
      <trkpt lat="47.291" lon="-2.53655">
        <ele>230.80000305176</ele>
        <time>2019-11-03T10:03:43.000Z</time>
      </trkpt>
      <trkpt lat="47.29101" lon="-2.5363">
        <ele>230.80000305176</ele>
        <time>2019-11-03T10:03:46.000Z</time>
      </trkpt>
      <trkpt lat="47.29101" lon="-2.53614">
        <ele>230.80000305176</ele>
        <time>2019-11-03T10:03:48.000Z</time>
      </trkpt>
      <trkpt lat="47.29102" lon="-2.53587">
        <ele>230.80000305176</ele>
        <time>2019-11-03T10:03:51.000Z</time>
      </trkpt>
      <trkpt lat="47.29104" lon="-2.53557">
        <ele>230.80000305176</ele>
        <time>2019-11-03T10:03:55.000Z</time>
      </trkpt>
      <trkpt lat="47.29105" lon="-2.53551">
        <ele>230.80000305176</ele>
        <time>2019-11-03T10:03:56.000Z</time>
      </trkpt>
      <trkpt lat="47.29113" lon="-2.53538">
        <ele>230.80000305176</ele>
        <time>2019-11-03T10:03:59.000Z</time>
      </trkpt>
      <trkpt lat="47.29121" lon="-2.53531">
        <ele>230.80000305176</ele>
        <time>2019-11-03T10:04:01.000Z</time>
      </trkpt>
      <trkpt lat="47.29131" lon="-2.53523">
        <ele>230.80000305176</ele>
        <time>2019-11-03T10:04:03.000Z</time>
      </trkpt>
      <trkpt lat="47.29135" lon="-2.53518">
        <ele>230.80000305176</ele>
        <time>2019-11-03T10:04:04.000Z</time>
      </trkpt>
      <trkpt lat="47.29143" lon="-2.53499">
        <ele>230.80000305176</ele>
        <time>2019-11-03T10:04:07.000Z</time>
      </trkpt>
      <trkpt lat="47.2914" lon="-2.53476">
        <ele>230.80000305176</ele>
        <time>2019-11-03T10:04:10.000Z</time>
      </trkpt>
      <trkpt lat="47.2914" lon="-2.53469">
        <ele>230.80000305176</ele>
        <time>2019-11-03T10:04:11.000Z</time>
      </trkpt>
      <trkpt lat="47.29136" lon="-2.53419">
        <ele>230.80000305176</ele>
        <time>2019-11-03T10:04:18.000Z</time>
      </trkpt>
      <trkpt lat="47.29132" lon="-2.53365">
        <ele>230.80000305176</ele>
        <time>2019-11-03T10:04:25.000Z</time>
      </trkpt>
      <trkpt lat="47.29129" lon="-2.5332">
        <ele>230.80000305176</ele>
        <time>2019-11-03T10:04:31.000Z</time>
      </trkpt>
      <trkpt lat="47.29125" lon="-2.53291">
        <ele>230.80000305176</ele>
        <time>2019-11-03T10:04:35.000Z</time>
      </trkpt>
      <trkpt lat="47.29121" lon="-2.53278">
        <ele>231.19999694824</ele>
        <time>2019-11-03T10:04:37.000Z</time>
      </trkpt>
      <trkpt lat="47.29119" lon="-2.53271">
        <ele>231.60000610352</ele>
        <time>2019-11-03T10:04:38.000Z</time>
      </trkpt>
      <trkpt lat="47.29118" lon="-2.53263">
        <ele>232</ele>
        <time>2019-11-03T10:04:39.000Z</time>
      </trkpt>
      <trkpt lat="47.29116" lon="-2.53255">
        <ele>232.39999389648</ele>
        <time>2019-11-03T10:04:40.000Z</time>
      </trkpt>
      <trkpt lat="47.29114" lon="-2.53247">
        <ele>232.80000305176</ele>
        <time>2019-11-03T10:04:41.000Z</time>
      </trkpt>
      <trkpt lat="47.29113" lon="-2.53239">
        <ele>232.80000305176</ele>
        <time>2019-11-03T10:04:42.000Z</time>
      </trkpt>
      <trkpt lat="47.29103" lon="-2.53194">
        <ele>232.80000305176</ele>
        <time>2019-11-03T10:04:47.000Z</time>
      </trkpt>
      <trkpt lat="47.29094" lon="-2.53151">
        <ele>232.80000305176</ele>
        <time>2019-11-03T10:04:52.000Z</time>
      </trkpt>
      <trkpt lat="47.2909" lon="-2.53143">
        <ele>232.80000305176</ele>
        <time>2019-11-03T10:04:53.000Z</time>
      </trkpt>
      <trkpt lat="47.2908" lon="-2.5312">
        <ele>232.80000305176</ele>
        <time>2019-11-03T10:04:56.000Z</time>
      </trkpt>
      <trkpt lat="47.29076" lon="-2.53112">
        <ele>232.80000305176</ele>
        <time>2019-11-03T10:04:57.000Z</time>
      </trkpt>
      <trkpt lat="47.29052" lon="-2.53057">
        <ele>232.80000305176</ele>
        <time>2019-11-03T10:05:04.000Z</time>
      </trkpt>
      <trkpt lat="47.2905" lon="-2.53049">
        <ele>232.80000305176</ele>
        <time>2019-11-03T10:05:05.000Z</time>
      </trkpt>
      <trkpt lat="47.2904" lon="-2.53027">
        <ele>232.80000305176</ele>
        <time>2019-11-03T10:05:08.000Z</time>
      </trkpt>
      <trkpt lat="47.29016" lon="-2.5298">
        <ele>232.80000305176</ele>
        <time>2019-11-03T10:05:15.000Z</time>
      </trkpt>
      <trkpt lat="47.29014" lon="-2.52972">
        <ele>233.80000305176</ele>
        <time>2019-11-03T10:05:16.000Z</time>
      </trkpt>
      <trkpt lat="47.29011" lon="-2.52965">
        <ele>234.19999694824</ele>
        <time>2019-11-03T10:05:17.000Z</time>
      </trkpt>
      <trkpt lat="47.29009" lon="-2.52958">
        <ele>234.60000610352</ele>
        <time>2019-11-03T10:05:18.000Z</time>
      </trkpt>
      <trkpt lat="47.29006" lon="-2.52952">
        <ele>235</ele>
        <time>2019-11-03T10:05:19.000Z</time>
      </trkpt>
      <trkpt lat="47.29004" lon="-2.52946">
        <ele>235</ele>
        <time>2019-11-03T10:05:20.000Z</time>
      </trkpt>
      <trkpt lat="47.28999" lon="-2.52925">
        <ele>235</ele>
        <time>2019-11-03T10:05:25.000Z</time>
      </trkpt>
      <trkpt lat="47.28994" lon="-2.52909">
        <ele>235</ele>
        <time>2019-11-03T10:05:30.000Z</time>
      </trkpt>
      <trkpt lat="47.28986" lon="-2.52886">
        <ele>235</ele>
        <time>2019-11-03T10:05:36.000Z</time>
      </trkpt>
      <trkpt lat="47.28981" lon="-2.5286">
        <ele>235</ele>
        <time>2019-11-03T10:05:41.000Z</time>
      </trkpt>
      <trkpt lat="47.28978" lon="-2.52858">
        <ele>235.60000610352</ele>
        <time>2019-11-03T10:05:42.000Z</time>
      </trkpt>
      <trkpt lat="47.28975" lon="-2.52858">
        <ele>236</ele>
        <time>2019-11-03T10:05:43.000Z</time>
      </trkpt>
      <trkpt lat="47.28971" lon="-2.5286">
        <ele>236.39999389648</ele>
        <time>2019-11-03T10:05:44.000Z</time>
      </trkpt>
      <trkpt lat="47.28968" lon="-2.52863">
        <ele>236.80000305176</ele>
        <time>2019-11-03T10:05:45.000Z</time>
      </trkpt>
      <trkpt lat="47.28965" lon="-2.52867">
        <ele>237.39999389648</ele>
        <time>2019-11-03T10:05:46.000Z</time>
      </trkpt>
      <trkpt lat="47.2896" lon="-2.52877">
        <ele>237.39999389648</ele>
        <time>2019-11-03T10:05:48.000Z</time>
      </trkpt>
      <trkpt lat="47.28934" lon="-2.52919">
        <ele>237.39999389648</ele>
        <time>2019-11-03T10:05:56.000Z</time>
      </trkpt>
      <trkpt lat="47.28917" lon="-2.52948">
        <ele>237.39999389648</ele>
        <time>2019-11-03T10:06:01.000Z</time>
      </trkpt>
      <trkpt lat="47.28914" lon="-2.52953">
        <ele>237.39999389648</ele>
        <time>2019-11-03T10:06:02.000Z</time>
      </trkpt>
      <trkpt lat="47.28908" lon="-2.52962">
        <ele>237.39999389648</ele>
        <time>2019-11-03T10:06:04.000Z</time>
      </trkpt>
      <trkpt lat="47.28905" lon="-2.52968">
        <ele>238.19999694824</ele>
        <time>2019-11-03T10:06:05.000Z</time>
      </trkpt>
      <trkpt lat="47.28901" lon="-2.52973">
        <ele>238.80000305176</ele>
        <time>2019-11-03T10:06:06.000Z</time>
      </trkpt>
      <trkpt lat="47.28897" lon="-2.52979">
        <ele>239.19999694824</ele>
        <time>2019-11-03T10:06:07.000Z</time>
      </trkpt>
      <trkpt lat="47.28894" lon="-2.52984">
        <ele>239.80000305176</ele>
        <time>2019-11-03T10:06:08.000Z</time>
      </trkpt>
      <trkpt lat="47.2889" lon="-2.52988">
        <ele>240.39999389648</ele>
        <time>2019-11-03T10:06:09.000Z</time>
      </trkpt>
      <trkpt lat="47.28888" lon="-2.52993">
        <ele>240.80000305176</ele>
        <time>2019-11-03T10:06:10.000Z</time>
      </trkpt>
      <trkpt lat="47.28885" lon="-2.52998">
        <ele>241.39999389648</ele>
        <time>2019-11-03T10:06:11.000Z</time>
      </trkpt>
      <trkpt lat="47.28882" lon="-2.53002">
        <ele>242</ele>
        <time>2019-11-03T10:06:12.000Z</time>
      </trkpt>
      <trkpt lat="47.28878" lon="-2.53006">
        <ele>242</ele>
        <time>2019-11-03T10:06:13.000Z</time>
      </trkpt>
      <trkpt lat="47.28876" lon="-2.53011">
        <ele>241.60000610352</ele>
        <time>2019-11-03T10:06:14.000Z</time>
      </trkpt>
      <trkpt lat="47.28876" lon="-2.53017">
        <ele>241.19999694824</ele>
        <time>2019-11-03T10:06:15.000Z</time>
      </trkpt>
      <trkpt lat="47.28876" lon="-2.53022">
        <ele>240.80000305176</ele>
        <time>2019-11-03T10:06:16.000Z</time>
      </trkpt>
      <trkpt lat="47.28877" lon="-2.53027">
        <ele>240.39999389648</ele>
        <time>2019-11-03T10:06:17.000Z</time>
      </trkpt>
      <trkpt lat="47.28879" lon="-2.53032">
        <ele>239.80000305176</ele>
        <time>2019-11-03T10:06:18.000Z</time>
      </trkpt>
      <trkpt lat="47.2888" lon="-2.53037">
        <ele>239.80000305176</ele>
        <time>2019-11-03T10:06:19.000Z</time>
      </trkpt>
      <trkpt lat="47.28881" lon="-2.53047">
        <ele>240.39999389648</ele>
        <time>2019-11-03T10:06:21.000Z</time>
      </trkpt>
      <trkpt lat="47.28879" lon="-2.53052">
        <ele>240.80000305176</ele>
        <time>2019-11-03T10:06:22.000Z</time>
      </trkpt>
      <trkpt lat="47.28878" lon="-2.53057">
        <ele>241.39999389648</ele>
        <time>2019-11-03T10:06:23.000Z</time>
      </trkpt>
      <trkpt lat="47.28876" lon="-2.53062">
        <ele>241.80000305176</ele>
        <time>2019-11-03T10:06:24.000Z</time>
      </trkpt>
      <trkpt lat="47.28873" lon="-2.53067">
        <ele>241.39999389648</ele>
        <time>2019-11-03T10:06:25.000Z</time>
      </trkpt>
      <trkpt lat="47.2887" lon="-2.53071">
        <ele>241.19999694824</ele>
        <time>2019-11-03T10:06:26.000Z</time>
      </trkpt>
      <trkpt lat="47.28867" lon="-2.53076">
        <ele>240.80000305176</ele>
        <time>2019-11-03T10:06:27.000Z</time>
      </trkpt>
      <trkpt lat="47.28863" lon="-2.5308">
        <ele>240.60000610352</ele>
        <time>2019-11-03T10:06:28.000Z</time>
      </trkpt>
      <trkpt lat="47.28858" lon="-2.53084">
        <ele>240.19999694824</ele>
        <time>2019-11-03T10:06:29.000Z</time>
      </trkpt>
      <trkpt lat="47.28853" lon="-2.53087">
        <ele>240.19999694824</ele>
        <time>2019-11-03T10:06:30.000Z</time>
      </trkpt>
      <trkpt lat="47.28826" lon="-2.53097">
        <ele>240.19999694824</ele>
        <time>2019-11-03T10:06:35.000Z</time>
      </trkpt>
      <trkpt lat="47.28784" lon="-2.53106">
        <ele>240.19999694824</ele>
        <time>2019-11-03T10:06:42.000Z</time>
      </trkpt>
      <trkpt lat="47.28775" lon="-2.53108">
        <ele>239.80000305176</ele>
        <time>2019-11-03T10:06:44.000Z</time>
      </trkpt>
      <trkpt lat="47.28773" lon="-2.53108">
        <ele>239.39999389648</ele>
        <time>2019-11-03T10:06:45.000Z</time>
      </trkpt>
      <trkpt lat="47.28769" lon="-2.53106">
        <ele>239</ele>
        <time>2019-11-03T10:06:46.000Z</time>
      </trkpt>
      <trkpt lat="47.28769" lon="-2.53102">
        <ele>238.60000610352</ele>
        <time>2019-11-03T10:06:47.000Z</time>
      </trkpt>
      <trkpt lat="47.28769" lon="-2.53098">
        <ele>238.19999694824</ele>
        <time>2019-11-03T10:06:48.000Z</time>
      </trkpt>
      <trkpt lat="47.28768" lon="-2.53092">
        <ele>238.19999694824</ele>
        <time>2019-11-03T10:06:49.000Z</time>
      </trkpt>
      <trkpt lat="47.28767" lon="-2.53082">
        <ele>238.19999694824</ele>
        <time>2019-11-03T10:06:51.000Z</time>
      </trkpt>
      <trkpt lat="47.28764" lon="-2.53058">
        <ele>238.19999694824</ele>
        <time>2019-11-03T10:06:55.000Z</time>
      </trkpt>
      <trkpt lat="47.2876" lon="-2.53026">
        <ele>238.19999694824</ele>
        <time>2019-11-03T10:07:01.000Z</time>
      </trkpt>
      <trkpt lat="47.28758" lon="-2.53004">
        <ele>238.19999694824</ele>
        <time>2019-11-03T10:07:05.000Z</time>
      </trkpt>
      <trkpt lat="47.28756" lon="-2.5298">
        <ele>238.19999694824</ele>
        <time>2019-11-03T10:07:09.000Z</time>
      </trkpt>
      <trkpt lat="47.28752" lon="-2.52963">
        <ele>238.19999694824</ele>
        <time>2019-11-03T10:07:12.000Z</time>
      </trkpt>
      <trkpt lat="47.28747" lon="-2.52947">
        <ele>238.19999694824</ele>
        <time>2019-11-03T10:07:14.000Z</time>
      </trkpt>
      <trkpt lat="47.28745" lon="-2.52927">
        <ele>238.19999694824</ele>
        <time>2019-11-03T10:07:16.000Z</time>
      </trkpt>
      <trkpt lat="47.28743" lon="-2.52906">
        <ele>237.80000305176</ele>
        <time>2019-11-03T10:07:18.000Z</time>
      </trkpt>
      <trkpt lat="47.28742" lon="-2.52895">
        <ele>236.80000305176</ele>
        <time>2019-11-03T10:07:19.000Z</time>
      </trkpt>
      <trkpt lat="47.28741" lon="-2.52884">
        <ele>236.39999389648</ele>
        <time>2019-11-03T10:07:20.000Z</time>
      </trkpt>
      <trkpt lat="47.2874" lon="-2.52873">
        <ele>236</ele>
        <time>2019-11-03T10:07:21.000Z</time>
      </trkpt>
      <trkpt lat="47.28738" lon="-2.52849">
        <ele>236</ele>
        <time>2019-11-03T10:07:23.000Z</time>
      </trkpt>
      <trkpt lat="47.28735" lon="-2.52825">
        <ele>235.60000610352</ele>
        <time>2019-11-03T10:07:25.000Z</time>
      </trkpt>
      <trkpt lat="47.28734" lon="-2.52813">
        <ele>235</ele>
        <time>2019-11-03T10:07:26.000Z</time>
      </trkpt>
      <trkpt lat="47.28733" lon="-2.528">
        <ele>234.60000610352</ele>
        <time>2019-11-03T10:07:27.000Z</time>
      </trkpt>
      <trkpt lat="47.28732" lon="-2.52786">
        <ele>234.19999694824</ele>
        <time>2019-11-03T10:07:28.000Z</time>
      </trkpt>
      <trkpt lat="47.28731" lon="-2.52771">
        <ele>233.80000305176</ele>
        <time>2019-11-03T10:07:29.000Z</time>
      </trkpt>
      <trkpt lat="47.2873" lon="-2.52756">
        <ele>233.80000305176</ele>
        <time>2019-11-03T10:07:30.000Z</time>
      </trkpt>
      <trkpt lat="47.28726" lon="-2.52709">
        <ele>233.39999389648</ele>
        <time>2019-11-03T10:07:33.000Z</time>
      </trkpt>
      <trkpt lat="47.28725" lon="-2.52694">
        <ele>233</ele>
        <time>2019-11-03T10:07:34.000Z</time>
      </trkpt>
      <trkpt lat="47.28723" lon="-2.52679">
        <ele>232.60000610352</ele>
        <time>2019-11-03T10:07:35.000Z</time>
      </trkpt>
      <trkpt lat="47.28721" lon="-2.52663">
        <ele>232</ele>
        <time>2019-11-03T10:07:36.000Z</time>
      </trkpt>
      <trkpt lat="47.2872" lon="-2.52648">
        <ele>231.39999389648</ele>
        <time>2019-11-03T10:07:37.000Z</time>
      </trkpt>
      <trkpt lat="47.28718" lon="-2.52632">
        <ele>230.80000305176</ele>
        <time>2019-11-03T10:07:38.000Z</time>
      </trkpt>
      <trkpt lat="47.28717" lon="-2.52615">
        <ele>230.19999694824</ele>
        <time>2019-11-03T10:07:39.000Z</time>
      </trkpt>
      <trkpt lat="47.28716" lon="-2.52599">
        <ele>229.60000610352</ele>
        <time>2019-11-03T10:07:40.000Z</time>
      </trkpt>
      <trkpt lat="47.28716" lon="-2.52567">
        <ele>229.60000610352</ele>
        <time>2019-11-03T10:07:42.000Z</time>
      </trkpt>
      <trkpt lat="47.28726" lon="-2.52505">
        <ele>229.60000610352</ele>
        <time>2019-11-03T10:07:46.000Z</time>
      </trkpt>
      <trkpt lat="47.28738" lon="-2.52457">
        <ele>229.60000610352</ele>
        <time>2019-11-03T10:07:50.000Z</time>
      </trkpt>
      <trkpt lat="47.28745" lon="-2.52412">
        <ele>229.60000610352</ele>
        <time>2019-11-03T10:07:54.000Z</time>
      </trkpt>
      <trkpt lat="47.28745" lon="-2.52401">
        <ele>229.60000610352</ele>
        <time>2019-11-03T10:07:55.000Z</time>
      </trkpt>
      <trkpt lat="47.28742" lon="-2.52378">
        <ele>230</ele>
        <time>2019-11-03T10:07:57.000Z</time>
      </trkpt>
      <trkpt lat="47.2874" lon="-2.52368">
        <ele>230.39999389648</ele>
        <time>2019-11-03T10:07:58.000Z</time>
      </trkpt>
      <trkpt lat="47.28738" lon="-2.52357">
        <ele>230.80000305176</ele>
        <time>2019-11-03T10:07:59.000Z</time>
      </trkpt>
      <trkpt lat="47.28736" lon="-2.52346">
        <ele>231.19999694824</ele>
        <time>2019-11-03T10:08:00.000Z</time>
      </trkpt>
      <trkpt lat="47.28734" lon="-2.52336">
        <ele>231.80000305176</ele>
        <time>2019-11-03T10:08:01.000Z</time>
      </trkpt>
      <trkpt lat="47.28727" lon="-2.52295">
        <ele>231.80000305176</ele>
        <time>2019-11-03T10:08:05.000Z</time>
      </trkpt>
      <trkpt lat="47.28713" lon="-2.52228">
        <ele>231.80000305176</ele>
        <time>2019-11-03T10:08:12.000Z</time>
      </trkpt>
      <trkpt lat="47.2871" lon="-2.52219">
        <ele>231.80000305176</ele>
        <time>2019-11-03T10:08:13.000Z</time>
      </trkpt>
      <trkpt lat="47.28697" lon="-2.52181">
        <ele>231.80000305176</ele>
        <time>2019-11-03T10:08:17.000Z</time>
      </trkpt>
      <trkpt lat="47.2867" lon="-2.52105">
        <ele>231.80000305176</ele>
        <time>2019-11-03T10:08:25.000Z</time>
      </trkpt>
      <trkpt lat="47.28645" lon="-2.52031">
        <ele>231.80000305176</ele>
        <time>2019-11-03T10:08:32.000Z</time>
      </trkpt>
      <trkpt lat="47.28642" lon="-2.5202">
        <ele>231.80000305176</ele>
        <time>2019-11-03T10:08:33.000Z</time>
      </trkpt>
      <trkpt lat="47.28638" lon="-2.51998">
        <ele>231.80000305176</ele>
        <time>2019-11-03T10:08:35.000Z</time>
      </trkpt>
      <trkpt lat="47.28635" lon="-2.51964">
        <ele>231.80000305176</ele>
        <time>2019-11-03T10:08:38.000Z</time>
      </trkpt>
      <trkpt lat="47.28632" lon="-2.51918">
        <ele>231.19999694824</ele>
        <time>2019-11-03T10:08:42.000Z</time>
      </trkpt>
      <trkpt lat="47.28631" lon="-2.51907">
        <ele>230.80000305176</ele>
        <time>2019-11-03T10:08:43.000Z</time>
      </trkpt>
      <trkpt lat="47.28631" lon="-2.51896">
        <ele>230.39999389648</ele>
        <time>2019-11-03T10:08:44.000Z</time>
      </trkpt>
      <trkpt lat="47.28631" lon="-2.51887">
        <ele>230</ele>
        <time>2019-11-03T10:08:45.000Z</time>
      </trkpt>
      <trkpt lat="47.28631" lon="-2.51879">
        <ele>229.39999389648</ele>
        <time>2019-11-03T10:08:46.000Z</time>
      </trkpt>
      <trkpt lat="47.28638" lon="-2.51863">
        <ele>229.39999389648</ele>
        <time>2019-11-03T10:08:49.000Z</time>
      </trkpt>
      <trkpt lat="47.28647" lon="-2.51862">
        <ele>229.39999389648</ele>
        <time>2019-11-03T10:08:52.000Z</time>
      </trkpt>
      <trkpt lat="47.28659" lon="-2.51862">
        <ele>229.39999389648</ele>
        <time>2019-11-03T10:08:58.000Z</time>
      </trkpt>
      <trkpt lat="47.28672" lon="-2.51861">
        <ele>229.39999389648</ele>
        <time>2019-11-03T10:09:06.000Z</time>
      </trkpt>
      <trkpt lat="47.28689" lon="-2.51864">
        <ele>229.39999389648</ele>
        <time>2019-11-03T10:09:15.000Z</time>
      </trkpt>
      <trkpt lat="47.28701" lon="-2.51864">
        <ele>229.39999389648</ele>
        <time>2019-11-03T10:09:21.000Z</time>
      </trkpt>
      <trkpt lat="47.28715" lon="-2.51865">
        <ele>229.39999389648</ele>
        <time>2019-11-03T10:09:27.000Z</time>
      </trkpt>
      <trkpt lat="47.28729" lon="-2.51864">
        <ele>229.39999389648</ele>
        <time>2019-11-03T10:09:34.000Z</time>
      </trkpt>
      <trkpt lat="47.28748" lon="-2.51861">
        <ele>229.39999389648</ele>
        <time>2019-11-03T10:09:40.000Z</time>
      </trkpt>
      <trkpt lat="47.28773" lon="-2.51863">
        <ele>229.39999389648</ele>
        <time>2019-11-03T10:09:46.000Z</time>
      </trkpt>
      <trkpt lat="47.28783" lon="-2.51863">
        <ele>229.80000305176</ele>
        <time>2019-11-03T10:09:48.000Z</time>
      </trkpt>
      <trkpt lat="47.28788" lon="-2.51863">
        <ele>230.39999389648</ele>
        <time>2019-11-03T10:09:49.000Z</time>
      </trkpt>
      <trkpt lat="47.28793" lon="-2.51863">
        <ele>230.80000305176</ele>
        <time>2019-11-03T10:09:50.000Z</time>
      </trkpt>
      <trkpt lat="47.28798" lon="-2.51863">
        <ele>231.19999694824</ele>
        <time>2019-11-03T10:09:51.000Z</time>
      </trkpt>
      <trkpt lat="47.28803" lon="-2.51863">
        <ele>231.60000610352</ele>
        <time>2019-11-03T10:09:52.000Z</time>
      </trkpt>
      <trkpt lat="47.28836" lon="-2.51863">
        <ele>231.60000610352</ele>
        <time>2019-11-03T10:09:59.000Z</time>
      </trkpt>
      <trkpt lat="47.28855" lon="-2.51862">
        <ele>232</ele>
        <time>2019-11-03T10:10:03.000Z</time>
      </trkpt>
      <trkpt lat="47.2886" lon="-2.51862">
        <ele>232.39999389648</ele>
        <time>2019-11-03T10:10:04.000Z</time>
      </trkpt>
      <trkpt lat="47.28864" lon="-2.51862">
        <ele>232.80000305176</ele>
        <time>2019-11-03T10:10:05.000Z</time>
      </trkpt>
      <trkpt lat="47.28869" lon="-2.51862">
        <ele>233.19999694824</ele>
        <time>2019-11-03T10:10:06.000Z</time>
      </trkpt>
      <trkpt lat="47.28873" lon="-2.51861">
        <ele>233.60000610352</ele>
        <time>2019-11-03T10:10:07.000Z</time>
      </trkpt>
      <trkpt lat="47.28889" lon="-2.51861">
        <ele>233.60000610352</ele>
        <time>2019-11-03T10:10:11.000Z</time>
      </trkpt>
      <trkpt lat="47.28919" lon="-2.51862">
        <ele>233.60000610352</ele>
        <time>2019-11-03T10:10:19.000Z</time>
      </trkpt>
      <trkpt lat="47.28928" lon="-2.51856">
        <ele>233.60000610352</ele>
        <time>2019-11-03T10:10:22.000Z</time>
      </trkpt>
      <trkpt lat="47.2893" lon="-2.51852">
        <ele>233.60000610352</ele>
        <time>2019-11-03T10:10:23.000Z</time>
      </trkpt>
      <trkpt lat="47.28933" lon="-2.51847">
        <ele>233.19999694824</ele>
        <time>2019-11-03T10:10:24.000Z</time>
      </trkpt>
      <trkpt lat="47.28934" lon="-2.51843">
        <ele>232.80000305176</ele>
        <time>2019-11-03T10:10:25.000Z</time>
      </trkpt>
      <trkpt lat="47.28935" lon="-2.51838">
        <ele>232.19999694824</ele>
        <time>2019-11-03T10:10:26.000Z</time>
      </trkpt>
      <trkpt lat="47.28936" lon="-2.51834">
        <ele>231.80000305176</ele>
        <time>2019-11-03T10:10:27.000Z</time>
      </trkpt>
      <trkpt lat="47.28937" lon="-2.5183">
        <ele>231.39999389648</ele>
        <time>2019-11-03T10:10:28.000Z</time>
      </trkpt>
      <trkpt lat="47.28938" lon="-2.51824">
        <ele>231.80000305176</ele>
        <time>2019-11-03T10:10:30.000Z</time>
      </trkpt>
      <trkpt lat="47.28938" lon="-2.51822">
        <ele>232.19999694824</ele>
        <time>2019-11-03T10:10:31.000Z</time>
      </trkpt>
      <trkpt lat="47.28938" lon="-2.51821">
        <ele>232.60000610352</ele>
        <time>2019-11-03T10:10:32.000Z</time>
      </trkpt>
      <trkpt lat="47.28938" lon="-2.5182">
        <ele>233.19999694824</ele>
        <time>2019-11-03T10:10:33.000Z</time>
      </trkpt>
      <trkpt lat="47.28938" lon="-2.51819">
        <ele>233.60000610352</ele>
        <time>2019-11-03T10:10:34.000Z</time>
      </trkpt>
      <trkpt lat="47.28938" lon="-2.51816">
        <ele>233.60000610352</ele>
        <time>2019-11-03T10:10:37.000Z</time>
      </trkpt>
      <trkpt lat="47.28937" lon="-2.51816">
        <ele>233.60000610352</ele>
        <time>2019-11-03T10:10:38.000Z</time>
      </trkpt>
      <trkpt lat="47.28936" lon="-2.51815">
        <ele>233.60000610352</ele>
        <time>2019-11-03T10:10:39.000Z</time>
      </trkpt>
      <trkpt lat="47.2893" lon="-2.51821">
        <ele>233.60000610352</ele>
        <time>2019-11-03T10:10:43.000Z</time>
      </trkpt>
      <trkpt lat="47.2892" lon="-2.51833">
        <ele>233.60000610352</ele>
        <time>2019-11-03T10:10:47.000Z</time>
      </trkpt>
      <trkpt lat="47.28908" lon="-2.51832">
        <ele>233.60000610352</ele>
        <time>2019-11-03T10:10:50.000Z</time>
      </trkpt>
      <trkpt lat="47.28887" lon="-2.51823">
        <ele>233.60000610352</ele>
        <time>2019-11-03T10:10:55.000Z</time>
      </trkpt>
      <trkpt lat="47.28872" lon="-2.5182">
        <ele>233.60000610352</ele>
        <time>2019-11-03T10:10:58.000Z</time>
      </trkpt>
      <trkpt lat="47.28865" lon="-2.51822">
        <ele>233.60000610352</ele>
        <time>2019-11-03T10:11:00.000Z</time>
      </trkpt>
      <trkpt lat="47.28859" lon="-2.51839">
        <ele>233.60000610352</ele>
        <time>2019-11-03T10:11:03.000Z</time>
      </trkpt>
      <trkpt lat="47.28849" lon="-2.51851">
        <ele>233.60000610352</ele>
        <time>2019-11-03T10:11:06.000Z</time>
      </trkpt>
      <trkpt lat="47.28838" lon="-2.51845">
        <ele>233.60000610352</ele>
        <time>2019-11-03T10:11:09.000Z</time>
      </trkpt>
      <trkpt lat="47.28836" lon="-2.51828">
        <ele>233.60000610352</ele>
        <time>2019-11-03T10:11:12.000Z</time>
      </trkpt>
      <trkpt lat="47.28839" lon="-2.51813">
        <ele>233.60000610352</ele>
        <time>2019-11-03T10:11:16.000Z</time>
      </trkpt>
      <trkpt lat="47.2884" lon="-2.5181">
        <ele>233.60000610352</ele>
        <time>2019-11-03T10:11:17.000Z</time>
      </trkpt>
      <trkpt lat="47.28844" lon="-2.51801">
        <ele>233.60000610352</ele>
        <time>2019-11-03T10:11:21.000Z</time>
      </trkpt>
      <trkpt lat="47.28848" lon="-2.51795">
        <ele>233.60000610352</ele>
        <time>2019-11-03T10:11:26.000Z</time>
      </trkpt>
      <trkpt lat="47.28848" lon="-2.51792">
        <ele>233.60000610352</ele>
        <time>2019-11-03T10:11:27.000Z</time>
      </trkpt>
      <trkpt lat="47.28847" lon="-2.51776">
        <ele>233.60000610352</ele>
        <time>2019-11-03T10:11:32.000Z</time>
      </trkpt>
      <trkpt lat="47.28844" lon="-2.51751">
        <ele>233.60000610352</ele>
        <time>2019-11-03T10:11:36.000Z</time>
      </trkpt>
      <trkpt lat="47.28845" lon="-2.51714">
        <ele>233.60000610352</ele>
        <time>2019-11-03T10:11:42.000Z</time>
      </trkpt>
      <trkpt lat="47.28846" lon="-2.51692">
        <ele>233.60000610352</ele>
        <time>2019-11-03T10:11:45.000Z</time>
      </trkpt>
      <trkpt lat="47.28845" lon="-2.51677">
        <ele>233.60000610352</ele>
        <time>2019-11-03T10:11:47.000Z</time>
      </trkpt>
      <trkpt lat="47.28842" lon="-2.51656">
        <ele>233.19999694824</ele>
        <time>2019-11-03T10:11:50.000Z</time>
      </trkpt>
      <trkpt lat="47.28841" lon="-2.5165">
        <ele>232.19999694824</ele>
        <time>2019-11-03T10:11:51.000Z</time>
      </trkpt>
      <trkpt lat="47.2884" lon="-2.51642">
        <ele>231.80000305176</ele>
        <time>2019-11-03T10:11:52.000Z</time>
      </trkpt>
      <trkpt lat="47.2884" lon="-2.51636">
        <ele>231.39999389648</ele>
        <time>2019-11-03T10:11:53.000Z</time>
      </trkpt>
      <trkpt lat="47.28841" lon="-2.51597">
        <ele>231.39999389648</ele>
        <time>2019-11-03T10:11:58.000Z</time>
      </trkpt>
      <trkpt lat="47.28842" lon="-2.51571">
        <ele>231</ele>
        <time>2019-11-03T10:12:01.000Z</time>
      </trkpt>
      <trkpt lat="47.28842" lon="-2.51562">
        <ele>230.60000610352</ele>
        <time>2019-11-03T10:12:02.000Z</time>
      </trkpt>
      <trkpt lat="47.28842" lon="-2.51554">
        <ele>230.19999694824</ele>
        <time>2019-11-03T10:12:03.000Z</time>
      </trkpt>
      <trkpt lat="47.28841" lon="-2.51545">
        <ele>229.80000305176</ele>
        <time>2019-11-03T10:12:04.000Z</time>
      </trkpt>
      <trkpt lat="47.28841" lon="-2.51537">
        <ele>229.39999389648</ele>
        <time>2019-11-03T10:12:05.000Z</time>
      </trkpt>
      <trkpt lat="47.28841" lon="-2.5153">
        <ele>229.39999389648</ele>
        <time>2019-11-03T10:12:06.000Z</time>
      </trkpt>
      <trkpt lat="47.2884" lon="-2.51507">
        <ele>229.39999389648</ele>
        <time>2019-11-03T10:12:09.000Z</time>
      </trkpt>
      <trkpt lat="47.2884" lon="-2.51501">
        <ele>229.39999389648</ele>
        <time>2019-11-03T10:12:10.000Z</time>
      </trkpt>
      <trkpt lat="47.2884" lon="-2.51482">
        <ele>229.39999389648</ele>
        <time>2019-11-03T10:12:13.000Z</time>
      </trkpt>
      <trkpt lat="47.28839" lon="-2.51476">
        <ele>229.39999389648</ele>
        <time>2019-11-03T10:12:14.000Z</time>
      </trkpt>
      <trkpt lat="47.28838" lon="-2.51452">
        <ele>229.39999389648</ele>
        <time>2019-11-03T10:12:20.000Z</time>
      </trkpt>
      <trkpt lat="47.28837" lon="-2.51439">
        <ele>229.39999389648</ele>
        <time>2019-11-03T10:12:26.000Z</time>
      </trkpt>
      <trkpt lat="47.28837" lon="-2.51437">
        <ele>229.39999389648</ele>
        <time>2019-11-03T10:12:27.000Z</time>
      </trkpt>
      <trkpt lat="47.28847" lon="-2.51434">
        <ele>229.39999389648</ele>
        <time>2019-11-03T10:12:31.000Z</time>
      </trkpt>
      <trkpt lat="47.28854" lon="-2.51433">
        <ele>229.39999389648</ele>
        <time>2019-11-03T10:12:33.000Z</time>
      </trkpt>
      <trkpt lat="47.28868" lon="-2.5143">
        <ele>229.39999389648</ele>
        <time>2019-11-03T10:12:37.000Z</time>
      </trkpt>
      <trkpt lat="47.28873" lon="-2.51429">
        <ele>229.39999389648</ele>
        <time>2019-11-03T10:12:41.000Z</time>
      </trkpt>
      <trkpt lat="47.28875" lon="-2.51428">
        <ele>229.39999389648</ele>
        <time>2019-11-03T10:12:44.000Z</time>
      </trkpt>
      <trkpt lat="47.28878" lon="-2.51428">
        <ele>229.39999389648</ele>
        <time>2019-11-03T10:12:53.000Z</time>
      </trkpt>
      <trkpt lat="47.28879" lon="-2.51428">
        <ele>229.39999389648</ele>
        <time>2019-11-03T10:12:54.000Z</time>
      </trkpt>
      <trkpt lat="47.28887" lon="-2.51425">
        <ele>229.39999389648</ele>
        <time>2019-11-03T10:12:59.000Z</time>
      </trkpt>
      <trkpt lat="47.28885" lon="-2.51415">
        <ele>229.39999389648</ele>
        <time>2019-11-03T10:13:03.000Z</time>
      </trkpt>
      <trkpt lat="47.28877" lon="-2.51411">
        <ele>229.39999389648</ele>
        <time>2019-11-03T10:13:06.000Z</time>
      </trkpt>
      <trkpt lat="47.28874" lon="-2.51411">
        <ele>229.39999389648</ele>
        <time>2019-11-03T10:13:07.000Z</time>
      </trkpt>
      <trkpt lat="47.28849" lon="-2.51414">
        <ele>229.39999389648</ele>
        <time>2019-11-03T10:13:14.000Z</time>
      </trkpt>
      <trkpt lat="47.28816" lon="-2.51418">
        <ele>229.39999389648</ele>
        <time>2019-11-03T10:13:23.000Z</time>
      </trkpt>
      <trkpt lat="47.28794" lon="-2.51426">
        <ele>229.39999389648</ele>
        <time>2019-11-03T10:13:29.000Z</time>
      </trkpt>
      <trkpt lat="47.28762" lon="-2.51434">
        <ele>229.39999389648</ele>
        <time>2019-11-03T10:13:37.000Z</time>
      </trkpt>
      <trkpt lat="47.28738" lon="-2.51441">
        <ele>229.39999389648</ele>
        <time>2019-11-03T10:13:43.000Z</time>
      </trkpt>
      <trkpt lat="47.28701" lon="-2.51454">
        <ele>229.39999389648</ele>
        <time>2019-11-03T10:13:51.000Z</time>
      </trkpt>
      <trkpt lat="47.28663" lon="-2.51464">
        <ele>229.39999389648</ele>
        <time>2019-11-03T10:13:59.000Z</time>
      </trkpt>
      <trkpt lat="47.28625" lon="-2.51474">
        <ele>229.39999389648</ele>
        <time>2019-11-03T10:14:07.000Z</time>
      </trkpt>
      <trkpt lat="47.28583" lon="-2.51487">
        <ele>229.39999389648</ele>
        <time>2019-11-03T10:14:16.000Z</time>
      </trkpt>
      <trkpt lat="47.2856" lon="-2.51495">
        <ele>229.39999389648</ele>
        <time>2019-11-03T10:14:21.000Z</time>
      </trkpt>
      <trkpt lat="47.28551" lon="-2.51497">
        <ele>229.39999389648</ele>
        <time>2019-11-03T10:14:23.000Z</time>
      </trkpt>
      <trkpt lat="47.28528" lon="-2.51503">
        <ele>228.80000305176</ele>
        <time>2019-11-03T10:14:29.000Z</time>
      </trkpt>
      <trkpt lat="47.28525" lon="-2.51503">
        <ele>228.39999389648</ele>
        <time>2019-11-03T10:14:30.000Z</time>
      </trkpt>
      <trkpt lat="47.28522" lon="-2.51502">
        <ele>228</ele>
        <time>2019-11-03T10:14:31.000Z</time>
      </trkpt>
      <trkpt lat="47.28519" lon="-2.515">
        <ele>227.39999389648</ele>
        <time>2019-11-03T10:14:32.000Z</time>
      </trkpt>
      <trkpt lat="47.28516" lon="-2.51497">
        <ele>227</ele>
        <time>2019-11-03T10:14:33.000Z</time>
      </trkpt>
      <trkpt lat="47.28513" lon="-2.51493">
        <ele>227</ele>
        <time>2019-11-03T10:14:34.000Z</time>
      </trkpt>
      <trkpt lat="47.28511" lon="-2.51489">
        <ele>227</ele>
        <time>2019-11-03T10:14:35.000Z</time>
      </trkpt>
      <trkpt lat="47.2849" lon="-2.51464">
        <ele>227</ele>
        <time>2019-11-03T10:14:41.000Z</time>
      </trkpt>
      <trkpt lat="47.28459" lon="-2.51431">
        <ele>227</ele>
        <time>2019-11-03T10:14:49.000Z</time>
      </trkpt>
      <trkpt lat="47.28452" lon="-2.51421">
        <ele>227</ele>
        <time>2019-11-03T10:14:51.000Z</time>
      </trkpt>
      <trkpt lat="47.28447" lon="-2.51408">
        <ele>227</ele>
        <time>2019-11-03T10:14:53.000Z</time>
      </trkpt>
      <trkpt lat="47.28442" lon="-2.51388">
        <ele>227</ele>
        <time>2019-11-03T10:14:56.000Z</time>
      </trkpt>
      <trkpt lat="47.28441" lon="-2.51372">
        <ele>227</ele>
        <time>2019-11-03T10:14:58.000Z</time>
      </trkpt>
      <trkpt lat="47.28438" lon="-2.51341">
        <ele>227</ele>
        <time>2019-11-03T10:15:02.000Z</time>
      </trkpt>
      <trkpt lat="47.28435" lon="-2.51328">
        <ele>227</ele>
        <time>2019-11-03T10:15:04.000Z</time>
      </trkpt>
      <trkpt lat="47.28429" lon="-2.51316">
        <ele>227</ele>
        <time>2019-11-03T10:15:06.000Z</time>
      </trkpt>
      <trkpt lat="47.2842" lon="-2.51295">
        <ele>227</ele>
        <time>2019-11-03T10:15:09.000Z</time>
      </trkpt>
      <trkpt lat="47.28412" lon="-2.51283">
        <ele>227</ele>
        <time>2019-11-03T10:15:11.000Z</time>
      </trkpt>
      <trkpt lat="47.28402" lon="-2.51272">
        <ele>227</ele>
        <time>2019-11-03T10:15:13.000Z</time>
      </trkpt>
      <trkpt lat="47.28391" lon="-2.51263">
        <ele>227</ele>
        <time>2019-11-03T10:15:15.000Z</time>
      </trkpt>
      <trkpt lat="47.28368" lon="-2.51246">
        <ele>227</ele>
        <time>2019-11-03T10:15:19.000Z</time>
      </trkpt>
      <trkpt lat="47.28326" lon="-2.51217">
        <ele>227</ele>
        <time>2019-11-03T10:15:26.000Z</time>
      </trkpt>
      <trkpt lat="47.2832" lon="-2.51213">
        <ele>227</ele>
        <time>2019-11-03T10:15:27.000Z</time>
      </trkpt>
      <trkpt lat="47.28303" lon="-2.51192">
        <ele>227</ele>
        <time>2019-11-03T10:15:30.000Z</time>
      </trkpt>
      <trkpt lat="47.28292" lon="-2.51165">
        <ele>227</ele>
        <time>2019-11-03T10:15:33.000Z</time>
      </trkpt>
      <trkpt lat="47.28289" lon="-2.51156">
        <ele>227</ele>
        <time>2019-11-03T10:15:34.000Z</time>
      </trkpt>
      <trkpt lat="47.28272" lon="-2.51102">
        <ele>227</ele>
        <time>2019-11-03T10:15:40.000Z</time>
      </trkpt>
      <trkpt lat="47.28252" lon="-2.51041">
        <ele>227</ele>
        <time>2019-11-03T10:15:47.000Z</time>
      </trkpt>
      <trkpt lat="47.28241" lon="-2.50981">
        <ele>227</ele>
        <time>2019-11-03T10:15:53.000Z</time>
      </trkpt>
      <trkpt lat="47.2823" lon="-2.509">
        <ele>227</ele>
        <time>2019-11-03T10:16:01.000Z</time>
      </trkpt>
      <trkpt lat="47.28227" lon="-2.5089">
        <ele>227</ele>
        <time>2019-11-03T10:16:02.000Z</time>
      </trkpt>
      <trkpt lat="47.28212" lon="-2.50819">
        <ele>227</ele>
        <time>2019-11-03T10:16:09.000Z</time>
      </trkpt>
      <trkpt lat="47.28202" lon="-2.50748">
        <ele>227</ele>
        <time>2019-11-03T10:16:16.000Z</time>
      </trkpt>
      <trkpt lat="47.28202" lon="-2.50721">
        <ele>227</ele>
        <time>2019-11-03T10:16:19.000Z</time>
      </trkpt>
      <trkpt lat="47.28204" lon="-2.50712">
        <ele>227</ele>
        <time>2019-11-03T10:16:20.000Z</time>
      </trkpt>
      <trkpt lat="47.28218" lon="-2.50654">
        <ele>227</ele>
        <time>2019-11-03T10:16:26.000Z</time>
      </trkpt>
      <trkpt lat="47.28237" lon="-2.50583">
        <ele>227</ele>
        <time>2019-11-03T10:16:33.000Z</time>
      </trkpt>
      <trkpt lat="47.2825" lon="-2.50526">
        <ele>227</ele>
        <time>2019-11-03T10:16:39.000Z</time>
      </trkpt>
      <trkpt lat="47.28269" lon="-2.5046">
        <ele>227</ele>
        <time>2019-11-03T10:16:46.000Z</time>
      </trkpt>
      <trkpt lat="47.28281" lon="-2.50408">
        <ele>227</ele>
        <time>2019-11-03T10:16:51.000Z</time>
      </trkpt>
      <trkpt lat="47.28281" lon="-2.50398">
        <ele>226.60000610352</ele>
        <time>2019-11-03T10:16:52.000Z</time>
      </trkpt>
      <trkpt lat="47.28282" lon="-2.50387">
        <ele>226.19999694824</ele>
        <time>2019-11-03T10:16:53.000Z</time>
      </trkpt>
      <trkpt lat="47.28282" lon="-2.50376">
        <ele>225.80000305176</ele>
        <time>2019-11-03T10:16:54.000Z</time>
      </trkpt>
      <trkpt lat="47.28282" lon="-2.50365">
        <ele>225.39999389648</ele>
        <time>2019-11-03T10:16:55.000Z</time>
      </trkpt>
      <trkpt lat="47.28281" lon="-2.50355">
        <ele>224.80000305176</ele>
        <time>2019-11-03T10:16:56.000Z</time>
      </trkpt>
      <trkpt lat="47.28277" lon="-2.50317">
        <ele>224.80000305176</ele>
        <time>2019-11-03T10:17:00.000Z</time>
      </trkpt>
      <trkpt lat="47.28271" lon="-2.50299">
        <ele>224.80000305176</ele>
        <time>2019-11-03T10:17:02.000Z</time>
      </trkpt>
      <trkpt lat="47.28257" lon="-2.50266">
        <ele>224.80000305176</ele>
        <time>2019-11-03T10:17:06.000Z</time>
      </trkpt>
      <trkpt lat="47.28253" lon="-2.50261">
        <ele>224.80000305176</ele>
        <time>2019-11-03T10:17:07.000Z</time>
      </trkpt>
      <trkpt lat="47.28234" lon="-2.50239">
        <ele>224.80000305176</ele>
        <time>2019-11-03T10:17:11.000Z</time>
      </trkpt>
      <trkpt lat="47.2823" lon="-2.50233">
        <ele>224.80000305176</ele>
        <time>2019-11-03T10:17:12.000Z</time>
      </trkpt>
      <trkpt lat="47.28213" lon="-2.50191">
        <ele>224.80000305176</ele>
        <time>2019-11-03T10:17:17.000Z</time>
      </trkpt>
      <trkpt lat="47.28202" lon="-2.50154">
        <ele>224.80000305176</ele>
        <time>2019-11-03T10:17:21.000Z</time>
      </trkpt>
      <trkpt lat="47.28198" lon="-2.50136">
        <ele>224.80000305176</ele>
        <time>2019-11-03T10:17:23.000Z</time>
      </trkpt>
      <trkpt lat="47.28189" lon="-2.50089">
        <ele>224.80000305176</ele>
        <time>2019-11-03T10:17:28.000Z</time>
      </trkpt>
      <trkpt lat="47.28187" lon="-2.5008">
        <ele>224.80000305176</ele>
        <time>2019-11-03T10:17:29.000Z</time>
      </trkpt>
      <trkpt lat="47.28176" lon="-2.50021">
        <ele>224.80000305176</ele>
        <time>2019-11-03T10:17:35.000Z</time>
      </trkpt>
      <trkpt lat="47.28169" lon="-2.49983">
        <ele>224.80000305176</ele>
        <time>2019-11-03T10:17:39.000Z</time>
      </trkpt>
      <trkpt lat="47.28161" lon="-2.49932">
        <ele>224.80000305176</ele>
        <time>2019-11-03T10:17:44.000Z</time>
      </trkpt>
      <trkpt lat="47.28156" lon="-2.49878">
        <ele>224.80000305176</ele>
        <time>2019-11-03T10:17:49.000Z</time>
      </trkpt>
      <trkpt lat="47.28149" lon="-2.49826">
        <ele>224.80000305176</ele>
        <time>2019-11-03T10:17:54.000Z</time>
      </trkpt>
      <trkpt lat="47.28142" lon="-2.49772">
        <ele>225.39999389648</ele>
        <time>2019-11-03T10:17:59.000Z</time>
      </trkpt>
      <trkpt lat="47.28141" lon="-2.49762">
        <ele>226.19999694824</ele>
        <time>2019-11-03T10:18:00.000Z</time>
      </trkpt>
      <trkpt lat="47.28139" lon="-2.49751">
        <ele>226.60000610352</ele>
        <time>2019-11-03T10:18:01.000Z</time>
      </trkpt>
      <trkpt lat="47.28138" lon="-2.49741">
        <ele>227.19999694824</ele>
        <time>2019-11-03T10:18:02.000Z</time>
      </trkpt>
      <trkpt lat="47.28132" lon="-2.49701">
        <ele>227.19999694824</ele>
        <time>2019-11-03T10:18:06.000Z</time>
      </trkpt>
      <trkpt lat="47.28124" lon="-2.49657">
        <ele>227.19999694824</ele>
        <time>2019-11-03T10:18:11.000Z</time>
      </trkpt>
      <trkpt lat="47.2811" lon="-2.49632">
        <ele>227.19999694824</ele>
        <time>2019-11-03T10:18:15.000Z</time>
      </trkpt>
      <trkpt lat="47.28093" lon="-2.49609">
        <ele>227.19999694824</ele>
        <time>2019-11-03T10:18:20.000Z</time>
      </trkpt>
      <trkpt lat="47.28079" lon="-2.49586">
        <ele>227.19999694824</ele>
        <time>2019-11-03T10:18:24.000Z</time>
      </trkpt>
      <trkpt lat="47.28055" lon="-2.49552">
        <ele>227.19999694824</ele>
        <time>2019-11-03T10:18:29.000Z</time>
      </trkpt>
      <trkpt lat="47.28038" lon="-2.49531">
        <ele>227.19999694824</ele>
        <time>2019-11-03T10:18:34.000Z</time>
      </trkpt>
      <trkpt lat="47.28029" lon="-2.4951">
        <ele>227.19999694824</ele>
        <time>2019-11-03T10:18:39.000Z</time>
      </trkpt>
      <trkpt lat="47.28029" lon="-2.49507">
        <ele>227.19999694824</ele>
        <time>2019-11-03T10:18:40.000Z</time>
      </trkpt>
      <trkpt lat="47.28028" lon="-2.49502">
        <ele>227.19999694824</ele>
        <time>2019-11-03T10:18:43.000Z</time>
      </trkpt>
      <trkpt lat="47.28027" lon="-2.49501">
        <ele>227.19999694824</ele>
        <time>2019-11-03T10:18:46.000Z</time>
      </trkpt>
      <trkpt lat="47.28027" lon="-2.49482">
        <ele>227.19999694824</ele>
        <time>2019-11-03T10:19:12.000Z</time>
      </trkpt>
      <trkpt lat="47.28026" lon="-2.49459">
        <ele>227.19999694824</ele>
        <time>2019-11-03T10:19:17.000Z</time>
      </trkpt>
      <trkpt lat="47.28018" lon="-2.49431">
        <ele>227.19999694824</ele>
        <time>2019-11-03T10:19:22.000Z</time>
      </trkpt>
      <trkpt lat="47.28015" lon="-2.49419">
        <ele>227.19999694824</ele>
        <time>2019-11-03T10:19:24.000Z</time>
      </trkpt>
      <trkpt lat="47.28014" lon="-2.49405">
        <ele>227.19999694824</ele>
        <time>2019-11-03T10:19:26.000Z</time>
      </trkpt>
      <trkpt lat="47.28013" lon="-2.49397">
        <ele>227.19999694824</ele>
        <time>2019-11-03T10:19:27.000Z</time>
      </trkpt>
      <trkpt lat="47.28012" lon="-2.49372">
        <ele>227.19999694824</ele>
        <time>2019-11-03T10:19:30.000Z</time>
      </trkpt>
      <trkpt lat="47.28008" lon="-2.49355">
        <ele>227.19999694824</ele>
        <time>2019-11-03T10:19:32.000Z</time>
      </trkpt>
      <trkpt lat="47.27992" lon="-2.49299">
        <ele>227.19999694824</ele>
        <time>2019-11-03T10:19:39.000Z</time>
      </trkpt>
      <trkpt lat="47.27984" lon="-2.4925">
        <ele>227.19999694824</ele>
        <time>2019-11-03T10:19:45.000Z</time>
      </trkpt>
      <trkpt lat="47.27976" lon="-2.49212">
        <ele>227.19999694824</ele>
        <time>2019-11-03T10:19:50.000Z</time>
      </trkpt>
      <trkpt lat="47.27974" lon="-2.49204">
        <ele>227.19999694824</ele>
        <time>2019-11-03T10:19:51.000Z</time>
      </trkpt>
      <trkpt lat="47.27969" lon="-2.49177">
        <ele>227.19999694824</ele>
        <time>2019-11-03T10:19:55.000Z</time>
      </trkpt>
      <trkpt lat="47.27967" lon="-2.4917">
        <ele>227.19999694824</ele>
        <time>2019-11-03T10:19:56.000Z</time>
      </trkpt>
      <trkpt lat="47.27965" lon="-2.49142">
        <ele>227.19999694824</ele>
        <time>2019-11-03T10:20:00.000Z</time>
      </trkpt>
      <trkpt lat="47.27965" lon="-2.49135">
        <ele>227.19999694824</ele>
        <time>2019-11-03T10:20:01.000Z</time>
      </trkpt>
      <trkpt lat="47.27967" lon="-2.49113">
        <ele>227.19999694824</ele>
        <time>2019-11-03T10:20:04.000Z</time>
      </trkpt>
      <trkpt lat="47.27971" lon="-2.49099">
        <ele>227.19999694824</ele>
        <time>2019-11-03T10:20:06.000Z</time>
      </trkpt>
      <trkpt lat="47.27976" lon="-2.49086">
        <ele>227.19999694824</ele>
        <time>2019-11-03T10:20:08.000Z</time>
      </trkpt>
      <trkpt lat="47.27983" lon="-2.49076">
        <ele>227.19999694824</ele>
        <time>2019-11-03T10:20:10.000Z</time>
      </trkpt>
      <trkpt lat="47.28" lon="-2.49064">
        <ele>227.19999694824</ele>
        <time>2019-11-03T10:20:14.000Z</time>
      </trkpt>
      <trkpt lat="47.28007" lon="-2.49058">
        <ele>227.19999694824</ele>
        <time>2019-11-03T10:20:16.000Z</time>
      </trkpt>
      <trkpt lat="47.28009" lon="-2.49046">
        <ele>227.19999694824</ele>
        <time>2019-11-03T10:20:18.000Z</time>
      </trkpt>
      <trkpt lat="47.28009" lon="-2.49034">
        <ele>227.19999694824</ele>
        <time>2019-11-03T10:20:20.000Z</time>
      </trkpt>
      <trkpt lat="47.28005" lon="-2.49021">
        <ele>227.19999694824</ele>
        <time>2019-11-03T10:20:22.000Z</time>
      </trkpt>
      <trkpt lat="47.27996" lon="-2.48976">
        <ele>227.19999694824</ele>
        <time>2019-11-03T10:20:28.000Z</time>
      </trkpt>
      <trkpt lat="47.2799" lon="-2.48924">
        <ele>227.19999694824</ele>
        <time>2019-11-03T10:20:35.000Z</time>
      </trkpt>
      <trkpt lat="47.27988" lon="-2.4891">
        <ele>227.19999694824</ele>
        <time>2019-11-03T10:20:37.000Z</time>
      </trkpt>
      <trkpt lat="47.27987" lon="-2.48893">
        <ele>227.19999694824</ele>
        <time>2019-11-03T10:20:40.000Z</time>
      </trkpt>
      <trkpt lat="47.27987" lon="-2.48865">
        <ele>227.19999694824</ele>
        <time>2019-11-03T10:20:46.000Z</time>
      </trkpt>
      <trkpt lat="47.27985" lon="-2.4885">
        <ele>227.19999694824</ele>
        <time>2019-11-03T10:20:51.000Z</time>
      </trkpt>
      <trkpt lat="47.2798" lon="-2.48851">
        <ele>228</ele>
        <time>2019-11-03T10:20:53.000Z</time>
      </trkpt>
      <trkpt lat="47.27977" lon="-2.48853">
        <ele>228.39999389648</ele>
        <time>2019-11-03T10:20:54.000Z</time>
      </trkpt>
      <trkpt lat="47.27974" lon="-2.48856">
        <ele>228.80000305176</ele>
        <time>2019-11-03T10:20:55.000Z</time>
      </trkpt>
      <trkpt lat="47.27971" lon="-2.4886">
        <ele>229.19999694824</ele>
        <time>2019-11-03T10:20:56.000Z</time>
      </trkpt>
      <trkpt lat="47.27967" lon="-2.4887">
        <ele>229.19999694824</ele>
        <time>2019-11-03T10:20:58.000Z</time>
      </trkpt>
      <trkpt lat="47.27965" lon="-2.48875">
        <ele>229.19999694824</ele>
        <time>2019-11-03T10:20:59.000Z</time>
      </trkpt>
      <trkpt lat="47.27962" lon="-2.48886">
        <ele>229.19999694824</ele>
        <time>2019-11-03T10:21:01.000Z</time>
      </trkpt>
      <trkpt lat="47.2796" lon="-2.489">
        <ele>229.19999694824</ele>
        <time>2019-11-03T10:21:03.000Z</time>
      </trkpt>
      <trkpt lat="47.27957" lon="-2.48918">
        <ele>229.19999694824</ele>
        <time>2019-11-03T10:21:06.000Z</time>
      </trkpt>
      <trkpt lat="47.27954" lon="-2.48925">
        <ele>229.19999694824</ele>
        <time>2019-11-03T10:21:07.000Z</time>
      </trkpt>
      <trkpt lat="47.27941" lon="-2.48952">
        <ele>229.19999694824</ele>
        <time>2019-11-03T10:21:11.000Z</time>
      </trkpt>
      <trkpt lat="47.27929" lon="-2.49001">
        <ele>229.19999694824</ele>
        <time>2019-11-03T10:21:17.000Z</time>
      </trkpt>
      <trkpt lat="47.27919" lon="-2.49036">
        <ele>229.19999694824</ele>
        <time>2019-11-03T10:21:22.000Z</time>
      </trkpt>
      <trkpt lat="47.27914" lon="-2.49049">
        <ele>229.19999694824</ele>
        <time>2019-11-03T10:21:24.000Z</time>
      </trkpt>
      <trkpt lat="47.27903" lon="-2.49093">
        <ele>229.19999694824</ele>
        <time>2019-11-03T10:21:30.000Z</time>
      </trkpt>
      <trkpt lat="47.27891" lon="-2.49134">
        <ele>229.19999694824</ele>
        <time>2019-11-03T10:21:36.000Z</time>
      </trkpt>
      <trkpt lat="47.27888" lon="-2.49141">
        <ele>229.19999694824</ele>
        <time>2019-11-03T10:21:37.000Z</time>
      </trkpt>
      <trkpt lat="47.27879" lon="-2.49172">
        <ele>229.19999694824</ele>
        <time>2019-11-03T10:21:42.000Z</time>
      </trkpt>
      <trkpt lat="47.27873" lon="-2.49196">
        <ele>229.19999694824</ele>
        <time>2019-11-03T10:21:46.000Z</time>
      </trkpt>
      <trkpt lat="47.27866" lon="-2.49213">
        <ele>229.19999694824</ele>
        <time>2019-11-03T10:21:49.000Z</time>
      </trkpt>
      <trkpt lat="47.27858" lon="-2.49237">
        <ele>229.19999694824</ele>
        <time>2019-11-03T10:21:54.000Z</time>
      </trkpt>
      <trkpt lat="47.27851" lon="-2.49261">
        <ele>229.19999694824</ele>
        <time>2019-11-03T10:22:00.000Z</time>
      </trkpt>
      <trkpt lat="47.27848" lon="-2.49261">
        <ele>229.19999694824</ele>
        <time>2019-11-03T10:22:01.000Z</time>
      </trkpt>
      <trkpt lat="47.27832" lon="-2.49265">
        <ele>229.19999694824</ele>
        <time>2019-11-03T10:22:06.000Z</time>
      </trkpt>
      <trkpt lat="47.27825" lon="-2.49268">
        <ele>229.19999694824</ele>
        <time>2019-11-03T10:22:08.000Z</time>
      </trkpt>
      <trkpt lat="47.27816" lon="-2.49268">
        <ele>229.80000305176</ele>
        <time>2019-11-03T10:22:10.000Z</time>
      </trkpt>
      <trkpt lat="47.27811" lon="-2.49267">
        <ele>230.19999694824</ele>
        <time>2019-11-03T10:22:11.000Z</time>
      </trkpt>
      <trkpt lat="47.27805" lon="-2.49266">
        <ele>230.60000610352</ele>
        <time>2019-11-03T10:22:12.000Z</time>
      </trkpt>
      <trkpt lat="47.278" lon="-2.49264">
        <ele>231</ele>
        <time>2019-11-03T10:22:13.000Z</time>
      </trkpt>
      <trkpt lat="47.27794" lon="-2.49263">
        <ele>231.39999389648</ele>
        <time>2019-11-03T10:22:14.000Z</time>
      </trkpt>
      <trkpt lat="47.27782" lon="-2.49262">
        <ele>231.39999389648</ele>
        <time>2019-11-03T10:22:16.000Z</time>
      </trkpt>
      <trkpt lat="47.27734" lon="-2.49259">
        <ele>231.39999389648</ele>
        <time>2019-11-03T10:22:24.000Z</time>
      </trkpt>
      <trkpt lat="47.27694" lon="-2.49255">
        <ele>231.39999389648</ele>
        <time>2019-11-03T10:22:30.000Z</time>
      </trkpt>
      <trkpt lat="47.27654" lon="-2.49242">
        <ele>231.39999389648</ele>
        <time>2019-11-03T10:22:36.000Z</time>
      </trkpt>
      <trkpt lat="47.27647" lon="-2.49242">
        <ele>231.39999389648</ele>
        <time>2019-11-03T10:22:37.000Z</time>
      </trkpt>
      <trkpt lat="47.27636" lon="-2.49236">
        <ele>231.39999389648</ele>
        <time>2019-11-03T10:22:39.000Z</time>
      </trkpt>
      <trkpt lat="47.27628" lon="-2.49221">
        <ele>231.39999389648</ele>
        <time>2019-11-03T10:22:41.000Z</time>
      </trkpt>
      <trkpt lat="47.27624" lon="-2.49213">
        <ele>230.80000305176</ele>
        <time>2019-11-03T10:22:42.000Z</time>
      </trkpt>
      <trkpt lat="47.27619" lon="-2.49205">
        <ele>230.39999389648</ele>
        <time>2019-11-03T10:22:43.000Z</time>
      </trkpt>
      <trkpt lat="47.27614" lon="-2.49197">
        <ele>230</ele>
        <time>2019-11-03T10:22:44.000Z</time>
      </trkpt>
      <trkpt lat="47.2761" lon="-2.49189">
        <ele>229.39999389648</ele>
        <time>2019-11-03T10:22:45.000Z</time>
      </trkpt>
      <trkpt lat="47.27605" lon="-2.49181">
        <ele>229</ele>
        <time>2019-11-03T10:22:46.000Z</time>
      </trkpt>
      <trkpt lat="47.27595" lon="-2.49153">
        <ele>229</ele>
        <time>2019-11-03T10:22:49.000Z</time>
      </trkpt>
      <trkpt lat="47.27589" lon="-2.49122">
        <ele>229</ele>
        <time>2019-11-03T10:22:53.000Z</time>
      </trkpt>
      <trkpt lat="47.27588" lon="-2.49115">
        <ele>229</ele>
        <time>2019-11-03T10:22:54.000Z</time>
      </trkpt>
      <trkpt lat="47.27585" lon="-2.49101">
        <ele>229</ele>
        <time>2019-11-03T10:22:57.000Z</time>
      </trkpt>
      <trkpt lat="47.27575" lon="-2.49099">
        <ele>229</ele>
        <time>2019-11-03T10:23:00.000Z</time>
      </trkpt>
      <trkpt lat="47.27561" lon="-2.49101">
        <ele>229</ele>
        <time>2019-11-03T10:23:04.000Z</time>
      </trkpt>
      <trkpt lat="47.27558" lon="-2.491">
        <ele>229</ele>
        <time>2019-11-03T10:23:06.000Z</time>
      </trkpt>
      <trkpt lat="47.27554" lon="-2.491">
        <ele>229</ele>
        <time>2019-11-03T10:23:08.000Z</time>
      </trkpt>
      <trkpt lat="47.27547" lon="-2.49099">
        <ele>229</ele>
        <time>2019-11-03T10:23:11.000Z</time>
      </trkpt>
      <trkpt lat="47.27546" lon="-2.49095">
        <ele>229</ele>
        <time>2019-11-03T10:23:12.000Z</time>
      </trkpt>
      <trkpt lat="47.27542" lon="-2.49076">
        <ele>229</ele>
        <time>2019-11-03T10:23:17.000Z</time>
      </trkpt>
      <trkpt lat="47.2754" lon="-2.49058">
        <ele>229</ele>
        <time>2019-11-03T10:23:21.000Z</time>
      </trkpt>
      <trkpt lat="47.27536" lon="-2.49019">
        <ele>229</ele>
        <time>2019-11-03T10:23:28.000Z</time>
      </trkpt>
      <trkpt lat="47.27532" lon="-2.48989">
        <ele>229</ele>
        <time>2019-11-03T10:23:33.000Z</time>
      </trkpt>
      <trkpt lat="47.27531" lon="-2.48975">
        <ele>229</ele>
        <time>2019-11-03T10:23:35.000Z</time>
      </trkpt>
      <trkpt lat="47.27529" lon="-2.48948">
        <ele>229</ele>
        <time>2019-11-03T10:23:39.000Z</time>
      </trkpt>
      <trkpt lat="47.27527" lon="-2.48928">
        <ele>229</ele>
        <time>2019-11-03T10:23:42.000Z</time>
      </trkpt>
      <trkpt lat="47.27524" lon="-2.48923">
        <ele>228.60000610352</ele>
        <time>2019-11-03T10:23:43.000Z</time>
      </trkpt>
      <trkpt lat="47.27521" lon="-2.48918">
        <ele>228.19999694824</ele>
        <time>2019-11-03T10:23:44.000Z</time>
      </trkpt>
      <trkpt lat="47.27519" lon="-2.48912">
        <ele>227.80000305176</ele>
        <time>2019-11-03T10:23:45.000Z</time>
      </trkpt>
      <trkpt lat="47.27519" lon="-2.48905">
        <ele>227</ele>
        <time>2019-11-03T10:23:46.000Z</time>
      </trkpt>
      <trkpt lat="47.27519" lon="-2.48899">
        <ele>227</ele>
        <time>2019-11-03T10:23:47.000Z</time>
      </trkpt>
      <trkpt lat="47.27521" lon="-2.4888">
        <ele>227.39999389648</ele>
        <time>2019-11-03T10:23:50.000Z</time>
      </trkpt>
      <trkpt lat="47.27522" lon="-2.48873">
        <ele>227.80000305176</ele>
        <time>2019-11-03T10:23:51.000Z</time>
      </trkpt>
      <trkpt lat="47.27524" lon="-2.48865">
        <ele>228.19999694824</ele>
        <time>2019-11-03T10:23:52.000Z</time>
      </trkpt>
      <trkpt lat="47.27526" lon="-2.48858">
        <ele>228.80000305176</ele>
        <time>2019-11-03T10:23:53.000Z</time>
      </trkpt>
      <trkpt lat="47.27527" lon="-2.48852">
        <ele>229.19999694824</ele>
        <time>2019-11-03T10:23:54.000Z</time>
      </trkpt>
      <trkpt lat="47.2753" lon="-2.4884">
        <ele>229.19999694824</ele>
        <time>2019-11-03T10:23:56.000Z</time>
      </trkpt>
      <trkpt lat="47.27538" lon="-2.48811">
        <ele>229.19999694824</ele>
        <time>2019-11-03T10:24:02.000Z</time>
      </trkpt>
      <trkpt lat="47.27539" lon="-2.48805">
        <ele>229.19999694824</ele>
        <time>2019-11-03T10:24:03.000Z</time>
      </trkpt>
      <trkpt lat="47.2754" lon="-2.48793">
        <ele>229.19999694824</ele>
        <time>2019-11-03T10:24:05.000Z</time>
      </trkpt>
      <trkpt lat="47.27541" lon="-2.48786">
        <ele>229.19999694824</ele>
        <time>2019-11-03T10:24:06.000Z</time>
      </trkpt>
      <trkpt lat="47.27542" lon="-2.48765">
        <ele>229.19999694824</ele>
        <time>2019-11-03T10:24:09.000Z</time>
      </trkpt>
      <trkpt lat="47.27541" lon="-2.48753">
        <ele>229.19999694824</ele>
        <time>2019-11-03T10:24:11.000Z</time>
      </trkpt>
      <trkpt lat="47.27537" lon="-2.48731">
        <ele>229.19999694824</ele>
        <time>2019-11-03T10:24:15.000Z</time>
      </trkpt>
      <trkpt lat="47.27535" lon="-2.48726">
        <ele>229.19999694824</ele>
        <time>2019-11-03T10:24:16.000Z</time>
      </trkpt>
      <trkpt lat="47.27529" lon="-2.48709">
        <ele>229.19999694824</ele>
        <time>2019-11-03T10:24:19.000Z</time>
      </trkpt>
      <trkpt lat="47.27525" lon="-2.48699">
        <ele>229.19999694824</ele>
        <time>2019-11-03T10:24:21.000Z</time>
      </trkpt>
      <trkpt lat="47.27522" lon="-2.48683">
        <ele>229.19999694824</ele>
        <time>2019-11-03T10:24:24.000Z</time>
      </trkpt>
      <trkpt lat="47.2752" lon="-2.48667">
        <ele>229.19999694824</ele>
        <time>2019-11-03T10:24:26.000Z</time>
      </trkpt>
      <trkpt lat="47.27519" lon="-2.48644">
        <ele>229.19999694824</ele>
        <time>2019-11-03T10:24:29.000Z</time>
      </trkpt>
      <trkpt lat="47.27516" lon="-2.48637">
        <ele>229.19999694824</ele>
        <time>2019-11-03T10:24:30.000Z</time>
      </trkpt>
      <trkpt lat="47.27501" lon="-2.48607">
        <ele>229.19999694824</ele>
        <time>2019-11-03T10:24:35.000Z</time>
      </trkpt>
      <trkpt lat="47.27488" lon="-2.48585">
        <ele>229.19999694824</ele>
        <time>2019-11-03T10:24:39.000Z</time>
      </trkpt>
      <trkpt lat="47.27471" lon="-2.48558">
        <ele>229.19999694824</ele>
        <time>2019-11-03T10:24:45.000Z</time>
      </trkpt>
      <trkpt lat="47.27469" lon="-2.48537">
        <ele>229.19999694824</ele>
        <time>2019-11-03T10:24:48.000Z</time>
      </trkpt>
      <trkpt lat="47.2747" lon="-2.4853">
        <ele>229.19999694824</ele>
        <time>2019-11-03T10:24:49.000Z</time>
      </trkpt>
      <trkpt lat="47.2747" lon="-2.48515">
        <ele>229.19999694824</ele>
        <time>2019-11-03T10:24:51.000Z</time>
      </trkpt>
      <trkpt lat="47.27468" lon="-2.48488">
        <ele>229.19999694824</ele>
        <time>2019-11-03T10:24:55.000Z</time>
      </trkpt>
      <trkpt lat="47.27465" lon="-2.48464">
        <ele>229.19999694824</ele>
        <time>2019-11-03T10:25:00.000Z</time>
      </trkpt>
      <trkpt lat="47.27463" lon="-2.48449">
        <ele>229.19999694824</ele>
        <time>2019-11-03T10:25:05.000Z</time>
      </trkpt>
      <trkpt lat="47.27459" lon="-2.48429">
        <ele>229.19999694824</ele>
        <time>2019-11-03T10:25:10.000Z</time>
      </trkpt>
      <trkpt lat="47.27451" lon="-2.48398">
        <ele>229.19999694824</ele>
        <time>2019-11-03T10:25:15.000Z</time>
      </trkpt>
      <trkpt lat="47.27444" lon="-2.48371">
        <ele>229.19999694824</ele>
        <time>2019-11-03T10:25:21.000Z</time>
      </trkpt>
      <trkpt lat="47.27439" lon="-2.48357">
        <ele>229.19999694824</ele>
        <time>2019-11-03T10:25:26.000Z</time>
      </trkpt>
      <trkpt lat="47.27432" lon="-2.48328">
        <ele>229.19999694824</ele>
        <time>2019-11-03T10:25:32.000Z</time>
      </trkpt>
      <trkpt lat="47.27431" lon="-2.48322">
        <ele>229.19999694824</ele>
        <time>2019-11-03T10:25:33.000Z</time>
      </trkpt>
      <trkpt lat="47.27425" lon="-2.48292">
        <ele>229.19999694824</ele>
        <time>2019-11-03T10:25:38.000Z</time>
      </trkpt>
      <trkpt lat="47.27421" lon="-2.48247">
        <ele>229.19999694824</ele>
        <time>2019-11-03T10:25:46.000Z</time>
      </trkpt>
      <trkpt lat="47.27417" lon="-2.48224">
        <ele>229.19999694824</ele>
        <time>2019-11-03T10:25:50.000Z</time>
      </trkpt>
      <trkpt lat="47.27413" lon="-2.48208">
        <ele>229.19999694824</ele>
        <time>2019-11-03T10:25:53.000Z</time>
      </trkpt>
      <trkpt lat="47.27413" lon="-2.48203">
        <ele>229.60000610352</ele>
        <time>2019-11-03T10:25:54.000Z</time>
      </trkpt>
      <trkpt lat="47.27412" lon="-2.48197">
        <ele>230</ele>
        <time>2019-11-03T10:25:55.000Z</time>
      </trkpt>
      <trkpt lat="47.2741" lon="-2.48191">
        <ele>230.39999389648</ele>
        <time>2019-11-03T10:25:56.000Z</time>
      </trkpt>
      <trkpt lat="47.27409" lon="-2.48186">
        <ele>230.80000305176</ele>
        <time>2019-11-03T10:25:57.000Z</time>
      </trkpt>
      <trkpt lat="47.27408" lon="-2.48181">
        <ele>231.19999694824</ele>
        <time>2019-11-03T10:25:58.000Z</time>
      </trkpt>
      <trkpt lat="47.27408" lon="-2.48176">
        <ele>231.19999694824</ele>
        <time>2019-11-03T10:25:59.000Z</time>
      </trkpt>
      <trkpt lat="47.27408" lon="-2.48146">
        <ele>231.19999694824</ele>
        <time>2019-11-03T10:26:04.000Z</time>
      </trkpt>
      <trkpt lat="47.27413" lon="-2.48131">
        <ele>231.19999694824</ele>
        <time>2019-11-03T10:26:07.000Z</time>
      </trkpt>
      <trkpt lat="47.27426" lon="-2.48128">
        <ele>231.19999694824</ele>
        <time>2019-11-03T10:26:10.000Z</time>
      </trkpt>
      <trkpt lat="47.27444" lon="-2.48129">
        <ele>231.19999694824</ele>
        <time>2019-11-03T10:26:14.000Z</time>
      </trkpt>
      <trkpt lat="47.27449" lon="-2.48128">
        <ele>231.60000610352</ele>
        <time>2019-11-03T10:26:15.000Z</time>
      </trkpt>
      <trkpt lat="47.27454" lon="-2.48127">
        <ele>232</ele>
        <time>2019-11-03T10:26:16.000Z</time>
      </trkpt>
      <trkpt lat="47.2746" lon="-2.48127">
        <ele>232.39999389648</ele>
        <time>2019-11-03T10:26:17.000Z</time>
      </trkpt>
      <trkpt lat="47.27465" lon="-2.48126">
        <ele>233</ele>
        <time>2019-11-03T10:26:18.000Z</time>
      </trkpt>
      <trkpt lat="47.2747" lon="-2.48124">
        <ele>233.39999389648</ele>
        <time>2019-11-03T10:26:19.000Z</time>
      </trkpt>
      <trkpt lat="47.27474" lon="-2.48122">
        <ele>233.39999389648</ele>
        <time>2019-11-03T10:26:20.000Z</time>
      </trkpt>
      <trkpt lat="47.27486" lon="-2.48116">
        <ele>233.39999389648</ele>
        <time>2019-11-03T10:26:23.000Z</time>
      </trkpt>
      <trkpt lat="47.2749" lon="-2.48115">
        <ele>233.39999389648</ele>
        <time>2019-11-03T10:26:24.000Z</time>
      </trkpt>
      <trkpt lat="47.27497" lon="-2.48114">
        <ele>233.80000305176</ele>
        <time>2019-11-03T10:26:27.000Z</time>
      </trkpt>
      <trkpt lat="47.275" lon="-2.48116">
        <ele>234.19999694824</ele>
        <time>2019-11-03T10:26:28.000Z</time>
      </trkpt>
      <trkpt lat="47.27502" lon="-2.48119">
        <ele>234.60000610352</ele>
        <time>2019-11-03T10:26:29.000Z</time>
      </trkpt>
      <trkpt lat="47.27504" lon="-2.48124">
        <ele>235.19999694824</ele>
        <time>2019-11-03T10:26:30.000Z</time>
      </trkpt>
      <trkpt lat="47.27506" lon="-2.48127">
        <ele>235.60000610352</ele>
        <time>2019-11-03T10:26:31.000Z</time>
      </trkpt>
      <trkpt lat="47.2751" lon="-2.48131">
        <ele>235.60000610352</ele>
        <time>2019-11-03T10:26:33.000Z</time>
      </trkpt>
      <trkpt lat="47.27513" lon="-2.48132">
        <ele>235.60000610352</ele>
        <time>2019-11-03T10:26:34.000Z</time>
      </trkpt>
      <trkpt lat="47.27524" lon="-2.48136">
        <ele>235.60000610352</ele>
        <time>2019-11-03T10:26:39.000Z</time>
      </trkpt>
      <trkpt lat="47.27539" lon="-2.48143">
        <ele>235.60000610352</ele>
        <time>2019-11-03T10:26:43.000Z</time>
      </trkpt>
      <trkpt lat="47.27548" lon="-2.48143">
        <ele>235.60000610352</ele>
        <time>2019-11-03T10:26:45.000Z</time>
      </trkpt>
      <trkpt lat="47.2756" lon="-2.48145">
        <ele>235.60000610352</ele>
        <time>2019-11-03T10:26:48.000Z</time>
      </trkpt>
      <trkpt lat="47.27573" lon="-2.48146">
        <ele>235.60000610352</ele>
        <time>2019-11-03T10:26:51.000Z</time>
      </trkpt>
      <trkpt lat="47.27589" lon="-2.48157">
        <ele>235.60000610352</ele>
        <time>2019-11-03T10:26:55.000Z</time>
      </trkpt>
      <trkpt lat="47.27597" lon="-2.48165">
        <ele>235.60000610352</ele>
        <time>2019-11-03T10:26:57.000Z</time>
      </trkpt>
      <trkpt lat="47.2761" lon="-2.4818">
        <ele>235.60000610352</ele>
        <time>2019-11-03T10:27:01.000Z</time>
      </trkpt>
      <trkpt lat="47.27628" lon="-2.48201">
        <ele>235.60000610352</ele>
        <time>2019-11-03T10:27:06.000Z</time>
      </trkpt>
      <trkpt lat="47.27631" lon="-2.48204">
        <ele>235.60000610352</ele>
        <time>2019-11-03T10:27:07.000Z</time>
      </trkpt>
      <trkpt lat="47.27641" lon="-2.4822">
        <ele>235.60000610352</ele>
        <time>2019-11-03T10:27:12.000Z</time>
      </trkpt>
      <trkpt lat="47.27639" lon="-2.48237">
        <ele>235.60000610352</ele>
        <time>2019-11-03T10:27:16.000Z</time>
      </trkpt>
      <trkpt lat="47.27643" lon="-2.48251">
        <ele>235.60000610352</ele>
        <time>2019-11-03T10:27:19.000Z</time>
      </trkpt>
      <trkpt lat="47.27647" lon="-2.48269">
        <ele>235.60000610352</ele>
        <time>2019-11-03T10:27:23.000Z</time>
      </trkpt>
      <trkpt lat="47.27648" lon="-2.48274">
        <ele>235.60000610352</ele>
        <time>2019-11-03T10:27:24.000Z</time>
      </trkpt>
      <trkpt lat="47.27654" lon="-2.4829">
        <ele>235.60000610352</ele>
        <time>2019-11-03T10:27:27.000Z</time>
      </trkpt>
      <trkpt lat="47.27659" lon="-2.48298">
        <ele>236.39999389648</ele>
        <time>2019-11-03T10:27:29.000Z</time>
      </trkpt>
      <trkpt lat="47.27662" lon="-2.48303">
        <ele>236.80000305176</ele>
        <time>2019-11-03T10:27:30.000Z</time>
      </trkpt>
      <trkpt lat="47.27664" lon="-2.48307">
        <ele>237.19999694824</ele>
        <time>2019-11-03T10:27:31.000Z</time>
      </trkpt>
      <trkpt lat="47.27667" lon="-2.48309">
        <ele>237.60000610352</ele>
        <time>2019-11-03T10:27:32.000Z</time>
      </trkpt>
      <trkpt lat="47.2767" lon="-2.4831">
        <ele>237.60000610352</ele>
        <time>2019-11-03T10:27:33.000Z</time>
      </trkpt>
      <trkpt lat="47.27673" lon="-2.48308">
        <ele>237.19999694824</ele>
        <time>2019-11-03T10:27:34.000Z</time>
      </trkpt>
      <trkpt lat="47.27674" lon="-2.48305">
        <ele>236.80000305176</ele>
        <time>2019-11-03T10:27:35.000Z</time>
      </trkpt>
      <trkpt lat="47.27674" lon="-2.48301">
        <ele>236.39999389648</ele>
        <time>2019-11-03T10:27:36.000Z</time>
      </trkpt>
      <trkpt lat="47.27674" lon="-2.48296">
        <ele>235.80000305176</ele>
        <time>2019-11-03T10:27:37.000Z</time>
      </trkpt>
      <trkpt lat="47.27674" lon="-2.48292">
        <ele>235.39999389648</ele>
        <time>2019-11-03T10:27:38.000Z</time>
      </trkpt>
      <trkpt lat="47.27674" lon="-2.48289">
        <ele>235.39999389648</ele>
        <time>2019-11-03T10:27:39.000Z</time>
      </trkpt>
      <trkpt lat="47.27677" lon="-2.48275">
        <ele>235.39999389648</ele>
        <time>2019-11-03T10:27:44.000Z</time>
      </trkpt>
      <trkpt lat="47.27682" lon="-2.48277">
        <ele>235.39999389648</ele>
        <time>2019-11-03T10:27:49.000Z</time>
      </trkpt>
      <trkpt lat="47.27686" lon="-2.48279">
        <ele>235.39999389648</ele>
        <time>2019-11-03T10:27:52.000Z</time>
      </trkpt>
      <trkpt lat="47.27688" lon="-2.48279">
        <ele>235.39999389648</ele>
        <time>2019-11-03T10:27:53.000Z</time>
      </trkpt>
      <trkpt lat="47.27701" lon="-2.48278">
        <ele>235.39999389648</ele>
        <time>2019-11-03T10:27:58.000Z</time>
      </trkpt>
      <trkpt lat="47.27708" lon="-2.48279">
        <ele>235.39999389648</ele>
        <time>2019-11-03T10:28:03.000Z</time>
      </trkpt>
      <trkpt lat="47.2771" lon="-2.4828">
        <ele>235.39999389648</ele>
        <time>2019-11-03T10:28:04.000Z</time>
      </trkpt>
      <trkpt lat="47.27712" lon="-2.48279">
        <ele>235</ele>
        <time>2019-11-03T10:28:05.000Z</time>
      </trkpt>
      <trkpt lat="47.27714" lon="-2.48276">
        <ele>234.60000610352</ele>
        <time>2019-11-03T10:28:06.000Z</time>
      </trkpt>
      <trkpt lat="47.27716" lon="-2.48275">
        <ele>234.19999694824</ele>
        <time>2019-11-03T10:28:07.000Z</time>
      </trkpt>
      <trkpt lat="47.27718" lon="-2.48274">
        <ele>233.80000305176</ele>
        <time>2019-11-03T10:28:08.000Z</time>
      </trkpt>
      <trkpt lat="47.2772" lon="-2.48274">
        <ele>233.39999389648</ele>
        <time>2019-11-03T10:28:09.000Z</time>
      </trkpt>
      <trkpt lat="47.27729" lon="-2.48274">
        <ele>233.39999389648</ele>
        <time>2019-11-03T10:28:13.000Z</time>
      </trkpt>
      <trkpt lat="47.27736" lon="-2.48266">
        <ele>233.39999389648</ele>
        <time>2019-11-03T10:28:17.000Z</time>
      </trkpt>
      <trkpt lat="47.27747" lon="-2.48264">
        <ele>233.39999389648</ele>
        <time>2019-11-03T10:28:21.000Z</time>
      </trkpt>
      <trkpt lat="47.27746" lon="-2.48253">
        <ele>233.39999389648</ele>
        <time>2019-11-03T10:28:24.000Z</time>
      </trkpt>
      <trkpt lat="47.27737" lon="-2.48236">
        <ele>233.39999389648</ele>
        <time>2019-11-03T10:28:28.000Z</time>
      </trkpt>
      <trkpt lat="47.27723" lon="-2.48204">
        <ele>233.39999389648</ele>
        <time>2019-11-03T10:28:35.000Z</time>
      </trkpt>
      <trkpt lat="47.27718" lon="-2.48192">
        <ele>233.80000305176</ele>
        <time>2019-11-03T10:28:38.000Z</time>
      </trkpt>
      <trkpt lat="47.27716" lon="-2.48188">
        <ele>234.19999694824</ele>
        <time>2019-11-03T10:28:39.000Z</time>
      </trkpt>
      <trkpt lat="47.27714" lon="-2.48185">
        <ele>234.60000610352</ele>
        <time>2019-11-03T10:28:40.000Z</time>
      </trkpt>
      <trkpt lat="47.27713" lon="-2.48183">
        <ele>235</ele>
        <time>2019-11-03T10:28:41.000Z</time>
      </trkpt>
      <trkpt lat="47.27711" lon="-2.4818">
        <ele>235.60000610352</ele>
        <time>2019-11-03T10:28:42.000Z</time>
      </trkpt>
      <trkpt lat="47.27707" lon="-2.48166">
        <ele>235.60000610352</ele>
        <time>2019-11-03T10:28:46.000Z</time>
      </trkpt>
      <trkpt lat="47.27709" lon="-2.48162">
        <ele>236</ele>
        <time>2019-11-03T10:28:47.000Z</time>
      </trkpt>
      <trkpt lat="47.27711" lon="-2.48161">
        <ele>236.39999389648</ele>
        <time>2019-11-03T10:28:48.000Z</time>
      </trkpt>
      <trkpt lat="47.27713" lon="-2.4816">
        <ele>236.80000305176</ele>
        <time>2019-11-03T10:28:49.000Z</time>
      </trkpt>
      <trkpt lat="47.27714" lon="-2.4816">
        <ele>237.19999694824</ele>
        <time>2019-11-03T10:28:50.000Z</time>
      </trkpt>
      <trkpt lat="47.27714" lon="-2.4816">
        <ele>237.80000305176</ele>
        <time>2019-11-03T10:28:51.000Z</time>
      </trkpt>
      <trkpt lat="47.27706" lon="-2.48163">
        <ele>238.19999694824</ele>
        <time>2019-11-03T10:29:08.000Z</time>
      </trkpt>
      <trkpt lat="47.27705" lon="-2.48161">
        <ele>237.80000305176</ele>
        <time>2019-11-03T10:29:09.000Z</time>
      </trkpt>
      <trkpt lat="47.27704" lon="-2.48157">
        <ele>237.80000305176</ele>
        <time>2019-11-03T10:29:10.000Z</time>
      </trkpt>
      <trkpt lat="47.27702" lon="-2.48145">
        <ele>238.39999389648</ele>
        <time>2019-11-03T10:29:13.000Z</time>
      </trkpt>
      <trkpt lat="47.27701" lon="-2.48141">
        <ele>238.80000305176</ele>
        <time>2019-11-03T10:29:14.000Z</time>
      </trkpt>
      <trkpt lat="47.277" lon="-2.48136">
        <ele>239.19999694824</ele>
        <time>2019-11-03T10:29:15.000Z</time>
      </trkpt>
      <trkpt lat="47.277" lon="-2.4813">
        <ele>239.80000305176</ele>
        <time>2019-11-03T10:29:16.000Z</time>
      </trkpt>
      <trkpt lat="47.27699" lon="-2.48124">
        <ele>240.19999694824</ele>
        <time>2019-11-03T10:29:17.000Z</time>
      </trkpt>
      <trkpt lat="47.27699" lon="-2.48093">
        <ele>240.19999694824</ele>
        <time>2019-11-03T10:29:22.000Z</time>
      </trkpt>
      <trkpt lat="47.27697" lon="-2.48068">
        <ele>240.19999694824</ele>
        <time>2019-11-03T10:29:26.000Z</time>
      </trkpt>
      <trkpt lat="47.27694" lon="-2.48051">
        <ele>240.19999694824</ele>
        <time>2019-11-03T10:29:29.000Z</time>
      </trkpt>
      <trkpt lat="47.27685" lon="-2.4802">
        <ele>240.19999694824</ele>
        <time>2019-11-03T10:29:35.000Z</time>
      </trkpt>
      <trkpt lat="47.2768" lon="-2.47994">
        <ele>240.19999694824</ele>
        <time>2019-11-03T10:29:40.000Z</time>
      </trkpt>
      <trkpt lat="47.27677" lon="-2.47976">
        <ele>240.19999694824</ele>
        <time>2019-11-03T10:29:43.000Z</time>
      </trkpt>
      <trkpt lat="47.27673" lon="-2.47956">
        <ele>240.19999694824</ele>
        <time>2019-11-03T10:29:46.000Z</time>
      </trkpt>
      <trkpt lat="47.27669" lon="-2.47923">
        <ele>239.80000305176</ele>
        <time>2019-11-03T10:29:50.000Z</time>
      </trkpt>
      <trkpt lat="47.27667" lon="-2.47914">
        <ele>239.39999389648</ele>
        <time>2019-11-03T10:29:51.000Z</time>
      </trkpt>
      <trkpt lat="47.27665" lon="-2.47904">
        <ele>239</ele>
        <time>2019-11-03T10:29:52.000Z</time>
      </trkpt>
      <trkpt lat="47.27664" lon="-2.47896">
        <ele>238.60000610352</ele>
        <time>2019-11-03T10:29:53.000Z</time>
      </trkpt>
      <trkpt lat="47.27662" lon="-2.47887">
        <ele>238.19999694824</ele>
        <time>2019-11-03T10:29:54.000Z</time>
      </trkpt>
      <trkpt lat="47.27656" lon="-2.47853">
        <ele>237.80000305176</ele>
        <time>2019-11-03T10:29:58.000Z</time>
      </trkpt>
      <trkpt lat="47.27654" lon="-2.47845">
        <ele>237.39999389648</ele>
        <time>2019-11-03T10:29:59.000Z</time>
      </trkpt>
      <trkpt lat="47.27653" lon="-2.47837">
        <ele>237</ele>
        <time>2019-11-03T10:30:00.000Z</time>
      </trkpt>
      <trkpt lat="47.27651" lon="-2.4783">
        <ele>236.60000610352</ele>
        <time>2019-11-03T10:30:01.000Z</time>
      </trkpt>
      <trkpt lat="47.27649" lon="-2.47823">
        <ele>236.19999694824</ele>
        <time>2019-11-03T10:30:02.000Z</time>
      </trkpt>
      <trkpt lat="47.27647" lon="-2.4781">
        <ele>236.19999694824</ele>
        <time>2019-11-03T10:30:04.000Z</time>
      </trkpt>
      <trkpt lat="47.2764" lon="-2.47769">
        <ele>236.19999694824</ele>
        <time>2019-11-03T10:30:10.000Z</time>
      </trkpt>
      <trkpt lat="47.27635" lon="-2.47749">
        <ele>236.19999694824</ele>
        <time>2019-11-03T10:30:13.000Z</time>
      </trkpt>
      <trkpt lat="47.27629" lon="-2.47727">
        <ele>236.19999694824</ele>
        <time>2019-11-03T10:30:16.000Z</time>
      </trkpt>
      <trkpt lat="47.27627" lon="-2.4772">
        <ele>236.19999694824</ele>
        <time>2019-11-03T10:30:17.000Z</time>
      </trkpt>
      <trkpt lat="47.27617" lon="-2.47699">
        <ele>236.19999694824</ele>
        <time>2019-11-03T10:30:20.000Z</time>
      </trkpt>
      <trkpt lat="47.27609" lon="-2.4767">
        <ele>235.80000305176</ele>
        <time>2019-11-03T10:30:23.000Z</time>
      </trkpt>
      <trkpt lat="47.27605" lon="-2.4766">
        <ele>235.39999389648</ele>
        <time>2019-11-03T10:30:24.000Z</time>
      </trkpt>
      <trkpt lat="47.27601" lon="-2.4765">
        <ele>235</ele>
        <time>2019-11-03T10:30:25.000Z</time>
      </trkpt>
      <trkpt lat="47.27597" lon="-2.4764">
        <ele>234.60000610352</ele>
        <time>2019-11-03T10:30:26.000Z</time>
      </trkpt>
      <trkpt lat="47.27594" lon="-2.4763">
        <ele>234.19999694824</ele>
        <time>2019-11-03T10:30:27.000Z</time>
      </trkpt>
      <trkpt lat="47.27583" lon="-2.476">
        <ele>234.19999694824</ele>
        <time>2019-11-03T10:30:30.000Z</time>
      </trkpt>
      <trkpt lat="47.27578" lon="-2.47591">
        <ele>233.60000610352</ele>
        <time>2019-11-03T10:30:31.000Z</time>
      </trkpt>
      <trkpt lat="47.27573" lon="-2.47584">
        <ele>233.19999694824</ele>
        <time>2019-11-03T10:30:32.000Z</time>
      </trkpt>
      <trkpt lat="47.27568" lon="-2.47578">
        <ele>232.80000305176</ele>
        <time>2019-11-03T10:30:33.000Z</time>
      </trkpt>
      <trkpt lat="47.27565" lon="-2.47572">
        <ele>232.39999389648</ele>
        <time>2019-11-03T10:30:34.000Z</time>
      </trkpt>
      <trkpt lat="47.27561" lon="-2.47568">
        <ele>232</ele>
        <time>2019-11-03T10:30:35.000Z</time>
      </trkpt>
      <trkpt lat="47.27554" lon="-2.47569">
        <ele>232</ele>
        <time>2019-11-03T10:30:37.000Z</time>
      </trkpt>
      <trkpt lat="47.27536" lon="-2.47584">
        <ele>232</ele>
        <time>2019-11-03T10:30:41.000Z</time>
      </trkpt>
      <trkpt lat="47.27504" lon="-2.476">
        <ele>232</ele>
        <time>2019-11-03T10:30:47.000Z</time>
      </trkpt>
      <trkpt lat="47.27494" lon="-2.47603">
        <ele>232</ele>
        <time>2019-11-03T10:30:49.000Z</time>
      </trkpt>
      <trkpt lat="47.27482" lon="-2.47606">
        <ele>232</ele>
        <time>2019-11-03T10:30:51.000Z</time>
      </trkpt>
      <trkpt lat="47.27472" lon="-2.47609">
        <ele>232</ele>
        <time>2019-11-03T10:30:53.000Z</time>
      </trkpt>
      <trkpt lat="47.27458" lon="-2.4762">
        <ele>232</ele>
        <time>2019-11-03T10:30:56.000Z</time>
      </trkpt>
      <trkpt lat="47.27443" lon="-2.4764">
        <ele>232</ele>
        <time>2019-11-03T10:31:00.000Z</time>
      </trkpt>
      <trkpt lat="47.27441" lon="-2.47646">
        <ele>232</ele>
        <time>2019-11-03T10:31:01.000Z</time>
      </trkpt>
      <trkpt lat="47.27429" lon="-2.47667">
        <ele>232</ele>
        <time>2019-11-03T10:31:05.000Z</time>
      </trkpt>
      <trkpt lat="47.27422" lon="-2.47674">
        <ele>232</ele>
        <time>2019-11-03T10:31:07.000Z</time>
      </trkpt>
      <trkpt lat="47.27406" lon="-2.47676">
        <ele>232</ele>
        <time>2019-11-03T10:31:11.000Z</time>
      </trkpt>
      <trkpt lat="47.27394" lon="-2.47667">
        <ele>232</ele>
        <time>2019-11-03T10:31:14.000Z</time>
      </trkpt>
      <trkpt lat="47.27386" lon="-2.47662">
        <ele>231.60000610352</ele>
        <time>2019-11-03T10:31:16.000Z</time>
      </trkpt>
      <trkpt lat="47.27382" lon="-2.47659">
        <ele>231.19999694824</ele>
        <time>2019-11-03T10:31:17.000Z</time>
      </trkpt>
      <trkpt lat="47.27378" lon="-2.47656">
        <ele>230.80000305176</ele>
        <time>2019-11-03T10:31:18.000Z</time>
      </trkpt>
      <trkpt lat="47.27374" lon="-2.47653">
        <ele>230.39999389648</ele>
        <time>2019-11-03T10:31:19.000Z</time>
      </trkpt>
      <trkpt lat="47.2737" lon="-2.47651">
        <ele>230</ele>
        <time>2019-11-03T10:31:20.000Z</time>
      </trkpt>
      <trkpt lat="47.27357" lon="-2.47638">
        <ele>230</ele>
        <time>2019-11-03T10:31:24.000Z</time>
      </trkpt>
      <trkpt lat="47.27354" lon="-2.47634">
        <ele>230.39999389648</ele>
        <time>2019-11-03T10:31:25.000Z</time>
      </trkpt>
      <trkpt lat="47.27351" lon="-2.47631">
        <ele>230.80000305176</ele>
        <time>2019-11-03T10:31:26.000Z</time>
      </trkpt>
      <trkpt lat="47.27348" lon="-2.47628">
        <ele>231.19999694824</ele>
        <time>2019-11-03T10:31:27.000Z</time>
      </trkpt>
      <trkpt lat="47.27345" lon="-2.47626">
        <ele>231.60000610352</ele>
        <time>2019-11-03T10:31:28.000Z</time>
      </trkpt>
      <trkpt lat="47.27342" lon="-2.47624">
        <ele>232</ele>
        <time>2019-11-03T10:31:29.000Z</time>
      </trkpt>
      <trkpt lat="47.2734" lon="-2.47623">
        <ele>232</ele>
        <time>2019-11-03T10:31:30.000Z</time>
      </trkpt>
      <trkpt lat="47.27335" lon="-2.47621">
        <ele>232.39999389648</ele>
        <time>2019-11-03T10:31:32.000Z</time>
      </trkpt>
      <trkpt lat="47.27333" lon="-2.4762">
        <ele>232.80000305176</ele>
        <time>2019-11-03T10:31:33.000Z</time>
      </trkpt>
      <trkpt lat="47.27332" lon="-2.4762">
        <ele>233.19999694824</ele>
        <time>2019-11-03T10:31:34.000Z</time>
      </trkpt>
      <trkpt lat="47.27329" lon="-2.4762">
        <ele>233.60000610352</ele>
        <time>2019-11-03T10:31:35.000Z</time>
      </trkpt>
      <trkpt lat="47.27327" lon="-2.47619">
        <ele>234</ele>
        <time>2019-11-03T10:31:36.000Z</time>
      </trkpt>
      <trkpt lat="47.27319" lon="-2.47609">
        <ele>234</ele>
        <time>2019-11-03T10:31:39.000Z</time>
      </trkpt>
      <trkpt lat="47.27316" lon="-2.47605">
        <ele>234</ele>
        <time>2019-11-03T10:31:40.000Z</time>
      </trkpt>
      <trkpt lat="47.27314" lon="-2.47601">
        <ele>234.39999389648</ele>
        <time>2019-11-03T10:31:41.000Z</time>
      </trkpt>
      <trkpt lat="47.27313" lon="-2.47599">
        <ele>235</ele>
        <time>2019-11-03T10:31:42.000Z</time>
      </trkpt>
      <trkpt lat="47.27312" lon="-2.47597">
        <ele>235.39999389648</ele>
        <time>2019-11-03T10:31:43.000Z</time>
      </trkpt>
      <trkpt lat="47.2731" lon="-2.47595">
        <ele>235.80000305176</ele>
        <time>2019-11-03T10:31:44.000Z</time>
      </trkpt>
      <trkpt lat="47.27309" lon="-2.47594">
        <ele>236.19999694824</ele>
        <time>2019-11-03T10:31:45.000Z</time>
      </trkpt>
      <trkpt lat="47.27308" lon="-2.47593">
        <ele>236.19999694824</ele>
        <time>2019-11-03T10:31:46.000Z</time>
      </trkpt>
      <trkpt lat="47.27306" lon="-2.47592">
        <ele>236.19999694824</ele>
        <time>2019-11-03T10:31:48.000Z</time>
      </trkpt>
      <trkpt lat="47.27305" lon="-2.4759">
        <ele>236.19999694824</ele>
        <time>2019-11-03T10:31:49.000Z</time>
      </trkpt>
      <trkpt lat="47.27307" lon="-2.47579">
        <ele>236.19999694824</ele>
        <time>2019-11-03T10:31:54.000Z</time>
      </trkpt>
      <trkpt lat="47.27309" lon="-2.4757">
        <ele>236.19999694824</ele>
        <time>2019-11-03T10:31:58.000Z</time>
      </trkpt>
      <trkpt lat="47.27301" lon="-2.47556">
        <ele>236.19999694824</ele>
        <time>2019-11-03T10:32:01.000Z</time>
      </trkpt>
      <trkpt lat="47.27294" lon="-2.47537">
        <ele>236.19999694824</ele>
        <time>2019-11-03T10:32:04.000Z</time>
      </trkpt>
      <trkpt lat="47.27293" lon="-2.47531">
        <ele>236.19999694824</ele>
        <time>2019-11-03T10:32:05.000Z</time>
      </trkpt>
      <trkpt lat="47.27291" lon="-2.47524">
        <ele>236.19999694824</ele>
        <time>2019-11-03T10:32:06.000Z</time>
      </trkpt>
      <trkpt lat="47.27282" lon="-2.47489">
        <ele>236.19999694824</ele>
        <time>2019-11-03T10:32:12.000Z</time>
      </trkpt>
      <trkpt lat="47.27274" lon="-2.47459">
        <ele>236.19999694824</ele>
        <time>2019-11-03T10:32:16.000Z</time>
      </trkpt>
      <trkpt lat="47.27272" lon="-2.47452">
        <ele>236.19999694824</ele>
        <time>2019-11-03T10:32:17.000Z</time>
      </trkpt>
      <trkpt lat="47.27269" lon="-2.4743">
        <ele>236.19999694824</ele>
        <time>2019-11-03T10:32:20.000Z</time>
      </trkpt>
      <trkpt lat="47.2727" lon="-2.47423">
        <ele>236.19999694824</ele>
        <time>2019-11-03T10:32:21.000Z</time>
      </trkpt>
      <trkpt lat="47.27279" lon="-2.47402">
        <ele>236.19999694824</ele>
        <time>2019-11-03T10:32:24.000Z</time>
      </trkpt>
      <trkpt lat="47.27282" lon="-2.47396">
        <ele>236.80000305176</ele>
        <time>2019-11-03T10:32:25.000Z</time>
      </trkpt>
      <trkpt lat="47.27286" lon="-2.47391">
        <ele>237.19999694824</ele>
        <time>2019-11-03T10:32:26.000Z</time>
      </trkpt>
      <trkpt lat="47.2729" lon="-2.47386">
        <ele>238.19999694824</ele>
        <time>2019-11-03T10:32:27.000Z</time>
      </trkpt>
      <trkpt lat="47.27293" lon="-2.47381">
        <ele>238.60000610352</ele>
        <time>2019-11-03T10:32:28.000Z</time>
      </trkpt>
      <trkpt lat="47.27296" lon="-2.47359">
        <ele>238.60000610352</ele>
        <time>2019-11-03T10:32:31.000Z</time>
      </trkpt>
      <trkpt lat="47.273" lon="-2.47327">
        <ele>238.60000610352</ele>
        <time>2019-11-03T10:32:36.000Z</time>
      </trkpt>
      <trkpt lat="47.27309" lon="-2.47318">
        <ele>238.60000610352</ele>
        <time>2019-11-03T10:32:39.000Z</time>
      </trkpt>
      <trkpt lat="47.27313" lon="-2.47315">
        <ele>238.60000610352</ele>
        <time>2019-11-03T10:32:40.000Z</time>
      </trkpt>
      <trkpt lat="47.27327" lon="-2.47305">
        <ele>238.60000610352</ele>
        <time>2019-11-03T10:32:44.000Z</time>
      </trkpt>
      <trkpt lat="47.27331" lon="-2.47304">
        <ele>238.19999694824</ele>
        <time>2019-11-03T10:32:45.000Z</time>
      </trkpt>
      <trkpt lat="47.27337" lon="-2.47303">
        <ele>237.80000305176</ele>
        <time>2019-11-03T10:32:46.000Z</time>
      </trkpt>
      <trkpt lat="47.27342" lon="-2.47301">
        <ele>237.39999389648</ele>
        <time>2019-11-03T10:32:47.000Z</time>
      </trkpt>
      <trkpt lat="47.27347" lon="-2.47299">
        <ele>237</ele>
        <time>2019-11-03T10:32:48.000Z</time>
      </trkpt>
      <trkpt lat="47.27352" lon="-2.47296">
        <ele>236.60000610352</ele>
        <time>2019-11-03T10:32:49.000Z</time>
      </trkpt>
      <trkpt lat="47.27376" lon="-2.47278">
        <ele>236.60000610352</ele>
        <time>2019-11-03T10:32:54.000Z</time>
      </trkpt>
      <trkpt lat="47.27389" lon="-2.47266">
        <ele>236.60000610352</ele>
        <time>2019-11-03T10:32:57.000Z</time>
      </trkpt>
      <trkpt lat="47.27403" lon="-2.47255">
        <ele>236.60000610352</ele>
        <time>2019-11-03T10:33:00.000Z</time>
      </trkpt>
      <trkpt lat="47.27431" lon="-2.47238">
        <ele>236.60000610352</ele>
        <time>2019-11-03T10:33:06.000Z</time>
      </trkpt>
      <trkpt lat="47.27453" lon="-2.47221">
        <ele>236.60000610352</ele>
        <time>2019-11-03T10:33:10.000Z</time>
      </trkpt>
      <trkpt lat="47.27465" lon="-2.47213">
        <ele>236</ele>
        <time>2019-11-03T10:33:12.000Z</time>
      </trkpt>
      <trkpt lat="47.27471" lon="-2.4721">
        <ele>235.60000610352</ele>
        <time>2019-11-03T10:33:13.000Z</time>
      </trkpt>
      <trkpt lat="47.27476" lon="-2.47206">
        <ele>235</ele>
        <time>2019-11-03T10:33:14.000Z</time>
      </trkpt>
      <trkpt lat="47.27482" lon="-2.47203">
        <ele>234.39999389648</ele>
        <time>2019-11-03T10:33:15.000Z</time>
      </trkpt>
      <trkpt lat="47.27487" lon="-2.472">
        <ele>234</ele>
        <time>2019-11-03T10:33:16.000Z</time>
      </trkpt>
      <trkpt lat="47.27499" lon="-2.47194">
        <ele>233.60000610352</ele>
        <time>2019-11-03T10:33:18.000Z</time>
      </trkpt>
      <trkpt lat="47.27503" lon="-2.47188">
        <ele>233</ele>
        <time>2019-11-03T10:33:19.000Z</time>
      </trkpt>
      <trkpt lat="47.27504" lon="-2.47181">
        <ele>232.60000610352</ele>
        <time>2019-11-03T10:33:20.000Z</time>
      </trkpt>
      <trkpt lat="47.27503" lon="-2.47173">
        <ele>232.19999694824</ele>
        <time>2019-11-03T10:33:21.000Z</time>
      </trkpt>
      <trkpt lat="47.27501" lon="-2.47166">
        <ele>231.80000305176</ele>
        <time>2019-11-03T10:33:22.000Z</time>
      </trkpt>
      <trkpt lat="47.27495" lon="-2.47151">
        <ele>231.80000305176</ele>
        <time>2019-11-03T10:33:24.000Z</time>
      </trkpt>
      <trkpt lat="47.27486" lon="-2.47128">
        <ele>231.80000305176</ele>
        <time>2019-11-03T10:33:27.000Z</time>
      </trkpt>
      <trkpt lat="47.27477" lon="-2.47094">
        <ele>231.80000305176</ele>
        <time>2019-11-03T10:33:31.000Z</time>
      </trkpt>
      <trkpt lat="47.27478" lon="-2.47086">
        <ele>231.80000305176</ele>
        <time>2019-11-03T10:33:32.000Z</time>
      </trkpt>
      <trkpt lat="47.2749" lon="-2.47065">
        <ele>231.80000305176</ele>
        <time>2019-11-03T10:33:35.000Z</time>
      </trkpt>
      <trkpt lat="47.27495" lon="-2.4706">
        <ele>231.80000305176</ele>
        <time>2019-11-03T10:33:36.000Z</time>
      </trkpt>
      <trkpt lat="47.27509" lon="-2.47042">
        <ele>232.19999694824</ele>
        <time>2019-11-03T10:33:39.000Z</time>
      </trkpt>
      <trkpt lat="47.27514" lon="-2.47036">
        <ele>233</ele>
        <time>2019-11-03T10:33:40.000Z</time>
      </trkpt>
      <trkpt lat="47.27519" lon="-2.47031">
        <ele>233.39999389648</ele>
        <time>2019-11-03T10:33:41.000Z</time>
      </trkpt>
      <trkpt lat="47.27523" lon="-2.47024">
        <ele>233.80000305176</ele>
        <time>2019-11-03T10:33:42.000Z</time>
      </trkpt>
      <trkpt lat="47.27535" lon="-2.47006">
        <ele>233.80000305176</ele>
        <time>2019-11-03T10:33:45.000Z</time>
      </trkpt>
      <trkpt lat="47.27542" lon="-2.46994">
        <ele>233.80000305176</ele>
        <time>2019-11-03T10:33:47.000Z</time>
      </trkpt>
      <trkpt lat="47.27552" lon="-2.46978">
        <ele>233.80000305176</ele>
        <time>2019-11-03T10:33:50.000Z</time>
      </trkpt>
      <trkpt lat="47.27557" lon="-2.46976">
        <ele>233.80000305176</ele>
        <time>2019-11-03T10:33:51.000Z</time>
      </trkpt>
      <trkpt lat="47.27571" lon="-2.46979">
        <ele>233.80000305176</ele>
        <time>2019-11-03T10:33:54.000Z</time>
      </trkpt>
      <trkpt lat="47.27581" lon="-2.46986">
        <ele>233.80000305176</ele>
        <time>2019-11-03T10:33:56.000Z</time>
      </trkpt>
      <trkpt lat="47.27586" lon="-2.46987">
        <ele>233.80000305176</ele>
        <time>2019-11-03T10:33:57.000Z</time>
      </trkpt>
      <trkpt lat="47.27591" lon="-2.46988">
        <ele>233.80000305176</ele>
        <time>2019-11-03T10:33:58.000Z</time>
      </trkpt>
      <trkpt lat="47.27599" lon="-2.46988">
        <ele>233.80000305176</ele>
        <time>2019-11-03T10:34:00.000Z</time>
      </trkpt>
      <trkpt lat="47.27606" lon="-2.46988">
        <ele>233.80000305176</ele>
        <time>2019-11-03T10:34:02.000Z</time>
      </trkpt>
      <trkpt lat="47.27626" lon="-2.46987">
        <ele>233.80000305176</ele>
        <time>2019-11-03T10:34:07.000Z</time>
      </trkpt>
      <trkpt lat="47.27637" lon="-2.46989">
        <ele>233.19999694824</ele>
        <time>2019-11-03T10:34:09.000Z</time>
      </trkpt>
      <trkpt lat="47.27643" lon="-2.46991">
        <ele>232.80000305176</ele>
        <time>2019-11-03T10:34:10.000Z</time>
      </trkpt>
      <trkpt lat="47.27648" lon="-2.46992">
        <ele>232.19999694824</ele>
        <time>2019-11-03T10:34:11.000Z</time>
      </trkpt>
      <trkpt lat="47.27652" lon="-2.46991">
        <ele>231.80000305176</ele>
        <time>2019-11-03T10:34:12.000Z</time>
      </trkpt>
      <trkpt lat="47.27656" lon="-2.4699">
        <ele>231.19999694824</ele>
        <time>2019-11-03T10:34:13.000Z</time>
      </trkpt>
      <trkpt lat="47.27658" lon="-2.46988">
        <ele>231.19999694824</ele>
        <time>2019-11-03T10:34:14.000Z</time>
      </trkpt>
      <trkpt lat="47.27661" lon="-2.46968">
        <ele>231.19999694824</ele>
        <time>2019-11-03T10:34:18.000Z</time>
      </trkpt>
      <trkpt lat="47.27662" lon="-2.46962">
        <ele>231.19999694824</ele>
        <time>2019-11-03T10:34:19.000Z</time>
      </trkpt>
      <trkpt lat="47.27662" lon="-2.46955">
        <ele>231.19999694824</ele>
        <time>2019-11-03T10:34:20.000Z</time>
      </trkpt>
      <trkpt lat="47.27665" lon="-2.46936">
        <ele>231.19999694824</ele>
        <time>2019-11-03T10:34:23.000Z</time>
      </trkpt>
      <trkpt lat="47.27668" lon="-2.46931">
        <ele>231.19999694824</ele>
        <time>2019-11-03T10:34:24.000Z</time>
      </trkpt>
      <trkpt lat="47.27675" lon="-2.46929">
        <ele>231.19999694824</ele>
        <time>2019-11-03T10:34:26.000Z</time>
      </trkpt>
      <trkpt lat="47.27684" lon="-2.46932">
        <ele>231.19999694824</ele>
        <time>2019-11-03T10:34:28.000Z</time>
      </trkpt>
      <trkpt lat="47.27697" lon="-2.46936">
        <ele>231.19999694824</ele>
        <time>2019-11-03T10:34:31.000Z</time>
      </trkpt>
      <trkpt lat="47.27707" lon="-2.46937">
        <ele>231.19999694824</ele>
        <time>2019-11-03T10:34:33.000Z</time>
      </trkpt>
      <trkpt lat="47.27714" lon="-2.46936">
        <ele>231.19999694824</ele>
        <time>2019-11-03T10:34:35.000Z</time>
      </trkpt>
      <trkpt lat="47.27732" lon="-2.46933">
        <ele>231.19999694824</ele>
        <time>2019-11-03T10:34:39.000Z</time>
      </trkpt>
      <trkpt lat="47.27737" lon="-2.46933">
        <ele>231.19999694824</ele>
        <time>2019-11-03T10:34:40.000Z</time>
      </trkpt>
      <trkpt lat="47.27742" lon="-2.46933">
        <ele>230.80000305176</ele>
        <time>2019-11-03T10:34:41.000Z</time>
      </trkpt>
      <trkpt lat="47.27748" lon="-2.46933">
        <ele>230.39999389648</ele>
        <time>2019-11-03T10:34:42.000Z</time>
      </trkpt>
      <trkpt lat="47.27753" lon="-2.46934">
        <ele>229.80000305176</ele>
        <time>2019-11-03T10:34:43.000Z</time>
      </trkpt>
      <trkpt lat="47.27758" lon="-2.46932">
        <ele>229.39999389648</ele>
        <time>2019-11-03T10:34:44.000Z</time>
      </trkpt>
      <trkpt lat="47.27762" lon="-2.4693">
        <ele>229</ele>
        <time>2019-11-03T10:34:45.000Z</time>
      </trkpt>
      <trkpt lat="47.27765" lon="-2.46922">
        <ele>229</ele>
        <time>2019-11-03T10:34:47.000Z</time>
      </trkpt>
      <trkpt lat="47.27766" lon="-2.46917">
        <ele>229</ele>
        <time>2019-11-03T10:34:48.000Z</time>
      </trkpt>
      <trkpt lat="47.27767" lon="-2.4691">
        <ele>229</ele>
        <time>2019-11-03T10:34:49.000Z</time>
      </trkpt>
      <trkpt lat="47.27773" lon="-2.46897">
        <ele>229</ele>
        <time>2019-11-03T10:34:51.000Z</time>
      </trkpt>
      <trkpt lat="47.2778" lon="-2.4688">
        <ele>229</ele>
        <time>2019-11-03T10:34:53.000Z</time>
      </trkpt>
      <trkpt lat="47.27782" lon="-2.4686">
        <ele>229</ele>
        <time>2019-11-03T10:34:55.000Z</time>
      </trkpt>
      <trkpt lat="47.27783" lon="-2.46838">
        <ele>228.60000610352</ele>
        <time>2019-11-03T10:34:57.000Z</time>
      </trkpt>
      <trkpt lat="47.27781" lon="-2.46828">
        <ele>228</ele>
        <time>2019-11-03T10:34:58.000Z</time>
      </trkpt>
      <trkpt lat="47.27779" lon="-2.46818">
        <ele>227.60000610352</ele>
        <time>2019-11-03T10:34:59.000Z</time>
      </trkpt>
      <trkpt lat="47.27777" lon="-2.46809">
        <ele>227.19999694824</ele>
        <time>2019-11-03T10:35:00.000Z</time>
      </trkpt>
      <trkpt lat="47.27775" lon="-2.46801">
        <ele>226.80000305176</ele>
        <time>2019-11-03T10:35:01.000Z</time>
      </trkpt>
      <trkpt lat="47.27773" lon="-2.46792">
        <ele>226.80000305176</ele>
        <time>2019-11-03T10:35:02.000Z</time>
      </trkpt>
      <trkpt lat="47.27771" lon="-2.46783">
        <ele>226.80000305176</ele>
        <time>2019-11-03T10:35:03.000Z</time>
      </trkpt>
      <trkpt lat="47.27762" lon="-2.46752">
        <ele>226.80000305176</ele>
        <time>2019-11-03T10:35:07.000Z</time>
      </trkpt>
      <trkpt lat="47.2776" lon="-2.46745">
        <ele>226.80000305176</ele>
        <time>2019-11-03T10:35:08.000Z</time>
      </trkpt>
      <trkpt lat="47.27755" lon="-2.46719">
        <ele>226.80000305176</ele>
        <time>2019-11-03T10:35:12.000Z</time>
      </trkpt>
      <trkpt lat="47.27755" lon="-2.46712">
        <ele>226.80000305176</ele>
        <time>2019-11-03T10:35:13.000Z</time>
      </trkpt>
      <trkpt lat="47.27759" lon="-2.46699">
        <ele>226.80000305176</ele>
        <time>2019-11-03T10:35:15.000Z</time>
      </trkpt>
      <trkpt lat="47.2776" lon="-2.46684">
        <ele>226.80000305176</ele>
        <time>2019-11-03T10:35:17.000Z</time>
      </trkpt>
      <trkpt lat="47.2776" lon="-2.46677">
        <ele>226.80000305176</ele>
        <time>2019-11-03T10:35:18.000Z</time>
      </trkpt>
      <trkpt lat="47.2776" lon="-2.4667">
        <ele>227.19999694824</ele>
        <time>2019-11-03T10:35:19.000Z</time>
      </trkpt>
      <trkpt lat="47.2776" lon="-2.46662">
        <ele>227.80000305176</ele>
        <time>2019-11-03T10:35:20.000Z</time>
      </trkpt>
      <trkpt lat="47.27762" lon="-2.46655">
        <ele>228.19999694824</ele>
        <time>2019-11-03T10:35:21.000Z</time>
      </trkpt>
      <trkpt lat="47.27763" lon="-2.46648">
        <ele>228.60000610352</ele>
        <time>2019-11-03T10:35:22.000Z</time>
      </trkpt>
      <trkpt lat="47.27762" lon="-2.46642">
        <ele>229</ele>
        <time>2019-11-03T10:35:23.000Z</time>
      </trkpt>
      <trkpt lat="47.27759" lon="-2.46633">
        <ele>229</ele>
        <time>2019-11-03T10:35:24.000Z</time>
      </trkpt>
      <trkpt lat="47.27759" lon="-2.46621">
        <ele>229</ele>
        <time>2019-11-03T10:35:26.000Z</time>
      </trkpt>
      <trkpt lat="47.27763" lon="-2.46614">
        <ele>229</ele>
        <time>2019-11-03T10:35:28.000Z</time>
      </trkpt>
      <trkpt lat="47.27763" lon="-2.46604">
        <ele>229</ele>
        <time>2019-11-03T10:35:30.000Z</time>
      </trkpt>
      <trkpt lat="47.27762" lon="-2.46597">
        <ele>229</ele>
        <time>2019-11-03T10:35:31.000Z</time>
      </trkpt>
      <trkpt lat="47.27754" lon="-2.46577">
        <ele>229</ele>
        <time>2019-11-03T10:35:34.000Z</time>
      </trkpt>
      <trkpt lat="47.27748" lon="-2.46564">
        <ele>229</ele>
        <time>2019-11-03T10:35:36.000Z</time>
      </trkpt>
      <trkpt lat="47.27746" lon="-2.46555">
        <ele>229</ele>
        <time>2019-11-03T10:35:37.000Z</time>
      </trkpt>
      <trkpt lat="47.2774" lon="-2.46537">
        <ele>229</ele>
        <time>2019-11-03T10:35:39.000Z</time>
      </trkpt>
      <trkpt lat="47.27723" lon="-2.4647">
        <ele>229</ele>
        <time>2019-11-03T10:35:46.000Z</time>
      </trkpt>
      <trkpt lat="47.27712" lon="-2.4644">
        <ele>229</ele>
        <time>2019-11-03T10:35:49.000Z</time>
      </trkpt>
      <trkpt lat="47.27704" lon="-2.46422">
        <ele>229</ele>
        <time>2019-11-03T10:35:51.000Z</time>
      </trkpt>
      <trkpt lat="47.27691" lon="-2.46387">
        <ele>229</ele>
        <time>2019-11-03T10:35:55.000Z</time>
      </trkpt>
      <trkpt lat="47.27683" lon="-2.46361">
        <ele>229</ele>
        <time>2019-11-03T10:35:58.000Z</time>
      </trkpt>
      <trkpt lat="47.27675" lon="-2.46336">
        <ele>229</ele>
        <time>2019-11-03T10:36:01.000Z</time>
      </trkpt>
      <trkpt lat="47.27674" lon="-2.46318">
        <ele>229</ele>
        <time>2019-11-03T10:36:03.000Z</time>
      </trkpt>
      <trkpt lat="47.2767" lon="-2.46304">
        <ele>229</ele>
        <time>2019-11-03T10:36:05.000Z</time>
      </trkpt>
      <trkpt lat="47.27662" lon="-2.46291">
        <ele>229</ele>
        <time>2019-11-03T10:36:07.000Z</time>
      </trkpt>
      <trkpt lat="47.27661" lon="-2.46276">
        <ele>229</ele>
        <time>2019-11-03T10:36:10.000Z</time>
      </trkpt>
      <trkpt lat="47.27664" lon="-2.46272">
        <ele>229</ele>
        <time>2019-11-03T10:36:11.000Z</time>
      </trkpt>
      <trkpt lat="47.27673" lon="-2.46258">
        <ele>229</ele>
        <time>2019-11-03T10:36:14.000Z</time>
      </trkpt>
      <trkpt lat="47.27674" lon="-2.4625">
        <ele>229</ele>
        <time>2019-11-03T10:36:15.000Z</time>
      </trkpt>
      <trkpt lat="47.27674" lon="-2.46236">
        <ele>229</ele>
        <time>2019-11-03T10:36:17.000Z</time>
      </trkpt>
      <trkpt lat="47.27671" lon="-2.4621">
        <ele>229</ele>
        <time>2019-11-03T10:36:20.000Z</time>
      </trkpt>
      <trkpt lat="47.27669" lon="-2.46184">
        <ele>229</ele>
        <time>2019-11-03T10:36:23.000Z</time>
      </trkpt>
      <trkpt lat="47.27669" lon="-2.46152">
        <ele>229</ele>
        <time>2019-11-03T10:36:27.000Z</time>
      </trkpt>
      <trkpt lat="47.27663" lon="-2.46115">
        <ele>229</ele>
        <time>2019-11-03T10:36:32.000Z</time>
      </trkpt>
      <trkpt lat="47.27658" lon="-2.46082">
        <ele>229</ele>
        <time>2019-11-03T10:36:37.000Z</time>
      </trkpt>
      <trkpt lat="47.27656" lon="-2.46078">
        <ele>229</ele>
        <time>2019-11-03T10:36:38.000Z</time>
      </trkpt>
      <trkpt lat="47.2765" lon="-2.46046">
        <ele>229</ele>
        <time>2019-11-03T10:36:43.000Z</time>
      </trkpt>
      <trkpt lat="47.27648" lon="-2.46039">
        <ele>229</ele>
        <time>2019-11-03T10:36:44.000Z</time>
      </trkpt>
      <trkpt lat="47.27641" lon="-2.45998">
        <ele>229</ele>
        <time>2019-11-03T10:36:49.000Z</time>
      </trkpt>
      <trkpt lat="47.27639" lon="-2.45981">
        <ele>229</ele>
        <time>2019-11-03T10:36:51.000Z</time>
      </trkpt>
      <trkpt lat="47.2764" lon="-2.4596">
        <ele>229</ele>
        <time>2019-11-03T10:36:54.000Z</time>
      </trkpt>
      <trkpt lat="47.2764" lon="-2.45953">
        <ele>229</ele>
        <time>2019-11-03T10:36:55.000Z</time>
      </trkpt>
      <trkpt lat="47.27639" lon="-2.45937">
        <ele>228.60000610352</ele>
        <time>2019-11-03T10:36:58.000Z</time>
      </trkpt>
      <trkpt lat="47.27639" lon="-2.45932">
        <ele>228.19999694824</ele>
        <time>2019-11-03T10:36:59.000Z</time>
      </trkpt>
      <trkpt lat="47.27639" lon="-2.45927">
        <ele>227.80000305176</ele>
        <time>2019-11-03T10:37:00.000Z</time>
      </trkpt>
      <trkpt lat="47.27639" lon="-2.45922">
        <ele>227.39999389648</ele>
        <time>2019-11-03T10:37:01.000Z</time>
      </trkpt>
      <trkpt lat="47.27638" lon="-2.45916">
        <ele>227</ele>
        <time>2019-11-03T10:37:02.000Z</time>
      </trkpt>
      <trkpt lat="47.2764" lon="-2.45885">
        <ele>227</ele>
        <time>2019-11-03T10:37:08.000Z</time>
      </trkpt>
      <trkpt lat="47.27641" lon="-2.45844">
        <ele>227</ele>
        <time>2019-11-03T10:37:15.000Z</time>
      </trkpt>
      <trkpt lat="47.27641" lon="-2.45838">
        <ele>227</ele>
        <time>2019-11-03T10:37:16.000Z</time>
      </trkpt>
      <trkpt lat="47.27642" lon="-2.45803">
        <ele>227</ele>
        <time>2019-11-03T10:37:21.000Z</time>
      </trkpt>
      <trkpt lat="47.27641" lon="-2.45781">
        <ele>227</ele>
        <time>2019-11-03T10:37:24.000Z</time>
      </trkpt>
      <trkpt lat="47.27639" lon="-2.45767">
        <ele>227</ele>
        <time>2019-11-03T10:37:26.000Z</time>
      </trkpt>
      <trkpt lat="47.27639" lon="-2.4576">
        <ele>227</ele>
        <time>2019-11-03T10:37:27.000Z</time>
      </trkpt>
      <trkpt lat="47.27638" lon="-2.45739">
        <ele>227</ele>
        <time>2019-11-03T10:37:30.000Z</time>
      </trkpt>
      <trkpt lat="47.27637" lon="-2.45732">
        <ele>227.39999389648</ele>
        <time>2019-11-03T10:37:31.000Z</time>
      </trkpt>
      <trkpt lat="47.27635" lon="-2.45726">
        <ele>228</ele>
        <time>2019-11-03T10:37:32.000Z</time>
      </trkpt>
      <trkpt lat="47.27634" lon="-2.4572">
        <ele>228.39999389648</ele>
        <time>2019-11-03T10:37:33.000Z</time>
      </trkpt>
      <trkpt lat="47.27632" lon="-2.45715">
        <ele>228.80000305176</ele>
        <time>2019-11-03T10:37:34.000Z</time>
      </trkpt>
      <trkpt lat="47.2763" lon="-2.45709">
        <ele>229.19999694824</ele>
        <time>2019-11-03T10:37:35.000Z</time>
      </trkpt>
      <trkpt lat="47.27622" lon="-2.45706">
        <ele>229.19999694824</ele>
        <time>2019-11-03T10:37:37.000Z</time>
      </trkpt>
      <trkpt lat="47.27612" lon="-2.4571">
        <ele>229.80000305176</ele>
        <time>2019-11-03T10:37:39.000Z</time>
      </trkpt>
      <trkpt lat="47.27607" lon="-2.45713">
        <ele>230.19999694824</ele>
        <time>2019-11-03T10:37:40.000Z</time>
      </trkpt>
      <trkpt lat="47.27602" lon="-2.45715">
        <ele>230.60000610352</ele>
        <time>2019-11-03T10:37:41.000Z</time>
      </trkpt>
      <trkpt lat="47.27596" lon="-2.45718">
        <ele>231.19999694824</ele>
        <time>2019-11-03T10:37:42.000Z</time>
      </trkpt>
      <trkpt lat="47.27591" lon="-2.45721">
        <ele>231.60000610352</ele>
        <time>2019-11-03T10:37:43.000Z</time>
      </trkpt>
      <trkpt lat="47.2756" lon="-2.45731">
        <ele>231.60000610352</ele>
        <time>2019-11-03T10:37:48.000Z</time>
      </trkpt>
      <trkpt lat="47.27529" lon="-2.4574">
        <ele>231.60000610352</ele>
        <time>2019-11-03T10:37:53.000Z</time>
      </trkpt>
      <trkpt lat="47.27506" lon="-2.45748">
        <ele>231.60000610352</ele>
        <time>2019-11-03T10:37:57.000Z</time>
      </trkpt>
      <trkpt lat="47.275" lon="-2.45751">
        <ele>231.60000610352</ele>
        <time>2019-11-03T10:37:58.000Z</time>
      </trkpt>
      <trkpt lat="47.27469" lon="-2.45762">
        <ele>231.60000610352</ele>
        <time>2019-11-03T10:38:04.000Z</time>
      </trkpt>
      <trkpt lat="47.27449" lon="-2.45768">
        <ele>231.19999694824</ele>
        <time>2019-11-03T10:38:08.000Z</time>
      </trkpt>
      <trkpt lat="47.27444" lon="-2.45769">
        <ele>230.80000305176</ele>
        <time>2019-11-03T10:38:09.000Z</time>
      </trkpt>
      <trkpt lat="47.27439" lon="-2.4577">
        <ele>230.39999389648</ele>
        <time>2019-11-03T10:38:10.000Z</time>
      </trkpt>
      <trkpt lat="47.27434" lon="-2.45771">
        <ele>230</ele>
        <time>2019-11-03T10:38:11.000Z</time>
      </trkpt>
      <trkpt lat="47.27428" lon="-2.45772">
        <ele>229.60000610352</ele>
        <time>2019-11-03T10:38:12.000Z</time>
      </trkpt>
      <trkpt lat="47.27398" lon="-2.45775">
        <ele>229.60000610352</ele>
        <time>2019-11-03T10:38:17.000Z</time>
      </trkpt>
      <trkpt lat="47.27378" lon="-2.45777">
        <ele>229.60000610352</ele>
        <time>2019-11-03T10:38:21.000Z</time>
      </trkpt>
      <trkpt lat="47.27374" lon="-2.45775">
        <ele>229.60000610352</ele>
        <time>2019-11-03T10:38:22.000Z</time>
      </trkpt>
      <trkpt lat="47.27367" lon="-2.45759">
        <ele>229.60000610352</ele>
        <time>2019-11-03T10:38:25.000Z</time>
      </trkpt>
      <trkpt lat="47.27363" lon="-2.45745">
        <ele>229.60000610352</ele>
        <time>2019-11-03T10:38:27.000Z</time>
      </trkpt>
      <trkpt lat="47.27357" lon="-2.45729">
        <ele>229.60000610352</ele>
        <time>2019-11-03T10:38:29.000Z</time>
      </trkpt>
      <trkpt lat="47.27341" lon="-2.45685">
        <ele>229.60000610352</ele>
        <time>2019-11-03T10:38:35.000Z</time>
      </trkpt>
      <trkpt lat="47.27335" lon="-2.45666">
        <ele>229.60000610352</ele>
        <time>2019-11-03T10:38:38.000Z</time>
      </trkpt>
      <trkpt lat="47.27329" lon="-2.45646">
        <ele>229.60000610352</ele>
        <time>2019-11-03T10:38:41.000Z</time>
      </trkpt>
      <trkpt lat="47.27321" lon="-2.45617">
        <ele>229.60000610352</ele>
        <time>2019-11-03T10:38:46.000Z</time>
      </trkpt>
      <trkpt lat="47.27319" lon="-2.45612">
        <ele>229.60000610352</ele>
        <time>2019-11-03T10:38:50.000Z</time>
      </trkpt>
      <trkpt lat="47.27318" lon="-2.45611">
        <ele>229.60000610352</ele>
        <time>2019-11-03T10:38:51.000Z</time>
      </trkpt>
      <trkpt lat="47.27316" lon="-2.4561">
        <ele>229.60000610352</ele>
        <time>2019-11-03T10:38:53.000Z</time>
      </trkpt>
      <trkpt lat="47.27314" lon="-2.45602">
        <ele>229.60000610352</ele>
        <time>2019-11-03T10:38:56.000Z</time>
      </trkpt>
      <trkpt lat="47.27305" lon="-2.45581">
        <ele>229.60000610352</ele>
        <time>2019-11-03T10:39:01.000Z</time>
      </trkpt>
      <trkpt lat="47.27301" lon="-2.45571">
        <ele>229.60000610352</ele>
        <time>2019-11-03T10:39:03.000Z</time>
      </trkpt>
      <trkpt lat="47.27294" lon="-2.45552">
        <ele>229.60000610352</ele>
        <time>2019-11-03T10:39:07.000Z</time>
      </trkpt>
      <trkpt lat="47.27292" lon="-2.45547">
        <ele>229.60000610352</ele>
        <time>2019-11-03T10:39:08.000Z</time>
      </trkpt>
      <trkpt lat="47.27286" lon="-2.45534">
        <ele>229.60000610352</ele>
        <time>2019-11-03T10:39:11.000Z</time>
      </trkpt>
      <trkpt lat="47.27284" lon="-2.4553">
        <ele>229.60000610352</ele>
        <time>2019-11-03T10:39:12.000Z</time>
      </trkpt>
      <trkpt lat="47.27277" lon="-2.45513">
        <ele>229.60000610352</ele>
        <time>2019-11-03T10:39:16.000Z</time>
      </trkpt>
      <trkpt lat="47.27275" lon="-2.45508">
        <ele>229.19999694824</ele>
        <time>2019-11-03T10:39:17.000Z</time>
      </trkpt>
      <trkpt lat="47.27272" lon="-2.45503">
        <ele>228.80000305176</ele>
        <time>2019-11-03T10:39:18.000Z</time>
      </trkpt>
      <trkpt lat="47.2727" lon="-2.45498">
        <ele>228</ele>
        <time>2019-11-03T10:39:19.000Z</time>
      </trkpt>
      <trkpt lat="47.27267" lon="-2.45494">
        <ele>227.60000610352</ele>
        <time>2019-11-03T10:39:20.000Z</time>
      </trkpt>
      <trkpt lat="47.27264" lon="-2.45491">
        <ele>227.60000610352</ele>
        <time>2019-11-03T10:39:21.000Z</time>
      </trkpt>
      <trkpt lat="47.27247" lon="-2.45464">
        <ele>227.60000610352</ele>
        <time>2019-11-03T10:39:27.000Z</time>
      </trkpt>
      <trkpt lat="47.27236" lon="-2.45451">
        <ele>227.60000610352</ele>
        <time>2019-11-03T10:39:31.000Z</time>
      </trkpt>
      <trkpt lat="47.2721" lon="-2.45429">
        <ele>227.60000610352</ele>
        <time>2019-11-03T10:39:40.000Z</time>
      </trkpt>
      <trkpt lat="47.27195" lon="-2.45417">
        <ele>227.60000610352</ele>
        <time>2019-11-03T10:39:45.000Z</time>
      </trkpt>
      <trkpt lat="47.27175" lon="-2.45399">
        <ele>227.60000610352</ele>
        <time>2019-11-03T10:39:52.000Z</time>
      </trkpt>
      <trkpt lat="47.27156" lon="-2.45381">
        <ele>227.60000610352</ele>
        <time>2019-11-03T10:39:59.000Z</time>
      </trkpt>
      <trkpt lat="47.27142" lon="-2.45368">
        <ele>227.60000610352</ele>
        <time>2019-11-03T10:40:05.000Z</time>
      </trkpt>
      <trkpt lat="47.27127" lon="-2.45348">
        <ele>227.60000610352</ele>
        <time>2019-11-03T10:40:12.000Z</time>
      </trkpt>
      <trkpt lat="47.27123" lon="-2.45342">
        <ele>228</ele>
        <time>2019-11-03T10:40:14.000Z</time>
      </trkpt>
      <trkpt lat="47.27121" lon="-2.45339">
        <ele>228.39999389648</ele>
        <time>2019-11-03T10:40:15.000Z</time>
      </trkpt>
      <trkpt lat="47.27119" lon="-2.45336">
        <ele>228.80000305176</ele>
        <time>2019-11-03T10:40:16.000Z</time>
      </trkpt>
      <trkpt lat="47.27118" lon="-2.45333">
        <ele>229.19999694824</ele>
        <time>2019-11-03T10:40:17.000Z</time>
      </trkpt>
      <trkpt lat="47.27116" lon="-2.4533">
        <ele>229.60000610352</ele>
        <time>2019-11-03T10:40:18.000Z</time>
      </trkpt>
      <trkpt lat="47.27102" lon="-2.45307">
        <ele>229.60000610352</ele>
        <time>2019-11-03T10:40:25.000Z</time>
      </trkpt>
      <trkpt lat="47.27092" lon="-2.45292">
        <ele>229.60000610352</ele>
        <time>2019-11-03T10:40:31.000Z</time>
      </trkpt>
      <trkpt lat="47.27083" lon="-2.45274">
        <ele>229.60000610352</ele>
        <time>2019-11-03T10:40:38.000Z</time>
      </trkpt>
      <trkpt lat="47.27084" lon="-2.45272">
        <ele>229.60000610352</ele>
        <time>2019-11-03T10:40:39.000Z</time>
      </trkpt>
      <trkpt lat="47.27086" lon="-2.4527">
        <ele>230.19999694824</ele>
        <time>2019-11-03T10:40:40.000Z</time>
      </trkpt>
      <trkpt lat="47.27089" lon="-2.45269">
        <ele>230.60000610352</ele>
        <time>2019-11-03T10:40:41.000Z</time>
      </trkpt>
      <trkpt lat="47.27092" lon="-2.45268">
        <ele>231</ele>
        <time>2019-11-03T10:40:42.000Z</time>
      </trkpt>
      <trkpt lat="47.27096" lon="-2.45267">
        <ele>231.39999389648</ele>
        <time>2019-11-03T10:40:43.000Z</time>
      </trkpt>
      <trkpt lat="47.271" lon="-2.45265">
        <ele>231.80000305176</ele>
        <time>2019-11-03T10:40:44.000Z</time>
      </trkpt>
      <trkpt lat="47.27104" lon="-2.45264">
        <ele>231.80000305176</ele>
        <time>2019-11-03T10:40:45.000Z</time>
      </trkpt>
      <trkpt lat="47.27108" lon="-2.45263">
        <ele>231.80000305176</ele>
        <time>2019-11-03T10:40:46.000Z</time>
      </trkpt>
      <trkpt lat="47.27138" lon="-2.45261">
        <ele>231.80000305176</ele>
        <time>2019-11-03T10:40:53.000Z</time>
      </trkpt>
      <trkpt lat="47.27158" lon="-2.45262">
        <ele>231.80000305176</ele>
        <time>2019-11-03T10:40:58.000Z</time>
      </trkpt>
      <trkpt lat="47.27162" lon="-2.45264">
        <ele>231.80000305176</ele>
        <time>2019-11-03T10:40:59.000Z</time>
      </trkpt>
      <trkpt lat="47.2718" lon="-2.45269">
        <ele>231.39999389648</ele>
        <time>2019-11-03T10:41:04.000Z</time>
      </trkpt>
      <trkpt lat="47.27184" lon="-2.45269">
        <ele>230.80000305176</ele>
        <time>2019-11-03T10:41:05.000Z</time>
      </trkpt>
      <trkpt lat="47.27187" lon="-2.45269">
        <ele>230.39999389648</ele>
        <time>2019-11-03T10:41:06.000Z</time>
      </trkpt>
      <trkpt lat="47.27191" lon="-2.4527">
        <ele>230</ele>
        <time>2019-11-03T10:41:07.000Z</time>
      </trkpt>
      <trkpt lat="47.27194" lon="-2.4527">
        <ele>229.39999389648</ele>
        <time>2019-11-03T10:41:08.000Z</time>
      </trkpt>
      <trkpt lat="47.27197" lon="-2.45271">
        <ele>229.39999389648</ele>
        <time>2019-11-03T10:41:09.000Z</time>
      </trkpt>
      <trkpt lat="47.27201" lon="-2.45276">
        <ele>229.39999389648</ele>
        <time>2019-11-03T10:41:11.000Z</time>
      </trkpt>
      <trkpt lat="47.27208" lon="-2.45278">
        <ele>229.39999389648</ele>
        <time>2019-11-03T10:41:14.000Z</time>
      </trkpt>
      <trkpt lat="47.27211" lon="-2.45278">
        <ele>229.39999389648</ele>
        <time>2019-11-03T10:41:15.000Z</time>
      </trkpt>
      <trkpt lat="47.27235" lon="-2.45277">
        <ele>229.39999389648</ele>
        <time>2019-11-03T10:41:22.000Z</time>
      </trkpt>
      <trkpt lat="47.27259" lon="-2.45276">
        <ele>229.39999389648</ele>
        <time>2019-11-03T10:41:29.000Z</time>
      </trkpt>
      <trkpt lat="47.27285" lon="-2.45274">
        <ele>229.39999389648</ele>
        <time>2019-11-03T10:41:36.000Z</time>
      </trkpt>
      <trkpt lat="47.273" lon="-2.4527">
        <ele>229</ele>
        <time>2019-11-03T10:41:40.000Z</time>
      </trkpt>
      <trkpt lat="47.27304" lon="-2.45269">
        <ele>228.60000610352</ele>
        <time>2019-11-03T10:41:41.000Z</time>
      </trkpt>
      <trkpt lat="47.27308" lon="-2.45268">
        <ele>228.19999694824</ele>
        <time>2019-11-03T10:41:42.000Z</time>
      </trkpt>
      <trkpt lat="47.27312" lon="-2.45267">
        <ele>227.80000305176</ele>
        <time>2019-11-03T10:41:43.000Z</time>
      </trkpt>
      <trkpt lat="47.27316" lon="-2.45266">
        <ele>227.39999389648</ele>
        <time>2019-11-03T10:41:44.000Z</time>
      </trkpt>
      <trkpt lat="47.27324" lon="-2.45264">
        <ele>227.39999389648</ele>
        <time>2019-11-03T10:41:46.000Z</time>
      </trkpt>
      <trkpt lat="47.27341" lon="-2.45257">
        <ele>227.39999389648</ele>
        <time>2019-11-03T10:41:50.000Z</time>
      </trkpt>
      <trkpt lat="47.27358" lon="-2.45236">
        <ele>227.39999389648</ele>
        <time>2019-11-03T10:41:55.000Z</time>
      </trkpt>
      <trkpt lat="47.27361" lon="-2.45231">
        <ele>227.39999389648</ele>
        <time>2019-11-03T10:41:56.000Z</time>
      </trkpt>
      <trkpt lat="47.27376" lon="-2.45218">
        <ele>227.39999389648</ele>
        <time>2019-11-03T10:42:00.000Z</time>
      </trkpt>
      <trkpt lat="47.27381" lon="-2.45216">
        <ele>227.39999389648</ele>
        <time>2019-11-03T10:42:01.000Z</time>
      </trkpt>
      <trkpt lat="47.27394" lon="-2.45215">
        <ele>227.39999389648</ele>
        <time>2019-11-03T10:42:04.000Z</time>
      </trkpt>
      <trkpt lat="47.27407" lon="-2.45216">
        <ele>227.39999389648</ele>
        <time>2019-11-03T10:42:07.000Z</time>
      </trkpt>
      <trkpt lat="47.27416" lon="-2.45217">
        <ele>227</ele>
        <time>2019-11-03T10:42:09.000Z</time>
      </trkpt>
      <trkpt lat="47.27421" lon="-2.45217">
        <ele>226.60000610352</ele>
        <time>2019-11-03T10:42:10.000Z</time>
      </trkpt>
      <trkpt lat="47.27425" lon="-2.45217">
        <ele>226.19999694824</ele>
        <time>2019-11-03T10:42:11.000Z</time>
      </trkpt>
      <trkpt lat="47.27429" lon="-2.45217">
        <ele>225.39999389648</ele>
        <time>2019-11-03T10:42:12.000Z</time>
      </trkpt>
      <trkpt lat="47.27438" lon="-2.45217">
        <ele>225.39999389648</ele>
        <time>2019-11-03T10:42:14.000Z</time>
      </trkpt>
      <trkpt lat="47.27442" lon="-2.45216">
        <ele>225.39999389648</ele>
        <time>2019-11-03T10:42:15.000Z</time>
      </trkpt>
      <trkpt lat="47.27458" lon="-2.4521">
        <ele>225.39999389648</ele>
        <time>2019-11-03T10:42:19.000Z</time>
      </trkpt>
      <trkpt lat="47.27477" lon="-2.45198">
        <ele>225.39999389648</ele>
        <time>2019-11-03T10:42:24.000Z</time>
      </trkpt>
      <trkpt lat="47.27484" lon="-2.45193">
        <ele>225.39999389648</ele>
        <time>2019-11-03T10:42:26.000Z</time>
      </trkpt>
      <trkpt lat="47.27501" lon="-2.4518">
        <ele>225.39999389648</ele>
        <time>2019-11-03T10:42:32.000Z</time>
      </trkpt>
      <trkpt lat="47.27514" lon="-2.45167">
        <ele>225.39999389648</ele>
        <time>2019-11-03T10:42:39.000Z</time>
      </trkpt>
      <trkpt lat="47.27524" lon="-2.45157">
        <ele>225.39999389648</ele>
        <time>2019-11-03T10:42:44.000Z</time>
      </trkpt>
      <trkpt lat="47.27539" lon="-2.45136">
        <ele>225.39999389648</ele>
        <time>2019-11-03T10:42:50.000Z</time>
      </trkpt>
      <trkpt lat="47.27547" lon="-2.45124">
        <ele>225.39999389648</ele>
        <time>2019-11-03T10:42:55.000Z</time>
      </trkpt>
      <trkpt lat="47.2756" lon="-2.45108">
        <ele>225.39999389648</ele>
        <time>2019-11-03T10:43:03.000Z</time>
      </trkpt>
      <trkpt lat="47.27578" lon="-2.45092">
        <ele>225.39999389648</ele>
        <time>2019-11-03T10:43:11.000Z</time>
      </trkpt>
      <trkpt lat="47.27592" lon="-2.45084">
        <ele>225.39999389648</ele>
        <time>2019-11-03T10:43:16.000Z</time>
      </trkpt>
      <trkpt lat="47.27615" lon="-2.45068">
        <ele>225.39999389648</ele>
        <time>2019-11-03T10:43:22.000Z</time>
      </trkpt>
      <trkpt lat="47.27648" lon="-2.45044">
        <ele>225.39999389648</ele>
        <time>2019-11-03T10:43:30.000Z</time>
      </trkpt>
      <trkpt lat="47.27665" lon="-2.45033">
        <ele>225.39999389648</ele>
        <time>2019-11-03T10:43:34.000Z</time>
      </trkpt>
      <trkpt lat="47.27673" lon="-2.45033">
        <ele>225.39999389648</ele>
        <time>2019-11-03T10:43:36.000Z</time>
      </trkpt>
      <trkpt lat="47.27687" lon="-2.45031">
        <ele>225.39999389648</ele>
        <time>2019-11-03T10:43:39.000Z</time>
      </trkpt>
      <trkpt lat="47.27699" lon="-2.45028">
        <ele>225.39999389648</ele>
        <time>2019-11-03T10:43:42.000Z</time>
      </trkpt>
      <trkpt lat="47.27721" lon="-2.45028">
        <ele>225.39999389648</ele>
        <time>2019-11-03T10:43:48.000Z</time>
      </trkpt>
      <trkpt lat="47.27737" lon="-2.45021">
        <ele>225.39999389648</ele>
        <time>2019-11-03T10:43:54.000Z</time>
      </trkpt>
      <trkpt lat="47.27746" lon="-2.45016">
        <ele>225.39999389648</ele>
        <time>2019-11-03T10:43:58.000Z</time>
      </trkpt>
      <trkpt lat="47.27746" lon="-2.45013">
        <ele>225.39999389648</ele>
        <time>2019-11-03T10:43:59.000Z</time>
      </trkpt>
      <trkpt lat="47.27743" lon="-2.44986">
        <ele>225.39999389648</ele>
        <time>2019-11-03T10:44:04.000Z</time>
      </trkpt>
      <trkpt lat="47.27735" lon="-2.44932">
        <ele>225.39999389648</ele>
        <time>2019-11-03T10:44:11.000Z</time>
      </trkpt>
      <trkpt lat="47.27727" lon="-2.44874">
        <ele>225.39999389648</ele>
        <time>2019-11-03T10:44:18.000Z</time>
      </trkpt>
      <trkpt lat="47.27725" lon="-2.44848">
        <ele>225.39999389648</ele>
        <time>2019-11-03T10:44:21.000Z</time>
      </trkpt>
      <trkpt lat="47.27722" lon="-2.44831">
        <ele>225.39999389648</ele>
        <time>2019-11-03T10:44:23.000Z</time>
      </trkpt>
      <trkpt lat="47.27716" lon="-2.44781">
        <ele>225.39999389648</ele>
        <time>2019-11-03T10:44:29.000Z</time>
      </trkpt>
      <trkpt lat="47.27716" lon="-2.44773">
        <ele>225.39999389648</ele>
        <time>2019-11-03T10:44:30.000Z</time>
      </trkpt>
      <trkpt lat="47.27716" lon="-2.44759">
        <ele>225.39999389648</ele>
        <time>2019-11-03T10:44:32.000Z</time>
      </trkpt>
      <trkpt lat="47.2771" lon="-2.44753">
        <ele>225.39999389648</ele>
        <time>2019-11-03T10:44:34.000Z</time>
      </trkpt>
      <trkpt lat="47.27701" lon="-2.44755">
        <ele>225.39999389648</ele>
        <time>2019-11-03T10:44:36.000Z</time>
      </trkpt>
      <trkpt lat="47.27697" lon="-2.44757">
        <ele>225.39999389648</ele>
        <time>2019-11-03T10:44:37.000Z</time>
      </trkpt>
      <trkpt lat="47.27692" lon="-2.4476">
        <ele>225.39999389648</ele>
        <time>2019-11-03T10:44:38.000Z</time>
      </trkpt>
      <trkpt lat="47.27671" lon="-2.4477">
        <ele>225.39999389648</ele>
        <time>2019-11-03T10:44:43.000Z</time>
      </trkpt>
      <trkpt lat="47.27667" lon="-2.44771">
        <ele>225.39999389648</ele>
        <time>2019-11-03T10:44:44.000Z</time>
      </trkpt>
      <trkpt lat="47.27632" lon="-2.44781">
        <ele>225.39999389648</ele>
        <time>2019-11-03T10:44:51.000Z</time>
      </trkpt>
      <trkpt lat="47.27606" lon="-2.4479">
        <ele>225.39999389648</ele>
        <time>2019-11-03T10:44:56.000Z</time>
      </trkpt>
      <trkpt lat="47.27601" lon="-2.44793">
        <ele>225.39999389648</ele>
        <time>2019-11-03T10:44:57.000Z</time>
      </trkpt>
      <trkpt lat="47.27572" lon="-2.44804">
        <ele>225.39999389648</ele>
        <time>2019-11-03T10:45:03.000Z</time>
      </trkpt>
      <trkpt lat="47.27547" lon="-2.44811">
        <ele>225.39999389648</ele>
        <time>2019-11-03T10:45:08.000Z</time>
      </trkpt>
      <trkpt lat="47.27542" lon="-2.44814">
        <ele>225.39999389648</ele>
        <time>2019-11-03T10:45:09.000Z</time>
      </trkpt>
      <trkpt lat="47.27537" lon="-2.44816">
        <ele>225.39999389648</ele>
        <time>2019-11-03T10:45:10.000Z</time>
      </trkpt>
      <trkpt lat="47.2752" lon="-2.44832">
        <ele>225.39999389648</ele>
        <time>2019-11-03T10:45:14.000Z</time>
      </trkpt>
      <trkpt lat="47.27499" lon="-2.44851">
        <ele>225.39999389648</ele>
        <time>2019-11-03T10:45:19.000Z</time>
      </trkpt>
      <trkpt lat="47.27494" lon="-2.44853">
        <ele>225.39999389648</ele>
        <time>2019-11-03T10:45:20.000Z</time>
      </trkpt>
      <trkpt lat="47.27469" lon="-2.44854">
        <ele>225.39999389648</ele>
        <time>2019-11-03T10:45:25.000Z</time>
      </trkpt>
      <trkpt lat="47.27463" lon="-2.44855">
        <ele>225.39999389648</ele>
        <time>2019-11-03T10:45:26.000Z</time>
      </trkpt>
      <trkpt lat="47.27454" lon="-2.44861">
        <ele>225.39999389648</ele>
        <time>2019-11-03T10:45:28.000Z</time>
      </trkpt>
      <trkpt lat="47.27446" lon="-2.44872">
        <ele>225.39999389648</ele>
        <time>2019-11-03T10:45:30.000Z</time>
      </trkpt>
      <trkpt lat="47.27439" lon="-2.44883">
        <ele>225.39999389648</ele>
        <time>2019-11-03T10:45:32.000Z</time>
      </trkpt>
      <trkpt lat="47.27427" lon="-2.44899">
        <ele>225.39999389648</ele>
        <time>2019-11-03T10:45:35.000Z</time>
      </trkpt>
      <trkpt lat="47.27414" lon="-2.44912">
        <ele>225.39999389648</ele>
        <time>2019-11-03T10:45:38.000Z</time>
      </trkpt>
      <trkpt lat="47.27409" lon="-2.44916">
        <ele>225.39999389648</ele>
        <time>2019-11-03T10:45:39.000Z</time>
      </trkpt>
      <trkpt lat="47.27374" lon="-2.44933">
        <ele>225.39999389648</ele>
        <time>2019-11-03T10:45:46.000Z</time>
      </trkpt>
      <trkpt lat="47.27364" lon="-2.44939">
        <ele>225.80000305176</ele>
        <time>2019-11-03T10:45:48.000Z</time>
      </trkpt>
      <trkpt lat="47.2736" lon="-2.44942">
        <ele>226.19999694824</ele>
        <time>2019-11-03T10:45:49.000Z</time>
      </trkpt>
      <trkpt lat="47.27355" lon="-2.44945">
        <ele>226.80000305176</ele>
        <time>2019-11-03T10:45:50.000Z</time>
      </trkpt>
      <trkpt lat="47.2735" lon="-2.44947">
        <ele>227.19999694824</ele>
        <time>2019-11-03T10:45:51.000Z</time>
      </trkpt>
      <trkpt lat="47.27345" lon="-2.44948">
        <ele>227.60000610352</ele>
        <time>2019-11-03T10:45:52.000Z</time>
      </trkpt>
      <trkpt lat="47.27319" lon="-2.44961">
        <ele>227.60000610352</ele>
        <time>2019-11-03T10:45:58.000Z</time>
      </trkpt>
      <trkpt lat="47.27315" lon="-2.44962">
        <ele>227.60000610352</ele>
        <time>2019-11-03T10:45:59.000Z</time>
      </trkpt>
      <trkpt lat="47.27305" lon="-2.44964">
        <ele>227.60000610352</ele>
        <time>2019-11-03T10:46:01.000Z</time>
      </trkpt>
      <trkpt lat="47.27294" lon="-2.44965">
        <ele>227.60000610352</ele>
        <time>2019-11-03T10:46:03.000Z</time>
      </trkpt>
      <trkpt lat="47.27262" lon="-2.44968">
        <ele>227.60000610352</ele>
        <time>2019-11-03T10:46:09.000Z</time>
      </trkpt>
      <trkpt lat="47.27251" lon="-2.44972">
        <ele>227.60000610352</ele>
        <time>2019-11-03T10:46:11.000Z</time>
      </trkpt>
      <trkpt lat="47.27236" lon="-2.4498">
        <ele>227.60000610352</ele>
        <time>2019-11-03T10:46:14.000Z</time>
      </trkpt>
      <trkpt lat="47.27231" lon="-2.44982">
        <ele>227.60000610352</ele>
        <time>2019-11-03T10:46:15.000Z</time>
      </trkpt>
      <trkpt lat="47.2721" lon="-2.44988">
        <ele>227.60000610352</ele>
        <time>2019-11-03T10:46:19.000Z</time>
      </trkpt>
      <trkpt lat="47.27199" lon="-2.4499">
        <ele>227.60000610352</ele>
        <time>2019-11-03T10:46:21.000Z</time>
      </trkpt>
      <trkpt lat="47.27154" lon="-2.44997">
        <ele>227.60000610352</ele>
        <time>2019-11-03T10:46:29.000Z</time>
      </trkpt>
      <trkpt lat="47.27128" lon="-2.45">
        <ele>227.60000610352</ele>
        <time>2019-11-03T10:46:34.000Z</time>
      </trkpt>
      <trkpt lat="47.27095" lon="-2.44998">
        <ele>228</ele>
        <time>2019-11-03T10:46:40.000Z</time>
      </trkpt>
      <trkpt lat="47.2709" lon="-2.44997">
        <ele>228.39999389648</ele>
        <time>2019-11-03T10:46:41.000Z</time>
      </trkpt>
      <trkpt lat="47.27085" lon="-2.44996">
        <ele>229.39999389648</ele>
        <time>2019-11-03T10:46:42.000Z</time>
      </trkpt>
      <trkpt lat="47.2708" lon="-2.44995">
        <ele>229.80000305176</ele>
        <time>2019-11-03T10:46:43.000Z</time>
      </trkpt>
      <trkpt lat="47.27076" lon="-2.44995">
        <ele>229.80000305176</ele>
        <time>2019-11-03T10:46:44.000Z</time>
      </trkpt>
      <trkpt lat="47.27069" lon="-2.44995">
        <ele>229.80000305176</ele>
        <time>2019-11-03T10:46:46.000Z</time>
      </trkpt>
      <trkpt lat="47.27063" lon="-2.44987">
        <ele>229.80000305176</ele>
        <time>2019-11-03T10:46:49.000Z</time>
      </trkpt>
      <trkpt lat="47.2706" lon="-2.4496">
        <ele>229.80000305176</ele>
        <time>2019-11-03T10:46:53.000Z</time>
      </trkpt>
      <trkpt lat="47.27059" lon="-2.44911">
        <ele>229.80000305176</ele>
        <time>2019-11-03T10:46:59.000Z</time>
      </trkpt>
      <trkpt lat="47.27056" lon="-2.4487">
        <ele>229.80000305176</ele>
        <time>2019-11-03T10:47:04.000Z</time>
      </trkpt>
      <trkpt lat="47.27055" lon="-2.44855">
        <ele>229.80000305176</ele>
        <time>2019-11-03T10:47:06.000Z</time>
      </trkpt>
      <trkpt lat="47.27052" lon="-2.44808">
        <ele>229.80000305176</ele>
        <time>2019-11-03T10:47:12.000Z</time>
      </trkpt>
      <trkpt lat="47.27048" lon="-2.44767">
        <ele>229.80000305176</ele>
        <time>2019-11-03T10:47:17.000Z</time>
      </trkpt>
      <trkpt lat="47.27041" lon="-2.44709">
        <ele>229.80000305176</ele>
        <time>2019-11-03T10:47:24.000Z</time>
      </trkpt>
      <trkpt lat="47.2703" lon="-2.44647">
        <ele>229.80000305176</ele>
        <time>2019-11-03T10:47:31.000Z</time>
      </trkpt>
      <trkpt lat="47.2702" lon="-2.44582">
        <ele>229.80000305176</ele>
        <time>2019-11-03T10:47:38.000Z</time>
      </trkpt>
      <trkpt lat="47.27007" lon="-2.44509">
        <ele>229.80000305176</ele>
        <time>2019-11-03T10:47:46.000Z</time>
      </trkpt>
      <trkpt lat="47.26993" lon="-2.44439">
        <ele>229.80000305176</ele>
        <time>2019-11-03T10:47:55.000Z</time>
      </trkpt>
      <trkpt lat="47.26993" lon="-2.44431">
        <ele>229.80000305176</ele>
        <time>2019-11-03T10:47:56.000Z</time>
      </trkpt>
      <trkpt lat="47.26991" lon="-2.44416">
        <ele>229.80000305176</ele>
        <time>2019-11-03T10:47:58.000Z</time>
      </trkpt>
      <trkpt lat="47.26988" lon="-2.44411">
        <ele>229.80000305176</ele>
        <time>2019-11-03T10:47:59.000Z</time>
      </trkpt>
      <trkpt lat="47.26977" lon="-2.44403">
        <ele>229.80000305176</ele>
        <time>2019-11-03T10:48:02.000Z</time>
      </trkpt>
      <trkpt lat="47.26972" lon="-2.4438">
        <ele>229.80000305176</ele>
        <time>2019-11-03T10:48:05.000Z</time>
      </trkpt>
      <trkpt lat="47.26965" lon="-2.44355">
        <ele>229.80000305176</ele>
        <time>2019-11-03T10:48:08.000Z</time>
      </trkpt>
      <trkpt lat="47.26962" lon="-2.44346">
        <ele>229.80000305176</ele>
        <time>2019-11-03T10:48:09.000Z</time>
      </trkpt>
      <trkpt lat="47.26945" lon="-2.4429">
        <ele>229.80000305176</ele>
        <time>2019-11-03T10:48:15.000Z</time>
      </trkpt>
      <trkpt lat="47.26944" lon="-2.44281">
        <ele>229.80000305176</ele>
        <time>2019-11-03T10:48:16.000Z</time>
      </trkpt>
      <trkpt lat="47.26933" lon="-2.44222">
        <ele>229.80000305176</ele>
        <time>2019-11-03T10:48:23.000Z</time>
      </trkpt>
      <trkpt lat="47.26929" lon="-2.442">
        <ele>229.80000305176</ele>
        <time>2019-11-03T10:48:26.000Z</time>
      </trkpt>
      <trkpt lat="47.26924" lon="-2.44189">
        <ele>229.80000305176</ele>
        <time>2019-11-03T10:48:28.000Z</time>
      </trkpt>
      <trkpt lat="47.26911" lon="-2.44161">
        <ele>229.80000305176</ele>
        <time>2019-11-03T10:48:33.000Z</time>
      </trkpt>
      <trkpt lat="47.26918" lon="-2.44146">
        <ele>229.80000305176</ele>
        <time>2019-11-03T10:48:36.000Z</time>
      </trkpt>
      <trkpt lat="47.26938" lon="-2.44137">
        <ele>229.80000305176</ele>
        <time>2019-11-03T10:48:40.000Z</time>
      </trkpt>
      <trkpt lat="47.26942" lon="-2.44115">
        <ele>229.80000305176</ele>
        <time>2019-11-03T10:48:43.000Z</time>
      </trkpt>
      <trkpt lat="47.26941" lon="-2.44107">
        <ele>229.80000305176</ele>
        <time>2019-11-03T10:48:44.000Z</time>
      </trkpt>
      <trkpt lat="47.26939" lon="-2.44085">
        <ele>229.80000305176</ele>
        <time>2019-11-03T10:48:47.000Z</time>
      </trkpt>
      <trkpt lat="47.2694" lon="-2.44079">
        <ele>229.80000305176</ele>
        <time>2019-11-03T10:48:48.000Z</time>
      </trkpt>
      <trkpt lat="47.26951" lon="-2.44061">
        <ele>229.80000305176</ele>
        <time>2019-11-03T10:48:52.000Z</time>
      </trkpt>
      <trkpt lat="47.26967" lon="-2.4406">
        <ele>229.80000305176</ele>
        <time>2019-11-03T10:48:55.000Z</time>
      </trkpt>
      <trkpt lat="47.27014" lon="-2.44056">
        <ele>229.80000305176</ele>
        <time>2019-11-03T10:49:02.000Z</time>
      </trkpt>
      <trkpt lat="47.27069" lon="-2.4405">
        <ele>229</ele>
        <time>2019-11-03T10:49:10.000Z</time>
      </trkpt>
      <trkpt lat="47.27076" lon="-2.44049">
        <ele>228.60000610352</ele>
        <time>2019-11-03T10:49:11.000Z</time>
      </trkpt>
      <trkpt lat="47.27083" lon="-2.44047">
        <ele>228.19999694824</ele>
        <time>2019-11-03T10:49:12.000Z</time>
      </trkpt>
      <trkpt lat="47.2709" lon="-2.44046">
        <ele>227.80000305176</ele>
        <time>2019-11-03T10:49:13.000Z</time>
      </trkpt>
      <trkpt lat="47.27112" lon="-2.44042">
        <ele>227.80000305176</ele>
        <time>2019-11-03T10:49:16.000Z</time>
      </trkpt>
      <trkpt lat="47.27119" lon="-2.4404">
        <ele>227.80000305176</ele>
        <time>2019-11-03T10:49:17.000Z</time>
      </trkpt>
      <trkpt lat="47.27158" lon="-2.4403">
        <ele>227.80000305176</ele>
        <time>2019-11-03T10:49:23.000Z</time>
      </trkpt>
      <trkpt lat="47.27198" lon="-2.4401">
        <ele>227.80000305176</ele>
        <time>2019-11-03T10:49:30.000Z</time>
      </trkpt>
      <trkpt lat="47.272" lon="-2.44004">
        <ele>227.39999389648</ele>
        <time>2019-11-03T10:49:31.000Z</time>
      </trkpt>
      <trkpt lat="47.272" lon="-2.43996">
        <ele>227</ele>
        <time>2019-11-03T10:49:32.000Z</time>
      </trkpt>
      <trkpt lat="47.27198" lon="-2.43988">
        <ele>226.60000610352</ele>
        <time>2019-11-03T10:49:33.000Z</time>
      </trkpt>
      <trkpt lat="47.27195" lon="-2.43981">
        <ele>226.19999694824</ele>
        <time>2019-11-03T10:49:34.000Z</time>
      </trkpt>
      <trkpt lat="47.27192" lon="-2.43974">
        <ele>225.80000305176</ele>
        <time>2019-11-03T10:49:35.000Z</time>
      </trkpt>
      <trkpt lat="47.27185" lon="-2.43959">
        <ele>225.19999694824</ele>
        <time>2019-11-03T10:49:37.000Z</time>
      </trkpt>
      <trkpt lat="47.27183" lon="-2.43952">
        <ele>224.80000305176</ele>
        <time>2019-11-03T10:49:38.000Z</time>
      </trkpt>
      <trkpt lat="47.2718" lon="-2.43945">
        <ele>224.39999389648</ele>
        <time>2019-11-03T10:49:39.000Z</time>
      </trkpt>
      <trkpt lat="47.27177" lon="-2.43937">
        <ele>224</ele>
        <time>2019-11-03T10:49:40.000Z</time>
      </trkpt>
      <trkpt lat="47.27175" lon="-2.43929">
        <ele>223.60000610352</ele>
        <time>2019-11-03T10:49:41.000Z</time>
      </trkpt>
      <trkpt lat="47.27172" lon="-2.43922">
        <ele>223.60000610352</ele>
        <time>2019-11-03T10:49:42.000Z</time>
      </trkpt>
      <trkpt lat="47.27169" lon="-2.43915">
        <ele>223.60000610352</ele>
        <time>2019-11-03T10:49:43.000Z</time>
      </trkpt>
      <trkpt lat="47.27164" lon="-2.43891">
        <ele>223.60000610352</ele>
        <time>2019-11-03T10:49:46.000Z</time>
      </trkpt>
      <trkpt lat="47.27162" lon="-2.43882">
        <ele>223.60000610352</ele>
        <time>2019-11-03T10:49:47.000Z</time>
      </trkpt>
      <trkpt lat="47.27153" lon="-2.43859">
        <ele>223.60000610352</ele>
        <time>2019-11-03T10:49:50.000Z</time>
      </trkpt>
      <trkpt lat="47.2715" lon="-2.43851">
        <ele>223.60000610352</ele>
        <time>2019-11-03T10:49:51.000Z</time>
      </trkpt>
      <trkpt lat="47.2713" lon="-2.43806">
        <ele>223.60000610352</ele>
        <time>2019-11-03T10:49:57.000Z</time>
      </trkpt>
      <trkpt lat="47.27107" lon="-2.43769">
        <ele>223.60000610352</ele>
        <time>2019-11-03T10:50:03.000Z</time>
      </trkpt>
      <trkpt lat="47.27098" lon="-2.43758">
        <ele>224</ele>
        <time>2019-11-03T10:50:05.000Z</time>
      </trkpt>
      <trkpt lat="47.27093" lon="-2.43753">
        <ele>224.39999389648</ele>
        <time>2019-11-03T10:50:06.000Z</time>
      </trkpt>
      <trkpt lat="47.27089" lon="-2.43748">
        <ele>224.80000305176</ele>
        <time>2019-11-03T10:50:07.000Z</time>
      </trkpt>
      <trkpt lat="47.27084" lon="-2.43742">
        <ele>225.19999694824</ele>
        <time>2019-11-03T10:50:08.000Z</time>
      </trkpt>
      <trkpt lat="47.2708" lon="-2.43737">
        <ele>225.60000610352</ele>
        <time>2019-11-03T10:50:09.000Z</time>
      </trkpt>
      <trkpt lat="47.27075" lon="-2.43732">
        <ele>225.60000610352</ele>
        <time>2019-11-03T10:50:10.000Z</time>
      </trkpt>
      <trkpt lat="47.27071" lon="-2.43726">
        <ele>225.60000610352</ele>
        <time>2019-11-03T10:50:11.000Z</time>
      </trkpt>
      <trkpt lat="47.2706" lon="-2.43704">
        <ele>225.60000610352</ele>
        <time>2019-11-03T10:50:14.000Z</time>
      </trkpt>
      <trkpt lat="47.27039" lon="-2.43658">
        <ele>225.60000610352</ele>
        <time>2019-11-03T10:50:20.000Z</time>
      </trkpt>
      <trkpt lat="47.27018" lon="-2.43607">
        <ele>225.60000610352</ele>
        <time>2019-11-03T10:50:27.000Z</time>
      </trkpt>
      <trkpt lat="47.2701" lon="-2.43598">
        <ele>225.60000610352</ele>
        <time>2019-11-03T10:50:31.000Z</time>
      </trkpt>
      <trkpt lat="47.26999" lon="-2.43593">
        <ele>225.60000610352</ele>
        <time>2019-11-03T10:50:34.000Z</time>
      </trkpt>
      <trkpt lat="47.26996" lon="-2.43589">
        <ele>225.60000610352</ele>
        <time>2019-11-03T10:50:35.000Z</time>
      </trkpt>
      <trkpt lat="47.26987" lon="-2.43571">
        <ele>225.60000610352</ele>
        <time>2019-11-03T10:50:38.000Z</time>
      </trkpt>
      <trkpt lat="47.26978" lon="-2.43557">
        <ele>225.60000610352</ele>
        <time>2019-11-03T10:50:40.000Z</time>
      </trkpt>
      <trkpt lat="47.26965" lon="-2.43535">
        <ele>225.60000610352</ele>
        <time>2019-11-03T10:50:43.000Z</time>
      </trkpt>
      <trkpt lat="47.26931" lon="-2.43484">
        <ele>225.60000610352</ele>
        <time>2019-11-03T10:50:50.000Z</time>
      </trkpt>
      <trkpt lat="47.26894" lon="-2.43427">
        <ele>225.60000610352</ele>
        <time>2019-11-03T10:50:58.000Z</time>
      </trkpt>
      <trkpt lat="47.26889" lon="-2.43422">
        <ele>225.60000610352</ele>
        <time>2019-11-03T10:50:59.000Z</time>
      </trkpt>
      <trkpt lat="47.26878" lon="-2.43416">
        <ele>225.60000610352</ele>
        <time>2019-11-03T10:51:01.000Z</time>
      </trkpt>
      <trkpt lat="47.2687" lon="-2.43403">
        <ele>225.60000610352</ele>
        <time>2019-11-03T10:51:04.000Z</time>
      </trkpt>
      <trkpt lat="47.26878" lon="-2.43385">
        <ele>225.60000610352</ele>
        <time>2019-11-03T10:51:07.000Z</time>
      </trkpt>
      <trkpt lat="47.26885" lon="-2.43363">
        <ele>225.60000610352</ele>
        <time>2019-11-03T10:51:10.000Z</time>
      </trkpt>
      <trkpt lat="47.26887" lon="-2.43355">
        <ele>225.60000610352</ele>
        <time>2019-11-03T10:51:11.000Z</time>
      </trkpt>
      <trkpt lat="47.26905" lon="-2.43308">
        <ele>225.60000610352</ele>
        <time>2019-11-03T10:51:17.000Z</time>
      </trkpt>
      <trkpt lat="47.26909" lon="-2.43299">
        <ele>225.60000610352</ele>
        <time>2019-11-03T10:51:18.000Z</time>
      </trkpt>
      <trkpt lat="47.26923" lon="-2.43267">
        <ele>225.60000610352</ele>
        <time>2019-11-03T10:51:22.000Z</time>
      </trkpt>
      <trkpt lat="47.26932" lon="-2.43242">
        <ele>225.60000610352</ele>
        <time>2019-11-03T10:51:25.000Z</time>
      </trkpt>
      <trkpt lat="47.26935" lon="-2.43225">
        <ele>225.60000610352</ele>
        <time>2019-11-03T10:51:27.000Z</time>
      </trkpt>
      <trkpt lat="47.26945" lon="-2.43191">
        <ele>225.60000610352</ele>
        <time>2019-11-03T10:51:32.000Z</time>
      </trkpt>
      <trkpt lat="47.26958" lon="-2.4315">
        <ele>225.60000610352</ele>
        <time>2019-11-03T10:51:37.000Z</time>
      </trkpt>
      <trkpt lat="47.26956" lon="-2.43122">
        <ele>225.60000610352</ele>
        <time>2019-11-03T10:51:40.000Z</time>
      </trkpt>
      <trkpt lat="47.26954" lon="-2.43113">
        <ele>225.60000610352</ele>
        <time>2019-11-03T10:51:41.000Z</time>
      </trkpt>
      <trkpt lat="47.26941" lon="-2.4306">
        <ele>225.19999694824</ele>
        <time>2019-11-03T10:51:47.000Z</time>
      </trkpt>
      <trkpt lat="47.26939" lon="-2.43052">
        <ele>224.80000305176</ele>
        <time>2019-11-03T10:51:48.000Z</time>
      </trkpt>
      <trkpt lat="47.26937" lon="-2.43044">
        <ele>224.39999389648</ele>
        <time>2019-11-03T10:51:49.000Z</time>
      </trkpt>
      <trkpt lat="47.26936" lon="-2.43037">
        <ele>224</ele>
        <time>2019-11-03T10:51:50.000Z</time>
      </trkpt>
      <trkpt lat="47.26933" lon="-2.43029">
        <ele>223.60000610352</ele>
        <time>2019-11-03T10:51:51.000Z</time>
      </trkpt>
      <trkpt lat="47.26931" lon="-2.43022">
        <ele>223.60000610352</ele>
        <time>2019-11-03T10:51:52.000Z</time>
      </trkpt>
      <trkpt lat="47.26926" lon="-2.43002">
        <ele>223.60000610352</ele>
        <time>2019-11-03T10:51:55.000Z</time>
      </trkpt>
      <trkpt lat="47.26919" lon="-2.42994">
        <ele>223.60000610352</ele>
        <time>2019-11-03T10:51:57.000Z</time>
      </trkpt>
      <trkpt lat="47.26905" lon="-2.42993">
        <ele>223.60000610352</ele>
        <time>2019-11-03T10:52:00.000Z</time>
      </trkpt>
      <trkpt lat="47.269" lon="-2.42992">
        <ele>223.60000610352</ele>
        <time>2019-11-03T10:52:01.000Z</time>
      </trkpt>
      <trkpt lat="47.26896" lon="-2.4299">
        <ele>223.60000610352</ele>
        <time>2019-11-03T10:52:02.000Z</time>
      </trkpt>
      <trkpt lat="47.2689" lon="-2.42979">
        <ele>223.60000610352</ele>
        <time>2019-11-03T10:52:04.000Z</time>
      </trkpt>
      <trkpt lat="47.26888" lon="-2.42965">
        <ele>223.60000610352</ele>
        <time>2019-11-03T10:52:06.000Z</time>
      </trkpt>
      <trkpt lat="47.26886" lon="-2.42957">
        <ele>223.60000610352</ele>
        <time>2019-11-03T10:52:07.000Z</time>
      </trkpt>
      <trkpt lat="47.26884" lon="-2.42949">
        <ele>223.60000610352</ele>
        <time>2019-11-03T10:52:08.000Z</time>
      </trkpt>
      <trkpt lat="47.26871" lon="-2.42907">
        <ele>223.60000610352</ele>
        <time>2019-11-03T10:52:13.000Z</time>
      </trkpt>
      <trkpt lat="47.26869" lon="-2.429">
        <ele>223.60000610352</ele>
        <time>2019-11-03T10:52:14.000Z</time>
      </trkpt>
      <trkpt lat="47.26859" lon="-2.42867">
        <ele>223.60000610352</ele>
        <time>2019-11-03T10:52:18.000Z</time>
      </trkpt>
      <trkpt lat="47.26855" lon="-2.42851">
        <ele>224</ele>
        <time>2019-11-03T10:52:20.000Z</time>
      </trkpt>
      <trkpt lat="47.26853" lon="-2.42843">
        <ele>224.39999389648</ele>
        <time>2019-11-03T10:52:21.000Z</time>
      </trkpt>
      <trkpt lat="47.26851" lon="-2.42836">
        <ele>225</ele>
        <time>2019-11-03T10:52:22.000Z</time>
      </trkpt>
      <trkpt lat="47.26849" lon="-2.42828">
        <ele>225.39999389648</ele>
        <time>2019-11-03T10:52:23.000Z</time>
      </trkpt>
      <trkpt lat="47.26846" lon="-2.4282">
        <ele>225.80000305176</ele>
        <time>2019-11-03T10:52:24.000Z</time>
      </trkpt>
      <trkpt lat="47.26842" lon="-2.42804">
        <ele>225.80000305176</ele>
        <time>2019-11-03T10:52:26.000Z</time>
      </trkpt>
      <trkpt lat="47.26831" lon="-2.42752">
        <ele>225.80000305176</ele>
        <time>2019-11-03T10:52:33.000Z</time>
      </trkpt>
      <trkpt lat="47.26824" lon="-2.42723">
        <ele>225.80000305176</ele>
        <time>2019-11-03T10:52:38.000Z</time>
      </trkpt>
      <trkpt lat="47.26819" lon="-2.42704">
        <ele>225.80000305176</ele>
        <time>2019-11-03T10:52:42.000Z</time>
      </trkpt>
      <trkpt lat="47.26815" lon="-2.42684">
        <ele>226.19999694824</ele>
        <time>2019-11-03T10:52:45.000Z</time>
      </trkpt>
      <trkpt lat="47.26813" lon="-2.42677">
        <ele>226.60000610352</ele>
        <time>2019-11-03T10:52:46.000Z</time>
      </trkpt>
      <trkpt lat="47.26811" lon="-2.4267">
        <ele>227</ele>
        <time>2019-11-03T10:52:47.000Z</time>
      </trkpt>
      <trkpt lat="47.26809" lon="-2.42663">
        <ele>227.39999389648</ele>
        <time>2019-11-03T10:52:48.000Z</time>
      </trkpt>
      <trkpt lat="47.26807" lon="-2.42657">
        <ele>227.80000305176</ele>
        <time>2019-11-03T10:52:49.000Z</time>
      </trkpt>
      <trkpt lat="47.26801" lon="-2.4264">
        <ele>227.80000305176</ele>
        <time>2019-11-03T10:52:52.000Z</time>
      </trkpt>
      <trkpt lat="47.26799" lon="-2.42634">
        <ele>227.80000305176</ele>
        <time>2019-11-03T10:52:53.000Z</time>
      </trkpt>
      <trkpt lat="47.26789" lon="-2.42594">
        <ele>227.80000305176</ele>
        <time>2019-11-03T10:53:00.000Z</time>
      </trkpt>
      <trkpt lat="47.26778" lon="-2.42561">
        <ele>227.80000305176</ele>
        <time>2019-11-03T10:53:05.000Z</time>
      </trkpt>
      <trkpt lat="47.26775" lon="-2.42556">
        <ele>227.80000305176</ele>
        <time>2019-11-03T10:53:06.000Z</time>
      </trkpt>
      <trkpt lat="47.26766" lon="-2.42542">
        <ele>227.80000305176</ele>
        <time>2019-11-03T10:53:09.000Z</time>
      </trkpt>
      <trkpt lat="47.26759" lon="-2.42529">
        <ele>227.80000305176</ele>
        <time>2019-11-03T10:53:12.000Z</time>
      </trkpt>
      <trkpt lat="47.26757" lon="-2.4251">
        <ele>227.80000305176</ele>
        <time>2019-11-03T10:53:16.000Z</time>
      </trkpt>
      <trkpt lat="47.2676" lon="-2.42506">
        <ele>227.80000305176</ele>
        <time>2019-11-03T10:53:17.000Z</time>
      </trkpt>
      <trkpt lat="47.26766" lon="-2.42499">
        <ele>227.80000305176</ele>
        <time>2019-11-03T10:53:19.000Z</time>
      </trkpt>
      <trkpt lat="47.26789" lon="-2.42473">
        <ele>227.80000305176</ele>
        <time>2019-11-03T10:53:25.000Z</time>
      </trkpt>
      <trkpt lat="47.26807" lon="-2.4245">
        <ele>227.80000305176</ele>
        <time>2019-11-03T10:53:30.000Z</time>
      </trkpt>
      <trkpt lat="47.2681" lon="-2.42447">
        <ele>227.80000305176</ele>
        <time>2019-11-03T10:53:31.000Z</time>
      </trkpt>
      <trkpt lat="47.26815" lon="-2.42441">
        <ele>227.80000305176</ele>
        <time>2019-11-03T10:53:34.000Z</time>
      </trkpt>
      <trkpt lat="47.26816" lon="-2.42441">
        <ele>227.80000305176</ele>
        <time>2019-11-03T10:53:36.000Z</time>
      </trkpt>
      <trkpt lat="47.26816" lon="-2.4244">
        <ele>227.80000305176</ele>
        <time>2019-11-03T10:53:39.000Z</time>
      </trkpt>
      <trkpt lat="47.26817" lon="-2.42438">
        <ele>227.80000305176</ele>
        <time>2019-11-03T10:53:40.000Z</time>
      </trkpt>
      <trkpt lat="47.26823" lon="-2.42423">
        <ele>227.80000305176</ele>
        <time>2019-11-03T10:53:44.000Z</time>
      </trkpt>
      <trkpt lat="47.26837" lon="-2.42401">
        <ele>227.80000305176</ele>
        <time>2019-11-03T10:53:50.000Z</time>
      </trkpt>
      <trkpt lat="47.26847" lon="-2.42385">
        <ele>227.80000305176</ele>
        <time>2019-11-03T10:53:56.000Z</time>
      </trkpt>
      <trkpt lat="47.26859" lon="-2.42368">
        <ele>227.80000305176</ele>
        <time>2019-11-03T10:54:02.000Z</time>
      </trkpt>
      <trkpt lat="47.26867" lon="-2.42358">
        <ele>227.80000305176</ele>
        <time>2019-11-03T10:54:07.000Z</time>
      </trkpt>
      <trkpt lat="47.26868" lon="-2.42357">
        <ele>227.80000305176</ele>
        <time>2019-11-03T10:54:09.000Z</time>
      </trkpt>
      <trkpt lat="47.26878" lon="-2.42352">
        <ele>227.80000305176</ele>
        <time>2019-11-03T10:54:43.000Z</time>
      </trkpt>
      <trkpt lat="47.2688" lon="-2.42352">
        <ele>227.39999389648</ele>
        <time>2019-11-03T10:54:44.000Z</time>
      </trkpt>
      <trkpt lat="47.2688" lon="-2.42352">
        <ele>226.80000305176</ele>
        <time>2019-11-03T10:54:45.000Z</time>
      </trkpt>
      <trkpt lat="47.26881" lon="-2.42352">
        <ele>226.39999389648</ele>
        <time>2019-11-03T10:54:46.000Z</time>
      </trkpt>
      <trkpt lat="47.26881" lon="-2.42351">
        <ele>226</ele>
        <time>2019-11-03T10:54:47.000Z</time>
      </trkpt>
      <trkpt lat="47.26886" lon="-2.42348">
        <ele>223.39999389648</ele>
        <time>2019-11-03T10:54:54.000Z</time>
      </trkpt>
      <trkpt lat="47.26888" lon="-2.42348">
        <ele>223.39999389648</ele>
        <time>2019-11-03T10:54:55.000Z</time>
      </trkpt>
      <trkpt lat="47.26905" lon="-2.42351">
        <ele>223.39999389648</ele>
        <time>2019-11-03T10:55:01.000Z</time>
      </trkpt>
      <trkpt lat="47.26919" lon="-2.42342">
        <ele>223.39999389648</ele>
        <time>2019-11-03T10:55:05.000Z</time>
      </trkpt>
      <trkpt lat="47.26931" lon="-2.42334">
        <ele>223.80000305176</ele>
        <time>2019-11-03T10:55:09.000Z</time>
      </trkpt>
      <trkpt lat="47.26934" lon="-2.42333">
        <ele>224.19999694824</ele>
        <time>2019-11-03T10:55:10.000Z</time>
      </trkpt>
      <trkpt lat="47.26938" lon="-2.42335">
        <ele>224.80000305176</ele>
        <time>2019-11-03T10:55:11.000Z</time>
      </trkpt>
      <trkpt lat="47.26942" lon="-2.42337">
        <ele>225.19999694824</ele>
        <time>2019-11-03T10:55:12.000Z</time>
      </trkpt>
      <trkpt lat="47.26946" lon="-2.42341">
        <ele>225.60000610352</ele>
        <time>2019-11-03T10:55:13.000Z</time>
      </trkpt>
      <trkpt lat="47.2695" lon="-2.42344">
        <ele>225.60000610352</ele>
        <time>2019-11-03T10:55:14.000Z</time>
      </trkpt>
      <trkpt lat="47.26977" lon="-2.42369">
        <ele>225.60000610352</ele>
        <time>2019-11-03T10:55:21.000Z</time>
      </trkpt>
      <trkpt lat="47.26984" lon="-2.42377">
        <ele>225.60000610352</ele>
        <time>2019-11-03T10:55:23.000Z</time>
      </trkpt>
      <trkpt lat="47.26994" lon="-2.42388">
        <ele>225.60000610352</ele>
        <time>2019-11-03T10:55:26.000Z</time>
      </trkpt>
      <trkpt lat="47.27007" lon="-2.42402">
        <ele>225.60000610352</ele>
        <time>2019-11-03T10:55:31.000Z</time>
      </trkpt>
      <trkpt lat="47.27017" lon="-2.42413">
        <ele>225.60000610352</ele>
        <time>2019-11-03T10:55:34.000Z</time>
      </trkpt>
      <trkpt lat="47.27036" lon="-2.42421">
        <ele>225.60000610352</ele>
        <time>2019-11-03T10:55:39.000Z</time>
      </trkpt>
      <trkpt lat="47.27039" lon="-2.42421">
        <ele>226</ele>
        <time>2019-11-03T10:55:40.000Z</time>
      </trkpt>
      <trkpt lat="47.27043" lon="-2.42421">
        <ele>226.39999389648</ele>
        <time>2019-11-03T10:55:41.000Z</time>
      </trkpt>
      <trkpt lat="47.27047" lon="-2.42421">
        <ele>226.19999694824</ele>
        <time>2019-11-03T10:55:42.000Z</time>
      </trkpt>
      <trkpt lat="47.27052" lon="-2.4242">
        <ele>226</ele>
        <time>2019-11-03T10:55:43.000Z</time>
      </trkpt>
      <trkpt lat="47.27056" lon="-2.42419">
        <ele>225.80000305176</ele>
        <time>2019-11-03T10:55:44.000Z</time>
      </trkpt>
      <trkpt lat="47.2706" lon="-2.42418">
        <ele>225.39999389648</ele>
        <time>2019-11-03T10:55:45.000Z</time>
      </trkpt>
      <trkpt lat="47.27064" lon="-2.42417">
        <ele>225.19999694824</ele>
        <time>2019-11-03T10:55:46.000Z</time>
      </trkpt>
      <trkpt lat="47.27077" lon="-2.42412">
        <ele>225.19999694824</ele>
        <time>2019-11-03T10:55:49.000Z</time>
      </trkpt>
      <trkpt lat="47.27081" lon="-2.4241">
        <ele>225.19999694824</ele>
        <time>2019-11-03T10:55:50.000Z</time>
      </trkpt>
      <trkpt lat="47.27107" lon="-2.42402">
        <ele>224.80000305176</ele>
        <time>2019-11-03T10:55:56.000Z</time>
      </trkpt>
      <trkpt lat="47.27111" lon="-2.42402">
        <ele>224.39999389648</ele>
        <time>2019-11-03T10:55:57.000Z</time>
      </trkpt>
      <trkpt lat="47.27115" lon="-2.42401">
        <ele>224</ele>
        <time>2019-11-03T10:55:58.000Z</time>
      </trkpt>
      <trkpt lat="47.2712" lon="-2.42401">
        <ele>223.60000610352</ele>
        <time>2019-11-03T10:55:59.000Z</time>
      </trkpt>
      <trkpt lat="47.27124" lon="-2.42401">
        <ele>223.19999694824</ele>
        <time>2019-11-03T10:56:00.000Z</time>
      </trkpt>
      <trkpt lat="47.27132" lon="-2.424">
        <ele>223.19999694824</ele>
        <time>2019-11-03T10:56:02.000Z</time>
      </trkpt>
      <trkpt lat="47.27144" lon="-2.42398">
        <ele>223.19999694824</ele>
        <time>2019-11-03T10:56:05.000Z</time>
      </trkpt>
      <trkpt lat="47.27168" lon="-2.42393">
        <ele>223.19999694824</ele>
        <time>2019-11-03T10:56:11.000Z</time>
      </trkpt>
      <trkpt lat="47.272" lon="-2.42381">
        <ele>223.19999694824</ele>
        <time>2019-11-03T10:56:19.000Z</time>
      </trkpt>
      <trkpt lat="47.27221" lon="-2.42372">
        <ele>222.80000305176</ele>
        <time>2019-11-03T10:56:24.000Z</time>
      </trkpt>
      <trkpt lat="47.27225" lon="-2.4237">
        <ele>222.39999389648</ele>
        <time>2019-11-03T10:56:25.000Z</time>
      </trkpt>
      <trkpt lat="47.27229" lon="-2.42368">
        <ele>221.80000305176</ele>
        <time>2019-11-03T10:56:26.000Z</time>
      </trkpt>
      <trkpt lat="47.27234" lon="-2.42367">
        <ele>221.39999389648</ele>
        <time>2019-11-03T10:56:27.000Z</time>
      </trkpt>
      <trkpt lat="47.27238" lon="-2.42366">
        <ele>221</ele>
        <time>2019-11-03T10:56:28.000Z</time>
      </trkpt>
      <trkpt lat="47.27253" lon="-2.4236">
        <ele>221</ele>
        <time>2019-11-03T10:56:32.000Z</time>
      </trkpt>
      <trkpt lat="47.27269" lon="-2.42353">
        <ele>221</ele>
        <time>2019-11-03T10:56:36.000Z</time>
      </trkpt>
      <trkpt lat="47.27277" lon="-2.42349">
        <ele>221</ele>
        <time>2019-11-03T10:56:38.000Z</time>
      </trkpt>
      <trkpt lat="47.27297" lon="-2.4234">
        <ele>221.39999389648</ele>
        <time>2019-11-03T10:56:43.000Z</time>
      </trkpt>
      <trkpt lat="47.27301" lon="-2.42339">
        <ele>222</ele>
        <time>2019-11-03T10:56:44.000Z</time>
      </trkpt>
      <trkpt lat="47.27304" lon="-2.42338">
        <ele>222.60000610352</ele>
        <time>2019-11-03T10:56:45.000Z</time>
      </trkpt>
      <trkpt lat="47.27308" lon="-2.42336">
        <ele>223.19999694824</ele>
        <time>2019-11-03T10:56:46.000Z</time>
      </trkpt>
      <trkpt lat="47.27312" lon="-2.42335">
        <ele>223.80000305176</ele>
        <time>2019-11-03T10:56:47.000Z</time>
      </trkpt>
      <trkpt lat="47.27326" lon="-2.42327">
        <ele>223.80000305176</ele>
        <time>2019-11-03T10:56:51.000Z</time>
      </trkpt>
      <trkpt lat="47.2733" lon="-2.42328">
        <ele>223.80000305176</ele>
        <time>2019-11-03T10:56:52.000Z</time>
      </trkpt>
      <trkpt lat="47.27336" lon="-2.42333">
        <ele>223.80000305176</ele>
        <time>2019-11-03T10:56:54.000Z</time>
      </trkpt>
      <trkpt lat="47.27339" lon="-2.42339">
        <ele>223.80000305176</ele>
        <time>2019-11-03T10:56:56.000Z</time>
      </trkpt>
      <trkpt lat="47.27343" lon="-2.42346">
        <ele>223.80000305176</ele>
        <time>2019-11-03T10:56:59.000Z</time>
      </trkpt>
      <trkpt lat="47.27348" lon="-2.42363">
        <ele>223.80000305176</ele>
        <time>2019-11-03T10:57:04.000Z</time>
      </trkpt>
      <trkpt lat="47.27357" lon="-2.42387">
        <ele>223.80000305176</ele>
        <time>2019-11-03T10:57:10.000Z</time>
      </trkpt>
      <trkpt lat="47.27366" lon="-2.42405">
        <ele>223.80000305176</ele>
        <time>2019-11-03T10:57:16.000Z</time>
      </trkpt>
      <trkpt lat="47.27368" lon="-2.42417">
        <ele>223.80000305176</ele>
        <time>2019-11-03T10:57:22.000Z</time>
      </trkpt>
      <trkpt lat="47.27368" lon="-2.42417">
        <ele>223.80000305176</ele>
        <time>2019-11-03T10:57:23.000Z</time>
      </trkpt>
      <trkpt lat="47.2737" lon="-2.42417">
        <ele>225.80000305176</ele>
        <time>2019-11-03T10:57:40.000Z</time>
      </trkpt>
      <trkpt lat="47.27371" lon="-2.42416">
        <ele>225.80000305176</ele>
        <time>2019-11-03T10:57:41.000Z</time>
      </trkpt>
      <trkpt lat="47.27379" lon="-2.4242">
        <ele>225.80000305176</ele>
        <time>2019-11-03T10:57:44.000Z</time>
      </trkpt>
      <trkpt lat="47.27391" lon="-2.42434">
        <ele>225.80000305176</ele>
        <time>2019-11-03T10:57:48.000Z</time>
      </trkpt>
      <trkpt lat="47.27396" lon="-2.4244">
        <ele>225.80000305176</ele>
        <time>2019-11-03T10:57:50.000Z</time>
      </trkpt>
      <trkpt lat="47.27412" lon="-2.42459">
        <ele>225.80000305176</ele>
        <time>2019-11-03T10:57:56.000Z</time>
      </trkpt>
      <trkpt lat="47.27424" lon="-2.42477">
        <ele>225.80000305176</ele>
        <time>2019-11-03T10:58:02.000Z</time>
      </trkpt>
      <trkpt lat="47.27435" lon="-2.42488">
        <ele>225.80000305176</ele>
        <time>2019-11-03T10:58:07.000Z</time>
      </trkpt>
      <trkpt lat="47.27456" lon="-2.42509">
        <ele>225.80000305176</ele>
        <time>2019-11-03T10:58:14.000Z</time>
      </trkpt>
      <trkpt lat="47.27475" lon="-2.42521">
        <ele>225.80000305176</ele>
        <time>2019-11-03T10:58:19.000Z</time>
      </trkpt>
      <trkpt lat="47.27491" lon="-2.42537">
        <ele>225.80000305176</ele>
        <time>2019-11-03T10:58:24.000Z</time>
      </trkpt>
      <trkpt lat="47.27499" lon="-2.42553">
        <ele>225.80000305176</ele>
        <time>2019-11-03T10:58:29.000Z</time>
      </trkpt>
      <trkpt lat="47.27501" lon="-2.42559">
        <ele>225.80000305176</ele>
        <time>2019-11-03T10:58:32.000Z</time>
      </trkpt>
      <trkpt lat="47.27506" lon="-2.42562">
        <ele>225.80000305176</ele>
        <time>2019-11-03T10:58:35.000Z</time>
      </trkpt>
      <trkpt lat="47.2751" lon="-2.42567">
        <ele>225.80000305176</ele>
        <time>2019-11-03T10:58:40.000Z</time>
      </trkpt>
      <trkpt lat="47.27511" lon="-2.42568">
        <ele>225.80000305176</ele>
        <time>2019-11-03T10:58:41.000Z</time>
      </trkpt>
      <trkpt lat="47.27514" lon="-2.42573">
        <ele>225.80000305176</ele>
        <time>2019-11-03T10:58:46.000Z</time>
      </trkpt>
      <trkpt lat="47.27515" lon="-2.42574">
        <ele>225.80000305176</ele>
        <time>2019-11-03T10:58:48.000Z</time>
      </trkpt>
      <trkpt lat="47.27516" lon="-2.42574">
        <ele>225.80000305176</ele>
        <time>2019-11-03T10:58:49.000Z</time>
      </trkpt>
      <trkpt lat="47.27522" lon="-2.42579">
        <ele>225.80000305176</ele>
        <time>2019-11-03T10:58:52.000Z</time>
      </trkpt>
      <trkpt lat="47.27533" lon="-2.42591">
        <ele>225.80000305176</ele>
        <time>2019-11-03T10:58:56.000Z</time>
      </trkpt>
      <trkpt lat="47.27553" lon="-2.42607">
        <ele>225.80000305176</ele>
        <time>2019-11-03T10:59:03.000Z</time>
      </trkpt>
      <trkpt lat="47.27566" lon="-2.42611">
        <ele>225.80000305176</ele>
        <time>2019-11-03T10:59:08.000Z</time>
      </trkpt>
      <trkpt lat="47.27573" lon="-2.42623">
        <ele>225.80000305176</ele>
        <time>2019-11-03T10:59:13.000Z</time>
      </trkpt>
      <trkpt lat="47.27577" lon="-2.42639">
        <ele>225.80000305176</ele>
        <time>2019-11-03T10:59:16.000Z</time>
      </trkpt>
      <trkpt lat="47.27579" lon="-2.42646">
        <ele>225.80000305176</ele>
        <time>2019-11-03T10:59:17.000Z</time>
      </trkpt>
      <trkpt lat="47.27581" lon="-2.42652">
        <ele>225.80000305176</ele>
        <time>2019-11-03T10:59:18.000Z</time>
      </trkpt>
      <trkpt lat="47.27585" lon="-2.42672">
        <ele>225.80000305176</ele>
        <time>2019-11-03T10:59:21.000Z</time>
      </trkpt>
      <trkpt lat="47.2759" lon="-2.42683">
        <ele>225.80000305176</ele>
        <time>2019-11-03T10:59:23.000Z</time>
      </trkpt>
      <trkpt lat="47.27598" lon="-2.427">
        <ele>225.80000305176</ele>
        <time>2019-11-03T10:59:26.000Z</time>
      </trkpt>
      <trkpt lat="47.27607" lon="-2.42715">
        <ele>225.80000305176</ele>
        <time>2019-11-03T10:59:29.000Z</time>
      </trkpt>
      <trkpt lat="47.27611" lon="-2.4272">
        <ele>225.80000305176</ele>
        <time>2019-11-03T10:59:30.000Z</time>
      </trkpt>
      <trkpt lat="47.27629" lon="-2.42742">
        <ele>225.80000305176</ele>
        <time>2019-11-03T10:59:35.000Z</time>
      </trkpt>
      <trkpt lat="47.27634" lon="-2.42746">
        <ele>225.80000305176</ele>
        <time>2019-11-03T10:59:36.000Z</time>
      </trkpt>
      <trkpt lat="47.27652" lon="-2.42763">
        <ele>225.80000305176</ele>
        <time>2019-11-03T10:59:40.000Z</time>
      </trkpt>
      <trkpt lat="47.27676" lon="-2.42786">
        <ele>225.80000305176</ele>
        <time>2019-11-03T10:59:46.000Z</time>
      </trkpt>
      <trkpt lat="47.27681" lon="-2.42788">
        <ele>225.80000305176</ele>
        <time>2019-11-03T10:59:47.000Z</time>
      </trkpt>
      <trkpt lat="47.27695" lon="-2.42793">
        <ele>225.80000305176</ele>
        <time>2019-11-03T10:59:50.000Z</time>
      </trkpt>
      <trkpt lat="47.27709" lon="-2.42799">
        <ele>225.80000305176</ele>
        <time>2019-11-03T10:59:53.000Z</time>
      </trkpt>
      <trkpt lat="47.27714" lon="-2.428">
        <ele>225.80000305176</ele>
        <time>2019-11-03T10:59:54.000Z</time>
      </trkpt>
      <trkpt lat="47.27739" lon="-2.42807">
        <ele>225.80000305176</ele>
        <time>2019-11-03T10:59:59.000Z</time>
      </trkpt>
      <trkpt lat="47.27761" lon="-2.42812">
        <ele>225.80000305176</ele>
        <time>2019-11-03T11:00:04.000Z</time>
      </trkpt>
      <trkpt lat="47.27766" lon="-2.42812">
        <ele>225.80000305176</ele>
        <time>2019-11-03T11:00:05.000Z</time>
      </trkpt>
      <trkpt lat="47.27798" lon="-2.42819">
        <ele>225.80000305176</ele>
        <time>2019-11-03T11:00:12.000Z</time>
      </trkpt>
      <trkpt lat="47.27819" lon="-2.42819">
        <ele>225.80000305176</ele>
        <time>2019-11-03T11:00:18.000Z</time>
      </trkpt>
      <trkpt lat="47.27827" lon="-2.42814">
        <ele>225.80000305176</ele>
        <time>2019-11-03T11:00:22.000Z</time>
      </trkpt>
      <trkpt lat="47.27828" lon="-2.42811">
        <ele>225.80000305176</ele>
        <time>2019-11-03T11:00:23.000Z</time>
      </trkpt>
      <trkpt lat="47.27828" lon="-2.42791">
        <ele>225.80000305176</ele>
        <time>2019-11-03T11:00:27.000Z</time>
      </trkpt>
      <trkpt lat="47.27827" lon="-2.42774">
        <ele>225.80000305176</ele>
        <time>2019-11-03T11:00:31.000Z</time>
      </trkpt>
      <trkpt lat="47.27827" lon="-2.42766">
        <ele>225.80000305176</ele>
        <time>2019-11-03T11:00:33.000Z</time>
      </trkpt>
      <trkpt lat="47.27827" lon="-2.42739">
        <ele>225.80000305176</ele>
        <time>2019-11-03T11:00:38.000Z</time>
      </trkpt>
      <trkpt lat="47.27827" lon="-2.42727">
        <ele>225.80000305176</ele>
        <time>2019-11-03T11:00:41.000Z</time>
      </trkpt>
      <trkpt lat="47.27829" lon="-2.42724">
        <ele>225.80000305176</ele>
        <time>2019-11-03T11:00:42.000Z</time>
      </trkpt>
      <trkpt lat="47.27842" lon="-2.42715">
        <ele>225.80000305176</ele>
        <time>2019-11-03T11:00:46.000Z</time>
      </trkpt>
      <trkpt lat="47.27866" lon="-2.4271">
        <ele>225.80000305176</ele>
        <time>2019-11-03T11:00:51.000Z</time>
      </trkpt>
      <trkpt lat="47.27896" lon="-2.42692">
        <ele>225.39999389648</ele>
        <time>2019-11-03T11:00:57.000Z</time>
      </trkpt>
      <trkpt lat="47.27901" lon="-2.42689">
        <ele>225</ele>
        <time>2019-11-03T11:00:58.000Z</time>
      </trkpt>
      <trkpt lat="47.27906" lon="-2.42686">
        <ele>224.60000610352</ele>
        <time>2019-11-03T11:00:59.000Z</time>
      </trkpt>
      <trkpt lat="47.27911" lon="-2.42683">
        <ele>224.19999694824</ele>
        <time>2019-11-03T11:01:00.000Z</time>
      </trkpt>
      <trkpt lat="47.27916" lon="-2.4268">
        <ele>223.60000610352</ele>
        <time>2019-11-03T11:01:01.000Z</time>
      </trkpt>
      <trkpt lat="47.27929" lon="-2.42671">
        <ele>223.60000610352</ele>
        <time>2019-11-03T11:01:04.000Z</time>
      </trkpt>
      <trkpt lat="47.27937" lon="-2.42665">
        <ele>223.60000610352</ele>
        <time>2019-11-03T11:01:06.000Z</time>
      </trkpt>
      <trkpt lat="47.27956" lon="-2.42653">
        <ele>223.60000610352</ele>
        <time>2019-11-03T11:01:10.000Z</time>
      </trkpt>
      <trkpt lat="47.27971" lon="-2.42645">
        <ele>223.60000610352</ele>
        <time>2019-11-03T11:01:13.000Z</time>
      </trkpt>
      <trkpt lat="47.27982" lon="-2.42643">
        <ele>223.60000610352</ele>
        <time>2019-11-03T11:01:15.000Z</time>
      </trkpt>
      <trkpt lat="47.27993" lon="-2.42642">
        <ele>223.60000610352</ele>
        <time>2019-11-03T11:01:17.000Z</time>
      </trkpt>
      <trkpt lat="47.28008" lon="-2.42633">
        <ele>223.60000610352</ele>
        <time>2019-11-03T11:01:20.000Z</time>
      </trkpt>
      <trkpt lat="47.28013" lon="-2.42629">
        <ele>223.60000610352</ele>
        <time>2019-11-03T11:01:21.000Z</time>
      </trkpt>
      <trkpt lat="47.28035" lon="-2.42607">
        <ele>223.60000610352</ele>
        <time>2019-11-03T11:01:26.000Z</time>
      </trkpt>
      <trkpt lat="47.2804" lon="-2.42604">
        <ele>223.60000610352</ele>
        <time>2019-11-03T11:01:27.000Z</time>
      </trkpt>
      <trkpt lat="47.28053" lon="-2.42594">
        <ele>223.60000610352</ele>
        <time>2019-11-03T11:01:30.000Z</time>
      </trkpt>
      <trkpt lat="47.28063" lon="-2.42588">
        <ele>223.60000610352</ele>
        <time>2019-11-03T11:01:32.000Z</time>
      </trkpt>
      <trkpt lat="47.28077" lon="-2.42569">
        <ele>223.60000610352</ele>
        <time>2019-11-03T11:01:36.000Z</time>
      </trkpt>
      <trkpt lat="47.28085" lon="-2.42561">
        <ele>223.60000610352</ele>
        <time>2019-11-03T11:01:40.000Z</time>
      </trkpt>
      <trkpt lat="47.28087" lon="-2.4256">
        <ele>223.60000610352</ele>
        <time>2019-11-03T11:01:43.000Z</time>
      </trkpt>
      <trkpt lat="47.28088" lon="-2.42555">
        <ele>223.60000610352</ele>
        <time>2019-11-03T11:01:47.000Z</time>
      </trkpt>
      <trkpt lat="47.28097" lon="-2.42544">
        <ele>223.60000610352</ele>
        <time>2019-11-03T11:01:51.000Z</time>
      </trkpt>
      <trkpt lat="47.28112" lon="-2.42538">
        <ele>223.60000610352</ele>
        <time>2019-11-03T11:01:55.000Z</time>
      </trkpt>
      <trkpt lat="47.28134" lon="-2.42532">
        <ele>223.60000610352</ele>
        <time>2019-11-03T11:02:01.000Z</time>
      </trkpt>
      <trkpt lat="47.28154" lon="-2.42528">
        <ele>223.60000610352</ele>
        <time>2019-11-03T11:02:07.000Z</time>
      </trkpt>
      <trkpt lat="47.28169" lon="-2.42526">
        <ele>223.60000610352</ele>
        <time>2019-11-03T11:02:12.000Z</time>
      </trkpt>
      <trkpt lat="47.28192" lon="-2.42526">
        <ele>223.60000610352</ele>
        <time>2019-11-03T11:02:19.000Z</time>
      </trkpt>
      <trkpt lat="47.28194" lon="-2.42522">
        <ele>223.60000610352</ele>
        <time>2019-11-03T11:02:20.000Z</time>
      </trkpt>
      <trkpt lat="47.282" lon="-2.42514">
        <ele>223.60000610352</ele>
        <time>2019-11-03T11:02:22.000Z</time>
      </trkpt>
      <trkpt lat="47.28224" lon="-2.4248">
        <ele>223.60000610352</ele>
        <time>2019-11-03T11:02:29.000Z</time>
      </trkpt>
      <trkpt lat="47.28243" lon="-2.42444">
        <ele>223.60000610352</ele>
        <time>2019-11-03T11:02:35.000Z</time>
      </trkpt>
      <trkpt lat="47.28257" lon="-2.42401">
        <ele>223.60000610352</ele>
        <time>2019-11-03T11:02:41.000Z</time>
      </trkpt>
      <trkpt lat="47.28258" lon="-2.42393">
        <ele>223.60000610352</ele>
        <time>2019-11-03T11:02:42.000Z</time>
      </trkpt>
      <trkpt lat="47.28266" lon="-2.42347">
        <ele>223.60000610352</ele>
        <time>2019-11-03T11:02:48.000Z</time>
      </trkpt>
      <trkpt lat="47.28275" lon="-2.42307">
        <ele>223.60000610352</ele>
        <time>2019-11-03T11:02:53.000Z</time>
      </trkpt>
      <trkpt lat="47.28276" lon="-2.42299">
        <ele>223.60000610352</ele>
        <time>2019-11-03T11:02:54.000Z</time>
      </trkpt>
      <trkpt lat="47.28283" lon="-2.42253">
        <ele>223.60000610352</ele>
        <time>2019-11-03T11:02:59.000Z</time>
      </trkpt>
      <trkpt lat="47.28296" lon="-2.42168">
        <ele>223.60000610352</ele>
        <time>2019-11-03T11:03:08.000Z</time>
      </trkpt>
      <trkpt lat="47.28307" lon="-2.4209">
        <ele>223.60000610352</ele>
        <time>2019-11-03T11:03:16.000Z</time>
      </trkpt>
      <trkpt lat="47.28317" lon="-2.42021">
        <ele>223.60000610352</ele>
        <time>2019-11-03T11:03:23.000Z</time>
      </trkpt>
      <trkpt lat="47.28328" lon="-2.41968">
        <ele>223.60000610352</ele>
        <time>2019-11-03T11:03:29.000Z</time>
      </trkpt>
      <trkpt lat="47.28334" lon="-2.41944">
        <ele>223.60000610352</ele>
        <time>2019-11-03T11:03:32.000Z</time>
      </trkpt>
      <trkpt lat="47.2834" lon="-2.4192">
        <ele>223.60000610352</ele>
        <time>2019-11-03T11:03:35.000Z</time>
      </trkpt>
      <trkpt lat="47.28352" lon="-2.41875">
        <ele>223.60000610352</ele>
        <time>2019-11-03T11:03:41.000Z</time>
      </trkpt>
      <trkpt lat="47.28363" lon="-2.4183">
        <ele>223.60000610352</ele>
        <time>2019-11-03T11:03:47.000Z</time>
      </trkpt>
      <trkpt lat="47.28375" lon="-2.41782">
        <ele>223.60000610352</ele>
        <time>2019-11-03T11:03:54.000Z</time>
      </trkpt>
      <trkpt lat="47.28386" lon="-2.41734">
        <ele>223.60000610352</ele>
        <time>2019-11-03T11:04:01.000Z</time>
      </trkpt>
      <trkpt lat="47.28392" lon="-2.41715">
        <ele>223.60000610352</ele>
        <time>2019-11-03T11:04:04.000Z</time>
      </trkpt>
      <trkpt lat="47.28397" lon="-2.41694">
        <ele>223.60000610352</ele>
        <time>2019-11-03T11:04:07.000Z</time>
      </trkpt>
      <trkpt lat="47.28406" lon="-2.41645">
        <ele>223.60000610352</ele>
        <time>2019-11-03T11:04:14.000Z</time>
      </trkpt>
      <trkpt lat="47.28408" lon="-2.41617">
        <ele>223.60000610352</ele>
        <time>2019-11-03T11:04:18.000Z</time>
      </trkpt>
      <trkpt lat="47.28409" lon="-2.41603">
        <ele>223.60000610352</ele>
        <time>2019-11-03T11:04:20.000Z</time>
      </trkpt>
      <trkpt lat="47.28415" lon="-2.41552">
        <ele>223.60000610352</ele>
        <time>2019-11-03T11:04:28.000Z</time>
      </trkpt>
      <trkpt lat="47.2842" lon="-2.41499">
        <ele>223.60000610352</ele>
        <time>2019-11-03T11:04:36.000Z</time>
      </trkpt>
      <trkpt lat="47.28423" lon="-2.41462">
        <ele>223.60000610352</ele>
        <time>2019-11-03T11:04:42.000Z</time>
      </trkpt>
      <trkpt lat="47.28427" lon="-2.41429">
        <ele>223.60000610352</ele>
        <time>2019-11-03T11:04:48.000Z</time>
      </trkpt>
      <trkpt lat="47.28434" lon="-2.41396">
        <ele>223.60000610352</ele>
        <time>2019-11-03T11:04:54.000Z</time>
      </trkpt>
      <trkpt lat="47.28443" lon="-2.41361">
        <ele>223.60000610352</ele>
        <time>2019-11-03T11:05:01.000Z</time>
      </trkpt>
      <trkpt lat="47.28452" lon="-2.41324">
        <ele>223.60000610352</ele>
        <time>2019-11-03T11:05:08.000Z</time>
      </trkpt>
      <trkpt lat="47.28459" lon="-2.41285">
        <ele>223.60000610352</ele>
        <time>2019-11-03T11:05:15.000Z</time>
      </trkpt>
      <trkpt lat="47.28455" lon="-2.41263">
        <ele>223.60000610352</ele>
        <time>2019-11-03T11:05:20.000Z</time>
      </trkpt>
      <trkpt lat="47.28443" lon="-2.41261">
        <ele>223.60000610352</ele>
        <time>2019-11-03T11:05:23.000Z</time>
      </trkpt>
      <trkpt lat="47.28438" lon="-2.41258">
        <ele>223.60000610352</ele>
        <time>2019-11-03T11:05:24.000Z</time>
      </trkpt>
      <trkpt lat="47.28423" lon="-2.41251">
        <ele>223.60000610352</ele>
        <time>2019-11-03T11:05:27.000Z</time>
      </trkpt>
      <trkpt lat="47.28412" lon="-2.41246">
        <ele>223.60000610352</ele>
        <time>2019-11-03T11:05:29.000Z</time>
      </trkpt>
      <trkpt lat="47.28404" lon="-2.41234">
        <ele>223.60000610352</ele>
        <time>2019-11-03T11:05:32.000Z</time>
      </trkpt>
      <trkpt lat="47.28404" lon="-2.41231">
        <ele>223.60000610352</ele>
        <time>2019-11-03T11:05:35.000Z</time>
      </trkpt>
      <trkpt lat="47.28403" lon="-2.41227">
        <ele>223.60000610352</ele>
        <time>2019-11-03T11:05:39.000Z</time>
      </trkpt>
      <trkpt lat="47.28401" lon="-2.41214">
        <ele>223.60000610352</ele>
        <time>2019-11-03T11:05:42.000Z</time>
      </trkpt>
      <trkpt lat="47.28399" lon="-2.41211">
        <ele>223.60000610352</ele>
        <time>2019-11-03T11:05:43.000Z</time>
      </trkpt>
      <trkpt lat="47.28387" lon="-2.41201">
        <ele>223.60000610352</ele>
        <time>2019-11-03T11:05:46.000Z</time>
      </trkpt>
      <trkpt lat="47.28377" lon="-2.41182">
        <ele>223.60000610352</ele>
        <time>2019-11-03T11:05:49.000Z</time>
      </trkpt>
      <trkpt lat="47.28372" lon="-2.41172">
        <ele>223.60000610352</ele>
        <time>2019-11-03T11:05:51.000Z</time>
      </trkpt>
      <trkpt lat="47.28372" lon="-2.4116">
        <ele>223.60000610352</ele>
        <time>2019-11-03T11:05:53.000Z</time>
      </trkpt>
      <trkpt lat="47.28372" lon="-2.41141">
        <ele>223.60000610352</ele>
        <time>2019-11-03T11:05:56.000Z</time>
      </trkpt>
      <trkpt lat="47.28373" lon="-2.41134">
        <ele>223.60000610352</ele>
        <time>2019-11-03T11:05:57.000Z</time>
      </trkpt>
      <trkpt lat="47.28374" lon="-2.41128">
        <ele>223.60000610352</ele>
        <time>2019-11-03T11:05:58.000Z</time>
      </trkpt>
      <trkpt lat="47.28381" lon="-2.41096">
        <ele>223.60000610352</ele>
        <time>2019-11-03T11:06:03.000Z</time>
      </trkpt>
      <trkpt lat="47.28374" lon="-2.41083">
        <ele>223.60000610352</ele>
        <time>2019-11-03T11:06:06.000Z</time>
      </trkpt>
      <trkpt lat="47.2837" lon="-2.4108">
        <ele>223.60000610352</ele>
        <time>2019-11-03T11:06:07.000Z</time>
      </trkpt>
      <trkpt lat="47.28365" lon="-2.41077">
        <ele>223.60000610352</ele>
        <time>2019-11-03T11:06:08.000Z</time>
      </trkpt>
      <trkpt lat="47.28351" lon="-2.41069">
        <ele>223.60000610352</ele>
        <time>2019-11-03T11:06:11.000Z</time>
      </trkpt>
      <trkpt lat="47.28307" lon="-2.41047">
        <ele>223.60000610352</ele>
        <time>2019-11-03T11:06:19.000Z</time>
      </trkpt>
      <trkpt lat="47.28296" lon="-2.41042">
        <ele>223.60000610352</ele>
        <time>2019-11-03T11:06:21.000Z</time>
      </trkpt>
      <trkpt lat="47.28282" lon="-2.41032">
        <ele>223.60000610352</ele>
        <time>2019-11-03T11:06:24.000Z</time>
      </trkpt>
      <trkpt lat="47.28268" lon="-2.41028">
        <ele>223.60000610352</ele>
        <time>2019-11-03T11:06:27.000Z</time>
      </trkpt>
      <trkpt lat="47.28261" lon="-2.41024">
        <ele>223.60000610352</ele>
        <time>2019-11-03T11:06:29.000Z</time>
      </trkpt>
      <trkpt lat="47.28258" lon="-2.41006">
        <ele>223.60000610352</ele>
        <time>2019-11-03T11:06:33.000Z</time>
      </trkpt>
      <trkpt lat="47.28253" lon="-2.40994">
        <ele>223.60000610352</ele>
        <time>2019-11-03T11:06:36.000Z</time>
      </trkpt>
      <trkpt lat="47.28243" lon="-2.40977">
        <ele>223.60000610352</ele>
        <time>2019-11-03T11:06:40.000Z</time>
      </trkpt>
      <trkpt lat="47.28245" lon="-2.40946">
        <ele>223.60000610352</ele>
        <time>2019-11-03T11:06:44.000Z</time>
      </trkpt>
      <trkpt lat="47.2825" lon="-2.40931">
        <ele>223.60000610352</ele>
        <time>2019-11-03T11:06:46.000Z</time>
      </trkpt>
      <trkpt lat="47.28258" lon="-2.40911">
        <ele>223.60000610352</ele>
        <time>2019-11-03T11:06:49.000Z</time>
      </trkpt>
      <trkpt lat="47.28265" lon="-2.40898">
        <ele>223.60000610352</ele>
        <time>2019-11-03T11:06:51.000Z</time>
      </trkpt>
      <trkpt lat="47.28263" lon="-2.40882">
        <ele>223.60000610352</ele>
        <time>2019-11-03T11:06:53.000Z</time>
      </trkpt>
      <trkpt lat="47.28249" lon="-2.40867">
        <ele>223.60000610352</ele>
        <time>2019-11-03T11:06:56.000Z</time>
      </trkpt>
      <trkpt lat="47.28244" lon="-2.40863">
        <ele>223.60000610352</ele>
        <time>2019-11-03T11:06:57.000Z</time>
      </trkpt>
      <trkpt lat="47.28216" lon="-2.40843">
        <ele>223.60000610352</ele>
        <time>2019-11-03T11:07:02.000Z</time>
      </trkpt>
      <trkpt lat="47.28196" lon="-2.40828">
        <ele>223.60000610352</ele>
        <time>2019-11-03T11:07:06.000Z</time>
      </trkpt>
      <trkpt lat="47.28186" lon="-2.40819">
        <ele>223.60000610352</ele>
        <time>2019-11-03T11:07:08.000Z</time>
      </trkpt>
      <trkpt lat="47.28176" lon="-2.4081">
        <ele>223.60000610352</ele>
        <time>2019-11-03T11:07:10.000Z</time>
      </trkpt>
      <trkpt lat="47.28161" lon="-2.40798">
        <ele>223.60000610352</ele>
        <time>2019-11-03T11:07:13.000Z</time>
      </trkpt>
      <trkpt lat="47.28138" lon="-2.40784">
        <ele>223.60000610352</ele>
        <time>2019-11-03T11:07:18.000Z</time>
      </trkpt>
      <trkpt lat="47.28137" lon="-2.40781">
        <ele>223.60000610352</ele>
        <time>2019-11-03T11:07:19.000Z</time>
      </trkpt>
      <trkpt lat="47.28134" lon="-2.40777">
        <ele>223.60000610352</ele>
        <time>2019-11-03T11:07:22.000Z</time>
      </trkpt>
      <trkpt lat="47.28136" lon="-2.40759">
        <ele>223.60000610352</ele>
        <time>2019-11-03T11:07:26.000Z</time>
      </trkpt>
      <trkpt lat="47.28137" lon="-2.40754">
        <ele>223.60000610352</ele>
        <time>2019-11-03T11:07:27.000Z</time>
      </trkpt>
      <trkpt lat="47.28138" lon="-2.40742">
        <ele>223.60000610352</ele>
        <time>2019-11-03T11:07:31.000Z</time>
      </trkpt>
      <trkpt lat="47.28137" lon="-2.4074">
        <ele>223.60000610352</ele>
        <time>2019-11-03T11:07:32.000Z</time>
      </trkpt>
      <trkpt lat="47.28131" lon="-2.40735">
        <ele>223.60000610352</ele>
        <time>2019-11-03T11:07:36.000Z</time>
      </trkpt>
      <trkpt lat="47.28129" lon="-2.40735">
        <ele>223.60000610352</ele>
        <time>2019-11-03T11:07:37.000Z</time>
      </trkpt>
      <trkpt lat="47.28117" lon="-2.40728">
        <ele>224.19999694824</ele>
        <time>2019-11-03T11:07:41.000Z</time>
      </trkpt>
      <trkpt lat="47.28114" lon="-2.40726">
        <ele>225</ele>
        <time>2019-11-03T11:07:42.000Z</time>
      </trkpt>
      <trkpt lat="47.28111" lon="-2.40724">
        <ele>225.39999389648</ele>
        <time>2019-11-03T11:07:43.000Z</time>
      </trkpt>
      <trkpt lat="47.28107" lon="-2.40722">
        <ele>225.80000305176</ele>
        <time>2019-11-03T11:07:44.000Z</time>
      </trkpt>
      <trkpt lat="47.28101" lon="-2.40718">
        <ele>225.80000305176</ele>
        <time>2019-11-03T11:07:46.000Z</time>
      </trkpt>
      <trkpt lat="47.28085" lon="-2.40705">
        <ele>225.80000305176</ele>
        <time>2019-11-03T11:07:52.000Z</time>
      </trkpt>
      <trkpt lat="47.28077" lon="-2.40702">
        <ele>225.80000305176</ele>
        <time>2019-11-03T11:07:57.000Z</time>
      </trkpt>
      <trkpt lat="47.28066" lon="-2.40692">
        <ele>225.80000305176</ele>
        <time>2019-11-03T11:08:02.000Z</time>
      </trkpt>
      <trkpt lat="47.28058" lon="-2.40673">
        <ele>225.80000305176</ele>
        <time>2019-11-03T11:08:08.000Z</time>
      </trkpt>
      <trkpt lat="47.28057" lon="-2.40666">
        <ele>225.80000305176</ele>
        <time>2019-11-03T11:08:09.000Z</time>
      </trkpt>
      <trkpt lat="47.28052" lon="-2.4064">
        <ele>225.80000305176</ele>
        <time>2019-11-03T11:08:13.000Z</time>
      </trkpt>
      <trkpt lat="47.28048" lon="-2.40618">
        <ele>225.80000305176</ele>
        <time>2019-11-03T11:08:16.000Z</time>
      </trkpt>
      <trkpt lat="47.2805" lon="-2.40604">
        <ele>225.80000305176</ele>
        <time>2019-11-03T11:08:18.000Z</time>
      </trkpt>
      <trkpt lat="47.28053" lon="-2.40589">
        <ele>225.80000305176</ele>
        <time>2019-11-03T11:08:20.000Z</time>
      </trkpt>
      <trkpt lat="47.2806" lon="-2.40556">
        <ele>225.80000305176</ele>
        <time>2019-11-03T11:08:24.000Z</time>
      </trkpt>
      <trkpt lat="47.28066" lon="-2.40525">
        <ele>225.80000305176</ele>
        <time>2019-11-03T11:08:28.000Z</time>
      </trkpt>
      <trkpt lat="47.28068" lon="-2.40512">
        <ele>225.80000305176</ele>
        <time>2019-11-03T11:08:30.000Z</time>
      </trkpt>
      <trkpt lat="47.28075" lon="-2.40483">
        <ele>225.80000305176</ele>
        <time>2019-11-03T11:08:35.000Z</time>
      </trkpt>
      <trkpt lat="47.28077" lon="-2.40478">
        <ele>225.80000305176</ele>
        <time>2019-11-03T11:08:36.000Z</time>
      </trkpt>
      <trkpt lat="47.28088" lon="-2.40462">
        <ele>225.80000305176</ele>
        <time>2019-11-03T11:08:39.000Z</time>
      </trkpt>
      <trkpt lat="47.28094" lon="-2.40452">
        <ele>225.80000305176</ele>
        <time>2019-11-03T11:08:41.000Z</time>
      </trkpt>
      <trkpt lat="47.28104" lon="-2.40434">
        <ele>225.80000305176</ele>
        <time>2019-11-03T11:08:44.000Z</time>
      </trkpt>
      <trkpt lat="47.28107" lon="-2.40427">
        <ele>225.80000305176</ele>
        <time>2019-11-03T11:08:45.000Z</time>
      </trkpt>
      <trkpt lat="47.28113" lon="-2.40396">
        <ele>225.80000305176</ele>
        <time>2019-11-03T11:08:49.000Z</time>
      </trkpt>
      <trkpt lat="47.28117" lon="-2.40357">
        <ele>226.19999694824</ele>
        <time>2019-11-03T11:08:54.000Z</time>
      </trkpt>
      <trkpt lat="47.28118" lon="-2.4035">
        <ele>227.19999694824</ele>
        <time>2019-11-03T11:08:55.000Z</time>
      </trkpt>
      <trkpt lat="47.28119" lon="-2.40342">
        <ele>227.60000610352</ele>
        <time>2019-11-03T11:08:56.000Z</time>
      </trkpt>
      <trkpt lat="47.2812" lon="-2.40335">
        <ele>228</ele>
        <time>2019-11-03T11:08:57.000Z</time>
      </trkpt>
      <trkpt lat="47.28126" lon="-2.4028">
        <ele>228</ele>
        <time>2019-11-03T11:09:04.000Z</time>
      </trkpt>
      <trkpt lat="47.28132" lon="-2.40221">
        <ele>228</ele>
        <time>2019-11-03T11:09:12.000Z</time>
      </trkpt>
      <trkpt lat="47.28136" lon="-2.40178">
        <ele>228</ele>
        <time>2019-11-03T11:09:18.000Z</time>
      </trkpt>
      <trkpt lat="47.28141" lon="-2.40127">
        <ele>228</ele>
        <time>2019-11-03T11:09:25.000Z</time>
      </trkpt>
      <trkpt lat="47.28147" lon="-2.4006">
        <ele>228</ele>
        <time>2019-11-03T11:09:34.000Z</time>
      </trkpt>
      <trkpt lat="47.28151" lon="-2.40026">
        <ele>228</ele>
        <time>2019-11-03T11:09:39.000Z</time>
      </trkpt>
      <trkpt lat="47.28151" lon="-2.4002">
        <ele>228</ele>
        <time>2019-11-03T11:09:40.000Z</time>
      </trkpt>
      <trkpt lat="47.28151" lon="-2.4">
        <ele>228</ele>
        <time>2019-11-03T11:09:43.000Z</time>
      </trkpt>
      <trkpt lat="47.28153" lon="-2.39987">
        <ele>228</ele>
        <time>2019-11-03T11:09:45.000Z</time>
      </trkpt>
      <trkpt lat="47.28155" lon="-2.39974">
        <ele>228.60000610352</ele>
        <time>2019-11-03T11:09:47.000Z</time>
      </trkpt>
      <trkpt lat="47.28156" lon="-2.39966">
        <ele>229.19999694824</ele>
        <time>2019-11-03T11:09:48.000Z</time>
      </trkpt>
      <trkpt lat="47.28156" lon="-2.39959">
        <ele>229.80000305176</ele>
        <time>2019-11-03T11:09:49.000Z</time>
      </trkpt>
      <trkpt lat="47.28157" lon="-2.3995">
        <ele>230.39999389648</ele>
        <time>2019-11-03T11:09:50.000Z</time>
      </trkpt>
      <trkpt lat="47.28157" lon="-2.39942">
        <ele>230.19999694824</ele>
        <time>2019-11-03T11:09:51.000Z</time>
      </trkpt>
      <trkpt lat="47.28157" lon="-2.39935">
        <ele>229.80000305176</ele>
        <time>2019-11-03T11:09:52.000Z</time>
      </trkpt>
      <trkpt lat="47.28158" lon="-2.39927">
        <ele>229.60000610352</ele>
        <time>2019-11-03T11:09:53.000Z</time>
      </trkpt>
      <trkpt lat="47.28159" lon="-2.39919">
        <ele>229.19999694824</ele>
        <time>2019-11-03T11:09:54.000Z</time>
      </trkpt>
      <trkpt lat="47.28159" lon="-2.39912">
        <ele>229</ele>
        <time>2019-11-03T11:09:55.000Z</time>
      </trkpt>
      <trkpt lat="47.28162" lon="-2.39884">
        <ele>229</ele>
        <time>2019-11-03T11:09:59.000Z</time>
      </trkpt>
      <trkpt lat="47.28167" lon="-2.39821">
        <ele>229</ele>
        <time>2019-11-03T11:10:07.000Z</time>
      </trkpt>
      <trkpt lat="47.2817" lon="-2.39768">
        <ele>229</ele>
        <time>2019-11-03T11:10:13.000Z</time>
      </trkpt>
      <trkpt lat="47.28173" lon="-2.39706">
        <ele>229</ele>
        <time>2019-11-03T11:10:20.000Z</time>
      </trkpt>
      <trkpt lat="47.28175" lon="-2.39628">
        <ele>229</ele>
        <time>2019-11-03T11:10:28.000Z</time>
      </trkpt>
      <trkpt lat="47.28177" lon="-2.39561">
        <ele>229</ele>
        <time>2019-11-03T11:10:35.000Z</time>
      </trkpt>
      <trkpt lat="47.28179" lon="-2.39478">
        <ele>228.60000610352</ele>
        <time>2019-11-03T11:10:44.000Z</time>
      </trkpt>
      <trkpt lat="47.28179" lon="-2.39471">
        <ele>228.19999694824</ele>
        <time>2019-11-03T11:10:45.000Z</time>
      </trkpt>
      <trkpt lat="47.28179" lon="-2.39465">
        <ele>227.80000305176</ele>
        <time>2019-11-03T11:10:46.000Z</time>
      </trkpt>
      <trkpt lat="47.28179" lon="-2.39459">
        <ele>227.39999389648</ele>
        <time>2019-11-03T11:10:47.000Z</time>
      </trkpt>
      <trkpt lat="47.28179" lon="-2.39454">
        <ele>227</ele>
        <time>2019-11-03T11:10:48.000Z</time>
      </trkpt>
      <trkpt lat="47.28179" lon="-2.39448">
        <ele>227</ele>
        <time>2019-11-03T11:10:49.000Z</time>
      </trkpt>
      <trkpt lat="47.28179" lon="-2.39407">
        <ele>227</ele>
        <time>2019-11-03T11:10:54.000Z</time>
      </trkpt>
      <trkpt lat="47.28178" lon="-2.3936">
        <ele>227.39999389648</ele>
        <time>2019-11-03T11:10:59.000Z</time>
      </trkpt>
      <trkpt lat="47.28179" lon="-2.39351">
        <ele>227.80000305176</ele>
        <time>2019-11-03T11:11:00.000Z</time>
      </trkpt>
      <trkpt lat="47.28179" lon="-2.39342">
        <ele>228.19999694824</ele>
        <time>2019-11-03T11:11:01.000Z</time>
      </trkpt>
      <trkpt lat="47.28179" lon="-2.39333">
        <ele>228.60000610352</ele>
        <time>2019-11-03T11:11:02.000Z</time>
      </trkpt>
      <trkpt lat="47.28179" lon="-2.39325">
        <ele>229</ele>
        <time>2019-11-03T11:11:03.000Z</time>
      </trkpt>
      <trkpt lat="47.28177" lon="-2.39274">
        <ele>229</ele>
        <time>2019-11-03T11:11:09.000Z</time>
      </trkpt>
      <trkpt lat="47.28174" lon="-2.39206">
        <ele>229</ele>
        <time>2019-11-03T11:11:16.000Z</time>
      </trkpt>
      <trkpt lat="47.2817" lon="-2.39134">
        <ele>229</ele>
        <time>2019-11-03T11:11:23.000Z</time>
      </trkpt>
      <trkpt lat="47.28163" lon="-2.3905">
        <ele>229</ele>
        <time>2019-11-03T11:11:31.000Z</time>
      </trkpt>
      <trkpt lat="47.28154" lon="-2.38965">
        <ele>229</ele>
        <time>2019-11-03T11:11:39.000Z</time>
      </trkpt>
      <trkpt lat="47.28149" lon="-2.38943">
        <ele>229</ele>
        <time>2019-11-03T11:11:41.000Z</time>
      </trkpt>
      <trkpt lat="47.28143" lon="-2.38922">
        <ele>229</ele>
        <time>2019-11-03T11:11:43.000Z</time>
      </trkpt>
      <trkpt lat="47.28135" lon="-2.38886">
        <ele>228.60000610352</ele>
        <time>2019-11-03T11:11:46.000Z</time>
      </trkpt>
      <trkpt lat="47.28134" lon="-2.38873">
        <ele>228.19999694824</ele>
        <time>2019-11-03T11:11:47.000Z</time>
      </trkpt>
      <trkpt lat="47.28133" lon="-2.3886">
        <ele>227.39999389648</ele>
        <time>2019-11-03T11:11:48.000Z</time>
      </trkpt>
      <trkpt lat="47.28131" lon="-2.38848">
        <ele>227</ele>
        <time>2019-11-03T11:11:49.000Z</time>
      </trkpt>
      <trkpt lat="47.28124" lon="-2.38756">
        <ele>227</ele>
        <time>2019-11-03T11:11:56.000Z</time>
      </trkpt>
      <trkpt lat="47.28122" lon="-2.38743">
        <ele>227</ele>
        <time>2019-11-03T11:11:57.000Z</time>
      </trkpt>
      <trkpt lat="47.28114" lon="-2.38655">
        <ele>227</ele>
        <time>2019-11-03T11:12:04.000Z</time>
      </trkpt>
      <trkpt lat="47.28112" lon="-2.38644">
        <ele>227</ele>
        <time>2019-11-03T11:12:05.000Z</time>
      </trkpt>
      <trkpt lat="47.28105" lon="-2.38562">
        <ele>227</ele>
        <time>2019-11-03T11:12:12.000Z</time>
      </trkpt>
      <trkpt lat="47.28092" lon="-2.38473">
        <ele>227</ele>
        <time>2019-11-03T11:12:19.000Z</time>
      </trkpt>
      <trkpt lat="47.28079" lon="-2.384">
        <ele>227</ele>
        <time>2019-11-03T11:12:25.000Z</time>
      </trkpt>
      <trkpt lat="47.28064" lon="-2.38319">
        <ele>227</ele>
        <time>2019-11-03T11:12:32.000Z</time>
      </trkpt>
      <trkpt lat="47.2805" lon="-2.3824">
        <ele>227</ele>
        <time>2019-11-03T11:12:38.000Z</time>
      </trkpt>
      <trkpt lat="47.28039" lon="-2.38178">
        <ele>227.39999389648</ele>
        <time>2019-11-03T11:12:42.000Z</time>
      </trkpt>
      <trkpt lat="47.28036" lon="-2.38161">
        <ele>227.80000305176</ele>
        <time>2019-11-03T11:12:43.000Z</time>
      </trkpt>
      <trkpt lat="47.28033" lon="-2.38145">
        <ele>228.19999694824</ele>
        <time>2019-11-03T11:12:44.000Z</time>
      </trkpt>
      <trkpt lat="47.2803" lon="-2.38129">
        <ele>228.60000610352</ele>
        <time>2019-11-03T11:12:45.000Z</time>
      </trkpt>
      <trkpt lat="47.28026" lon="-2.38113">
        <ele>229</ele>
        <time>2019-11-03T11:12:46.000Z</time>
      </trkpt>
      <trkpt lat="47.28011" lon="-2.38029">
        <ele>229</ele>
        <time>2019-11-03T11:12:51.000Z</time>
      </trkpt>
      <trkpt lat="47.27996" lon="-2.37949">
        <ele>229</ele>
        <time>2019-11-03T11:12:56.000Z</time>
      </trkpt>
      <trkpt lat="47.27993" lon="-2.37934">
        <ele>229</ele>
        <time>2019-11-03T11:12:57.000Z</time>
      </trkpt>
      <trkpt lat="47.27979" lon="-2.3785">
        <ele>229</ele>
        <time>2019-11-03T11:13:03.000Z</time>
      </trkpt>
      <trkpt lat="47.27972" lon="-2.37813">
        <ele>229</ele>
        <time>2019-11-03T11:13:07.000Z</time>
      </trkpt>
      <trkpt lat="47.27967" lon="-2.3778">
        <ele>229</ele>
        <time>2019-11-03T11:13:11.000Z</time>
      </trkpt>
      <trkpt lat="47.27965" lon="-2.37771">
        <ele>229</ele>
        <time>2019-11-03T11:13:12.000Z</time>
      </trkpt>
      <trkpt lat="47.27957" lon="-2.37745">
        <ele>229</ele>
        <time>2019-11-03T11:13:15.000Z</time>
      </trkpt>
      <trkpt lat="47.27945" lon="-2.37711">
        <ele>229</ele>
        <time>2019-11-03T11:13:19.000Z</time>
      </trkpt>
      <trkpt lat="47.27943" lon="-2.37702">
        <ele>229</ele>
        <time>2019-11-03T11:13:20.000Z</time>
      </trkpt>
      <trkpt lat="47.27924" lon="-2.37623">
        <ele>229</ele>
        <time>2019-11-03T11:13:29.000Z</time>
      </trkpt>
      <trkpt lat="47.27911" lon="-2.37566">
        <ele>229</ele>
        <time>2019-11-03T11:13:35.000Z</time>
      </trkpt>
      <trkpt lat="47.27896" lon="-2.375">
        <ele>229</ele>
        <time>2019-11-03T11:13:41.000Z</time>
      </trkpt>
      <trkpt lat="47.27877" lon="-2.37428">
        <ele>229</ele>
        <time>2019-11-03T11:13:47.000Z</time>
      </trkpt>
      <trkpt lat="47.27858" lon="-2.37353">
        <ele>229</ele>
        <time>2019-11-03T11:13:53.000Z</time>
      </trkpt>
      <trkpt lat="47.27855" lon="-2.3734">
        <ele>229</ele>
        <time>2019-11-03T11:13:54.000Z</time>
      </trkpt>
      <trkpt lat="47.27837" lon="-2.37264">
        <ele>229</ele>
        <time>2019-11-03T11:14:00.000Z</time>
      </trkpt>
      <trkpt lat="47.27834" lon="-2.37252">
        <ele>229</ele>
        <time>2019-11-03T11:14:01.000Z</time>
      </trkpt>
      <trkpt lat="47.2782" lon="-2.37189">
        <ele>229</ele>
        <time>2019-11-03T11:14:06.000Z</time>
      </trkpt>
      <trkpt lat="47.27797" lon="-2.37116">
        <ele>229</ele>
        <time>2019-11-03T11:14:12.000Z</time>
      </trkpt>
      <trkpt lat="47.27786" lon="-2.37078">
        <ele>229</ele>
        <time>2019-11-03T11:14:15.000Z</time>
      </trkpt>
      <trkpt lat="47.27766" lon="-2.37">
        <ele>229</ele>
        <time>2019-11-03T11:14:21.000Z</time>
      </trkpt>
      <trkpt lat="47.27762" lon="-2.36988">
        <ele>229</ele>
        <time>2019-11-03T11:14:22.000Z</time>
      </trkpt>
      <trkpt lat="47.27739" lon="-2.3691">
        <ele>229</ele>
        <time>2019-11-03T11:14:28.000Z</time>
      </trkpt>
      <trkpt lat="47.27735" lon="-2.36897">
        <ele>229</ele>
        <time>2019-11-03T11:14:29.000Z</time>
      </trkpt>
      <trkpt lat="47.27713" lon="-2.36818">
        <ele>229</ele>
        <time>2019-11-03T11:14:35.000Z</time>
      </trkpt>
      <trkpt lat="47.27696" lon="-2.36765">
        <ele>229</ele>
        <time>2019-11-03T11:14:39.000Z</time>
      </trkpt>
      <trkpt lat="47.27668" lon="-2.36685">
        <ele>229</ele>
        <time>2019-11-03T11:14:45.000Z</time>
      </trkpt>
      <trkpt lat="47.27664" lon="-2.36672">
        <ele>229</ele>
        <time>2019-11-03T11:14:46.000Z</time>
      </trkpt>
      <trkpt lat="47.27637" lon="-2.36593">
        <ele>229</ele>
        <time>2019-11-03T11:14:52.000Z</time>
      </trkpt>
      <trkpt lat="47.27628" lon="-2.36566">
        <ele>229</ele>
        <time>2019-11-03T11:14:54.000Z</time>
      </trkpt>
      <trkpt lat="47.27599" lon="-2.36485">
        <ele>229</ele>
        <time>2019-11-03T11:15:00.000Z</time>
      </trkpt>
      <trkpt lat="47.27594" lon="-2.36472">
        <ele>229</ele>
        <time>2019-11-03T11:15:01.000Z</time>
      </trkpt>
      <trkpt lat="47.27564" lon="-2.36393">
        <ele>229</ele>
        <time>2019-11-03T11:15:07.000Z</time>
      </trkpt>
      <trkpt lat="47.27549" lon="-2.36353">
        <ele>229</ele>
        <time>2019-11-03T11:15:10.000Z</time>
      </trkpt>
      <trkpt lat="47.27518" lon="-2.36272">
        <ele>229</ele>
        <time>2019-11-03T11:15:16.000Z</time>
      </trkpt>
      <trkpt lat="47.27508" lon="-2.36244">
        <ele>229</ele>
        <time>2019-11-03T11:15:18.000Z</time>
      </trkpt>
      <trkpt lat="47.27478" lon="-2.36162">
        <ele>229</ele>
        <time>2019-11-03T11:15:24.000Z</time>
      </trkpt>
      <trkpt lat="47.27474" lon="-2.36148">
        <ele>229</ele>
        <time>2019-11-03T11:15:25.000Z</time>
      </trkpt>
      <trkpt lat="47.27455" lon="-2.36094">
        <ele>229</ele>
        <time>2019-11-03T11:15:29.000Z</time>
      </trkpt>
      <trkpt lat="47.27449" lon="-2.36082">
        <ele>229</ele>
        <time>2019-11-03T11:15:30.000Z</time>
      </trkpt>
      <trkpt lat="47.27416" lon="-2.36004">
        <ele>229</ele>
        <time>2019-11-03T11:15:36.000Z</time>
      </trkpt>
      <trkpt lat="47.2741" lon="-2.35991">
        <ele>229</ele>
        <time>2019-11-03T11:15:37.000Z</time>
      </trkpt>
      <trkpt lat="47.27377" lon="-2.35912">
        <ele>229</ele>
        <time>2019-11-03T11:15:43.000Z</time>
      </trkpt>
      <trkpt lat="47.27372" lon="-2.35899">
        <ele>229</ele>
        <time>2019-11-03T11:15:44.000Z</time>
      </trkpt>
      <trkpt lat="47.27341" lon="-2.35821">
        <ele>229</ele>
        <time>2019-11-03T11:15:50.000Z</time>
      </trkpt>
      <trkpt lat="47.27319" lon="-2.35758">
        <ele>229</ele>
        <time>2019-11-03T11:15:55.000Z</time>
      </trkpt>
      <trkpt lat="47.27308" lon="-2.35734">
        <ele>228.60000610352</ele>
        <time>2019-11-03T11:15:57.000Z</time>
      </trkpt>
      <trkpt lat="47.27303" lon="-2.35722">
        <ele>228.19999694824</ele>
        <time>2019-11-03T11:15:58.000Z</time>
      </trkpt>
      <trkpt lat="47.27298" lon="-2.3571">
        <ele>227.80000305176</ele>
        <time>2019-11-03T11:15:59.000Z</time>
      </trkpt>
      <trkpt lat="47.27293" lon="-2.35697">
        <ele>227.19999694824</ele>
        <time>2019-11-03T11:16:00.000Z</time>
      </trkpt>
      <trkpt lat="47.27287" lon="-2.35686">
        <ele>226.80000305176</ele>
        <time>2019-11-03T11:16:01.000Z</time>
      </trkpt>
      <trkpt lat="47.27254" lon="-2.35614">
        <ele>226.80000305176</ele>
        <time>2019-11-03T11:16:07.000Z</time>
      </trkpt>
      <trkpt lat="47.27249" lon="-2.35602">
        <ele>226.80000305176</ele>
        <time>2019-11-03T11:16:08.000Z</time>
      </trkpt>
      <trkpt lat="47.27216" lon="-2.3553">
        <ele>226.80000305176</ele>
        <time>2019-11-03T11:16:14.000Z</time>
      </trkpt>
      <trkpt lat="47.27206" lon="-2.35507">
        <ele>226.80000305176</ele>
        <time>2019-11-03T11:16:16.000Z</time>
      </trkpt>
      <trkpt lat="47.2717" lon="-2.35437">
        <ele>226.80000305176</ele>
        <time>2019-11-03T11:16:22.000Z</time>
      </trkpt>
      <trkpt lat="47.27133" lon="-2.35368">
        <ele>226.80000305176</ele>
        <time>2019-11-03T11:16:28.000Z</time>
      </trkpt>
      <trkpt lat="47.27112" lon="-2.35335">
        <ele>226.80000305176</ele>
        <time>2019-11-03T11:16:31.000Z</time>
      </trkpt>
      <trkpt lat="47.27071" lon="-2.35268">
        <ele>226.80000305176</ele>
        <time>2019-11-03T11:16:37.000Z</time>
      </trkpt>
      <trkpt lat="47.27064" lon="-2.35258">
        <ele>226.80000305176</ele>
        <time>2019-11-03T11:16:38.000Z</time>
      </trkpt>
      <trkpt lat="47.27022" lon="-2.35193">
        <ele>226.80000305176</ele>
        <time>2019-11-03T11:16:44.000Z</time>
      </trkpt>
      <trkpt lat="47.27007" lon="-2.35171">
        <ele>226.80000305176</ele>
        <time>2019-11-03T11:16:46.000Z</time>
      </trkpt>
      <trkpt lat="47.26966" lon="-2.35104">
        <ele>226.80000305176</ele>
        <time>2019-11-03T11:16:52.000Z</time>
      </trkpt>
      <trkpt lat="47.26959" lon="-2.35092">
        <ele>226.80000305176</ele>
        <time>2019-11-03T11:16:53.000Z</time>
      </trkpt>
      <trkpt lat="47.26922" lon="-2.35038">
        <ele>226.80000305176</ele>
        <time>2019-11-03T11:16:58.000Z</time>
      </trkpt>
      <trkpt lat="47.26877" lon="-2.34973">
        <ele>226.80000305176</ele>
        <time>2019-11-03T11:17:04.000Z</time>
      </trkpt>
      <trkpt lat="47.26834" lon="-2.34907">
        <ele>226.80000305176</ele>
        <time>2019-11-03T11:17:10.000Z</time>
      </trkpt>
      <trkpt lat="47.26826" lon="-2.34896">
        <ele>226.80000305176</ele>
        <time>2019-11-03T11:17:11.000Z</time>
      </trkpt>
      <trkpt lat="47.26784" lon="-2.34836">
        <ele>226.80000305176</ele>
        <time>2019-11-03T11:17:17.000Z</time>
      </trkpt>
      <trkpt lat="47.26777" lon="-2.34826">
        <ele>226.80000305176</ele>
        <time>2019-11-03T11:17:18.000Z</time>
      </trkpt>
      <trkpt lat="47.26738" lon="-2.34775">
        <ele>226.80000305176</ele>
        <time>2019-11-03T11:17:24.000Z</time>
      </trkpt>
      <trkpt lat="47.2669" lon="-2.34716">
        <ele>226.80000305176</ele>
        <time>2019-11-03T11:17:31.000Z</time>
      </trkpt>
      <trkpt lat="47.26643" lon="-2.34656">
        <ele>226.80000305176</ele>
        <time>2019-11-03T11:17:38.000Z</time>
      </trkpt>
      <trkpt lat="47.26636" lon="-2.34647">
        <ele>226.80000305176</ele>
        <time>2019-11-03T11:17:39.000Z</time>
      </trkpt>
      <trkpt lat="47.26594" lon="-2.34596">
        <ele>226.80000305176</ele>
        <time>2019-11-03T11:17:45.000Z</time>
      </trkpt>
      <trkpt lat="47.26587" lon="-2.34588">
        <ele>226.80000305176</ele>
        <time>2019-11-03T11:17:46.000Z</time>
      </trkpt>
      <trkpt lat="47.26544" lon="-2.34544">
        <ele>226.80000305176</ele>
        <time>2019-11-03T11:17:53.000Z</time>
      </trkpt>
      <trkpt lat="47.26542" lon="-2.34541">
        <ele>226.80000305176</ele>
        <time>2019-11-03T11:17:56.000Z</time>
      </trkpt>
      <trkpt lat="47.2654" lon="-2.3454">
        <ele>226.80000305176</ele>
        <time>2019-11-03T11:17:58.000Z</time>
      </trkpt>
      <trkpt lat="47.26536" lon="-2.34536">
        <ele>226.80000305176</ele>
        <time>2019-11-03T11:18:00.000Z</time>
      </trkpt>
      <trkpt lat="47.26521" lon="-2.34523">
        <ele>226.80000305176</ele>
        <time>2019-11-03T11:18:04.000Z</time>
      </trkpt>
      <trkpt lat="47.26492" lon="-2.34503">
        <ele>226.80000305176</ele>
        <time>2019-11-03T11:18:09.000Z</time>
      </trkpt>
      <trkpt lat="47.26452" lon="-2.34472">
        <ele>226.80000305176</ele>
        <time>2019-11-03T11:18:15.000Z</time>
      </trkpt>
      <trkpt lat="47.26437" lon="-2.34462">
        <ele>226.80000305176</ele>
        <time>2019-11-03T11:18:17.000Z</time>
      </trkpt>
      <trkpt lat="47.26421" lon="-2.34451">
        <ele>226.80000305176</ele>
        <time>2019-11-03T11:18:19.000Z</time>
      </trkpt>
      <trkpt lat="47.26377" lon="-2.34416">
        <ele>226.80000305176</ele>
        <time>2019-11-03T11:18:24.000Z</time>
      </trkpt>
      <trkpt lat="47.26336" lon="-2.34381">
        <ele>226.80000305176</ele>
        <time>2019-11-03T11:18:29.000Z</time>
      </trkpt>
      <trkpt lat="47.26313" lon="-2.34361">
        <ele>226.80000305176</ele>
        <time>2019-11-03T11:18:32.000Z</time>
      </trkpt>
      <trkpt lat="47.26299" lon="-2.34345">
        <ele>226.80000305176</ele>
        <time>2019-11-03T11:18:34.000Z</time>
      </trkpt>
      <trkpt lat="47.26285" lon="-2.3433">
        <ele>226.80000305176</ele>
        <time>2019-11-03T11:18:36.000Z</time>
      </trkpt>
      <trkpt lat="47.26239" lon="-2.3428">
        <ele>226.80000305176</ele>
        <time>2019-11-03T11:18:43.000Z</time>
      </trkpt>
      <trkpt lat="47.26193" lon="-2.34231">
        <ele>226.80000305176</ele>
        <time>2019-11-03T11:18:50.000Z</time>
      </trkpt>
      <trkpt lat="47.26147" lon="-2.34187">
        <ele>226.80000305176</ele>
        <time>2019-11-03T11:18:57.000Z</time>
      </trkpt>
      <trkpt lat="47.26119" lon="-2.34166">
        <ele>226.39999389648</ele>
        <time>2019-11-03T11:19:01.000Z</time>
      </trkpt>
      <trkpt lat="47.26112" lon="-2.3416">
        <ele>226</ele>
        <time>2019-11-03T11:19:02.000Z</time>
      </trkpt>
      <trkpt lat="47.26105" lon="-2.34156">
        <ele>225.60000610352</ele>
        <time>2019-11-03T11:19:03.000Z</time>
      </trkpt>
      <trkpt lat="47.26097" lon="-2.34153">
        <ele>225</ele>
        <time>2019-11-03T11:19:04.000Z</time>
      </trkpt>
      <trkpt lat="47.2609" lon="-2.34149">
        <ele>224.60000610352</ele>
        <time>2019-11-03T11:19:05.000Z</time>
      </trkpt>
      <trkpt lat="47.26046" lon="-2.34127">
        <ele>224.60000610352</ele>
        <time>2019-11-03T11:19:11.000Z</time>
      </trkpt>
      <trkpt lat="47.26002" lon="-2.34105">
        <ele>224.60000610352</ele>
        <time>2019-11-03T11:19:17.000Z</time>
      </trkpt>
      <trkpt lat="47.25954" lon="-2.34083">
        <ele>224.60000610352</ele>
        <time>2019-11-03T11:19:24.000Z</time>
      </trkpt>
      <trkpt lat="47.25927" lon="-2.34073">
        <ele>224.60000610352</ele>
        <time>2019-11-03T11:19:28.000Z</time>
      </trkpt>
      <trkpt lat="47.2592" lon="-2.34074">
        <ele>224.60000610352</ele>
        <time>2019-11-03T11:19:29.000Z</time>
      </trkpt>
      <trkpt lat="47.25903" lon="-2.3409">
        <ele>224.60000610352</ele>
        <time>2019-11-03T11:19:32.000Z</time>
      </trkpt>
      <trkpt lat="47.25895" lon="-2.34105">
        <ele>225</ele>
        <time>2019-11-03T11:19:34.000Z</time>
      </trkpt>
      <trkpt lat="47.25892" lon="-2.34113">
        <ele>225.60000610352</ele>
        <time>2019-11-03T11:19:35.000Z</time>
      </trkpt>
      <trkpt lat="47.25889" lon="-2.3412">
        <ele>226</ele>
        <time>2019-11-03T11:19:36.000Z</time>
      </trkpt>
      <trkpt lat="47.25886" lon="-2.34127">
        <ele>226.80000305176</ele>
        <time>2019-11-03T11:19:37.000Z</time>
      </trkpt>
      <trkpt lat="47.25873" lon="-2.34158">
        <ele>226.80000305176</ele>
        <time>2019-11-03T11:19:42.000Z</time>
      </trkpt>
      <trkpt lat="47.25868" lon="-2.34163">
        <ele>226.80000305176</ele>
        <time>2019-11-03T11:19:44.000Z</time>
      </trkpt>
      <trkpt lat="47.25864" lon="-2.34162">
        <ele>226.19999694824</ele>
        <time>2019-11-03T11:19:45.000Z</time>
      </trkpt>
      <trkpt lat="47.25861" lon="-2.34161">
        <ele>225.80000305176</ele>
        <time>2019-11-03T11:19:46.000Z</time>
      </trkpt>
      <trkpt lat="47.25857" lon="-2.34159">
        <ele>225.19999694824</ele>
        <time>2019-11-03T11:19:47.000Z</time>
      </trkpt>
      <trkpt lat="47.25854" lon="-2.34158">
        <ele>224.60000610352</ele>
        <time>2019-11-03T11:19:48.000Z</time>
      </trkpt>
      <trkpt lat="47.2585" lon="-2.34157">
        <ele>224</ele>
        <time>2019-11-03T11:19:49.000Z</time>
      </trkpt>
      <trkpt lat="47.25847" lon="-2.34155">
        <ele>224.39999389648</ele>
        <time>2019-11-03T11:19:50.000Z</time>
      </trkpt>
      <trkpt lat="47.25843" lon="-2.34154">
        <ele>224.80000305176</ele>
        <time>2019-11-03T11:19:51.000Z</time>
      </trkpt>
      <trkpt lat="47.2584" lon="-2.34154">
        <ele>225.19999694824</ele>
        <time>2019-11-03T11:19:52.000Z</time>
      </trkpt>
      <trkpt lat="47.25837" lon="-2.34155">
        <ele>225.80000305176</ele>
        <time>2019-11-03T11:19:53.000Z</time>
      </trkpt>
      <trkpt lat="47.25835" lon="-2.34158">
        <ele>226.60000610352</ele>
        <time>2019-11-03T11:19:54.000Z</time>
      </trkpt>
      <trkpt lat="47.25834" lon="-2.34163">
        <ele>227.39999389648</ele>
        <time>2019-11-03T11:19:55.000Z</time>
      </trkpt>
      <trkpt lat="47.25832" lon="-2.34168">
        <ele>228.19999694824</ele>
        <time>2019-11-03T11:19:56.000Z</time>
      </trkpt>
      <trkpt lat="47.25829" lon="-2.34172">
        <ele>229.19999694824</ele>
        <time>2019-11-03T11:19:57.000Z</time>
      </trkpt>
      <trkpt lat="47.25826" lon="-2.34175">
        <ele>229</ele>
        <time>2019-11-03T11:19:58.000Z</time>
      </trkpt>
      <trkpt lat="47.25822" lon="-2.34176">
        <ele>229</ele>
        <time>2019-11-03T11:19:59.000Z</time>
      </trkpt>
      <trkpt lat="47.25819" lon="-2.34176">
        <ele>228.80000305176</ele>
        <time>2019-11-03T11:20:00.000Z</time>
      </trkpt>
      <trkpt lat="47.25815" lon="-2.34176">
        <ele>228.80000305176</ele>
        <time>2019-11-03T11:20:01.000Z</time>
      </trkpt>
      <trkpt lat="47.25811" lon="-2.34176">
        <ele>228.80000305176</ele>
        <time>2019-11-03T11:20:02.000Z</time>
      </trkpt>
      <trkpt lat="47.25806" lon="-2.34175">
        <ele>228.80000305176</ele>
        <time>2019-11-03T11:20:03.000Z</time>
      </trkpt>
      <trkpt lat="47.25797" lon="-2.34173">
        <ele>228.80000305176</ele>
        <time>2019-11-03T11:20:05.000Z</time>
      </trkpt>
      <trkpt lat="47.25777" lon="-2.34173">
        <ele>228.80000305176</ele>
        <time>2019-11-03T11:20:09.000Z</time>
      </trkpt>
      <trkpt lat="47.25745" lon="-2.3418">
        <ele>228.80000305176</ele>
        <time>2019-11-03T11:20:15.000Z</time>
      </trkpt>
      <trkpt lat="47.25711" lon="-2.34187">
        <ele>228.80000305176</ele>
        <time>2019-11-03T11:20:22.000Z</time>
      </trkpt>
      <trkpt lat="47.25701" lon="-2.34188">
        <ele>228.80000305176</ele>
        <time>2019-11-03T11:20:24.000Z</time>
      </trkpt>
      <trkpt lat="47.25687" lon="-2.34191">
        <ele>228.80000305176</ele>
        <time>2019-11-03T11:20:27.000Z</time>
      </trkpt>
      <trkpt lat="47.25683" lon="-2.34191">
        <ele>229.39999389648</ele>
        <time>2019-11-03T11:20:28.000Z</time>
      </trkpt>
      <trkpt lat="47.2568" lon="-2.34191">
        <ele>230</ele>
        <time>2019-11-03T11:20:29.000Z</time>
      </trkpt>
      <trkpt lat="47.25676" lon="-2.3419">
        <ele>230.80000305176</ele>
        <time>2019-11-03T11:20:30.000Z</time>
      </trkpt>
      <trkpt lat="47.25673" lon="-2.34186">
        <ele>231.39999389648</ele>
        <time>2019-11-03T11:20:31.000Z</time>
      </trkpt>
      <trkpt lat="47.2567" lon="-2.34182">
        <ele>230.80000305176</ele>
        <time>2019-11-03T11:20:32.000Z</time>
      </trkpt>
      <trkpt lat="47.25666" lon="-2.34178">
        <ele>230.39999389648</ele>
        <time>2019-11-03T11:20:33.000Z</time>
      </trkpt>
      <trkpt lat="47.25663" lon="-2.34173">
        <ele>229.80000305176</ele>
        <time>2019-11-03T11:20:34.000Z</time>
      </trkpt>
      <trkpt lat="47.2566" lon="-2.34168">
        <ele>229.19999694824</ele>
        <time>2019-11-03T11:20:35.000Z</time>
      </trkpt>
      <trkpt lat="47.25657" lon="-2.34162">
        <ele>228.60000610352</ele>
        <time>2019-11-03T11:20:36.000Z</time>
      </trkpt>
      <trkpt lat="47.25647" lon="-2.3414">
        <ele>228.60000610352</ele>
        <time>2019-11-03T11:20:40.000Z</time>
      </trkpt>
      <trkpt lat="47.25642" lon="-2.34121">
        <ele>228.60000610352</ele>
        <time>2019-11-03T11:20:43.000Z</time>
      </trkpt>
      <trkpt lat="47.25638" lon="-2.34086">
        <ele>228.60000610352</ele>
        <time>2019-11-03T11:20:48.000Z</time>
      </trkpt>
      <trkpt lat="47.25639" lon="-2.3408">
        <ele>228.60000610352</ele>
        <time>2019-11-03T11:20:49.000Z</time>
      </trkpt>
      <trkpt lat="47.25644" lon="-2.34051">
        <ele>228.19999694824</ele>
        <time>2019-11-03T11:20:53.000Z</time>
      </trkpt>
      <trkpt lat="47.25645" lon="-2.34044">
        <ele>227.80000305176</ele>
        <time>2019-11-03T11:20:54.000Z</time>
      </trkpt>
      <trkpt lat="47.25646" lon="-2.34037">
        <ele>227.39999389648</ele>
        <time>2019-11-03T11:20:55.000Z</time>
      </trkpt>
      <trkpt lat="47.25647" lon="-2.34029">
        <ele>227</ele>
        <time>2019-11-03T11:20:56.000Z</time>
      </trkpt>
      <trkpt lat="47.25648" lon="-2.34022">
        <ele>226.39999389648</ele>
        <time>2019-11-03T11:20:57.000Z</time>
      </trkpt>
      <trkpt lat="47.25654" lon="-2.33994">
        <ele>226.39999389648</ele>
        <time>2019-11-03T11:21:01.000Z</time>
      </trkpt>
      <trkpt lat="47.25661" lon="-2.33952">
        <ele>226.39999389648</ele>
        <time>2019-11-03T11:21:07.000Z</time>
      </trkpt>
      <trkpt lat="47.25657" lon="-2.33922">
        <ele>226.39999389648</ele>
        <time>2019-11-03T11:21:11.000Z</time>
      </trkpt>
      <trkpt lat="47.2565" lon="-2.33877">
        <ele>226.39999389648</ele>
        <time>2019-11-03T11:21:17.000Z</time>
      </trkpt>
      <trkpt lat="47.25642" lon="-2.33831">
        <ele>226.39999389648</ele>
        <time>2019-11-03T11:21:23.000Z</time>
      </trkpt>
      <trkpt lat="47.25634" lon="-2.33789">
        <ele>226.39999389648</ele>
        <time>2019-11-03T11:21:29.000Z</time>
      </trkpt>
      <trkpt lat="47.25631" lon="-2.33784">
        <ele>226.39999389648</ele>
        <time>2019-11-03T11:21:30.000Z</time>
      </trkpt>
      <trkpt lat="47.2562" lon="-2.33767">
        <ele>226.39999389648</ele>
        <time>2019-11-03T11:21:34.000Z</time>
      </trkpt>
      <trkpt lat="47.25617" lon="-2.33765">
        <ele>226.39999389648</ele>
        <time>2019-11-03T11:21:35.000Z</time>
      </trkpt>
      <trkpt lat="47.25611" lon="-2.3376">
        <ele>227</ele>
        <time>2019-11-03T11:21:37.000Z</time>
      </trkpt>
      <trkpt lat="47.25606" lon="-2.33759">
        <ele>227.39999389648</ele>
        <time>2019-11-03T11:21:38.000Z</time>
      </trkpt>
      <trkpt lat="47.25601" lon="-2.33758">
        <ele>227.80000305176</ele>
        <time>2019-11-03T11:21:39.000Z</time>
      </trkpt>
      <trkpt lat="47.25596" lon="-2.33758">
        <ele>228.19999694824</ele>
        <time>2019-11-03T11:21:40.000Z</time>
      </trkpt>
      <trkpt lat="47.25592" lon="-2.33758">
        <ele>228.60000610352</ele>
        <time>2019-11-03T11:21:41.000Z</time>
      </trkpt>
      <trkpt lat="47.25561" lon="-2.33758">
        <ele>228.60000610352</ele>
        <time>2019-11-03T11:21:47.000Z</time>
      </trkpt>
      <trkpt lat="47.25528" lon="-2.33761">
        <ele>228.60000610352</ele>
        <time>2019-11-03T11:21:53.000Z</time>
      </trkpt>
      <trkpt lat="47.2551" lon="-2.3376">
        <ele>228.60000610352</ele>
        <time>2019-11-03T11:21:56.000Z</time>
      </trkpt>
      <trkpt lat="47.25498" lon="-2.33759">
        <ele>228.60000610352</ele>
        <time>2019-11-03T11:21:58.000Z</time>
      </trkpt>
      <trkpt lat="47.25475" lon="-2.33752">
        <ele>228.60000610352</ele>
        <time>2019-11-03T11:22:02.000Z</time>
      </trkpt>
      <trkpt lat="47.25465" lon="-2.33747">
        <ele>228.60000610352</ele>
        <time>2019-11-03T11:22:04.000Z</time>
      </trkpt>
      <trkpt lat="47.25461" lon="-2.33743">
        <ele>228.60000610352</ele>
        <time>2019-11-03T11:22:05.000Z</time>
      </trkpt>
      <trkpt lat="47.25453" lon="-2.33723">
        <ele>228.60000610352</ele>
        <time>2019-11-03T11:22:08.000Z</time>
      </trkpt>
      <trkpt lat="47.25452" lon="-2.33716">
        <ele>228.60000610352</ele>
        <time>2019-11-03T11:22:09.000Z</time>
      </trkpt>
      <trkpt lat="47.25447" lon="-2.33672">
        <ele>228.60000610352</ele>
        <time>2019-11-03T11:22:15.000Z</time>
      </trkpt>
      <trkpt lat="47.25444" lon="-2.3365">
        <ele>228.60000610352</ele>
        <time>2019-11-03T11:22:18.000Z</time>
      </trkpt>
      <trkpt lat="47.25443" lon="-2.33634">
        <ele>228.60000610352</ele>
        <time>2019-11-03T11:22:20.000Z</time>
      </trkpt>
      <trkpt lat="47.25442" lon="-2.33619">
        <ele>228.60000610352</ele>
        <time>2019-11-03T11:22:22.000Z</time>
      </trkpt>
      <trkpt lat="47.25442" lon="-2.33612">
        <ele>228.60000610352</ele>
        <time>2019-11-03T11:22:23.000Z</time>
      </trkpt>
      <trkpt lat="47.25441" lon="-2.33599">
        <ele>228.60000610352</ele>
        <time>2019-11-03T11:22:25.000Z</time>
      </trkpt>
      <trkpt lat="47.25445" lon="-2.3358">
        <ele>228.60000610352</ele>
        <time>2019-11-03T11:22:29.000Z</time>
      </trkpt>
      <trkpt lat="47.25454" lon="-2.33576">
        <ele>228.60000610352</ele>
        <time>2019-11-03T11:22:32.000Z</time>
      </trkpt>
      <trkpt lat="47.25456" lon="-2.33572">
        <ele>228.60000610352</ele>
        <time>2019-11-03T11:22:33.000Z</time>
      </trkpt>
      <trkpt lat="47.25452" lon="-2.33553">
        <ele>228.60000610352</ele>
        <time>2019-11-03T11:22:37.000Z</time>
      </trkpt>
      <trkpt lat="47.25451" lon="-2.33548">
        <ele>228.19999694824</ele>
        <time>2019-11-03T11:22:38.000Z</time>
      </trkpt>
      <trkpt lat="47.25451" lon="-2.33543">
        <ele>227.80000305176</ele>
        <time>2019-11-03T11:22:39.000Z</time>
      </trkpt>
      <trkpt lat="47.2545" lon="-2.33538">
        <ele>227.19999694824</ele>
        <time>2019-11-03T11:22:40.000Z</time>
      </trkpt>
      <trkpt lat="47.25449" lon="-2.33532">
        <ele>226.80000305176</ele>
        <time>2019-11-03T11:22:41.000Z</time>
      </trkpt>
      <trkpt lat="47.25448" lon="-2.33527">
        <ele>226.39999389648</ele>
        <time>2019-11-03T11:22:42.000Z</time>
      </trkpt>
      <trkpt lat="47.25446" lon="-2.33505">
        <ele>226.39999389648</ele>
        <time>2019-11-03T11:22:46.000Z</time>
      </trkpt>
      <trkpt lat="47.25442" lon="-2.33492">
        <ele>226.39999389648</ele>
        <time>2019-11-03T11:22:48.000Z</time>
      </trkpt>
      <trkpt lat="47.25435" lon="-2.33467">
        <ele>226.39999389648</ele>
        <time>2019-11-03T11:22:52.000Z</time>
      </trkpt>
      <trkpt lat="47.25433" lon="-2.33459">
        <ele>226.39999389648</ele>
        <time>2019-11-03T11:22:53.000Z</time>
      </trkpt>
      <trkpt lat="47.25431" lon="-2.33435">
        <ele>226.39999389648</ele>
        <time>2019-11-03T11:22:56.000Z</time>
      </trkpt>
      <trkpt lat="47.25431" lon="-2.33373">
        <ele>226.39999389648</ele>
        <time>2019-11-03T11:23:04.000Z</time>
      </trkpt>
      <trkpt lat="47.25431" lon="-2.33351">
        <ele>226.39999389648</ele>
        <time>2019-11-03T11:23:07.000Z</time>
      </trkpt>
      <trkpt lat="47.25432" lon="-2.33344">
        <ele>226.80000305176</ele>
        <time>2019-11-03T11:23:08.000Z</time>
      </trkpt>
      <trkpt lat="47.25434" lon="-2.33338">
        <ele>227.19999694824</ele>
        <time>2019-11-03T11:23:09.000Z</time>
      </trkpt>
      <trkpt lat="47.25436" lon="-2.33331">
        <ele>227.60000610352</ele>
        <time>2019-11-03T11:23:10.000Z</time>
      </trkpt>
      <trkpt lat="47.25439" lon="-2.33325">
        <ele>228</ele>
        <time>2019-11-03T11:23:11.000Z</time>
      </trkpt>
      <trkpt lat="47.25442" lon="-2.33318">
        <ele>228.39999389648</ele>
        <time>2019-11-03T11:23:12.000Z</time>
      </trkpt>
      <trkpt lat="47.25446" lon="-2.33305">
        <ele>228.39999389648</ele>
        <time>2019-11-03T11:23:14.000Z</time>
      </trkpt>
      <trkpt lat="47.25448" lon="-2.33298">
        <ele>228.39999389648</ele>
        <time>2019-11-03T11:23:15.000Z</time>
      </trkpt>
      <trkpt lat="47.25449" lon="-2.33291">
        <ele>228.39999389648</ele>
        <time>2019-11-03T11:23:16.000Z</time>
      </trkpt>
      <trkpt lat="47.25446" lon="-2.33277">
        <ele>228.39999389648</ele>
        <time>2019-11-03T11:23:18.000Z</time>
      </trkpt>
      <trkpt lat="47.25441" lon="-2.33264">
        <ele>228.39999389648</ele>
        <time>2019-11-03T11:23:20.000Z</time>
      </trkpt>
      <trkpt lat="47.2543" lon="-2.33237">
        <ele>228.39999389648</ele>
        <time>2019-11-03T11:23:24.000Z</time>
      </trkpt>
      <trkpt lat="47.25412" lon="-2.33192">
        <ele>228.39999389648</ele>
        <time>2019-11-03T11:23:31.000Z</time>
      </trkpt>
      <trkpt lat="47.25396" lon="-2.33157">
        <ele>228.39999389648</ele>
        <time>2019-11-03T11:23:37.000Z</time>
      </trkpt>
      <trkpt lat="47.25381" lon="-2.33131">
        <ele>228.39999389648</ele>
        <time>2019-11-03T11:23:43.000Z</time>
      </trkpt>
      <trkpt lat="47.25375" lon="-2.3312">
        <ele>228.39999389648</ele>
        <time>2019-11-03T11:23:47.000Z</time>
      </trkpt>
      <trkpt lat="47.25376" lon="-2.33115">
        <ele>228.39999389648</ele>
        <time>2019-11-03T11:32:31.000Z</time>
      </trkpt>
      <trkpt lat="47.25372" lon="-2.33098">
        <ele>228.39999389648</ele>
        <time>2019-11-03T11:32:37.000Z</time>
      </trkpt>
      <trkpt lat="47.2536" lon="-2.33071">
        <ele>228.39999389648</ele>
        <time>2019-11-03T11:32:43.000Z</time>
      </trkpt>
      <trkpt lat="47.25348" lon="-2.33042">
        <ele>228.39999389648</ele>
        <time>2019-11-03T11:32:49.000Z</time>
      </trkpt>
      <trkpt lat="47.25332" lon="-2.33003">
        <ele>228.39999389648</ele>
        <time>2019-11-03T11:32:56.000Z</time>
      </trkpt>
      <trkpt lat="47.2533" lon="-2.32996">
        <ele>228.39999389648</ele>
        <time>2019-11-03T11:32:57.000Z</time>
      </trkpt>
      <trkpt lat="47.25322" lon="-2.32978">
        <ele>228.39999389648</ele>
        <time>2019-11-03T11:33:00.000Z</time>
      </trkpt>
      <trkpt lat="47.25318" lon="-2.32966">
        <ele>228.39999389648</ele>
        <time>2019-11-03T11:33:02.000Z</time>
      </trkpt>
      <trkpt lat="47.25307" lon="-2.32936">
        <ele>228.39999389648</ele>
        <time>2019-11-03T11:33:07.000Z</time>
      </trkpt>
      <trkpt lat="47.25308" lon="-2.32922">
        <ele>228.39999389648</ele>
        <time>2019-11-03T11:33:09.000Z</time>
      </trkpt>
      <trkpt lat="47.25319" lon="-2.32909">
        <ele>228.39999389648</ele>
        <time>2019-11-03T11:33:12.000Z</time>
      </trkpt>
      <trkpt lat="47.25323" lon="-2.32906">
        <ele>228.39999389648</ele>
        <time>2019-11-03T11:33:13.000Z</time>
      </trkpt>
      <trkpt lat="47.25343" lon="-2.32886">
        <ele>228.80000305176</ele>
        <time>2019-11-03T11:33:18.000Z</time>
      </trkpt>
      <trkpt lat="47.25347" lon="-2.32882">
        <ele>229.39999389648</ele>
        <time>2019-11-03T11:33:19.000Z</time>
      </trkpt>
      <trkpt lat="47.25351" lon="-2.32877">
        <ele>229.80000305176</ele>
        <time>2019-11-03T11:33:20.000Z</time>
      </trkpt>
      <trkpt lat="47.25355" lon="-2.32873">
        <ele>230.39999389648</ele>
        <time>2019-11-03T11:33:21.000Z</time>
      </trkpt>
      <trkpt lat="47.25359" lon="-2.32869">
        <ele>231</ele>
        <time>2019-11-03T11:33:22.000Z</time>
      </trkpt>
      <trkpt lat="47.25384" lon="-2.32844">
        <ele>231</ele>
        <time>2019-11-03T11:33:28.000Z</time>
      </trkpt>
      <trkpt lat="47.25399" lon="-2.32827">
        <ele>231</ele>
        <time>2019-11-03T11:33:32.000Z</time>
      </trkpt>
      <trkpt lat="47.2541" lon="-2.32814">
        <ele>231</ele>
        <time>2019-11-03T11:33:35.000Z</time>
      </trkpt>
      <trkpt lat="47.25413" lon="-2.32808">
        <ele>231</ele>
        <time>2019-11-03T11:33:36.000Z</time>
      </trkpt>
      <trkpt lat="47.25418" lon="-2.32799">
        <ele>231</ele>
        <time>2019-11-03T11:33:38.000Z</time>
      </trkpt>
      <trkpt lat="47.25426" lon="-2.32782">
        <ele>231</ele>
        <time>2019-11-03T11:33:41.000Z</time>
      </trkpt>
      <trkpt lat="47.25432" lon="-2.32767">
        <ele>231</ele>
        <time>2019-11-03T11:33:44.000Z</time>
      </trkpt>
      <trkpt lat="47.25435" lon="-2.32763">
        <ele>231</ele>
        <time>2019-11-03T11:33:45.000Z</time>
      </trkpt>
      <trkpt lat="47.2546" lon="-2.32732">
        <ele>231</ele>
        <time>2019-11-03T11:33:52.000Z</time>
      </trkpt>
      <trkpt lat="47.25463" lon="-2.32727">
        <ele>231</ele>
        <time>2019-11-03T11:33:53.000Z</time>
      </trkpt>
      <trkpt lat="47.25473" lon="-2.32712">
        <ele>231.39999389648</ele>
        <time>2019-11-03T11:33:56.000Z</time>
      </trkpt>
      <trkpt lat="47.25476" lon="-2.32707">
        <ele>231.80000305176</ele>
        <time>2019-11-03T11:33:57.000Z</time>
      </trkpt>
      <trkpt lat="47.2548" lon="-2.32702">
        <ele>232.19999694824</ele>
        <time>2019-11-03T11:33:58.000Z</time>
      </trkpt>
      <trkpt lat="47.25483" lon="-2.32697">
        <ele>232.60000610352</ele>
        <time>2019-11-03T11:33:59.000Z</time>
      </trkpt>
      <trkpt lat="47.25486" lon="-2.32691">
        <ele>233</ele>
        <time>2019-11-03T11:34:00.000Z</time>
      </trkpt>
      <trkpt lat="47.25487" lon="-2.32677">
        <ele>233</ele>
        <time>2019-11-03T11:34:02.000Z</time>
      </trkpt>
      <trkpt lat="47.25487" lon="-2.32661">
        <ele>233</ele>
        <time>2019-11-03T11:34:04.000Z</time>
      </trkpt>
      <trkpt lat="47.25486" lon="-2.32654">
        <ele>233</ele>
        <time>2019-11-03T11:34:05.000Z</time>
      </trkpt>
      <trkpt lat="47.25484" lon="-2.3264">
        <ele>233</ele>
        <time>2019-11-03T11:34:07.000Z</time>
      </trkpt>
      <trkpt lat="47.25477" lon="-2.32599">
        <ele>233</ele>
        <time>2019-11-03T11:34:13.000Z</time>
      </trkpt>
      <trkpt lat="47.25477" lon="-2.32591">
        <ele>233</ele>
        <time>2019-11-03T11:34:14.000Z</time>
      </trkpt>
      <trkpt lat="47.25476" lon="-2.32577">
        <ele>233</ele>
        <time>2019-11-03T11:34:16.000Z</time>
      </trkpt>
      <trkpt lat="47.25482" lon="-2.3256">
        <ele>233</ele>
        <time>2019-11-03T11:34:19.000Z</time>
      </trkpt>
      <trkpt lat="47.25495" lon="-2.32546">
        <ele>233</ele>
        <time>2019-11-03T11:34:22.000Z</time>
      </trkpt>
      <trkpt lat="47.25505" lon="-2.32537">
        <ele>233</ele>
        <time>2019-11-03T11:34:24.000Z</time>
      </trkpt>
      <trkpt lat="47.25535" lon="-2.32508">
        <ele>233</ele>
        <time>2019-11-03T11:34:30.000Z</time>
      </trkpt>
      <trkpt lat="47.25557" lon="-2.32487">
        <ele>232.60000610352</ele>
        <time>2019-11-03T11:34:34.000Z</time>
      </trkpt>
      <trkpt lat="47.25564" lon="-2.32482">
        <ele>232.19999694824</ele>
        <time>2019-11-03T11:34:35.000Z</time>
      </trkpt>
      <trkpt lat="47.2557" lon="-2.32476">
        <ele>231.80000305176</ele>
        <time>2019-11-03T11:34:36.000Z</time>
      </trkpt>
      <trkpt lat="47.25576" lon="-2.3247">
        <ele>231.39999389648</ele>
        <time>2019-11-03T11:34:37.000Z</time>
      </trkpt>
      <trkpt lat="47.25582" lon="-2.32465">
        <ele>231</ele>
        <time>2019-11-03T11:34:38.000Z</time>
      </trkpt>
      <trkpt lat="47.25612" lon="-2.32432">
        <ele>231</ele>
        <time>2019-11-03T11:34:43.000Z</time>
      </trkpt>
      <trkpt lat="47.25631" lon="-2.32414">
        <ele>230.60000610352</ele>
        <time>2019-11-03T11:34:46.000Z</time>
      </trkpt>
      <trkpt lat="47.25637" lon="-2.32408">
        <ele>230</ele>
        <time>2019-11-03T11:34:47.000Z</time>
      </trkpt>
      <trkpt lat="47.25643" lon="-2.32405">
        <ele>229.60000610352</ele>
        <time>2019-11-03T11:34:48.000Z</time>
      </trkpt>
      <trkpt lat="47.25649" lon="-2.32403">
        <ele>229.19999694824</ele>
        <time>2019-11-03T11:34:49.000Z</time>
      </trkpt>
      <trkpt lat="47.25655" lon="-2.32402">
        <ele>228.80000305176</ele>
        <time>2019-11-03T11:34:50.000Z</time>
      </trkpt>
      <trkpt lat="47.25665" lon="-2.32406">
        <ele>228.80000305176</ele>
        <time>2019-11-03T11:34:52.000Z</time>
      </trkpt>
      <trkpt lat="47.25674" lon="-2.32414">
        <ele>228.80000305176</ele>
        <time>2019-11-03T11:34:54.000Z</time>
      </trkpt>
      <trkpt lat="47.25679" lon="-2.32418">
        <ele>228.80000305176</ele>
        <time>2019-11-03T11:34:55.000Z</time>
      </trkpt>
      <trkpt lat="47.25684" lon="-2.32419">
        <ele>228.80000305176</ele>
        <time>2019-11-03T11:34:56.000Z</time>
      </trkpt>
      <trkpt lat="47.25714" lon="-2.32421">
        <ele>228.80000305176</ele>
        <time>2019-11-03T11:35:01.000Z</time>
      </trkpt>
      <trkpt lat="47.25735" lon="-2.32422">
        <ele>228.19999694824</ele>
        <time>2019-11-03T11:35:05.000Z</time>
      </trkpt>
      <trkpt lat="47.2574" lon="-2.32422">
        <ele>227.80000305176</ele>
        <time>2019-11-03T11:35:06.000Z</time>
      </trkpt>
      <trkpt lat="47.25746" lon="-2.32422">
        <ele>227.39999389648</ele>
        <time>2019-11-03T11:35:07.000Z</time>
      </trkpt>
      <trkpt lat="47.25751" lon="-2.32422">
        <ele>227</ele>
        <time>2019-11-03T11:35:08.000Z</time>
      </trkpt>
      <trkpt lat="47.25756" lon="-2.32421">
        <ele>226.60000610352</ele>
        <time>2019-11-03T11:35:09.000Z</time>
      </trkpt>
      <trkpt lat="47.25769" lon="-2.32417">
        <ele>226.60000610352</ele>
        <time>2019-11-03T11:35:12.000Z</time>
      </trkpt>
      <trkpt lat="47.25781" lon="-2.32414">
        <ele>226.60000610352</ele>
        <time>2019-11-03T11:35:15.000Z</time>
      </trkpt>
      <trkpt lat="47.25785" lon="-2.32417">
        <ele>226.60000610352</ele>
        <time>2019-11-03T11:35:16.000Z</time>
      </trkpt>
      <trkpt lat="47.25797" lon="-2.32439">
        <ele>226.60000610352</ele>
        <time>2019-11-03T11:35:20.000Z</time>
      </trkpt>
      <trkpt lat="47.25815" lon="-2.32457">
        <ele>226.60000610352</ele>
        <time>2019-11-03T11:35:24.000Z</time>
      </trkpt>
      <trkpt lat="47.2582" lon="-2.3246">
        <ele>226.60000610352</ele>
        <time>2019-11-03T11:35:25.000Z</time>
      </trkpt>
      <trkpt lat="47.25845" lon="-2.32472">
        <ele>226.60000610352</ele>
        <time>2019-11-03T11:35:31.000Z</time>
      </trkpt>
      <trkpt lat="47.2585" lon="-2.32473">
        <ele>226.60000610352</ele>
        <time>2019-11-03T11:35:32.000Z</time>
      </trkpt>
      <trkpt lat="47.2587" lon="-2.32471">
        <ele>226.60000610352</ele>
        <time>2019-11-03T11:35:36.000Z</time>
      </trkpt>
      <trkpt lat="47.25879" lon="-2.3247">
        <ele>226.60000610352</ele>
        <time>2019-11-03T11:35:38.000Z</time>
      </trkpt>
      <trkpt lat="47.25894" lon="-2.32464">
        <ele>226.60000610352</ele>
        <time>2019-11-03T11:35:41.000Z</time>
      </trkpt>
      <trkpt lat="47.25916" lon="-2.32439">
        <ele>226.60000610352</ele>
        <time>2019-11-03T11:35:46.000Z</time>
      </trkpt>
      <trkpt lat="47.25945" lon="-2.32401">
        <ele>226.60000610352</ele>
        <time>2019-11-03T11:35:53.000Z</time>
      </trkpt>
      <trkpt lat="47.25974" lon="-2.32364">
        <ele>226.60000610352</ele>
        <time>2019-11-03T11:36:00.000Z</time>
      </trkpt>
      <trkpt lat="47.26001" lon="-2.32329">
        <ele>226.60000610352</ele>
        <time>2019-11-03T11:36:07.000Z</time>
      </trkpt>
      <trkpt lat="47.26023" lon="-2.32301">
        <ele>226.60000610352</ele>
        <time>2019-11-03T11:36:13.000Z</time>
      </trkpt>
      <trkpt lat="47.26049" lon="-2.32272">
        <ele>226.60000610352</ele>
        <time>2019-11-03T11:36:20.000Z</time>
      </trkpt>
      <trkpt lat="47.26072" lon="-2.32244">
        <ele>226.60000610352</ele>
        <time>2019-11-03T11:36:27.000Z</time>
      </trkpt>
      <trkpt lat="47.26078" lon="-2.32235">
        <ele>226.60000610352</ele>
        <time>2019-11-03T11:36:29.000Z</time>
      </trkpt>
      <trkpt lat="47.26084" lon="-2.32226">
        <ele>226.60000610352</ele>
        <time>2019-11-03T11:36:31.000Z</time>
      </trkpt>
      <trkpt lat="47.26094" lon="-2.32212">
        <ele>226.60000610352</ele>
        <time>2019-11-03T11:36:34.000Z</time>
      </trkpt>
      <trkpt lat="47.26101" lon="-2.32195">
        <ele>226.60000610352</ele>
        <time>2019-11-03T11:36:37.000Z</time>
      </trkpt>
      <trkpt lat="47.26104" lon="-2.32189">
        <ele>226.60000610352</ele>
        <time>2019-11-03T11:36:38.000Z</time>
      </trkpt>
      <trkpt lat="47.26109" lon="-2.32177">
        <ele>226.60000610352</ele>
        <time>2019-11-03T11:36:40.000Z</time>
      </trkpt>
      <trkpt lat="47.26116" lon="-2.32159">
        <ele>226.19999694824</ele>
        <time>2019-11-03T11:36:43.000Z</time>
      </trkpt>
      <trkpt lat="47.26119" lon="-2.32153">
        <ele>225.60000610352</ele>
        <time>2019-11-03T11:36:44.000Z</time>
      </trkpt>
      <trkpt lat="47.2612" lon="-2.32147">
        <ele>225.19999694824</ele>
        <time>2019-11-03T11:36:45.000Z</time>
      </trkpt>
      <trkpt lat="47.26122" lon="-2.32141">
        <ele>224.80000305176</ele>
        <time>2019-11-03T11:36:46.000Z</time>
      </trkpt>
      <trkpt lat="47.26124" lon="-2.32135">
        <ele>224.39999389648</ele>
        <time>2019-11-03T11:36:47.000Z</time>
      </trkpt>
      <trkpt lat="47.26125" lon="-2.32128">
        <ele>224.39999389648</ele>
        <time>2019-11-03T11:36:48.000Z</time>
      </trkpt>
      <trkpt lat="47.26134" lon="-2.32097">
        <ele>224.39999389648</ele>
        <time>2019-11-03T11:36:53.000Z</time>
      </trkpt>
      <trkpt lat="47.26135" lon="-2.32091">
        <ele>224.39999389648</ele>
        <time>2019-11-03T11:36:54.000Z</time>
      </trkpt>
      <trkpt lat="47.26137" lon="-2.32084">
        <ele>224.39999389648</ele>
        <time>2019-11-03T11:36:55.000Z</time>
      </trkpt>
      <trkpt lat="47.26147" lon="-2.3206">
        <ele>224.39999389648</ele>
        <time>2019-11-03T11:36:59.000Z</time>
      </trkpt>
      <trkpt lat="47.2615" lon="-2.32046">
        <ele>224.39999389648</ele>
        <time>2019-11-03T11:37:01.000Z</time>
      </trkpt>
      <trkpt lat="47.26153" lon="-2.32031">
        <ele>224.39999389648</ele>
        <time>2019-11-03T11:37:03.000Z</time>
      </trkpt>
      <trkpt lat="47.26155" lon="-2.32017">
        <ele>224.39999389648</ele>
        <time>2019-11-03T11:37:05.000Z</time>
      </trkpt>
      <trkpt lat="47.26157" lon="-2.31996">
        <ele>224.39999389648</ele>
        <time>2019-11-03T11:37:08.000Z</time>
      </trkpt>
      <trkpt lat="47.26156" lon="-2.31976">
        <ele>224.39999389648</ele>
        <time>2019-11-03T11:37:11.000Z</time>
      </trkpt>
      <trkpt lat="47.26155" lon="-2.31963">
        <ele>224.39999389648</ele>
        <time>2019-11-03T11:37:13.000Z</time>
      </trkpt>
      <trkpt lat="47.26153" lon="-2.31948">
        <ele>224.39999389648</ele>
        <time>2019-11-03T11:37:15.000Z</time>
      </trkpt>
      <trkpt lat="47.26152" lon="-2.31933">
        <ele>224.39999389648</ele>
        <time>2019-11-03T11:37:17.000Z</time>
      </trkpt>
      <trkpt lat="47.26148" lon="-2.31895">
        <ele>224.39999389648</ele>
        <time>2019-11-03T11:37:22.000Z</time>
      </trkpt>
      <trkpt lat="47.26144" lon="-2.31856">
        <ele>224.39999389648</ele>
        <time>2019-11-03T11:37:28.000Z</time>
      </trkpt>
      <trkpt lat="47.26139" lon="-2.31814">
        <ele>224.39999389648</ele>
        <time>2019-11-03T11:37:34.000Z</time>
      </trkpt>
      <trkpt lat="47.26133" lon="-2.31754">
        <ele>224.39999389648</ele>
        <time>2019-11-03T11:37:43.000Z</time>
      </trkpt>
      <trkpt lat="47.26131" lon="-2.31733">
        <ele>224.39999389648</ele>
        <time>2019-11-03T11:37:46.000Z</time>
      </trkpt>
      <trkpt lat="47.26129" lon="-2.3172">
        <ele>224.39999389648</ele>
        <time>2019-11-03T11:37:48.000Z</time>
      </trkpt>
      <trkpt lat="47.26127" lon="-2.31713">
        <ele>224.39999389648</ele>
        <time>2019-11-03T11:37:49.000Z</time>
      </trkpt>
      <trkpt lat="47.26125" lon="-2.31701">
        <ele>224.39999389648</ele>
        <time>2019-11-03T11:37:51.000Z</time>
      </trkpt>
      <trkpt lat="47.26122" lon="-2.31674">
        <ele>224.39999389648</ele>
        <time>2019-11-03T11:37:55.000Z</time>
      </trkpt>
      <trkpt lat="47.26118" lon="-2.3164">
        <ele>224.80000305176</ele>
        <time>2019-11-03T11:38:00.000Z</time>
      </trkpt>
      <trkpt lat="47.26117" lon="-2.31633">
        <ele>225.19999694824</ele>
        <time>2019-11-03T11:38:01.000Z</time>
      </trkpt>
      <trkpt lat="47.26116" lon="-2.31627">
        <ele>225.60000610352</ele>
        <time>2019-11-03T11:38:02.000Z</time>
      </trkpt>
      <trkpt lat="47.26116" lon="-2.31621">
        <ele>226</ele>
        <time>2019-11-03T11:38:03.000Z</time>
      </trkpt>
      <trkpt lat="47.26117" lon="-2.31615">
        <ele>226.39999389648</ele>
        <time>2019-11-03T11:38:04.000Z</time>
      </trkpt>
      <trkpt lat="47.26125" lon="-2.31611">
        <ele>226.39999389648</ele>
        <time>2019-11-03T11:38:06.000Z</time>
      </trkpt>
      <trkpt lat="47.26141" lon="-2.31611">
        <ele>226.39999389648</ele>
        <time>2019-11-03T11:38:10.000Z</time>
      </trkpt>
      <trkpt lat="47.26145" lon="-2.3161">
        <ele>226.39999389648</ele>
        <time>2019-11-03T11:38:11.000Z</time>
      </trkpt>
      <trkpt lat="47.26164" lon="-2.31604">
        <ele>226.39999389648</ele>
        <time>2019-11-03T11:38:15.000Z</time>
      </trkpt>
      <trkpt lat="47.26182" lon="-2.31598">
        <ele>226.39999389648</ele>
        <time>2019-11-03T11:38:19.000Z</time>
      </trkpt>
      <trkpt lat="47.26195" lon="-2.31593">
        <ele>226.39999389648</ele>
        <time>2019-11-03T11:38:22.000Z</time>
      </trkpt>
      <trkpt lat="47.2621" lon="-2.3159">
        <ele>226.39999389648</ele>
        <time>2019-11-03T11:38:25.000Z</time>
      </trkpt>
      <trkpt lat="47.26224" lon="-2.31595">
        <ele>226.39999389648</ele>
        <time>2019-11-03T11:38:28.000Z</time>
      </trkpt>
      <trkpt lat="47.26228" lon="-2.31598">
        <ele>226.39999389648</ele>
        <time>2019-11-03T11:38:29.000Z</time>
      </trkpt>
      <trkpt lat="47.26236" lon="-2.31603">
        <ele>226.39999389648</ele>
        <time>2019-11-03T11:38:31.000Z</time>
      </trkpt>
      <trkpt lat="47.26243" lon="-2.31611">
        <ele>226.39999389648</ele>
        <time>2019-11-03T11:38:33.000Z</time>
      </trkpt>
      <trkpt lat="47.26256" lon="-2.31629">
        <ele>226.39999389648</ele>
        <time>2019-11-03T11:38:37.000Z</time>
      </trkpt>
      <trkpt lat="47.26261" lon="-2.31638">
        <ele>226.39999389648</ele>
        <time>2019-11-03T11:38:39.000Z</time>
      </trkpt>
      <trkpt lat="47.26267" lon="-2.31656">
        <ele>226.39999389648</ele>
        <time>2019-11-03T11:38:43.000Z</time>
      </trkpt>
      <trkpt lat="47.2627" lon="-2.3166">
        <ele>226.39999389648</ele>
        <time>2019-11-03T11:38:44.000Z</time>
      </trkpt>
      <trkpt lat="47.26279" lon="-2.31678">
        <ele>226.39999389648</ele>
        <time>2019-11-03T11:38:48.000Z</time>
      </trkpt>
      <trkpt lat="47.26297" lon="-2.31709">
        <ele>226.39999389648</ele>
        <time>2019-11-03T11:38:54.000Z</time>
      </trkpt>
      <trkpt lat="47.26308" lon="-2.31712">
        <ele>226.39999389648</ele>
        <time>2019-11-03T11:38:57.000Z</time>
      </trkpt>
      <trkpt lat="47.26322" lon="-2.31704">
        <ele>226.39999389648</ele>
        <time>2019-11-03T11:39:01.000Z</time>
      </trkpt>
      <trkpt lat="47.26331" lon="-2.31696">
        <ele>226.39999389648</ele>
        <time>2019-11-03T11:39:04.000Z</time>
      </trkpt>
      <trkpt lat="47.26332" lon="-2.31692">
        <ele>226.39999389648</ele>
        <time>2019-11-03T11:39:05.000Z</time>
      </trkpt>
      <trkpt lat="47.26339" lon="-2.31685">
        <ele>226.39999389648</ele>
        <time>2019-11-03T11:39:08.000Z</time>
      </trkpt>
      <trkpt lat="47.26352" lon="-2.31678">
        <ele>226.39999389648</ele>
        <time>2019-11-03T11:39:13.000Z</time>
      </trkpt>
      <trkpt lat="47.26355" lon="-2.31677">
        <ele>226.80000305176</ele>
        <time>2019-11-03T11:39:14.000Z</time>
      </trkpt>
      <trkpt lat="47.26359" lon="-2.31676">
        <ele>227.19999694824</ele>
        <time>2019-11-03T11:39:15.000Z</time>
      </trkpt>
      <trkpt lat="47.26362" lon="-2.31675">
        <ele>227.60000610352</ele>
        <time>2019-11-03T11:39:16.000Z</time>
      </trkpt>
      <trkpt lat="47.26366" lon="-2.31673">
        <ele>228</ele>
        <time>2019-11-03T11:39:17.000Z</time>
      </trkpt>
      <trkpt lat="47.26369" lon="-2.31672">
        <ele>228.39999389648</ele>
        <time>2019-11-03T11:39:18.000Z</time>
      </trkpt>
      <trkpt lat="47.26371" lon="-2.31671">
        <ele>228.39999389648</ele>
        <time>2019-11-03T11:39:19.000Z</time>
      </trkpt>
      <trkpt lat="47.26385" lon="-2.31662">
        <ele>228.39999389648</ele>
        <time>2019-11-03T11:39:24.000Z</time>
      </trkpt>
      <trkpt lat="47.26402" lon="-2.31655">
        <ele>228.39999389648</ele>
        <time>2019-11-03T11:39:30.000Z</time>
      </trkpt>
      <trkpt lat="47.26407" lon="-2.3165">
        <ele>228.39999389648</ele>
        <time>2019-11-03T11:39:32.000Z</time>
      </trkpt>
      <trkpt lat="47.26408" lon="-2.31642">
        <ele>228.39999389648</ele>
        <time>2019-11-03T11:39:34.000Z</time>
      </trkpt>
      <trkpt lat="47.26409" lon="-2.31615">
        <ele>228.39999389648</ele>
        <time>2019-11-03T11:39:40.000Z</time>
      </trkpt>
      <trkpt lat="47.26409" lon="-2.3159">
        <ele>228.39999389648</ele>
        <time>2019-11-03T11:39:46.000Z</time>
      </trkpt>
      <trkpt lat="47.2641" lon="-2.31572">
        <ele>228.39999389648</ele>
        <time>2019-11-03T11:39:50.000Z</time>
      </trkpt>
      <trkpt lat="47.2641" lon="-2.31567">
        <ele>228.80000305176</ele>
        <time>2019-11-03T11:39:51.000Z</time>
      </trkpt>
      <trkpt lat="47.2641" lon="-2.31563">
        <ele>229.19999694824</ele>
        <time>2019-11-03T11:39:52.000Z</time>
      </trkpt>
      <trkpt lat="47.2641" lon="-2.31559">
        <ele>229.60000610352</ele>
        <time>2019-11-03T11:39:53.000Z</time>
      </trkpt>
      <trkpt lat="47.26411" lon="-2.31555">
        <ele>230</ele>
        <time>2019-11-03T11:39:54.000Z</time>
      </trkpt>
      <trkpt lat="47.26413" lon="-2.31552">
        <ele>230.39999389648</ele>
        <time>2019-11-03T11:39:55.000Z</time>
      </trkpt>
      <trkpt lat="47.26415" lon="-2.31552">
        <ele>230.39999389648</ele>
        <time>2019-11-03T11:39:56.000Z</time>
      </trkpt>
      <trkpt lat="47.26418" lon="-2.31554">
        <ele>230.39999389648</ele>
        <time>2019-11-03T11:40:00.000Z</time>
      </trkpt>
      <trkpt lat="47.26418" lon="-2.31554">
        <ele>230.39999389648</ele>
        <time>2019-11-03T11:40:01.000Z</time>
      </trkpt>
    </trkseg>
  </trk>
</gpx>